GFSSGP_sfc_wetblb_000.txt.gz
Wetbulb
66.72 59.67 62.42 60.98 52.26 52.59 48.06 50.06 55.52 53.54 54.26 55.85 56.63 54.98 55.27 56.29 54.51 53.26 66.32 68.93 68.18 68.98 69.45 73.43 74.20 73.68 72.87 72.45 70.89 69.82 69.14 67.98 67.04 66.84 66.04 65.82 66.11 65.68 65.98 66.98 66.93 65.66 64.87 65.22 66.40 66.62 67.00 67.51 67.60
63.55 58.97 60.15 57.69 48.33 45.35 47.32 53.17 52.91 54.99 55.15 55.85 56.03 55.72 54.96 54.98 58.71 61.56 65.11 68.43 68.64 69.17 69.61 71.58 73.46 73.52 73.25 72.14 71.14 69.83 69.10 68.23 67.18 66.84 66.73 66.44 67.65 66.09 66.10 65.84 66.03 65.71 65.77 65.08 64.96 65.66 65.62 66.30 66.59
60.91 57.96 56.14 52.75 48.14 44.53 47.59 52.31 52.02 53.08 55.58 54.73 55.82 56.03 55.82 56.28 58.63 61.97 66.76 68.70 69.09 69.34 70.28 71.73 74.17 73.43 72.95 72.13 71.58 70.42 69.46 68.84 67.72 66.69 67.29 67.49 68.68 67.57 67.13 65.76 65.66 65.16 64.67 64.69 64.53 64.33 65.19 65.64 65.93
60.46 59.54 55.25 48.24 43.68 46.71 49.06 51.86 51.19 53.36 55.74 55.98 56.24 55.07 57.21 60.24 60.79 64.96 67.26 68.72 68.85 69.48 70.91 72.27 74.01 73.68 73.42 72.09 71.73 70.50 69.76 68.67 68.24 67.83 67.20 67.88 68.65 68.68 67.74 67.04 65.89 64.68 64.54 64.57 64.51 64.44 64.47 65.03 65.52
61.76 56.84 50.33 47.89 47.55 48.27 50.47 51.86 51.80 51.95 54.27 55.58 56.19 55.99 56.58 60.79 64.42 65.49 67.59 68.46 68.20 69.37 70.84 71.15 73.32 73.09 72.97 71.83 71.07 70.27 69.86 68.85 68.34 67.70 67.85 68.38 68.69 69.87 68.07 67.99 66.43 64.95 64.76 64.93 64.93 65.22 65.25 65.11 64.89
56.69 55.59 47.76 45.92 48.00 50.58 53.20 52.79 52.50 53.23 54.48 55.36 55.24 54.88 57.26 62.28 63.74 65.46 68.21 68.40 68.89 69.59 70.73 70.46 71.84 73.48 73.21 72.13 71.76 70.82 70.32 69.55 68.81 67.66 67.78 68.01 68.97 69.52 69.35 68.20 66.57 65.42 65.41 65.34 64.67 65.85 66.33 66.10 65.91
54.57 51.96 48.09 47.98 47.72 49.60 51.40 52.56 52.07 53.02 54.14 54.30 56.24 53.58 57.63 60.86 64.19 65.97 68.03 68.69 69.41 70.12 70.53 70.64 70.85 72.17 72.54 72.21 71.91 71.58 71.07 69.95 69.25 68.01 67.40 68.04 67.71 68.05 68.46 67.58 66.47 66.53 66.46 65.88 65.87 65.95 66.39 66.83 66.67
56.46 53.49 48.34 48.77 47.66 48.35 52.59 51.63 55.51 54.25 53.99 57.71 56.67 54.42 55.55 61.13 62.75 65.26 66.76 67.86 68.97 69.89 70.35 70.59 71.00 71.65 71.74 71.59 70.81 70.77 70.69 69.90 69.57 69.07 68.63 67.79 67.52 67.31 66.66 67.39 66.84 66.74 66.97 66.60 65.73 65.57 65.64 65.87 66.41
55.99 49.64 46.55 48.30 48.32 49.93 52.31 52.34 56.64 57.58 55.55 56.06 56.95 56.74 58.54 61.84 62.46 63.59 63.71 65.21 67.16 68.25 69.89 70.66 70.53 71.27 71.37 71.10 70.63 70.19 69.63 69.26 68.56 68.02 67.38 67.03 66.47 67.10 66.10 66.13 66.02 66.31 66.29 66.25 66.06 65.73 65.51 66.51 66.12
54.05 49.64 49.03 52.64 53.28 51.98 52.99 54.06 55.43 55.03 55.10 55.24 55.52 57.76 58.67 58.85 60.40 60.86 61.81 62.80 64.31 66.09 68.11 69.82 70.47 70.82 71.13 70.40 70.83 70.38 69.71 69.55 68.91 68.16 67.49 66.80 66.28 66.80 66.13 64.93 65.13 66.00 66.43 66.42 66.25 66.00 65.67 65.69 65.34
54.40 49.71 53.05 53.24 54.11 53.77 53.67 54.45 56.16 54.68 53.46 55.22 54.70 56.43 57.98 58.25 58.55 58.98 59.88 62.38 63.76 64.83 66.74 68.47 69.99 70.69 70.75 70.56 70.65 70.31 69.98 69.54 69.14 68.34 67.77 67.02 66.23 66.42 66.47 66.08 65.73 66.21 64.57 65.77 66.05 65.88 65.49 64.95 64.92
50.76 53.81 54.05 54.52 55.00 54.39 53.69 55.81 54.69 56.07 56.22 58.93 58.97 59.22 57.16 57.13 57.44 58.11 58.83 61.30 63.25 63.65 64.53 66.67 68.73 69.86 70.40 70.62 70.26 70.00 69.37 69.17 68.68 68.49 67.69 67.51 66.93 66.43 66.07 65.80 66.16 66.01 66.10 65.90 66.21 65.83 65.77 65.51 65.32
51.95 53.35 54.59 55.40 55.16 54.86 55.72 54.22 54.97 55.34 58.32 59.73 59.36 57.31 56.55 56.40 56.85 58.17 61.54 62.48 63.33 63.28 64.34 65.06 66.57 68.36 69.45 69.86 70.01 69.80 69.21 68.71 68.54 68.59 68.16 68.02 67.25 66.50 66.57 66.41 66.51 66.64 66.63 66.39 66.11 66.08 65.86 65.67 65.66
54.45 53.98 54.07 55.11 54.94 55.35 53.30 54.45 53.58 55.98 58.72 57.23 56.45 56.18 55.76 55.23 56.12 58.94 60.16 61.57 62.39 62.06 61.80 63.18 64.66 66.28 68.18 68.86 69.31 69.10 69.20 68.87 68.70 68.44 68.17 67.43 67.27 66.92 66.67 66.60 66.72 66.73 66.81 66.74 66.29 65.90 65.50 65.36 65.58
55.18 51.22 53.28 54.08 54.57 53.92 55.03 51.19 52.14 56.37 54.09 53.05 54.06 53.90 54.54 54.92 56.27 56.73 57.76 58.56 59.00 60.22 60.24 60.82 61.46 63.79 66.45 67.76 68.52 68.74 69.04 68.04 68.28 68.37 67.68 67.04 66.90 66.70 66.57 66.30 66.26 66.72 66.70 66.24 66.14 65.72 65.60 65.10 65.10
51.99 51.87 46.99 52.68 54.07 54.50 52.36 47.03 53.60 53.18 52.90 52.00 52.35 53.83 54.37 54.29 54.80 55.98 56.58 57.61 58.32 59.30 60.27 61.12 61.11 62.28 64.87 66.44 67.37 67.84 68.36 68.24 67.90 67.63 67.47 66.25 65.97 65.90 66.00 65.89 65.95 66.13 65.82 65.29 64.64 64.07 63.42 63.42 63.20
50.17 45.06 46.23 48.30 53.73 52.74 50.88 48.52 51.87 52.79 52.65 52.66 53.11 53.46 53.67 54.35 55.00 55.62 55.93 56.50 57.34 58.76 60.60 60.83 61.80 63.26 64.26 65.18 65.68 65.47 65.23 65.91 65.96 66.50 66.40 65.81 65.40 65.18 65.33 64.46 63.37 62.99 62.97 62.80 62.40 62.17 61.82 60.64 60.99
43.36 44.86 47.02 46.66 50.45 49.31 48.35 48.92 51.73 53.34 51.57 52.24 52.32 52.97 53.46 53.50 53.09 54.57 55.33 56.87 57.30 59.44 61.37 62.08 63.18 63.83 64.39 65.02 65.50 65.76 65.50 64.59 63.22 61.58 60.83 60.60 58.93 59.25 59.64 58.50 57.50 58.28 58.07 57.43 57.18 57.13 57.82 57.90 58.61
47.88 47.25 46.07 48.50 50.07 47.77 48.80 49.65 50.14 53.63 52.21 51.79 51.65 52.59 52.89 52.86 53.30 54.23 55.03 56.67 57.37 58.59 59.91 61.66 63.06 64.04 64.75 64.89 63.50 61.65 58.82 58.17 57.49 57.14 56.62 55.88 55.53 55.40 55.41 55.28 55.01 55.05 54.81 54.48 54.53 54.50 53.83 54.07 55.29
48.28 45.59 45.02 49.01 48.55 47.59 48.91 48.78 52.04 53.09 51.18 51.83 51.49 52.15 52.43 52.22 52.85 53.28 54.43 55.33 55.93 56.60 57.47 58.79 60.37 62.09 63.47 63.69 61.27 59.28 57.85 56.87 56.39 55.90 54.93 54.69 53.68 53.28 53.04 53.00 52.90 53.04 52.84 52.78 52.64 52.67 51.58 52.04 52.88
46.87 44.68 45.30 45.72 47.10 48.14 46.32 47.03 49.09 47.71 48.04 48.09 51.21 52.95 52.82 52.37 51.87 52.75 53.43 54.19 55.25 55.21 55.75 56.12 57.38 57.87 58.20 58.46 58.11 57.88 57.62 56.78 55.18 53.91 53.20 52.35 52.05 50.70 50.77 50.73 50.66 50.51 50.86 49.94 50.22 49.91 49.31 47.89 49.92
43.48 49.24 47.91 45.95 44.32 42.03 46.50 40.84 47.08 49.22 46.76 47.57 50.10 51.04 51.52 51.90 52.46 52.66 53.16 53.69 54.32 54.75 56.13 56.14 56.37 56.45 57.03 57.73 56.72 55.54 53.98 51.99 52.03 51.84 51.66 50.97 49.93 47.89 47.38 47.74 47.84 47.82 48.18 47.70 47.73 47.69 47.91 48.00 46.05
45.74 49.47 47.99 46.33 44.19 43.92 44.57 41.27 45.91 45.14 44.54 46.01 49.31 50.65 51.44 52.26 52.24 51.87 52.42 52.62 53.55 54.65 54.81 55.03 54.72 54.34 54.56 54.65 54.43 53.37 51.83 51.39 50.82 50.09 48.93 48.31 47.91 46.40 44.86 45.14 45.62 45.32 45.66 45.71 45.72 45.63 46.39 46.88 45.32
48.96 46.82 45.60 44.47 43.64 38.67 43.89 42.22 44.13 45.47 45.91 46.97 49.26 50.45 51.08 51.61 51.89 52.11 52.31 52.84 52.84 53.99 54.10 53.88 52.81 52.03 52.61 52.28 51.77 51.04 49.74 48.39 47.81 46.50 45.56 45.13 44.85 44.55 43.70 43.66 44.13 44.24 43.93 43.52 43.83 44.42 45.59 45.47 44.20
47.87 44.34 36.55 35.61 35.57 37.22 40.54 39.56 44.84 47.44 46.45 48.34 48.70 50.19 51.21 51.87 51.37 51.19 51.26 51.85 52.42 52.75 52.73 52.27 51.30 49.67 50.19 49.67 48.76 48.02 47.09 46.18 44.68 43.75 42.97 42.27 42.25 42.42 41.88 42.43 42.26 42.25 42.25 42.01 42.52 42.65 44.08 43.87 42.35
43.35 45.36 39.42 32.38 34.66 37.70 38.75 38.19 44.07 47.16 47.93 48.84 51.03 51.59 51.75 51.52 51.86 51.61 51.99 52.29 52.19 51.84 51.53 50.93 49.73 48.41 47.79 46.86 45.75 45.25 44.89 43.78 42.60 41.88 41.53 41.04 40.73 40.99 41.18 41.03 41.14 41.06 40.92 40.89 41.15 41.42 41.98 42.09 41.58
41.78 40.04 46.09 39.02 38.82 38.13 41.24 43.89 47.80 47.01 46.71 47.26 48.78 50.45 50.49 51.12 51.11 51.25 51.71 52.17 51.70 50.82 50.01 49.44 48.41 47.16 45.92 44.79 43.95 42.48 41.97 41.28 40.65 40.43 40.56 40.22 40.14 39.46 39.93 40.17 39.83 40.15 40.01 39.85 39.83 39.89 39.81 39.98 40.28
45.61 48.23 38.71 40.50 33.50 32.42 38.40 39.73 43.27 45.36 45.71 45.96 47.25 48.81 50.49 50.98 50.66 50.83 51.10 51.30 50.79 49.36 48.31 47.94 47.38 45.49 44.28 43.15 41.94 40.88 40.00 39.67 39.45 39.46 38.78 38.77 39.00 39.08 38.98 38.85 38.77 38.82 38.88 38.84 38.75 38.75 38.81 38.38 38.95
43.76 41.88 43.24 43.33 40.26 36.98 36.02 39.79 46.74 46.18 46.62 46.83 47.68 49.76 50.67 50.10 50.36 50.28 50.75 50.70 48.83 47.61 46.93 45.85 45.20 44.00 42.30 41.07 40.05 39.60 38.71 38.12 38.13 38.00 37.77 37.74 38.15 37.96 37.73 37.60 37.49 37.46 37.44 37.78 37.48 37.43 37.34 37.08 37.73
46.67 44.01 44.35 39.69 35.36 38.75 38.72 40.82 46.87 46.81 46.59 46.56 48.29 49.50 50.75 51.00 50.69 50.35 50.32 48.73 46.55 45.86 45.09 44.48 43.82 42.78 41.01 39.36 38.71 37.78 37.42 37.66 37.35 37.07 37.07 37.26 36.97 37.37 36.94 36.75 36.56 36.62 36.64 36.71 36.19 35.91 36.45 36.39 36.29

GFSSGP_sfc_wetblb_003.txt.gz
Wetbulb
68.50 64.35 61.42 60.64 51.72 51.12 48.54 50.55 56.19 55.31 55.95 57.09 57.48 56.29 56.38 57.22 55.64 53.36 67.14 68.95 68.34 68.57 70.99 72.31 74.03 73.19 72.57 72.20 70.92 69.63 68.56 67.68 66.71 65.79 65.38 65.14 65.83 65.95 66.87 66.31 66.32 65.86 65.28 65.59 65.78 66.28 66.27 66.92 67.25
65.85 62.60 60.60 55.73 47.17 45.62 46.81 52.86 52.86 56.45 56.75 57.63 57.58 57.24 56.54 55.83 59.94 63.32 66.31 68.54 68.50 68.68 70.95 72.36 74.14 73.08 72.76 71.79 70.49 69.27 68.80 67.80 66.31 65.74 66.08 66.53 66.62 66.42 66.71 65.23 65.68 65.31 65.33 65.29 65.18 64.86 65.02 65.26 66.39
65.10 61.84 55.80 53.02 47.25 43.21 47.51 52.62 54.47 54.65 57.53 57.06 56.93 58.16 57.50 57.31 60.68 63.32 67.47 68.75 68.73 68.62 70.07 72.88 74.12 73.00 72.84 71.55 70.65 69.60 68.73 67.87 66.71 65.85 66.05 67.60 67.72 67.91 66.96 66.12 65.91 65.30 64.67 64.67 64.53 64.08 64.42 65.41 65.63
61.86 59.98 56.86 49.47 47.59 47.98 48.84 52.05 53.02 53.46 57.16 57.79 57.64 56.17 58.90 62.03 62.53 66.09 68.06 68.60 68.64 69.03 70.48 72.88 73.92 73.00 72.40 71.58 71.08 69.85 68.94 68.01 67.49 66.66 66.84 67.14 68.41 68.97 68.33 67.73 66.64 65.26 64.74 64.92 64.86 64.75 64.84 64.66 64.72
62.43 57.45 50.24 49.12 49.51 51.32 50.70 52.09 53.07 52.17 54.68 55.51 57.19 56.52 58.12 61.93 65.15 66.05 67.78 68.03 68.06 69.13 70.96 71.58 73.71 72.65 72.20 71.31 70.94 70.16 69.52 68.06 67.26 66.80 66.84 67.60 68.82 69.26 69.20 68.28 67.33 65.94 64.91 64.95 64.97 65.30 65.95 65.89 65.53
56.10 56.28 48.34 46.31 49.70 52.44 54.17 54.32 53.17 53.64 55.24 55.97 55.57 55.22 58.07 63.11 64.51 66.13 67.98 67.71 68.43 69.24 70.61 71.16 72.57 73.15 72.90 71.96 71.41 70.57 70.04 69.35 68.10 66.90 66.68 67.21 68.42 69.29 68.90 68.67 67.51 66.32 65.85 65.91 65.46 65.56 65.76 66.76 66.81
54.31 52.46 48.88 48.88 49.20 50.96 53.28 54.17 52.06 53.60 54.39 55.43 57.31 54.35 59.22 61.32 63.61 66.14 67.98 68.23 68.70 69.99 70.35 70.39 70.60 70.80 72.61 72.42 72.30 71.57 70.82 70.25 68.68 67.49 66.41 66.98 67.21 67.47 68.05 67.73 66.72 66.66 66.75 66.84 66.02 65.57 65.78 65.69 66.18
57.49 54.03 49.25 50.04 48.48 49.09 54.46 53.55 54.22 54.66 54.11 58.71 58.17 54.83 56.46 60.44 63.01 65.12 67.21 67.75 68.58 69.68 70.13 70.29 70.57 70.90 70.50 70.12 71.00 70.88 70.64 70.21 68.65 68.31 68.45 67.88 67.35 67.21 66.73 67.36 67.21 66.49 66.56 66.35 66.28 66.07 65.77 65.92 66.09
59.40 50.16 46.91 48.74 49.68 50.97 54.74 53.30 56.71 58.37 56.26 56.93 57.87 57.80 59.19 60.36 61.59 63.37 64.20 65.68 67.32 68.47 69.66 70.42 70.15 70.82 70.68 70.47 70.53 70.12 69.90 69.59 69.01 68.15 67.44 67.36 65.64 66.77 66.52 66.26 66.55 66.23 66.40 66.36 66.46 66.44 66.29 66.50 66.22
54.40 49.30 49.22 53.27 53.80 52.89 54.25 54.19 55.88 55.56 55.38 55.92 57.35 59.04 59.70 59.79 59.83 59.63 60.72 62.36 64.85 66.50 68.15 69.81 70.17 70.35 70.47 69.72 70.08 69.62 69.59 69.07 68.74 67.98 67.56 67.08 65.93 66.21 66.19 64.69 65.91 66.63 66.80 66.97 66.59 66.58 66.59 66.13 64.98
54.97 49.47 53.39 54.11 55.04 55.36 54.01 54.24 56.60 55.18 53.66 56.26 55.93 57.49 59.18 59.68 59.05 58.90 59.72 60.43 63.55 65.63 67.42 68.60 69.95 70.45 70.40 69.99 69.84 69.46 68.98 68.53 68.13 67.70 67.47 67.20 66.52 66.52 66.72 66.59 66.49 66.59 65.17 66.20 66.68 66.42 65.89 65.50 65.32
51.63 54.20 54.28 54.99 55.82 54.80 53.61 55.67 54.63 55.85 56.44 59.08 59.51 60.07 60.03 58.92 57.87 58.69 58.82 60.16 62.95 64.62 65.62 67.46 68.89 69.90 70.29 70.24 69.54 69.29 68.51 68.31 67.87 67.71 67.50 67.20 66.79 66.77 66.65 66.60 66.96 66.95 66.81 66.41 66.84 66.51 66.53 66.33 66.14
51.69 53.62 54.90 55.71 55.54 55.51 55.98 53.98 54.30 55.33 58.59 59.98 59.77 59.61 59.27 58.70 58.48 58.53 59.88 62.56 63.58 64.19 65.14 65.99 67.64 68.70 69.50 69.74 69.63 69.23 68.65 68.03 67.94 68.24 68.36 68.14 67.48 67.02 67.39 67.22 67.36 67.42 67.38 66.87 66.57 66.58 66.44 66.22 66.14
54.33 54.51 54.33 55.23 55.09 55.43 53.84 54.26 55.11 56.32 59.08 58.32 57.47 56.01 57.34 58.06 57.80 58.51 60.60 61.57 63.23 64.08 64.12 65.41 66.06 67.17 68.60 68.80 69.09 68.88 68.79 68.60 68.42 68.45 68.34 67.88 67.63 67.26 67.17 67.13 67.01 67.06 66.90 66.81 65.62 65.38 64.65 64.99 65.36
54.52 50.56 53.32 53.38 54.60 53.82 55.72 51.68 52.43 56.94 58.00 53.81 53.72 54.83 55.68 56.97 57.94 58.16 59.32 60.00 60.70 61.49 61.62 61.62 62.94 64.94 66.89 68.17 68.69 68.59 68.61 68.11 68.19 68.06 67.87 67.43 67.28 67.16 67.00 66.73 66.14 65.47 65.23 65.00 65.03 64.40 63.94 63.43 63.40
50.02 50.45 45.42 51.64 53.93 54.58 54.06 47.32 53.74 56.31 53.61 53.05 53.78 55.03 55.98 55.96 56.47 57.74 58.30 59.24 59.79 60.53 61.57 62.26 61.80 62.86 65.62 67.45 68.14 68.01 67.71 67.52 67.03 66.90 67.12 66.72 66.56 66.51 66.35 64.79 63.37 63.15 63.09 62.44 61.33 60.56 60.11 60.16 60.28
47.90 43.81 44.93 48.36 54.09 53.25 52.73 48.69 53.50 55.65 53.31 53.12 54.05 54.96 55.37 55.66 56.31 56.93 57.38 58.37 59.12 60.85 61.84 62.45 64.13 64.23 65.50 67.07 67.21 66.50 66.21 66.21 66.44 66.23 65.36 63.38 62.21 62.50 61.42 59.10 58.07 58.18 58.61 57.85 57.36 56.75 56.72 56.24 56.71
42.94 43.69 46.10 46.45 50.87 52.39 50.55 49.80 52.98 54.16 53.97 53.31 53.88 54.68 55.01 54.97 54.82 56.39 57.64 59.06 60.67 62.42 63.04 63.85 64.33 64.89 65.42 65.76 65.92 65.95 63.48 60.83 59.54 58.34 57.84 57.64 56.94 56.85 56.95 56.35 55.83 55.87 56.21 55.85 55.50 54.52 55.52 55.01 55.19
47.25 46.49 46.02 48.77 51.86 51.16 49.52 49.35 51.22 53.76 54.08 53.72 53.39 54.23 54.50 54.09 55.35 56.34 57.84 59.00 60.01 61.66 62.83 63.94 64.04 65.00 65.60 65.33 62.96 60.48 58.23 58.05 57.20 56.68 56.19 55.35 54.64 54.38 54.20 54.41 54.14 54.16 53.62 53.25 52.65 52.33 51.61 51.72 52.96
46.51 45.40 46.43 48.53 50.45 49.42 48.91 48.55 52.02 53.52 54.19 54.81 53.27 53.67 54.03 53.27 54.18 55.10 56.43 57.64 58.01 59.09 60.66 61.52 62.94 64.11 63.05 61.43 60.68 59.52 57.93 56.84 56.09 55.55 54.12 53.61 52.22 51.80 51.69 51.14 51.13 50.93 51.07 50.62 50.07 49.60 48.41 49.31 50.05
46.17 45.25 45.62 45.33 49.34 49.46 48.40 46.98 49.64 53.18 53.28 52.52 53.46 54.64 54.42 53.41 53.04 54.19 55.34 56.18 57.00 56.92 58.06 58.35 58.71 59.16 59.46 59.55 59.14 58.12 57.63 56.77 54.19 53.37 52.80 51.58 50.44 48.52 48.43 48.59 48.25 48.36 49.33 48.32 48.28 47.82 47.62 46.23 48.25
42.56 48.02 47.93 46.53 45.85 41.40 49.22 40.46 47.95 50.25 48.20 49.23 51.40 53.30 53.19 53.24 53.90 54.27 54.52 55.05 55.74 56.35 57.94 57.62 57.72 57.81 58.18 58.45 57.03 55.42 53.49 51.14 51.99 52.03 51.49 50.82 49.26 46.92 46.13 46.40 46.70 46.52 47.03 46.50 46.94 46.35 47.05 46.93 44.70
44.91 49.36 48.18 47.36 46.31 45.07 44.54 42.63 46.56 50.38 47.50 48.30 50.53 52.42 52.88 53.22 53.47 53.41 53.96 54.54 55.42 56.27 56.40 56.03 55.51 55.24 55.51 55.35 54.95 53.72 52.17 51.72 51.26 50.63 49.31 48.28 47.73 46.44 45.05 45.13 45.42 44.99 45.28 45.06 44.96 45.32 45.43 46.40 44.39
49.04 47.56 47.00 47.32 45.45 37.99 44.04 43.65 44.35 46.70 48.07 49.33 50.53 51.78 52.22 52.59 53.18 53.49 53.96 54.39 54.38 55.51 55.13 55.23 53.78 53.36 53.84 53.66 53.06 52.06 50.84 49.97 48.84 47.57 46.64 46.20 45.85 45.19 44.01 43.96 44.04 44.07 43.50 43.16 43.61 44.31 44.86 44.95 44.21
47.12 43.14 37.42 35.30 36.61 36.76 45.55 43.56 45.80 47.74 48.88 50.19 49.99 51.06 52.10 52.70 52.66 52.28 52.28 52.70 53.41 53.75 53.79 53.28 52.53 51.38 51.76 51.13 50.50 49.79 48.86 47.97 46.14 45.49 44.43 43.53 43.25 42.90 42.26 42.54 42.09 42.12 42.67 42.51 42.69 42.67 43.16 42.95 42.43
43.63 43.92 38.80 31.68 33.68 38.04 42.93 39.12 45.00 49.50 50.82 51.56 52.05 52.21 52.47 52.30 52.81 52.18 52.82 53.31 53.54 53.35 52.84 52.23 51.07 49.69 49.44 48.80 47.77 47.38 46.88 45.67 44.41 43.39 42.73 42.01 41.55 41.47 41.63 41.34 41.26 41.15 41.17 40.93 41.15 41.40 41.89 41.74 41.23
41.11 41.91 46.56 41.80 42.62 40.14 41.32 45.20 47.85 49.59 48.75 49.44 50.86 51.60 51.45 52.14 52.54 52.48 53.15 53.63 53.33 52.75 52.26 51.41 49.88 48.49 47.72 46.91 46.11 44.80 44.10 43.23 42.25 41.87 41.63 41.04 40.94 40.21 40.28 40.55 40.02 40.10 40.13 39.92 39.73 39.50 39.55 40.01 39.89
45.64 48.94 40.46 43.04 34.51 33.90 39.81 41.74 43.06 46.18 47.34 48.46 49.23 50.62 51.58 52.50 52.49 52.60 52.98 53.29 53.07 51.98 50.91 50.45 49.70 47.81 46.56 45.39 44.34 43.09 41.86 41.18 40.80 40.64 39.58 39.49 39.57 39.47 39.29 39.19 38.99 38.87 38.95 38.88 38.84 38.69 39.21 38.49 38.70
42.43 42.87 45.09 45.31 42.96 37.71 36.57 40.36 48.76 47.28 48.25 48.50 49.45 51.34 51.86 52.20 52.02 52.21 52.73 53.06 51.93 50.58 49.55 48.42 47.35 45.83 44.51 43.69 42.72 41.66 40.24 39.68 39.60 38.99 38.70 38.48 38.52 38.39 38.03 37.94 37.67 37.61 37.59 37.85 37.52 37.51 37.67 37.09 37.30
47.11 44.63 46.00 41.13 37.84 41.28 40.26 40.45 49.33 49.03 49.37 49.53 50.11 51.18 52.63 52.86 52.33 52.32 52.54 51.89 49.88 48.89 48.16 46.99 46.53 45.13 43.63 42.06 40.96 39.72 39.31 39.00 38.56 37.94 37.73 37.82 37.39 37.74 37.37 37.28 37.03 36.98 36.96 36.97 36.23 35.89 36.36 35.69 35.51

GFSSGP_sfc_wetblb_006.txt.gz
Wetbulb
67.89 64.73 61.04 57.69 48.42 47.00 44.33 46.28 52.90 52.92 52.85 53.80 54.88 52.93 51.90 53.57 52.65 49.79 62.66 65.15 66.53 67.95 70.35 71.90 74.28 73.79 73.18 72.37 70.93 69.43 68.50 67.49 67.21 65.85 65.79 65.47 65.99 65.73 66.75 67.00 66.47 65.52 65.56 65.85 65.96 65.53 66.05 66.31 67.50
65.98 64.35 59.20 54.20 43.92 40.75 42.44 48.83 51.10 52.66 53.22 54.93 55.21 54.07 52.67 51.88 59.32 61.08 62.71 65.45 66.89 68.60 69.74 70.62 74.24 73.43 72.89 72.36 70.85 69.66 68.84 67.62 66.78 65.76 67.35 66.57 66.35 66.37 66.38 66.03 65.77 65.84 65.21 65.09 65.09 64.77 64.96 65.53 65.99
66.15 62.63 52.96 50.01 45.67 39.74 42.35 49.66 50.19 51.54 53.50 54.32 53.50 55.56 53.48 53.85 60.19 61.31 64.99 65.91 66.34 66.05 69.77 72.09 74.00 73.82 72.85 71.64 70.40 69.52 68.95 68.04 66.79 65.74 65.78 67.11 67.47 68.31 66.72 66.39 65.93 65.84 64.89 64.50 64.47 64.33 64.14 64.42 64.98
60.73 57.35 54.07 45.71 44.41 48.31 45.28 48.50 50.19 50.24 53.24 55.29 54.61 52.60 56.43 59.53 59.90 62.58 65.69 66.03 65.35 65.57 70.50 72.67 73.79 73.89 73.05 71.82 71.01 69.96 69.14 68.43 67.57 66.42 66.51 66.81 68.42 68.79 68.87 67.38 67.46 66.14 65.13 64.78 64.63 64.71 65.03 65.29 65.11
59.62 55.11 46.46 44.82 46.63 49.75 49.63 49.08 50.67 49.03 50.94 52.82 53.61 52.28 54.02 58.84 62.22 64.08 64.81 65.70 65.24 66.25 70.71 72.04 73.65 73.43 72.91 72.34 71.25 70.34 69.66 68.32 67.53 66.72 66.53 67.04 68.87 69.17 69.00 68.11 67.24 66.36 65.60 65.03 65.05 64.46 65.25 66.12 66.60
53.48 53.67 44.50 42.61 45.89 50.60 50.94 52.58 50.23 49.63 51.42 52.75 51.73 51.39 53.28 59.41 61.49 63.19 65.15 63.42 66.23 66.80 69.01 71.27 72.38 72.54 72.85 72.12 71.51 70.82 70.28 69.39 68.72 67.09 66.17 66.56 67.69 68.87 68.97 68.65 67.75 66.84 66.03 66.32 65.66 65.51 65.51 65.98 66.67
52.10 49.11 45.49 45.79 46.28 48.41 51.69 52.71 47.63 48.99 50.56 51.68 53.64 49.98 54.87 57.20 61.04 63.90 63.82 64.41 64.58 67.35 67.69 68.22 69.93 71.04 72.28 72.14 72.12 71.46 71.17 70.59 69.56 68.37 66.91 67.49 66.93 67.05 67.93 68.38 67.41 66.90 66.46 66.62 66.93 66.53 66.09 65.68 66.03
54.92 51.52 46.11 46.65 46.19 47.14 52.27 53.19 52.61 50.01 50.38 56.07 55.32 49.57 50.57 55.34 60.45 62.67 63.31 63.66 63.83 66.30 67.13 66.88 67.95 68.54 69.01 68.42 70.76 70.63 70.38 70.14 69.35 68.76 68.26 67.63 67.08 67.08 67.90 67.78 67.92 66.89 66.64 66.37 65.98 66.23 66.53 66.49 66.17
58.16 47.73 44.55 46.42 47.45 49.36 52.90 50.98 54.42 55.82 53.02 54.09 55.10 54.17 55.64 57.39 60.19 60.32 60.43 62.73 63.09 65.96 66.09 66.57 66.84 68.06 67.93 67.75 69.09 69.76 69.48 69.18 68.57 67.56 66.81 66.13 63.41 63.17 64.92 65.39 66.11 66.19 66.13 66.37 66.52 66.67 66.82 67.25 66.67
52.57 46.98 47.04 51.29 51.41 50.32 52.83 51.94 52.42 52.68 53.03 52.42 53.83 56.49 57.07 56.86 55.50 54.25 56.65 58.81 61.84 63.50 65.06 66.25 66.41 66.99 66.96 68.22 67.61 66.98 67.08 66.43 66.06 65.62 64.74 64.14 62.09 62.17 63.93 63.15 65.04 66.43 67.12 67.23 66.90 67.38 67.69 66.72 64.01
52.92 47.76 51.67 51.98 53.07 53.63 52.40 52.09 53.60 51.52 50.46 53.35 52.52 54.64 56.48 55.46 55.00 54.91 55.29 56.56 59.59 62.81 64.34 65.91 66.39 66.77 66.77 66.26 66.25 65.80 65.91 64.91 64.42 63.89 63.46 63.02 62.65 61.78 61.87 62.46 62.81 62.51 63.92 63.43 64.71 65.11 65.09 63.48 62.93
49.84 52.96 53.01 53.37 54.36 53.83 51.38 53.29 52.01 52.10 52.44 56.35 56.32 56.93 56.71 56.07 55.32 54.83 54.79 53.77 57.28 61.14 63.24 65.25 66.04 66.43 66.49 66.62 65.74 65.11 64.44 64.22 63.26 63.60 63.58 62.44 62.20 62.10 62.10 62.33 62.92 62.92 63.04 62.66 63.24 63.20 64.00 64.08 63.97
50.36 52.30 53.59 54.22 54.04 53.73 54.29 51.75 51.80 52.14 54.91 56.73 57.16 57.36 55.99 55.75 55.71 55.49 53.87 58.41 57.45 60.27 61.53 62.89 64.63 65.70 66.38 66.12 65.95 65.16 64.21 63.95 63.87 64.30 64.51 63.97 63.39 63.46 63.67 63.63 63.69 64.75 64.66 64.33 63.65 63.64 63.73 63.53 63.46
52.63 52.83 53.17 53.86 53.26 53.48 52.01 51.60 52.21 53.21 55.22 55.21 56.46 54.75 52.29 53.57 54.71 53.04 54.95 56.09 57.96 60.15 61.40 62.50 63.18 64.44 65.90 65.77 65.33 64.95 64.45 64.58 64.44 65.03 64.88 64.79 63.79 63.30 63.39 64.15 64.17 64.01 63.96 63.84 63.37 62.59 61.47 60.80 60.53
52.41 48.56 51.62 52.12 52.77 52.15 53.16 49.03 49.67 54.22 54.98 54.19 53.56 50.20 51.07 53.20 54.42 52.45 55.30 55.97 56.41 57.02 57.78 58.52 59.78 62.87 64.12 65.04 65.43 64.77 64.40 64.78 65.11 65.30 64.19 64.48 64.75 63.42 64.45 63.44 62.50 62.07 60.25 58.96 57.26 56.40 56.16 55.72 56.86
47.85 48.50 43.01 50.34 52.45 52.74 50.95 43.95 51.45 54.81 53.51 52.03 49.84 48.34 52.09 53.42 53.30 53.98 54.73 54.63 54.85 56.51 57.86 58.54 59.46 58.77 62.72 64.51 64.71 64.97 65.14 64.20 63.22 63.24 64.43 62.58 62.43 61.92 59.17 55.85 53.17 53.74 53.88 52.91 51.96 51.56 51.46 50.98 50.96
45.66 40.36 42.87 45.80 52.43 51.23 49.45 45.50 51.50 54.42 51.24 49.24 48.41 49.50 51.87 52.10 52.57 53.08 53.59 53.66 54.77 56.96 58.15 59.01 59.35 59.69 62.68 64.11 63.58 63.51 62.32 61.76 59.38 57.40 54.74 54.18 54.28 54.28 53.25 52.00 51.02 51.05 51.73 51.05 50.55 49.53 49.53 48.88 49.57
38.09 40.95 42.79 43.50 48.59 50.61 48.04 47.40 50.82 52.79 50.76 48.68 48.62 48.47 50.71 51.64 51.58 52.38 54.05 54.23 57.23 58.30 59.48 59.90 61.07 61.77 62.58 62.12 61.96 58.06 56.05 54.97 53.69 52.48 51.69 51.72 51.25 51.24 50.47 50.22 49.57 49.57 49.26 48.60 46.76 45.65 46.50 46.24 46.32
43.17 42.74 43.44 46.08 50.10 48.31 47.15 47.86 50.01 51.46 50.79 48.92 48.96 48.25 50.01 50.24 51.79 52.74 54.08 55.53 57.65 58.98 59.19 59.99 60.59 61.25 61.66 60.92 57.00 54.85 53.09 52.27 51.39 50.88 50.05 49.05 48.53 48.90 47.41 47.30 46.94 46.59 46.16 45.12 45.06 43.96 43.19 43.29 43.90
42.13 41.56 42.03 46.36 49.70 48.21 47.97 47.41 49.56 50.16 50.58 50.44 49.90 48.75 49.31 49.26 50.03 51.54 53.02 53.23 55.45 56.54 58.01 59.32 59.33 58.02 57.82 56.95 55.58 54.36 52.08 51.10 50.24 49.53 48.34 47.04 45.69 45.59 45.63 44.07 43.94 43.61 44.02 43.07 42.55 41.92 41.87 42.45 43.24
41.31 40.39 42.76 43.02 47.82 47.34 45.38 43.19 45.30 49.08 50.65 51.15 51.98 50.04 50.46 49.22 49.31 50.29 50.98 51.80 52.84 53.27 53.64 54.85 55.02 55.65 56.25 55.51 54.94 53.08 52.38 50.24 48.36 47.88 46.59 45.58 44.15 43.53 43.23 42.91 42.27 41.89 42.24 41.29 40.94 40.66 40.62 40.19 41.51
36.68 44.28 44.72 44.00 43.75 38.50 44.68 33.26 43.03 47.06 48.20 48.12 47.08 47.85 49.23 48.92 49.85 50.71 50.72 50.60 51.13 52.05 53.07 53.64 54.19 54.11 54.37 53.49 51.95 49.60 47.38 45.87 46.49 46.07 45.60 44.34 43.39 41.99 42.23 42.13 41.51 40.69 41.09 39.51 39.67 41.81 39.93 40.13 38.59
39.31 45.17 44.65 44.24 42.55 40.16 41.64 36.92 40.52 46.61 45.91 43.52 45.09 47.49 48.58 48.68 49.29 49.60 50.24 51.55 51.89 51.73 50.56 50.40 50.60 50.75 50.74 50.33 49.61 48.08 46.31 45.75 45.39 44.55 43.00 42.20 41.67 41.05 41.14 41.00 40.09 39.38 39.61 38.59 38.30 38.09 38.12 39.50 38.42
44.70 42.21 42.45 45.12 41.48 36.16 40.51 39.27 38.60 42.13 44.17 44.59 45.68 47.96 48.82 48.64 48.94 49.58 50.47 51.35 50.83 50.65 49.93 48.99 48.92 49.01 49.11 48.33 47.59 46.42 44.94 44.06 42.58 41.23 40.31 39.95 40.18 40.06 39.46 40.38 38.78 38.42 38.16 37.55 37.64 37.33 37.25 37.47 37.41
42.82 39.53 32.99 33.19 31.87 31.68 41.81 40.24 38.50 43.42 46.43 47.45 46.87 48.00 48.41 48.69 48.49 48.41 48.38 48.86 49.52 49.17 48.81 48.72 47.85 46.79 46.73 45.91 45.03 44.18 42.83 41.31 39.39 38.98 38.14 37.46 37.67 37.59 37.15 37.72 36.79 36.63 37.06 37.46 37.08 36.31 35.88 36.17 35.29
40.10 39.50 33.34 29.58 30.63 32.73 41.58 35.38 39.66 45.74 46.87 48.48 49.16 49.06 48.96 48.50 48.11 47.91 48.26 48.60 49.10 49.17 47.58 47.00 46.00 44.84 44.56 43.46 42.27 41.49 41.05 39.77 38.73 37.86 37.18 36.68 36.66 36.45 36.65 36.46 36.32 36.17 36.58 36.42 35.84 35.45 35.37 35.49 34.47
39.13 34.14 38.91 37.86 38.74 33.87 35.62 38.76 42.04 44.91 44.60 45.94 47.36 48.17 47.69 48.28 48.34 47.89 48.63 49.11 48.77 47.73 47.13 46.12 44.69 43.79 43.05 41.87 40.20 38.81 38.26 37.68 36.85 36.39 36.69 36.23 36.12 37.73 35.71 35.49 35.05 35.12 35.37 35.51 34.84 33.75 33.73 33.71 33.42
42.22 44.16 35.95 39.39 30.58 29.52 33.71 35.93 36.52 40.77 41.78 44.40 46.19 46.61 47.68 48.49 48.35 48.34 48.89 48.88 48.52 47.76 46.67 45.49 44.25 42.57 41.51 40.29 38.90 37.72 36.31 36.17 36.08 35.81 34.84 34.75 34.69 35.03 34.59 34.34 34.09 34.08 34.23 34.17 33.45 33.18 33.92 33.56 34.02
41.84 40.60 42.35 42.36 38.32 32.31 29.72 34.52 43.50 42.77 44.36 43.53 45.75 47.75 48.25 48.46 48.55 48.75 48.76 48.84 47.31 46.09 45.23 43.94 42.55 41.13 39.74 38.95 37.62 35.95 35.30 35.47 35.01 34.19 33.83 33.63 33.96 33.85 33.70 33.76 33.51 33.42 33.23 33.43 32.65 32.11 33.33 32.38 32.75
45.24 42.96 42.83 37.37 34.07 35.81 34.79 33.84 44.48 44.31 44.93 45.76 45.22 48.74 49.22 49.41 48.92 48.93 48.35 47.52 45.37 44.61 43.50 42.50 41.59 40.08 38.78 37.85 36.20 35.33 35.12 34.58 33.52 33.20 33.32 33.61 32.72 33.21 33.06 33.33 33.13 33.09 33.48 32.91 31.89 31.83 32.02 31.97 30.39

GFSSGP_sfc_wetblb_009.txt.gz
Wetbulb
68.19 63.85 60.72 54.61 43.94 43.00 40.79 44.25 47.83 48.20 48.89 49.84 51.69 50.45 48.81 50.32 50.92 48.75 60.25 65.68 68.77 69.95 72.00 72.81 74.39 74.07 73.43 72.38 70.58 69.63 68.61 67.81 66.64 66.47 66.60 66.29 66.00 66.28 67.15 66.73 66.06 65.79 65.75 65.24 65.17 64.88 65.34 65.59 66.55
66.80 64.31 55.24 49.73 40.55 35.74 39.19 44.40 45.97 47.53 49.89 51.79 52.87 51.79 50.20 50.02 57.88 60.04 60.38 64.55 69.00 70.13 71.01 71.75 74.26 74.14 73.29 72.05 70.70 69.59 68.68 67.62 66.91 66.15 67.38 65.60 66.05 66.07 65.64 65.85 66.40 66.04 65.08 64.63 64.57 64.09 63.68 64.49 65.21
63.99 62.18 49.80 45.51 41.44 37.17 38.22 44.78 45.76 49.27 50.95 52.01 51.21 52.50 51.40 52.65 59.10 60.17 61.95 64.99 68.81 68.53 69.95 71.34 74.17 74.04 73.45 71.92 70.74 69.93 69.27 67.85 67.07 66.29 65.80 67.26 67.56 68.18 67.07 66.56 67.02 66.12 65.25 64.42 64.21 64.10 64.19 63.83 63.68
57.19 53.77 49.54 41.87 40.73 45.07 44.47 43.55 47.62 48.51 51.01 53.03 51.59 49.51 54.60 57.20 58.19 62.18 63.93 64.39 64.58 67.57 69.85 72.83 73.78 74.21 73.23 71.80 70.43 69.96 69.38 68.66 67.42 66.94 66.53 66.83 68.33 68.57 69.52 68.19 67.75 66.41 65.79 65.05 64.47 64.48 64.86 65.37 65.52
54.90 50.05 42.42 40.18 42.34 46.00 47.77 48.34 48.26 46.79 48.37 50.82 51.60 49.43 52.09 57.15 61.07 62.85 63.26 64.11 66.53 68.18 70.05 71.93 74.05 73.77 72.71 71.49 70.71 70.07 69.36 68.64 67.52 67.22 66.93 67.30 68.84 69.15 69.17 68.12 67.43 66.87 66.27 65.73 65.16 64.63 64.83 65.59 66.33
49.99 48.43 40.09 38.03 41.87 47.03 48.20 50.38 48.35 47.50 47.06 50.27 50.44 49.77 51.60 57.16 60.30 61.43 63.33 62.47 69.03 69.19 70.69 71.69 72.78 73.05 72.89 72.37 71.30 70.59 69.84 68.88 68.30 66.94 67.06 66.75 67.58 68.78 69.37 69.05 67.61 66.86 66.25 65.99 66.42 66.05 66.07 65.41 66.09
48.29 44.81 40.73 41.13 42.79 45.37 49.49 49.03 46.71 46.50 46.84 49.22 51.35 48.46 51.47 55.60 60.01 63.20 61.78 63.26 66.42 69.03 69.99 70.07 70.24 71.35 71.78 72.00 71.81 71.46 71.10 70.39 69.24 68.19 67.03 67.87 67.20 67.29 68.05 69.39 68.11 67.21 66.60 66.49 66.95 67.05 66.59 66.42 66.07
51.07 47.01 42.78 41.75 43.27 44.23 50.23 51.23 50.77 48.55 47.74 52.78 53.04 48.42 48.14 55.03 60.57 62.96 63.01 63.22 64.32 66.95 67.80 68.65 68.88 69.58 69.92 69.66 71.09 70.68 70.59 70.25 69.87 68.80 67.94 67.03 66.68 66.61 67.91 68.28 68.25 67.21 66.98 66.94 66.24 66.12 66.60 66.86 66.88
54.41 44.01 42.65 43.72 44.36 46.87 51.31 49.30 52.24 53.61 51.38 52.05 52.52 52.06 54.61 57.95 59.72 59.91 59.83 61.22 62.09 64.50 65.26 66.77 67.84 67.61 68.41 67.57 68.88 69.68 69.47 69.02 68.35 67.35 66.53 65.58 63.12 62.54 64.02 65.54 66.32 67.13 66.27 66.46 66.58 66.98 67.27 67.75 67.15
49.41 44.05 45.32 48.76 48.85 48.21 50.55 49.74 50.52 50.41 50.16 50.06 51.58 55.00 54.84 55.57 56.54 57.44 57.59 59.29 60.25 62.45 63.81 64.98 66.31 66.77 66.93 68.11 67.36 66.89 67.13 66.57 65.81 65.16 63.88 63.68 62.46 61.36 63.62 63.21 65.30 66.34 67.01 67.34 67.24 67.67 68.47 67.28 63.98
49.86 46.31 49.47 50.46 52.05 51.89 50.23 50.05 51.82 49.03 47.90 50.69 51.59 52.76 54.54 54.97 54.04 54.24 53.73 57.12 60.64 62.61 63.43 64.79 64.35 65.60 65.11 66.68 66.21 65.23 64.74 64.62 64.36 64.09 63.57 62.97 61.35 60.44 60.67 60.96 61.71 61.01 62.65 62.54 63.60 62.94 64.23 64.45 63.78
47.34 51.46 51.83 52.46 53.83 52.41 49.80 51.65 49.70 50.17 50.26 53.36 54.14 54.88 54.27 54.64 54.38 54.83 53.38 53.05 57.20 60.81 63.18 64.48 65.17 64.70 64.96 65.09 65.27 64.12 64.69 63.41 61.77 62.36 62.03 60.91 60.71 60.66 60.74 61.06 61.55 62.46 63.36 63.29 63.51 63.56 63.44 63.32 63.16
47.33 49.83 52.45 53.59 53.43 52.80 52.64 50.20 49.76 50.15 52.86 54.20 54.91 55.13 54.30 54.28 54.08 54.78 52.84 56.34 57.18 59.19 61.84 63.25 64.22 64.64 64.91 64.44 64.43 63.42 62.50 62.60 62.39 62.59 62.87 62.74 62.38 63.61 63.38 62.68 63.66 63.57 63.57 63.24 62.53 61.71 60.21 58.84 58.08
48.65 49.49 50.71 52.34 52.33 52.17 50.70 49.69 49.83 51.21 53.24 52.82 53.57 53.42 53.44 52.22 52.49 51.46 52.79 54.24 55.98 58.39 60.38 62.49 63.21 64.63 65.14 64.43 63.86 63.34 63.60 63.99 63.33 64.88 64.69 65.00 63.04 62.25 63.38 63.04 61.97 61.07 59.28 56.46 53.99 52.34 52.32 52.20 52.78
50.20 47.04 48.64 50.28 51.39 50.57 52.32 47.97 47.73 51.33 52.61 52.03 52.06 52.04 50.27 51.95 52.70 51.96 53.44 54.60 55.33 55.45 56.78 58.91 61.31 63.69 64.26 64.57 63.91 64.39 63.28 65.11 64.62 64.16 63.85 63.94 64.02 62.99 60.85 54.58 52.51 53.48 51.85 50.95 50.45 49.88 50.11 49.69 50.55
44.81 45.79 41.56 47.75 49.94 50.99 50.75 43.49 49.70 52.13 50.72 50.68 51.03 49.14 49.57 51.71 52.41 52.25 54.07 54.31 54.46 55.48 56.45 57.11 59.20 61.09 63.35 63.91 63.70 64.44 64.24 63.35 60.82 56.78 55.36 54.60 54.15 54.10 53.08 50.28 48.80 49.61 49.91 48.70 47.90 47.24 46.53 46.29 46.62
40.91 37.19 39.36 43.71 49.45 49.39 49.22 45.08 49.30 51.21 50.61 49.16 47.95 46.88 48.81 49.76 50.50 50.90 52.91 53.03 53.98 55.57 56.45 56.81 56.20 59.17 62.78 62.18 61.54 58.54 56.36 55.64 54.89 53.81 52.26 50.51 50.56 50.57 49.54 48.11 47.15 47.54 47.40 45.63 45.19 44.07 43.07 42.92 43.18
36.24 36.12 39.56 40.47 45.47 47.97 46.57 46.60 47.78 50.32 50.50 48.83 46.78 45.70 48.12 49.32 49.69 50.67 52.45 52.08 54.92 56.25 57.05 57.53 57.67 60.99 60.79 56.48 55.75 54.74 53.24 51.80 50.96 49.09 48.38 48.03 48.10 47.23 46.65 45.75 44.61 45.26 44.49 43.09 42.18 41.08 41.77 41.64 41.35
38.41 38.23 39.66 42.68 47.09 45.95 45.51 46.13 47.99 49.96 48.86 46.43 45.17 45.33 47.03 48.24 49.80 51.58 52.44 53.42 55.42 56.75 57.62 58.49 60.02 60.19 57.75 54.87 52.88 51.34 49.15 48.56 47.87 46.96 45.96 45.05 44.93 44.79 43.27 43.32 42.68 43.10 42.07 40.72 41.20 40.66 40.44 40.67 41.27
39.38 37.59 36.96 41.08 45.80 45.55 45.26 44.90 48.37 49.27 50.34 48.29 47.70 45.16 47.06 47.37 48.60 50.47 52.04 53.40 55.43 55.93 56.66 56.88 56.79 56.97 56.17 55.01 53.00 51.19 49.40 47.38 46.68 45.71 43.56 42.90 42.56 42.89 42.95 41.25 40.77 40.70 40.67 39.61 39.06 38.92 39.02 40.14 40.01
38.06 36.70 37.09 37.53 43.24 45.67 43.83 42.58 45.12 48.03 49.46 49.25 48.75 47.84 48.68 48.48 48.33 48.56 49.36 50.95 51.62 51.97 52.63 53.70 54.13 54.43 54.00 53.27 52.13 50.59 48.78 47.07 45.46 43.88 42.36 41.37 41.53 41.67 41.27 40.57 39.73 39.51 39.30 38.03 37.54 37.63 37.35 37.21 38.34
33.46 40.48 40.57 40.10 39.23 36.14 44.57 36.28 42.92 46.35 45.73 46.84 46.17 46.87 46.66 47.75 48.55 48.82 48.94 49.36 50.20 50.34 51.80 52.75 53.48 53.29 52.68 52.05 50.61 47.91 45.85 44.33 44.26 43.71 41.88 40.44 40.33 39.98 40.54 40.10 39.04 38.38 38.34 36.58 36.81 38.46 36.62 36.58 35.63
35.83 41.19 39.78 40.53 39.17 38.97 39.38 37.60 40.02 44.86 43.99 45.21 43.06 46.46 46.98 48.51 49.16 48.29 48.68 49.95 50.01 48.97 47.88 47.94 48.73 48.92 48.72 48.50 47.26 46.12 44.49 43.65 43.18 41.31 39.92 38.78 38.32 38.97 39.38 38.79 37.68 37.11 37.08 35.79 35.55 34.98 34.83 35.68 34.79
41.82 39.45 39.60 40.30 38.18 32.39 37.21 36.74 36.10 41.22 43.97 46.65 42.24 46.06 46.89 47.71 48.02 48.64 49.04 49.52 48.16 47.24 46.60 46.55 47.27 46.27 46.48 46.67 45.99 44.55 42.38 40.79 39.70 38.38 37.55 37.54 37.53 37.35 37.39 37.97 36.33 35.83 35.70 35.19 35.12 34.63 34.19 33.74 33.73
38.01 35.05 29.34 27.67 29.18 28.84 39.95 35.70 38.03 42.34 46.21 47.78 44.08 45.79 46.69 47.79 47.92 48.22 48.09 47.72 46.80 46.03 45.73 45.90 45.42 43.96 43.71 42.94 42.13 41.03 39.40 38.36 37.27 36.48 35.60 35.47 35.45 35.07 34.76 35.37 34.51 34.24 34.62 35.19 34.75 33.72 33.11 33.06 32.21
34.96 34.15 29.52 21.94 25.34 29.99 40.16 33.69 40.86 46.31 46.97 47.86 47.22 47.02 47.18 46.89 47.63 47.72 47.59 47.01 46.39 46.21 45.08 44.27 43.34 42.24 41.81 40.78 39.58 38.74 38.27 37.09 36.20 35.64 34.88 34.44 34.34 34.00 34.18 34.16 33.92 33.78 34.19 34.07 33.50 32.96 32.63 32.99 31.66
33.85 32.42 38.34 34.00 36.45 33.25 36.27 39.41 42.51 42.70 42.78 44.55 45.63 46.07 45.93 45.99 46.86 47.09 47.57 47.39 46.19 44.73 43.95 43.07 42.16 40.99 40.16 38.70 37.24 36.08 35.97 35.50 34.56 34.18 34.26 33.78 33.60 36.33 33.56 33.20 32.83 32.88 33.12 33.07 32.36 31.32 31.12 31.13 30.95
38.81 41.21 32.80 34.01 28.67 29.22 33.96 33.97 35.78 37.86 40.64 43.62 44.14 44.58 45.61 46.26 46.52 46.98 47.73 47.43 45.96 44.87 43.45 42.24 41.40 40.11 38.76 37.20 35.76 35.08 34.16 34.17 33.72 33.25 32.45 32.64 32.72 32.96 32.72 32.45 32.15 32.27 32.18 32.05 31.30 30.74 31.47 30.70 30.63
35.38 35.67 38.05 37.62 34.36 31.57 30.04 33.78 39.69 40.23 42.42 43.25 44.59 45.42 45.80 45.94 46.52 47.03 47.67 47.70 45.89 44.03 42.67 41.04 39.95 38.37 36.92 36.02 34.44 33.63 33.54 33.35 32.81 32.25 31.96 31.88 32.03 32.06 32.07 32.07 31.86 31.58 31.64 31.45 30.45 30.14 30.93 30.08 30.01
41.04 38.94 38.61 31.66 31.44 35.05 32.94 32.06 40.70 41.94 42.75 45.13 44.95 46.12 46.78 47.06 46.76 47.23 47.58 45.87 44.37 43.11 41.23 39.97 38.48 37.25 36.07 34.97 33.92 33.38 33.14 32.47 31.59 31.35 31.59 31.94 31.30 31.70 31.51 31.61 31.54 31.99 31.87 31.23 30.06 29.44 29.48 29.15 27.90

GFSSGP_sfc_wetblb_012.txt.gz
Wetbulb
67.91 64.51 58.90 52.65 43.52 42.02 38.89 42.54 43.83 45.59 47.83 49.42 50.83 49.38 48.23 48.97 49.42 46.69 59.36 65.05 68.05 70.33 72.02 72.81 74.43 74.33 73.32 72.25 70.57 69.57 68.57 67.26 67.00 67.32 67.36 66.94 66.43 66.74 66.82 66.66 65.88 65.60 64.93 64.41 64.35 64.65 65.04 65.12 65.98
67.08 63.48 54.01 47.66 39.47 35.38 38.30 43.40 44.88 46.15 48.47 50.94 51.14 50.48 49.06 50.62 56.89 58.05 60.72 67.26 69.45 70.69 71.81 71.82 74.17 73.94 73.00 71.55 70.45 69.41 68.51 67.65 66.82 66.84 66.33 66.68 66.26 67.43 66.47 65.70 65.96 65.94 64.83 64.03 63.92 63.49 63.12 63.89 64.70
61.59 60.26 49.25 43.57 39.08 35.86 38.00 43.48 45.63 48.04 49.51 50.51 49.64 51.99 51.03 52.03 58.69 59.03 60.95 67.90 69.39 69.98 70.96 71.85 74.21 74.20 73.03 71.65 70.44 69.51 68.59 67.77 66.93 66.76 66.67 67.35 67.51 67.55 67.39 65.66 66.89 66.14 65.19 64.29 64.00 63.90 64.07 64.04 63.81
56.51 52.78 47.99 41.03 39.00 42.64 43.12 46.22 46.35 47.46 49.51 51.24 50.56 49.92 53.75 56.03 58.05 61.42 63.99 67.74 67.63 68.00 69.05 72.18 74.14 74.10 73.46 71.89 70.47 69.91 68.95 67.82 66.96 66.75 66.65 67.25 68.08 68.67 68.83 68.13 67.68 66.65 65.86 64.86 64.36 64.25 64.58 65.25 65.80
53.30 48.16 41.94 38.63 40.53 43.56 45.32 48.52 46.37 46.06 47.41 48.97 50.70 48.49 51.14 57.25 60.04 61.84 62.68 66.96 66.02 66.48 68.71 72.10 73.97 74.13 72.99 71.11 70.42 69.95 69.29 68.66 67.07 66.84 67.10 67.72 68.33 68.90 69.19 69.12 67.59 66.79 65.99 65.32 64.91 65.24 65.02 65.34 65.80
49.31 46.67 38.87 37.28 40.06 44.75 46.30 48.96 47.60 46.77 46.72 48.72 48.84 48.64 50.79 56.66 60.06 60.95 61.98 64.25 67.83 67.88 70.00 71.29 73.14 73.20 72.37 71.50 70.89 70.06 69.27 68.68 67.68 67.13 67.56 67.62 67.49 68.54 69.28 68.27 67.38 66.78 66.04 65.77 66.33 66.19 66.58 66.39 65.83
47.70 43.65 39.77 39.88 41.11 43.74 47.10 50.26 44.59 46.09 47.01 48.82 50.34 47.21 50.29 54.98 60.36 62.10 60.73 65.23 67.99 69.12 69.87 70.10 71.29 71.44 71.82 71.63 71.35 71.05 70.06 69.54 68.82 67.87 67.54 68.02 67.69 67.47 68.55 69.16 68.00 67.45 66.63 66.47 66.46 66.83 66.42 66.44 66.73
49.96 46.02 41.09 40.92 41.58 43.10 48.72 49.36 49.27 47.13 46.49 51.44 52.38 47.92 48.48 54.32 59.26 61.43 61.19 65.97 67.04 68.65 69.30 69.03 69.23 70.36 69.69 70.11 70.87 70.74 70.59 70.13 69.72 68.92 67.79 67.66 66.77 66.48 67.99 68.99 68.58 67.39 67.17 67.19 66.87 66.14 66.48 66.96 67.17
53.05 43.48 40.65 42.59 43.19 45.86 49.31 48.08 51.34 52.46 49.97 50.89 51.48 50.94 53.14 55.72 59.64 59.20 58.77 60.24 63.66 66.61 67.66 68.64 68.21 68.42 68.68 68.48 69.16 69.97 69.99 69.52 68.75 67.58 66.54 65.27 62.40 62.06 63.49 65.45 66.21 67.62 67.51 66.66 66.80 67.17 67.66 68.15 67.48
48.83 44.14 44.30 47.58 48.30 47.03 49.48 48.66 49.18 48.74 49.13 48.57 50.50 53.26 54.20 56.73 56.87 58.35 58.20 58.96 60.17 62.62 64.55 67.06 67.46 66.98 67.38 68.91 67.34 66.97 67.12 66.52 65.44 64.86 63.28 63.26 62.00 60.91 61.83 62.75 65.61 67.26 67.29 67.50 67.47 67.88 68.54 67.39 64.56
49.26 45.74 48.18 49.25 51.14 50.52 49.33 48.11 50.57 48.49 46.73 49.77 49.77 50.93 52.23 53.86 55.30 56.63 57.26 58.58 60.35 62.64 64.10 65.60 66.35 65.83 66.19 65.91 65.90 65.35 64.90 64.61 64.35 63.81 63.09 62.58 62.32 59.64 60.85 59.98 60.78 60.58 61.67 61.66 62.82 62.42 62.76 63.53 63.27
44.48 49.75 50.70 51.44 52.63 51.49 48.90 50.34 48.83 48.57 49.21 52.33 52.87 53.58 53.36 53.36 52.84 52.97 53.00 55.80 57.60 60.57 62.90 64.63 65.48 64.82 65.09 65.65 65.55 64.72 63.98 63.38 62.77 63.23 63.06 61.64 59.15 59.44 59.71 61.58 62.58 62.60 63.39 62.79 62.32 60.00 58.01 56.05 55.54
44.73 46.85 50.58 52.26 52.40 52.24 52.69 49.85 48.76 49.10 51.98 52.78 53.23 53.75 52.82 52.97 52.82 53.55 54.17 52.87 52.74 59.35 62.32 63.17 64.00 64.63 64.67 65.07 64.57 63.46 63.31 62.91 61.99 61.54 61.18 61.05 60.98 61.96 62.87 62.40 62.20 60.06 58.31 55.81 53.69 51.29 51.11 50.41 50.95
45.85 46.36 47.89 50.19 50.60 51.24 50.33 50.53 48.83 50.93 51.93 51.48 52.61 52.63 52.10 52.54 53.47 50.86 52.18 54.91 56.01 58.79 62.05 62.73 63.79 64.10 64.38 63.93 62.89 62.11 62.94 63.72 62.37 63.72 64.03 64.30 62.74 61.87 59.80 55.20 55.48 54.04 52.98 51.52 48.55 48.16 47.21 46.86 47.27
46.94 43.75 46.36 47.08 48.56 48.86 50.89 47.10 48.00 50.82 51.17 50.67 50.67 51.45 51.49 51.26 51.51 51.36 52.69 54.19 55.18 57.03 60.04 61.79 62.76 64.07 63.96 63.69 63.09 63.23 63.75 64.48 63.12 59.65 58.49 59.96 59.60 54.80 53.17 52.12 51.64 50.35 48.12 47.31 45.91 45.07 44.97 44.84 45.56
42.26 41.30 37.55 44.73 48.17 49.26 48.90 42.46 49.05 51.06 48.82 48.85 49.57 49.64 49.79 50.10 51.52 51.63 53.20 53.49 53.87 54.62 56.78 58.50 62.61 63.33 63.46 63.09 63.91 63.87 62.49 58.28 55.11 54.05 53.56 53.34 52.98 52.57 50.32 47.56 46.81 46.52 45.23 44.47 43.29 42.88 42.46 42.07 41.70
39.22 34.28 35.79 40.77 47.20 47.75 46.65 43.77 49.16 51.00 48.26 48.12 48.72 48.27 48.50 47.93 48.91 50.45 52.21 52.53 53.45 54.63 55.44 55.37 57.97 62.16 62.66 59.82 57.61 56.39 55.23 53.63 52.48 51.86 50.97 49.96 48.73 48.80 46.43 44.77 44.58 44.27 42.92 41.97 41.97 40.73 40.59 39.73 40.03
35.04 34.43 35.87 36.03 43.56 45.99 45.00 44.69 47.82 48.85 48.74 47.76 49.02 48.05 45.11 48.03 49.24 50.32 51.93 51.58 53.46 54.45 55.01 54.95 55.92 60.20 55.60 54.52 54.12 52.72 51.03 49.98 49.28 46.75 46.88 45.92 45.14 45.07 43.95 42.51 42.79 42.51 41.26 40.25 39.64 38.77 39.39 39.47 38.88
37.62 35.82 34.47 37.61 43.12 41.94 42.17 44.16 46.66 49.46 47.39 46.30 47.32 46.04 44.24 47.19 48.85 49.97 50.81 51.44 54.12 55.10 55.96 55.48 58.64 54.52 54.37 52.70 51.17 50.86 48.41 46.93 43.96 44.05 43.70 43.31 42.91 42.59 41.62 41.08 41.03 41.04 39.52 38.20 38.87 38.42 38.22 38.53 38.56
36.95 34.75 35.09 38.59 42.12 42.30 42.03 42.26 46.60 48.53 49.28 49.19 48.52 44.61 45.18 46.18 47.55 49.42 51.67 53.08 55.13 55.41 56.27 57.42 56.67 53.85 53.59 52.50 49.56 47.97 47.37 45.47 43.18 41.88 40.95 41.32 41.46 41.66 41.39 39.65 39.32 39.06 38.37 37.14 36.80 36.61 36.48 37.85 37.59
36.02 34.28 33.80 34.35 39.31 41.21 40.45 37.74 41.92 47.44 48.85 50.23 49.53 46.56 47.22 47.83 47.49 48.49 50.79 52.16 53.11 53.44 53.76 54.60 53.75 53.15 52.63 51.07 50.06 48.40 46.79 44.61 42.05 40.39 39.44 39.59 40.27 40.49 39.94 38.91 38.27 37.71 37.08 35.76 35.58 35.23 34.93 34.26 35.97
32.14 38.81 38.60 37.71 36.26 31.02 40.80 31.17 39.21 44.16 45.99 47.13 48.40 44.14 46.76 46.46 47.56 48.16 49.92 50.25 51.16 50.67 51.79 52.46 52.64 51.78 51.10 50.57 48.32 46.80 44.74 42.22 42.08 40.66 38.71 38.14 38.79 38.87 39.05 38.41 37.32 36.52 36.24 34.64 34.95 36.37 34.42 33.77 32.30
34.89 39.52 37.61 37.53 35.04 33.71 35.09 33.24 37.06 42.98 42.53 45.79 48.13 44.37 46.65 47.57 48.35 49.04 50.17 50.67 50.12 49.91 49.81 50.40 50.63 50.12 49.09 48.28 47.13 45.25 43.22 42.30 41.16 38.94 37.08 36.57 36.68 37.57 37.69 37.11 35.99 35.39 35.26 33.96 33.54 33.09 32.47 33.30 32.07
40.26 37.71 37.04 36.60 34.61 28.22 32.63 34.15 34.08 38.78 42.01 44.86 45.47 44.34 46.06 47.33 47.36 48.50 48.97 49.20 47.08 46.37 46.70 47.25 48.52 46.65 46.81 46.26 44.77 43.68 41.70 39.65 38.34 36.82 36.06 35.94 35.73 35.92 35.77 36.27 34.69 34.08 33.85 33.41 33.31 32.65 32.06 31.52 31.57
37.03 32.68 24.86 23.03 24.29 25.02 34.00 33.08 34.69 40.68 44.74 46.63 47.43 43.99 45.64 47.49 46.83 47.61 47.76 47.05 45.35 44.79 44.65 45.17 45.87 43.62 43.96 43.34 42.34 41.07 39.36 37.97 36.30 35.51 34.99 34.45 34.13 33.80 33.53 33.92 33.02 32.72 32.79 33.22 32.72 31.76 31.16 31.04 30.07
34.79 33.47 25.31 17.14 19.28 24.65 36.85 31.06 35.35 44.18 46.79 47.01 47.94 46.21 46.37 46.33 47.72 47.87 47.45 46.47 45.45 44.80 43.56 43.19 43.09 41.00 40.91 40.18 38.27 37.12 36.78 35.94 35.19 34.57 34.01 33.58 33.14 33.02 32.90 32.66 32.29 32.00 32.27 32.07 31.43 31.00 30.63 31.02 29.68
33.42 30.37 35.37 29.73 31.04 27.77 32.51 36.76 42.42 45.39 44.19 42.84 44.33 44.69 45.25 46.32 47.08 47.03 46.48 45.87 45.13 43.94 42.38 42.15 41.28 39.48 38.59 37.51 36.61 35.02 34.82 34.67 33.77 33.17 33.09 32.63 32.64 35.09 32.16 31.70 31.37 31.24 31.36 31.34 30.57 29.68 29.55 29.43 29.23
35.64 37.33 28.68 29.73 20.46 20.93 30.34 33.78 36.93 41.09 41.94 41.06 42.35 43.50 45.05 46.35 46.53 46.48 46.42 45.60 44.90 43.16 41.24 40.35 40.02 38.48 36.51 35.33 34.92 34.20 33.27 33.08 32.51 32.25 31.69 31.69 31.63 31.80 31.45 31.17 30.84 30.75 30.71 30.63 29.80 29.40 29.98 29.14 28.98
33.60 31.76 33.42 32.09 30.58 27.95 27.66 32.62 42.42 43.96 42.67 42.27 43.69 44.50 44.73 45.40 46.00 46.45 46.42 45.85 43.69 41.92 40.59 38.83 37.99 36.58 34.91 34.11 32.95 32.42 32.13 32.03 31.63 31.27 30.98 31.05 30.96 30.86 30.82 30.82 30.54 30.35 30.28 30.23 29.17 28.89 29.48 28.88 28.27
36.79 33.48 33.79 28.87 25.96 32.30 31.22 30.73 41.40 46.30 43.78 45.05 44.47 44.91 45.14 46.00 46.14 46.53 46.33 44.29 42.80 41.00 39.42 38.03 36.25 35.34 33.95 33.17 32.48 31.94 31.69 31.22 30.63 30.46 30.65 30.88 30.20 30.55 30.36 30.47 30.38 30.30 30.37 29.92 28.82 28.26 28.38 27.84 27.03

GFSSGP_sfc_wetblb_015.txt.gz
Wetbulb
68.04 64.79 55.14 50.68 41.73 40.67 38.49 42.29 43.45 45.49 46.46 47.78 48.83 48.36 48.18 48.33 48.50 45.71 59.35 64.69 67.42 69.14 72.10 73.21 74.61 74.73 73.22 72.05 70.70 69.30 68.07 67.35 67.25 67.94 69.72 67.36 66.59 65.53 65.93 66.36 65.46 64.86 64.61 63.93 64.29 64.91 65.48 65.58 65.99
63.96 61.18 52.60 45.89 38.73 33.02 36.11 41.94 44.34 46.39 48.06 48.88 48.86 48.59 48.58 50.12 56.03 57.00 60.72 66.06 69.26 70.72 71.73 71.57 74.63 74.16 73.21 71.73 70.46 69.38 68.09 67.10 67.15 67.08 67.13 66.31 65.98 66.48 65.98 65.67 65.49 65.24 64.67 63.98 63.82 63.70 63.32 63.59 64.26
60.66 56.53 48.25 42.54 36.54 34.74 35.88 42.47 43.95 47.72 48.81 50.08 48.93 51.17 49.80 52.68 57.56 58.42 59.92 67.56 69.76 69.70 70.98 71.30 74.21 73.69 72.76 71.53 70.50 69.37 68.47 67.27 66.81 67.44 66.56 66.51 66.91 66.75 66.51 66.52 66.51 65.99 64.91 64.24 63.88 63.82 64.10 64.40 64.38
55.45 51.79 46.90 40.46 38.06 41.14 39.74 42.96 45.17 46.23 48.84 50.73 49.59 48.66 53.15 55.27 57.43 60.28 65.36 67.90 68.30 68.38 69.36 71.99 74.00 73.99 73.17 71.47 70.50 69.53 68.53 67.71 66.96 67.10 66.95 67.27 67.99 68.39 68.27 68.78 67.97 66.50 65.67 64.65 64.26 64.05 64.05 64.56 65.47
51.75 47.32 40.97 37.68 39.41 41.79 43.75 46.54 45.96 45.69 47.06 48.28 48.39 47.85 50.74 56.80 59.42 62.18 65.94 67.45 66.85 67.01 68.30 71.51 74.06 73.93 72.84 71.62 70.46 69.90 68.92 67.99 67.02 66.77 67.13 67.59 67.90 68.55 69.52 69.22 67.66 66.68 65.68 65.05 64.73 65.05 65.17 65.20 65.31
48.60 45.56 38.07 36.88 38.87 42.66 44.62 47.20 45.55 45.02 46.11 47.50 48.01 48.77 50.81 56.45 59.10 60.37 65.46 65.19 66.51 66.92 68.52 71.39 73.14 73.57 73.06 71.67 70.85 70.16 69.40 68.75 67.04 66.78 67.30 67.78 67.25 68.55 69.07 68.51 67.43 66.92 65.98 65.77 66.09 66.22 66.35 66.59 66.52
46.77 42.21 38.66 38.09 39.40 42.26 45.51 48.35 45.53 44.74 45.26 47.72 50.50 47.30 49.90 53.93 59.41 60.40 61.77 65.08 66.21 67.33 68.76 70.00 71.38 72.12 71.72 71.27 71.08 70.79 69.69 69.16 68.40 67.82 67.89 68.18 67.91 67.62 68.93 68.83 67.76 67.26 66.90 66.53 66.62 66.88 66.45 66.27 66.72
49.10 45.15 39.29 39.99 40.32 42.01 47.10 48.20 48.46 45.18 45.38 49.94 51.02 47.60 47.93 53.52 57.98 59.88 59.69 65.59 66.17 67.73 68.76 69.14 69.68 70.11 69.39 69.34 70.56 70.39 70.00 69.76 69.47 68.53 67.78 67.75 66.97 66.56 67.84 69.20 68.67 67.75 67.35 67.16 67.20 66.74 66.68 67.24 67.57
50.88 42.78 39.85 41.19 41.54 44.23 47.28 46.52 49.80 50.60 47.23 49.39 49.45 51.34 51.99 54.61 59.20 58.61 59.79 62.66 64.12 67.16 67.52 68.65 68.90 69.09 68.94 68.89 69.10 70.04 69.91 69.27 68.74 67.74 66.43 65.32 62.03 61.80 62.98 65.14 66.29 67.28 67.40 67.39 67.04 67.46 67.82 68.25 67.41
48.38 43.28 42.75 45.81 45.62 44.90 47.63 47.65 48.04 48.22 48.08 47.71 49.25 52.19 54.15 56.81 57.93 58.14 58.12 60.89 62.32 64.82 65.70 67.56 67.47 67.62 67.12 68.92 67.28 67.10 67.65 66.72 65.75 64.78 62.82 62.56 61.12 59.97 60.99 62.21 64.88 66.61 67.54 67.15 66.87 67.39 67.23 64.66 63.40
47.49 44.49 47.52 48.26 49.56 49.87 47.78 47.30 49.55 47.00 45.37 48.52 49.18 49.95 51.33 54.18 56.41 57.78 57.93 58.37 62.14 64.34 64.77 66.85 66.61 66.47 66.54 66.95 65.70 65.59 64.86 64.80 63.94 63.10 62.34 61.62 61.67 59.85 60.22 59.95 59.80 60.55 61.07 61.65 62.62 61.41 60.17 55.03 55.25
42.81 47.47 49.21 50.36 51.58 50.46 48.44 49.30 47.69 47.58 47.84 51.00 51.22 51.91 51.25 52.45 54.22 55.79 56.53 57.51 57.51 59.97 63.67 65.68 65.95 64.81 65.20 65.02 64.82 64.72 63.76 63.29 62.75 62.86 62.47 61.21 59.89 58.12 58.72 60.72 62.53 62.63 62.66 57.82 54.85 53.76 51.08 50.73 49.75
42.98 45.31 48.21 49.94 51.04 50.96 51.61 49.76 48.67 48.55 50.86 52.26 52.03 51.81 51.53 51.90 51.73 52.25 53.76 54.34 55.82 57.66 61.61 63.94 64.77 64.21 64.92 63.93 64.19 63.60 63.24 62.96 62.63 62.44 62.58 61.39 59.28 61.03 62.28 58.88 55.59 54.47 54.00 52.47 49.69 47.66 46.89 46.07 46.28
44.18 44.75 45.46 47.65 48.49 49.26 48.37 49.03 49.10 49.27 50.89 50.53 50.64 51.04 51.63 51.18 51.51 50.49 51.69 52.72 51.26 53.38 60.20 62.92 63.94 64.36 64.58 64.73 63.26 63.56 62.83 62.95 62.18 61.70 61.81 63.27 62.88 57.89 54.29 53.81 52.79 51.26 50.40 47.38 45.21 44.27 43.78 42.82 43.20
45.61 41.71 44.01 45.14 46.33 46.60 49.04 45.73 46.61 50.50 50.81 49.13 49.15 49.68 51.20 51.11 51.67 50.69 51.81 51.72 53.17 54.57 58.00 61.79 63.18 63.85 63.83 63.92 63.30 63.72 62.99 63.01 61.00 59.29 60.45 59.85 54.59 53.14 52.57 51.57 49.82 47.35 45.24 43.72 42.47 42.31 42.06 41.05 42.12
41.74 39.34 35.22 41.61 45.51 47.12 47.66 39.51 47.01 51.11 50.66 50.09 48.63 48.04 49.11 49.88 51.28 50.30 51.22 51.93 53.70 54.95 58.50 60.61 64.23 63.44 63.14 62.85 63.84 63.68 60.44 55.88 54.28 53.70 53.57 53.19 52.49 51.36 49.62 46.58 44.74 43.23 42.33 41.63 40.44 40.62 40.27 38.99 38.80
40.39 33.10 34.05 38.24 45.38 46.19 45.71 41.56 46.56 49.85 48.77 46.99 46.77 47.18 48.83 48.79 48.80 49.45 51.50 51.81 52.78 53.77 56.06 59.19 61.99 62.98 62.31 59.89 58.55 56.13 54.10 53.08 52.13 51.61 50.95 50.20 49.26 48.42 47.21 44.80 42.24 41.39 40.61 39.83 39.66 38.82 38.82 37.36 38.12
31.35 32.87 33.38 34.52 41.64 42.72 42.27 42.14 45.55 48.11 47.90 47.22 48.02 49.08 47.14 47.02 48.54 49.42 50.64 50.63 51.96 53.47 54.14 55.00 60.44 60.26 55.24 53.28 52.49 51.77 50.55 49.56 49.25 48.09 47.28 46.61 44.66 43.30 42.24 41.52 40.62 40.30 39.47 38.42 37.56 37.07 37.36 37.64 36.52
36.27 34.67 33.38 36.31 41.39 38.76 38.51 39.86 42.84 46.33 47.06 48.00 45.64 46.86 46.98 45.73 46.96 49.12 49.54 49.84 51.47 52.79 53.41 53.43 57.59 54.27 53.67 51.92 50.72 50.66 47.34 46.36 45.22 45.02 44.48 42.67 41.63 41.21 40.20 40.06 39.64 38.98 37.80 36.41 36.80 36.53 36.00 36.81 36.60
35.22 33.72 33.85 36.23 40.32 39.30 38.02 37.34 41.33 43.43 44.88 47.71 48.63 47.93 47.56 44.49 46.78 48.20 48.68 49.92 52.89 53.99 53.86 55.56 53.24 52.97 52.89 51.89 47.89 47.47 47.20 44.90 43.33 41.28 40.24 40.45 40.39 40.32 40.04 38.82 38.00 37.26 36.40 35.50 34.74 34.67 34.49 34.92 36.05
34.08 32.42 32.86 32.63 36.56 38.20 35.98 33.50 36.20 41.68 44.74 47.44 49.62 50.08 50.35 46.80 46.52 46.88 48.61 51.02 52.76 53.58 54.45 53.47 51.68 51.27 50.68 49.17 48.25 46.34 44.98 43.71 42.02 38.54 38.01 38.42 39.35 39.30 38.57 37.74 37.02 36.01 35.42 34.22 33.61 33.43 32.98 32.12 33.26
30.75 37.08 36.75 35.47 32.83 27.20 35.69 25.54 33.37 37.53 40.87 44.59 47.31 48.65 46.68 45.40 46.78 47.61 49.83 50.98 52.14 52.61 53.29 52.18 51.96 50.35 49.48 49.95 48.90 47.31 43.46 41.41 39.58 37.84 36.60 36.91 37.80 37.71 37.91 37.09 35.96 35.11 34.63 33.25 33.34 34.48 32.40 31.98 30.55
33.87 38.31 36.32 36.41 33.89 31.41 32.25 29.75 30.75 39.23 39.23 42.52 44.99 47.15 45.68 46.01 47.49 48.05 50.80 52.15 52.06 51.02 51.04 50.63 50.19 49.22 47.63 48.33 48.37 46.05 43.31 41.26 38.63 36.42 35.38 35.20 35.70 36.38 36.47 35.77 34.67 34.12 33.90 32.65 32.07 31.50 30.74 31.49 30.19
39.54 36.49 35.75 36.11 32.84 25.79 29.78 29.44 29.23 33.51 38.48 41.26 44.29 46.85 45.26 45.66 46.88 48.38 49.50 49.77 48.65 48.69 49.25 49.37 49.02 47.09 46.71 45.75 44.41 44.26 41.77 39.26 37.13 34.93 34.45 34.48 34.59 34.74 34.55 34.84 33.50 32.85 32.60 31.99 31.72 30.98 30.48 29.96 29.76
36.26 32.79 26.08 24.81 25.27 22.89 31.40 29.23 31.50 36.35 39.64 43.05 44.29 45.88 44.06 45.98 46.47 47.91 48.27 48.41 47.18 47.27 47.59 48.15 48.13 45.10 44.45 43.64 42.51 41.20 39.85 38.64 36.63 35.27 34.75 33.92 33.29 32.98 32.54 32.75 31.88 31.62 31.60 31.88 31.25 30.30 29.61 29.44 28.47
33.47 31.88 25.69 18.55 19.36 21.15 31.76 26.68 32.14 40.55 43.34 44.68 45.20 44.77 43.61 45.63 47.31 48.56 49.37 48.52 47.25 46.53 46.74 46.54 45.84 42.98 42.31 41.27 39.35 38.04 37.06 36.54 35.54 34.77 34.00 33.08 32.61 32.37 32.02 31.67 31.29 31.04 31.24 30.86 30.05 29.70 29.36 29.68 28.34
34.04 30.51 34.12 28.29 29.73 26.85 28.59 32.85 39.78 42.65 42.60 43.06 42.80 43.22 43.01 45.01 46.93 48.39 47.82 46.70 45.64 44.56 43.80 44.38 42.75 40.24 39.28 37.36 36.02 34.69 34.46 34.35 33.71 32.75 32.49 32.07 32.03 33.85 31.33 30.83 30.59 30.29 30.34 30.21 29.46 28.62 28.42 28.16 27.96
34.70 36.14 28.78 29.86 20.80 19.01 23.96 28.99 31.56 36.84 40.15 42.15 41.50 41.65 43.43 45.30 46.91 47.13 45.93 44.49 44.00 41.96 40.28 40.36 40.93 38.93 36.42 35.04 34.47 33.60 32.64 32.54 32.12 31.96 31.22 31.19 30.94 31.05 30.70 30.33 29.88 29.85 29.84 29.62 28.77 28.31 28.83 27.97 28.05
32.40 30.76 32.52 31.53 27.06 18.43 19.26 25.56 38.01 39.12 41.49 40.09 40.59 41.88 43.62 45.08 46.25 45.46 45.08 44.16 42.32 40.42 39.39 37.83 37.29 36.15 34.53 33.88 32.56 31.91 31.34 31.27 31.00 30.60 30.36 30.37 30.34 30.27 30.14 29.97 29.63 29.40 29.17 28.97 28.02 27.67 28.57 27.72 27.43
36.12 32.23 31.83 27.64 20.51 25.82 25.93 28.00 38.95 40.72 41.00 42.70 41.80 44.48 46.04 46.52 45.48 45.40 44.27 42.13 40.94 39.33 37.96 36.37 35.12 34.34 33.14 32.47 31.83 30.93 30.81 30.47 29.98 29.76 29.84 30.17 29.58 29.79 29.60 29.50 29.20 28.95 29.08 28.57 27.43 26.98 27.32 27.06 26.40

GFSSGP_sfc_wetblb_018.txt.gz
Wetbulb
66.06 61.45 52.76 49.70 42.64 39.09 35.99 39.74 42.92 43.92 44.99 46.92 47.28 49.57 48.64 47.75 48.93 45.93 58.04 63.69 65.69 66.69 70.00 72.89 74.71 74.45 73.00 71.74 70.78 69.32 68.09 68.26 67.77 69.08 70.08 67.99 66.88 65.59 65.54 66.38 65.33 64.67 64.72 64.20 64.92 65.27 65.80 66.10 66.17
62.51 59.23 51.35 45.04 38.67 32.74 34.66 39.85 41.62 44.67 47.24 48.58 49.14 49.79 48.24 51.40 55.28 56.53 60.21 64.07 67.90 69.33 71.61 71.78 74.61 74.27 73.03 71.68 70.74 69.17 68.06 67.19 67.22 68.42 68.21 66.18 66.54 65.62 65.50 65.54 65.05 65.02 64.84 64.06 64.00 63.81 63.60 63.52 63.67
58.88 53.95 47.49 41.81 35.70 34.31 35.16 40.01 42.52 46.15 46.90 48.09 48.77 51.00 49.72 52.40 57.21 57.55 60.59 66.25 69.31 69.80 70.93 71.50 74.56 74.14 72.94 71.75 70.58 69.48 68.06 67.32 67.23 66.81 67.09 66.87 66.41 67.49 66.71 66.01 66.30 65.82 64.86 64.16 63.85 63.99 64.33 64.67 64.86
54.21 50.93 46.06 39.69 37.24 39.96 39.24 40.30 44.50 45.73 48.11 48.77 49.33 48.70 52.51 55.25 56.88 59.08 64.53 68.36 68.31 68.35 69.38 72.41 74.20 74.03 73.21 71.61 70.64 69.61 68.60 67.39 66.90 67.37 67.16 67.06 67.36 67.56 67.26 67.76 67.75 66.47 65.40 64.46 64.20 64.03 64.00 64.10 64.83
50.75 46.69 39.98 36.84 38.35 40.64 42.08 44.61 45.22 45.29 44.75 45.64 47.60 47.50 50.76 55.66 59.38 63.09 65.87 67.78 67.01 67.22 68.71 71.55 74.05 73.55 72.42 71.56 70.66 69.65 68.73 67.90 66.95 67.39 67.18 67.56 67.46 68.30 68.59 68.58 67.81 66.60 65.50 64.87 64.72 65.06 65.41 65.48 65.37
47.88 44.83 36.85 35.36 37.90 41.22 43.65 45.55 45.36 43.76 44.09 45.77 46.23 48.04 50.68 55.54 58.69 63.30 65.87 65.75 67.34 67.24 68.60 70.97 72.97 73.48 72.89 71.82 70.86 69.96 68.97 68.14 67.17 66.96 67.36 67.42 67.45 68.90 69.18 69.17 67.71 66.83 65.89 65.60 65.86 66.38 66.36 66.64 66.64
45.83 41.51 37.44 36.06 37.67 40.25 43.83 46.70 44.20 45.53 42.92 45.71 47.52 46.44 49.84 52.99 59.02 62.71 64.23 64.48 65.67 67.16 68.12 69.82 71.24 72.09 72.18 71.79 71.12 70.86 69.67 69.31 67.92 67.68 67.82 68.38 67.87 67.58 68.91 68.40 67.56 67.02 66.46 66.54 66.75 66.95 66.92 66.57 67.02
47.96 44.08 37.68 38.40 38.60 40.12 45.84 47.42 47.90 43.90 44.08 48.17 49.55 46.77 48.07 52.13 58.84 59.98 62.29 64.72 64.46 66.25 67.75 68.54 69.79 70.52 69.76 69.13 70.52 70.32 70.02 69.62 69.20 68.37 67.99 67.47 67.15 66.56 67.05 69.27 68.62 67.46 67.24 67.14 67.31 67.17 67.27 67.72 67.90
49.27 41.94 38.48 39.56 40.41 42.33 46.07 44.99 48.88 49.97 46.42 48.72 48.52 48.84 51.24 53.98 58.31 58.81 60.48 63.46 64.48 66.45 66.65 67.89 68.43 68.39 68.06 68.02 68.65 69.71 69.47 68.93 68.59 67.33 66.16 65.13 61.93 61.30 62.19 64.78 66.46 66.62 66.96 67.35 67.18 67.82 68.02 66.89 65.54
47.41 41.69 41.28 44.85 44.39 44.08 46.19 46.32 46.88 47.32 47.22 46.85 48.76 51.42 53.56 55.29 56.66 57.01 58.44 60.86 63.15 64.80 66.09 67.08 67.30 67.42 67.32 68.99 67.37 67.00 67.49 66.60 65.50 64.72 62.56 61.63 60.14 59.46 60.63 61.63 64.14 65.58 65.91 65.01 65.81 65.94 63.29 58.79 56.83
45.72 42.95 45.49 47.05 48.50 49.10 47.16 46.62 48.33 45.96 45.26 47.86 47.36 49.33 51.51 53.77 56.08 56.67 57.20 59.56 61.95 63.31 65.50 66.84 66.49 66.58 66.43 66.90 65.72 65.48 65.34 64.88 64.30 62.89 61.74 61.05 60.95 59.55 59.51 59.37 59.43 59.74 61.18 61.94 58.84 54.99 53.74 50.19 49.83
40.55 46.16 48.01 49.16 50.60 49.66 47.56 49.19 47.44 46.73 47.34 49.83 50.36 50.34 50.92 50.74 54.93 56.58 56.69 57.02 58.11 61.43 64.02 65.97 66.56 65.82 65.59 65.45 65.10 64.72 64.15 63.64 62.80 62.48 61.92 60.54 59.82 57.63 58.17 59.18 61.32 58.94 55.15 53.33 51.90 47.70 46.83 46.38 46.17
41.66 44.06 47.10 47.98 48.21 48.62 50.01 48.36 48.31 48.43 50.84 51.91 52.80 51.30 50.59 50.65 50.90 53.10 55.74 55.52 55.98 57.95 61.05 64.23 65.72 65.31 65.47 64.12 64.06 63.92 63.58 63.00 62.65 62.14 62.03 61.32 59.14 59.70 59.73 54.26 53.61 52.60 51.34 49.28 45.03 44.59 43.52 42.75 42.77
43.06 43.66 44.31 45.92 46.35 47.08 46.49 46.93 47.16 48.76 50.37 49.89 50.01 50.11 50.62 50.06 51.07 49.99 50.99 51.89 51.35 53.43 57.36 62.76 64.78 65.15 64.69 64.12 63.16 63.36 63.22 62.76 62.19 62.68 62.92 62.63 62.48 56.75 54.15 52.42 50.81 49.40 48.15 46.09 42.92 41.64 40.29 39.78 40.17
44.57 40.59 42.54 43.65 44.93 44.40 47.19 43.55 44.30 49.31 49.99 49.73 48.89 49.23 50.07 50.62 50.72 50.50 51.78 51.09 51.72 51.43 51.56 60.62 63.72 64.55 64.11 63.98 63.64 63.62 63.68 63.50 61.39 62.64 63.28 59.53 54.97 53.66 52.38 49.94 47.62 46.25 43.15 41.35 40.89 40.40 39.38 38.57 39.42
41.95 42.47 35.45 40.46 43.32 44.84 45.96 37.28 44.50 47.79 47.49 48.27 49.58 48.46 48.62 50.81 51.11 50.29 50.59 50.42 50.68 51.29 54.55 59.16 63.53 63.71 63.76 63.99 63.50 63.04 62.76 58.10 56.46 55.30 54.48 53.26 52.22 51.37 49.03 46.36 44.51 42.68 40.33 39.53 38.93 39.11 38.31 36.73 36.34
39.88 32.72 35.72 37.86 42.65 43.37 43.72 39.06 44.80 46.88 46.48 45.59 46.07 46.04 47.08 48.15 49.58 49.42 49.89 50.08 51.28 52.44 54.76 58.72 61.35 62.37 62.76 62.34 60.10 56.53 55.54 53.90 53.12 52.22 51.20 49.83 48.90 48.43 46.80 44.49 40.56 39.65 38.75 37.88 38.24 37.07 37.44 35.50 35.78
30.72 32.93 35.28 35.99 38.51 40.02 38.98 39.55 43.53 45.49 45.72 45.63 46.01 46.08 46.26 47.13 49.32 51.07 49.65 50.15 51.44 52.51 54.21 58.23 61.00 61.19 57.41 54.42 53.39 52.11 50.77 49.74 49.75 48.34 47.48 46.27 45.39 45.14 43.31 39.74 38.85 38.80 37.76 36.53 36.08 35.52 35.50 36.36 34.81
36.14 32.86 33.28 35.98 40.08 38.28 37.45 37.72 40.14 42.45 42.99 43.91 46.13 47.67 46.68 47.17 49.35 48.17 48.88 49.54 49.99 51.79 52.22 57.92 58.48 54.84 54.10 52.05 50.68 50.92 47.84 46.32 45.21 45.25 44.64 43.94 42.79 40.80 39.59 38.80 37.83 37.33 36.38 34.60 35.22 34.44 33.94 34.68 35.01
36.07 33.66 32.69 34.67 38.39 37.12 35.95 35.72 39.48 40.61 41.94 44.12 45.03 46.65 46.89 47.86 45.39 47.45 48.09 48.16 50.42 51.79 51.89 56.23 55.13 53.82 54.00 53.07 49.23 48.12 47.26 44.31 43.21 43.00 42.15 41.14 39.77 39.41 39.18 37.48 36.42 35.88 35.07 33.94 33.25 32.97 32.67 32.66 33.58
32.60 31.41 30.99 30.74 34.88 36.54 34.48 31.63 34.34 38.61 41.02 42.49 43.93 45.49 47.46 48.47 46.32 46.43 46.61 47.81 50.21 51.61 51.88 53.93 52.38 51.17 50.14 48.13 47.01 44.99 43.86 42.78 41.61 40.70 40.05 38.15 38.42 38.19 37.50 36.66 35.65 34.65 34.40 33.11 32.31 32.21 31.69 30.83 31.50
29.94 35.29 35.19 34.09 31.24 25.99 32.04 23.07 30.82 34.88 37.18 38.03 40.85 43.17 46.49 47.96 45.72 46.72 46.77 48.53 50.54 51.66 52.93 51.26 50.87 49.82 48.65 48.66 47.42 46.81 45.00 42.40 41.12 39.75 36.53 36.14 36.92 36.73 36.74 35.90 34.87 34.10 33.60 32.30 32.76 32.99 31.09 30.70 29.35
32.31 36.84 35.19 34.92 32.24 30.75 30.42 28.16 27.85 33.68 34.16 37.03 40.01 42.14 45.25 48.09 47.48 46.48 47.43 50.18 51.24 51.94 50.83 50.04 49.45 49.09 47.85 48.26 49.89 47.95 44.83 41.74 39.66 37.50 34.67 34.27 34.50 35.33 35.40 34.81 33.83 33.21 32.95 31.69 31.10 30.42 29.60 30.22 28.91
38.18 34.60 34.73 34.40 32.68 25.36 28.87 27.37 27.81 30.56 33.85 36.20 39.88 42.08 45.33 46.60 45.53 47.06 48.34 50.64 50.23 50.13 49.24 48.94 48.51 46.30 46.60 49.37 48.55 46.84 42.20 39.55 37.30 34.10 33.96 33.44 33.57 33.78 33.82 34.12 32.65 31.98 31.84 31.11 30.61 29.92 29.41 28.78 28.49
36.06 33.63 25.31 24.13 23.90 21.53 29.56 27.04 29.94 33.70 35.97 38.13 39.64 41.09 43.98 44.89 44.31 46.16 48.21 50.12 49.33 49.21 48.51 48.41 47.76 45.02 47.49 46.39 45.45 44.96 42.05 39.74 36.53 34.70 34.11 32.90 32.51 32.27 31.79 31.91 31.15 30.84 30.91 30.92 30.38 29.44 28.63 28.42 27.50
32.31 31.80 25.78 19.05 16.80 19.84 29.42 24.42 28.67 37.33 40.83 41.76 42.44 42.14 43.33 42.90 43.96 46.93 49.05 50.67 50.03 49.51 48.44 48.96 47.15 44.25 45.55 44.53 41.10 39.04 38.45 37.58 36.03 34.63 33.74 32.63 32.03 31.60 31.08 30.72 30.56 30.36 30.57 30.07 29.24 28.96 28.54 28.45 27.31
33.90 28.88 33.48 28.38 28.80 25.44 25.30 29.56 35.36 40.56 39.81 41.15 40.62 40.72 40.84 42.40 44.14 46.82 49.25 50.30 49.16 48.51 48.16 47.27 45.40 43.23 41.67 39.40 37.96 36.31 36.11 35.84 34.33 32.57 32.12 31.49 31.35 32.55 30.24 30.09 29.89 29.77 29.87 29.48 28.60 27.64 27.47 27.03 26.95
35.51 37.11 28.77 28.45 19.97 18.44 21.80 24.14 26.10 34.29 36.87 39.18 40.45 41.05 41.30 42.55 44.26 46.76 48.66 47.35 47.39 46.71 43.61 43.70 43.34 40.99 37.82 36.25 35.98 34.60 33.21 32.95 31.95 31.66 30.70 30.40 30.20 30.14 29.88 29.67 29.49 29.35 29.20 28.67 27.72 27.17 27.63 27.03 27.33
32.71 31.34 32.14 30.55 29.20 20.49 15.78 21.28 33.92 37.05 37.44 39.62 40.92 41.96 42.28 42.68 44.86 46.87 46.22 44.69 42.17 41.34 41.81 39.70 38.69 38.12 34.83 33.98 33.12 32.65 31.61 31.22 30.59 30.18 29.66 29.60 29.50 29.53 29.47 29.42 29.10 28.70 28.19 27.74 26.70 26.36 27.57 26.80 26.66
35.08 31.99 31.74 25.42 19.86 24.31 21.20 24.77 36.47 37.99 39.50 41.41 42.05 41.30 40.94 43.27 45.38 45.05 43.55 41.68 41.31 39.28 38.88 37.42 36.15 34.79 33.15 32.62 32.07 31.04 30.72 30.11 29.48 28.88 28.94 29.37 28.72 29.02 28.93 28.85 28.46 28.01 27.86 26.94 25.95 26.10 26.63 26.21 25.80

GFSSGP_sfc_wetblb_021.txt.gz
Wetbulb
65.88 62.57 56.54 55.26 48.93 45.55 42.01 44.16 47.66 47.76 49.15 52.07 51.72 52.44 52.47 53.48 53.12 51.83 63.75 66.56 66.84 69.46 71.83 73.52 74.80 74.34 73.06 71.70 70.92 69.62 69.08 68.55 68.19 69.66 70.19 68.73 67.39 65.53 65.58 66.60 65.56 64.98 64.98 64.55 65.69 65.90 66.39 66.85 66.75
63.26 60.07 55.83 50.66 44.84 40.54 42.08 44.84 45.92 48.86 50.71 50.76 51.70 53.72 52.91 54.34 59.38 60.53 63.81 66.23 68.02 70.39 72.03 72.70 74.67 74.39 73.13 71.70 70.77 69.30 68.45 68.22 67.75 69.87 69.32 67.68 66.50 65.24 65.84 66.05 65.55 65.52 65.05 64.27 64.28 64.34 64.12 64.11 64.12
60.27 55.53 52.91 47.48 42.13 40.52 42.06 44.92 47.66 49.83 50.51 49.98 52.18 54.66 54.60 56.40 60.56 61.72 64.75 66.95 69.20 70.32 72.72 72.70 74.70 74.30 73.14 71.79 70.67 69.31 68.24 67.56 67.58 68.79 68.56 66.59 66.81 66.66 65.96 65.90 66.11 65.88 64.87 64.45 64.28 64.48 64.82 65.14 65.26
57.14 55.07 50.56 45.08 41.92 44.05 44.25 45.99 48.85 49.47 52.06 51.76 52.74 52.65 56.45 59.60 61.08 62.89 66.34 69.43 69.82 70.94 72.80 73.22 74.37 74.19 73.33 72.22 70.71 69.65 68.09 67.66 67.48 67.15 67.35 67.40 67.40 67.43 67.37 67.74 67.60 66.36 65.11 64.60 64.61 64.58 64.47 64.64 65.04
54.19 51.15 44.95 42.26 42.36 44.85 46.72 47.96 49.33 49.02 49.24 49.80 51.06 51.93 54.78 59.48 62.38 64.71 67.56 69.36 69.22 70.80 72.03 72.90 74.24 74.02 73.20 71.76 70.86 69.79 68.86 67.65 67.45 67.61 67.20 66.95 67.50 67.84 68.74 69.37 67.93 66.71 65.46 64.93 64.99 65.67 66.11 66.29 66.33
51.05 48.97 41.63 39.60 42.11 45.06 47.78 49.56 49.61 48.90 49.41 49.84 51.17 52.64 55.10 59.39 62.72 66.08 68.31 68.92 69.78 70.42 71.31 72.67 73.00 73.29 72.87 72.04 71.06 70.03 68.98 68.22 67.42 67.81 67.45 67.11 67.76 69.22 69.07 68.70 67.88 66.98 65.81 65.64 66.02 66.61 66.82 66.78 66.64
49.09 45.48 41.71 40.88 41.59 43.29 46.78 50.31 48.93 49.35 49.18 49.37 52.94 51.37 55.19 57.98 62.96 66.70 67.52 68.32 69.36 70.21 70.44 72.07 72.63 72.42 71.96 71.70 71.14 70.79 69.57 68.93 68.13 68.27 68.03 68.41 67.54 67.98 69.43 68.86 67.88 67.06 66.34 66.60 66.92 67.32 67.33 67.22 67.70
50.16 47.87 41.71 42.25 42.09 43.31 48.96 49.90 51.85 49.63 48.74 52.41 54.14 51.20 52.80 57.01 62.66 66.08 66.54 66.55 67.57 68.99 70.01 70.96 72.18 72.45 71.95 71.17 70.51 70.35 70.07 69.67 68.74 68.23 67.96 67.44 66.81 66.04 67.50 68.78 68.47 67.41 67.16 67.19 67.45 67.68 68.21 67.97 67.33
51.64 45.45 41.79 42.51 42.24 45.19 49.50 48.76 51.93 52.77 50.97 52.56 53.51 53.55 55.26 58.07 60.80 63.37 64.85 65.62 65.97 67.07 68.81 70.46 71.28 71.90 71.44 70.74 69.74 69.79 69.39 68.74 68.06 66.99 66.05 66.29 66.72 65.11 64.76 65.02 66.25 66.43 66.74 67.20 67.08 67.32 65.24 62.98 60.50
49.77 44.72 43.83 46.76 46.62 46.91 48.70 48.95 50.01 50.58 50.22 51.33 52.70 54.86 55.72 58.51 59.59 60.71 62.24 63.75 65.06 65.97 67.42 69.52 70.55 71.12 70.93 69.76 69.86 69.60 69.05 68.67 68.30 67.23 66.51 66.12 65.10 64.20 63.42 62.92 63.67 64.50 64.93 64.73 64.60 60.49 57.91 57.39 57.13
48.56 44.51 46.92 48.51 50.15 51.03 49.64 49.43 51.10 49.61 48.67 51.25 52.00 52.86 54.38 56.31 58.74 59.24 60.60 62.12 64.48 66.16 67.42 68.18 69.45 70.02 70.45 69.90 69.44 69.21 69.00 68.55 67.70 66.96 66.03 65.51 64.42 64.36 64.44 64.60 64.45 65.42 62.65 57.97 55.28 54.03 54.29 53.80 53.79
44.35 47.34 48.78 49.74 51.31 50.36 49.33 51.17 50.43 50.10 51.34 53.09 52.95 54.06 53.86 55.07 54.82 58.92 59.71 60.95 62.65 64.77 66.52 68.18 68.88 69.22 69.41 69.78 68.99 68.70 68.11 68.14 67.39 66.90 65.80 64.91 64.42 63.01 63.42 64.66 61.25 56.00 55.00 52.29 52.01 51.98 50.83 50.26 50.26
44.50 45.50 47.72 48.72 48.01 48.28 49.90 48.62 49.20 50.04 53.29 54.44 54.90 55.39 54.34 54.78 54.72 55.33 58.28 60.33 60.89 62.32 65.45 67.52 68.66 68.72 68.71 68.48 68.48 68.14 67.60 67.26 67.17 66.51 65.66 65.02 64.01 63.26 58.51 56.67 53.68 52.34 51.46 50.23 50.27 49.14 47.99 47.75 47.71
44.78 45.13 45.44 46.68 46.89 47.72 46.89 47.36 48.37 49.96 52.66 52.95 53.15 53.53 53.85 53.64 55.01 55.22 54.99 55.35 57.13 60.60 62.01 65.67 67.53 68.42 68.45 68.12 67.55 67.50 67.46 67.15 66.49 66.21 65.38 64.18 63.11 58.16 54.82 52.57 50.96 48.98 48.06 47.65 47.70 46.75 46.18 45.61 45.70
46.17 42.60 43.88 44.64 45.83 45.52 47.64 43.33 44.18 49.97 51.32 50.93 51.61 52.66 53.86 54.96 55.60 54.40 56.12 55.88 56.84 56.59 57.21 60.51 65.51 67.72 67.57 67.70 67.35 66.83 66.96 66.53 65.78 65.21 64.41 63.62 58.04 55.45 52.57 50.10 48.21 46.74 45.57 46.64 47.38 46.45 45.52 44.90 44.42
42.68 42.61 36.63 42.13 44.50 45.55 45.63 37.28 45.01 49.10 48.84 48.97 50.40 51.63 52.06 53.84 54.98 56.73 55.30 55.32 56.55 55.76 55.02 56.03 62.27 66.06 66.87 67.01 66.67 66.33 66.24 64.79 62.46 61.58 58.71 56.11 54.46 52.78 49.80 47.31 45.73 44.92 45.95 46.05 45.35 45.54 45.14 43.60 43.30
39.04 33.01 35.87 38.18 44.21 44.09 44.10 40.35 46.37 48.92 47.58 47.26 48.37 49.55 50.33 51.93 53.51 54.44 54.60 54.33 55.02 55.30 55.51 57.46 62.29 64.84 65.69 65.94 65.93 64.90 62.63 58.79 56.71 55.01 53.39 52.45 51.31 49.63 47.17 45.18 44.61 45.03 44.40 44.23 44.32 43.23 44.32 42.32 42.60
31.40 33.36 35.38 35.41 40.33 40.67 39.17 39.14 42.91 45.37 45.56 46.26 47.29 47.81 48.96 49.88 51.53 54.10 54.89 54.21 54.39 55.07 56.17 58.33 62.06 64.36 65.09 62.71 58.66 57.52 54.08 52.10 52.06 51.34 49.66 49.06 47.94 46.56 46.01 44.73 44.22 44.11 43.26 42.52 42.83 42.11 42.48 41.76 41.02
36.78 35.34 34.21 36.87 40.50 38.04 37.92 38.19 40.62 43.51 44.07 43.96 45.19 46.32 47.82 49.04 52.28 53.62 53.72 53.65 53.68 54.93 56.18 59.13 62.08 63.29 59.76 57.29 55.32 54.11 52.72 48.90 47.57 47.28 46.69 45.92 45.14 44.19 44.66 43.55 43.07 42.78 41.65 41.19 41.14 41.77 40.36 40.16 40.82
37.35 35.04 34.74 37.49 38.56 37.35 36.32 35.46 39.38 41.32 42.23 43.90 44.56 45.45 46.77 49.09 50.79 51.82 52.00 52.42 52.86 54.95 55.91 60.26 61.41 58.99 59.06 58.78 56.30 54.42 51.78 48.00 45.40 44.81 43.69 44.30 43.32 44.32 43.56 42.77 41.71 41.58 40.93 40.45 39.87 40.00 39.99 39.43 39.53
34.82 33.18 33.16 32.93 35.69 37.29 35.06 32.92 36.59 40.02 41.40 42.65 44.00 45.34 46.39 47.82 48.93 50.96 51.36 51.49 52.64 53.71 54.97 59.27 57.67 57.27 56.52 53.72 49.97 47.72 46.45 43.74 42.84 42.11 41.62 41.35 42.87 42.91 42.29 41.80 41.21 40.79 40.90 39.41 39.02 39.07 38.72 37.48 38.10
30.98 35.92 35.48 34.12 31.90 26.41 34.18 24.70 33.83 37.39 38.86 40.35 40.57 42.11 43.97 45.68 47.56 50.17 51.33 50.87 51.69 53.86 55.04 57.53 55.30 54.04 52.49 52.94 50.82 50.18 49.20 44.66 43.78 41.67 40.55 40.08 42.06 41.44 41.10 40.76 40.36 39.94 39.53 39.04 38.51 38.08 38.02 38.21 35.94
32.89 36.74 34.70 34.45 32.45 30.86 31.12 27.87 31.31 35.57 35.03 37.98 41.05 42.09 42.46 45.06 47.52 49.21 50.88 51.81 52.58 53.93 54.87 55.07 53.60 52.69 51.70 52.90 52.24 53.02 48.78 43.31 41.08 39.97 38.50 38.74 40.11 40.36 39.92 39.83 39.36 38.80 38.52 37.75 37.57 36.97 36.74 37.04 36.45
38.80 35.06 34.69 34.84 32.69 25.83 29.50 28.68 29.60 33.62 35.55 36.96 40.13 42.41 44.04 46.19 47.42 49.98 51.09 51.80 52.23 54.20 53.72 53.06 52.38 51.20 51.12 51.83 51.61 50.31 44.17 40.84 38.88 38.79 37.47 38.56 38.73 38.60 38.53 38.09 38.13 37.89 37.50 37.16 36.71 36.46 36.08 35.89 35.44
36.21 33.49 26.05 23.54 24.60 23.02 30.67 28.42 31.08 36.15 39.00 39.80 40.24 41.26 43.15 44.97 47.34 48.13 48.68 50.34 51.74 52.87 52.31 51.70 51.54 49.07 50.33 51.89 49.73 47.35 42.59 41.97 39.91 39.61 38.13 37.68 37.28 37.20 36.88 37.03 36.79 36.49 36.65 36.29 36.50 36.09 35.60 35.38 35.09
33.25 32.01 25.80 18.81 19.51 23.05 29.22 25.90 31.08 38.23 41.44 41.93 42.41 43.04 43.54 44.62 46.44 47.12 49.03 51.04 52.02 52.68 51.70 51.68 50.22 48.80 49.05 49.03 47.84 45.00 43.52 41.68 40.04 39.26 39.07 38.46 37.86 36.92 36.44 36.01 36.05 35.85 35.83 35.60 35.60 35.80 35.55 35.15 34.89
33.57 29.31 34.07 28.20 28.83 24.93 27.80 30.62 35.01 38.03 38.75 41.71 42.46 44.11 43.74 43.45 45.59 46.63 49.01 51.26 52.14 52.11 51.38 50.67 49.37 48.38 47.79 45.14 41.69 40.46 40.04 39.31 38.57 38.56 38.31 37.40 36.54 35.67 35.46 35.66 35.31 35.28 35.19 34.99 34.61 34.85 34.29 34.21 34.23
35.64 36.39 27.94 29.12 19.39 18.87 24.25 25.71 28.41 32.47 35.42 40.23 40.57 43.10 44.42 44.43 44.62 46.69 49.06 51.12 51.93 52.02 50.75 49.77 48.47 47.07 43.70 41.59 40.70 39.12 39.01 38.84 37.73 37.29 36.14 35.87 35.56 35.13 34.94 34.82 34.84 34.58 34.41 34.10 33.77 33.65 33.56 33.45 33.90
33.09 31.48 32.85 31.12 29.07 21.70 19.82 25.05 32.85 34.43 37.84 39.14 41.38 43.46 43.98 43.76 44.47 46.64 49.36 50.06 49.89 48.15 48.05 46.38 45.07 41.73 39.87 38.66 37.26 37.76 36.76 36.27 36.34 35.56 34.98 34.76 34.61 34.63 34.42 34.27 33.95 33.70 33.37 33.02 32.92 32.60 32.85 32.22 32.48
35.77 33.00 32.58 26.63 24.09 27.45 24.89 25.44 38.34 39.73 39.62 41.35 41.87 43.39 44.61 44.64 44.97 47.58 46.29 44.65 45.38 44.53 44.32 44.45 42.24 39.30 37.56 36.61 36.72 35.64 35.08 34.85 34.42 33.87 33.77 34.32 33.72 34.10 33.75 33.48 33.11 32.81 32.26 32.10 31.74 31.62 32.08 31.79 31.37

GFSSGP_sfc_wetblb_024.txt.gz
Wetbulb
67.69 65.70 64.14 60.77 51.81 50.96 47.23 46.68 51.85 51.26 52.64 56.05 55.47 55.65 56.10 57.41 57.44 55.22 67.15 69.94 70.15 71.53 73.89 74.37 74.94 74.50 73.36 71.76 70.76 70.00 69.40 68.49 68.40 69.27 70.20 69.23 66.93 65.96 67.62 66.55 65.40 65.65 65.19 65.52 66.46 66.43 66.67 66.94 67.10
65.96 62.64 62.45 58.02 48.57 45.42 46.85 50.51 49.15 52.50 54.41 55.64 55.42 56.28 56.02 56.23 61.70 64.20 66.08 69.29 70.55 72.01 73.94 73.85 74.55 74.19 72.87 71.71 70.61 69.63 69.27 68.26 69.33 70.49 69.26 67.59 66.27 65.42 66.21 66.06 66.09 65.81 64.95 64.53 64.68 65.09 64.90 64.52 64.52
63.79 60.58 56.64 52.59 48.96 45.55 46.70 50.60 51.14 53.67 55.06 53.59 55.38 58.24 57.68 58.71 63.19 65.26 68.45 69.91 71.06 72.29 73.80 73.66 74.39 73.93 72.57 71.72 70.44 69.36 68.61 67.90 69.09 70.36 68.44 67.69 66.51 66.05 66.28 66.30 66.42 65.85 65.03 64.61 64.87 65.04 65.23 65.46 65.67
61.98 59.78 56.85 48.63 46.56 49.68 50.06 51.15 52.85 53.22 54.86 55.19 55.36 55.36 59.79 62.50 64.21 66.43 68.63 70.25 70.58 71.94 73.44 73.72 74.20 74.01 73.20 71.91 70.41 69.30 68.23 68.04 69.03 68.64 67.63 67.27 66.86 67.16 66.76 66.76 67.09 66.14 65.19 65.16 65.29 65.22 65.29 65.40 65.33
61.47 57.52 49.12 47.03 47.60 50.64 52.45 53.25 53.40 52.56 53.62 54.26 54.43 54.71 57.35 63.16 65.85 67.25 69.38 70.25 70.02 71.53 72.80 73.53 74.41 74.02 73.23 71.70 70.59 69.43 68.42 68.00 67.80 67.86 67.53 67.46 67.40 67.50 67.95 69.05 67.71 66.65 65.50 65.27 65.41 66.12 66.18 66.30 66.48
54.70 55.04 46.10 44.13 47.07 50.31 52.60 54.23 53.78 53.38 54.01 54.54 53.40 54.50 57.53 63.93 66.16 68.10 70.16 70.63 70.98 71.23 72.21 72.71 73.23 73.33 72.98 71.87 71.11 69.94 68.83 67.98 68.09 67.85 67.50 67.71 67.80 69.37 69.09 68.67 67.78 66.96 65.85 65.90 66.17 66.76 67.05 66.89 66.79
52.31 50.00 45.74 46.57 46.94 48.57 50.73 54.27 52.80 53.10 53.39 53.93 55.83 53.79 58.25 62.06 67.22 69.40 70.29 70.83 70.93 71.26 71.72 71.96 73.55 72.76 71.92 71.78 71.21 70.60 69.51 69.07 68.93 68.73 67.86 68.00 67.08 69.23 69.69 68.89 67.86 67.11 66.33 66.81 67.07 67.48 67.49 67.78 68.18
55.11 51.66 46.47 47.24 45.91 46.66 51.67 52.79 54.21 53.67 52.95 56.21 56.97 53.64 55.50 59.36 67.26 69.21 69.64 70.01 70.31 70.83 71.23 71.20 72.76 72.51 72.13 71.62 70.55 70.29 69.95 69.36 68.88 68.49 68.33 67.87 66.39 66.58 68.98 68.72 68.28 67.63 67.16 67.29 67.60 68.22 68.09 66.75 64.44
56.92 47.87 44.90 46.38 46.85 48.26 52.56 51.20 54.88 56.00 54.72 55.88 56.66 56.56 58.24 60.74 66.11 67.48 67.70 68.27 68.92 69.37 70.62 70.97 71.26 71.93 72.02 70.89 70.05 69.81 69.46 68.64 67.87 67.19 66.66 66.60 67.80 66.62 66.42 65.64 66.27 66.22 66.97 66.58 66.90 64.64 63.18 61.32 60.54
52.48 47.45 47.08 50.96 51.57 49.89 51.90 52.13 53.07 53.01 53.60 54.48 55.81 57.84 58.97 61.16 63.48 65.17 65.72 66.16 67.25 68.02 69.27 71.03 71.30 71.28 71.45 70.73 70.64 69.88 69.20 68.64 67.44 66.68 66.42 66.30 65.82 65.81 65.65 64.37 64.03 64.94 64.85 64.34 61.42 59.32 57.74 62.11 62.05
51.50 47.58 50.57 51.05 52.42 52.77 52.37 52.44 54.52 52.51 51.17 54.44 55.02 56.48 58.22 58.87 60.15 61.96 64.27 65.83 67.01 68.42 69.36 70.35 70.98 71.54 71.21 70.27 70.49 69.83 69.37 68.95 68.73 68.18 67.35 66.16 64.94 64.94 66.13 66.91 66.64 67.63 63.39 62.72 57.14 59.60 59.15 58.07 57.90
47.16 50.42 51.11 51.11 53.11 52.54 51.69 53.84 52.56 53.34 53.53 56.06 57.12 57.66 58.48 58.95 59.68 59.64 62.01 63.96 65.51 67.43 69.03 69.81 70.32 71.12 71.57 70.86 70.42 70.03 69.00 69.13 68.45 68.27 66.90 65.80 65.83 66.05 66.32 67.10 65.55 62.82 59.07 54.82 56.27 58.48 56.25 54.84 53.70
47.67 48.66 49.88 51.43 51.54 51.44 51.99 50.48 51.18 51.81 55.38 57.31 57.80 58.02 58.34 59.06 59.94 60.94 60.68 62.86 65.42 65.63 67.89 69.57 70.54 71.03 71.35 70.80 70.48 69.94 68.93 69.10 68.97 68.34 67.17 66.99 66.28 66.08 65.85 63.11 60.58 55.41 54.41 56.62 57.38 55.85 53.69 52.02 51.03
48.24 48.35 48.87 49.74 49.83 50.12 48.38 49.19 50.32 51.58 54.60 54.22 54.89 55.36 56.57 57.71 59.20 60.36 60.72 60.44 61.00 64.36 66.03 68.75 70.05 70.78 71.21 70.73 70.52 69.87 69.15 69.18 69.11 67.98 67.42 67.33 66.82 64.44 59.41 56.50 52.98 51.03 51.59 51.75 53.64 51.92 51.12 50.51 49.73
48.94 45.19 47.68 48.42 48.87 48.07 49.83 45.83 46.81 51.93 53.31 52.37 53.41 54.44 55.59 56.56 58.16 59.30 60.66 60.95 61.61 62.07 62.90 65.37 68.25 70.35 70.71 70.72 70.73 70.11 69.25 69.22 68.63 67.76 67.88 67.52 64.61 58.35 56.17 53.22 50.43 49.02 49.04 51.06 52.02 50.98 50.84 50.13 48.98
44.46 44.87 41.00 45.97 47.07 48.29 47.44 41.26 47.95 51.96 51.78 51.56 52.88 53.97 54.53 55.46 56.55 57.69 59.47 60.60 61.63 61.94 61.63 61.72 62.38 66.87 69.46 70.20 70.51 70.06 69.06 69.29 68.48 68.12 67.65 64.87 59.53 56.25 53.01 50.57 48.31 48.35 49.20 50.90 50.27 50.23 50.19 48.63 47.98
42.56 38.32 39.68 42.42 47.22 46.59 46.02 43.64 48.77 51.86 51.00 50.88 52.17 53.36 54.20 55.37 56.83 58.06 58.51 59.59 60.72 61.09 61.72 61.27 61.62 62.68 66.27 68.87 69.94 69.77 68.93 69.15 67.82 64.88 62.39 59.31 55.69 53.00 50.37 48.24 47.99 49.92 49.85 49.64 48.66 48.27 47.85 46.78 46.81
37.46 37.50 39.39 39.17 43.51 44.65 43.36 43.54 47.48 49.75 49.47 49.60 50.98 52.43 53.39 53.87 55.16 57.79 59.04 60.01 60.17 60.39 61.32 61.51 61.73 63.40 66.06 67.96 68.66 68.69 68.40 66.81 63.82 59.31 56.51 54.71 53.09 50.58 48.16 48.97 49.77 49.60 48.71 47.93 47.55 46.37 46.20 45.34 45.11
39.85 38.71 38.22 41.30 43.86 41.72 40.95 41.91 44.43 47.27 47.74 47.58 48.50 49.31 50.56 52.18 55.08 56.55 58.11 59.42 59.97 60.25 60.43 61.17 61.62 63.86 65.83 66.50 65.96 64.89 61.70 61.07 58.88 54.05 53.20 52.64 48.97 47.36 48.33 48.79 49.11 49.04 48.01 46.58 45.84 45.49 44.52 44.17 44.52
38.45 35.82 35.88 40.39 42.88 41.08 39.93 39.18 42.85 44.80 45.52 46.68 47.10 48.00 48.82 50.01 52.24 54.13 56.07 57.87 58.84 59.20 60.29 61.14 62.31 64.39 65.61 65.70 64.84 64.41 61.02 57.85 56.75 52.57 48.36 50.93 49.37 46.55 48.07 49.40 48.27 47.61 46.30 45.53 44.66 44.69 44.52 43.77 43.68
37.63 35.39 35.28 34.67 39.89 41.31 39.21 37.52 41.61 44.25 45.74 46.70 47.30 48.03 48.89 49.27 49.84 51.57 53.78 56.16 58.00 58.52 59.90 60.76 63.24 64.62 64.96 64.50 64.34 59.95 53.69 50.69 48.74 48.56 43.76 44.55 45.41 47.52 47.16 48.32 47.45 46.77 46.45 44.82 44.12 44.06 43.12 42.74 42.93
34.84 40.51 38.56 36.42 34.18 29.90 37.88 30.59 39.31 42.66 43.19 44.41 45.72 47.08 47.75 48.93 50.00 50.53 51.80 54.05 56.23 58.31 60.37 61.01 63.74 63.52 63.73 63.29 57.93 55.41 54.72 53.05 52.05 48.46 44.22 42.41 44.98 45.51 47.16 46.90 46.41 45.84 45.03 44.07 43.01 42.77 42.70 43.05 41.07
35.90 39.43 37.49 37.06 34.31 32.78 34.40 28.78 36.70 40.37 39.75 42.71 45.74 47.51 48.81 50.15 50.15 50.11 51.26 52.49 54.64 58.22 59.56 60.79 62.68 62.48 61.22 59.52 59.27 58.93 56.99 55.24 48.76 43.97 40.91 41.22 42.65 44.95 45.83 45.69 45.24 44.38 43.86 43.12 42.47 41.72 41.71 42.01 41.43
40.41 37.51 37.06 36.24 33.53 27.55 33.11 30.80 33.99 39.04 41.50 43.20 44.79 46.65 48.05 48.82 50.23 50.97 52.25 53.53 54.31 57.79 59.11 60.44 60.72 59.95 59.50 60.09 59.31 59.38 55.56 48.56 43.60 40.57 39.71 40.02 42.65 44.32 44.45 44.17 44.12 43.47 42.77 42.14 41.70 41.38 40.60 41.41 40.81
37.81 33.48 28.03 25.27 25.75 25.84 35.50 32.98 35.13 40.82 42.53 43.67 44.65 46.28 47.79 49.28 49.58 50.43 51.89 53.24 54.82 55.98 57.89 58.89 59.29 58.38 58.71 59.15 58.84 57.31 52.12 48.52 46.57 41.69 41.11 42.73 42.91 43.32 42.87 43.05 42.47 42.18 41.91 41.36 41.37 40.93 40.77 40.60 39.94
35.06 33.60 28.46 21.77 24.90 28.43 34.56 28.82 35.49 43.09 44.80 45.82 46.25 47.52 49.76 50.39 51.98 51.06 51.82 53.76 54.95 55.84 57.39 57.85 58.04 57.03 57.78 57.92 55.32 51.39 49.73 48.14 46.56 44.40 44.93 45.37 44.01 43.68 42.83 42.27 41.74 41.00 40.62 40.55 40.56 40.79 40.92 40.29 39.80
34.26 30.94 37.27 29.65 31.81 26.83 31.25 35.69 40.65 42.54 42.64 43.92 44.89 47.08 48.35 49.73 51.12 51.17 51.78 53.49 55.21 56.23 57.10 57.27 57.29 56.56 57.12 55.88 51.03 45.91 45.06 44.12 42.94 44.76 44.58 43.56 43.95 41.87 41.58 41.30 40.58 40.32 40.09 39.73 39.66 40.28 39.41 39.25 38.99
37.45 38.74 29.14 30.58 21.78 21.39 29.04 31.23 32.63 38.01 39.97 43.21 44.22 45.43 47.91 49.49 50.32 50.67 51.56 52.74 55.15 56.73 57.38 57.68 57.22 55.83 56.03 53.80 48.40 43.59 42.85 41.80 44.10 41.79 41.78 41.13 41.81 40.97 40.56 40.22 39.95 39.44 39.18 38.93 39.00 38.87 38.36 37.74 38.55
33.52 32.19 34.19 33.14 31.09 24.20 24.01 29.86 40.19 39.10 40.93 42.14 43.67 45.98 47.76 48.72 49.69 50.44 51.06 53.77 55.45 56.64 56.75 55.96 55.44 54.30 52.14 49.36 45.50 42.45 40.29 39.68 41.95 39.81 41.19 41.78 40.84 40.34 39.67 39.41 38.97 38.58 38.18 37.97 38.15 37.54 37.18 36.41 36.70
38.44 34.53 33.43 27.66 26.35 29.25 28.32 29.32 41.55 42.33 43.33 44.05 44.08 46.01 47.69 48.64 49.20 50.20 51.33 53.11 54.37 54.58 54.49 53.90 52.84 50.81 49.06 45.33 42.95 38.58 39.34 39.51 41.81 39.66 40.96 40.61 39.57 39.66 38.91 38.45 37.94 37.49 36.88 37.06 36.68 36.21 36.50 35.89 35.54

GFSSGP_sfc_wetblb_027.txt.gz
Wetbulb
68.54 65.76 64.42 61.21 51.80 51.62 48.17 49.88 52.34 51.68 52.17 56.37 57.29 56.06 56.50 58.50 57.03 55.02 68.29 70.22 70.62 72.51 74.64 73.99 74.64 74.15 72.84 71.57 70.41 69.83 69.20 68.75 68.57 69.85 70.85 69.12 68.13 68.00 67.64 66.52 66.39 65.81 65.32 66.59 67.26 67.00 67.07 67.23 67.20
65.98 63.32 62.31 57.37 48.85 45.95 48.09 52.44 49.95 51.74 55.15 57.02 56.77 56.56 56.40 56.76 62.38 65.38 66.87 69.77 70.82 73.08 73.62 73.79 74.58 74.09 72.91 71.49 70.49 69.98 68.77 68.70 69.25 70.41 69.52 67.71 66.40 67.16 66.72 66.92 66.82 65.61 65.38 65.47 65.93 65.89 65.68 65.70 65.81
64.87 62.37 56.40 52.73 49.11 45.76 47.84 52.33 52.50 53.87 56.12 55.74 55.79 58.80 58.80 59.20 63.87 66.16 69.74 70.13 71.05 72.60 73.53 73.74 74.41 73.65 72.67 71.43 70.22 69.55 68.93 68.97 70.12 69.88 68.50 67.36 66.52 66.79 67.07 66.96 66.99 65.48 65.25 65.28 65.45 65.69 65.76 65.85 66.01
61.78 59.60 56.48 49.05 47.29 50.61 51.28 53.03 53.48 53.61 55.33 56.53 57.11 55.51 60.57 64.35 64.97 67.71 69.96 70.20 70.85 72.49 73.71 73.39 73.66 73.49 72.99 71.35 70.06 69.15 68.11 68.24 70.78 69.36 68.86 67.19 66.75 66.41 66.52 67.05 67.12 65.65 65.55 65.79 65.88 66.32 66.16 66.11 65.82
61.51 56.82 49.73 47.49 47.54 50.65 53.50 54.40 54.30 53.04 54.18 55.35 56.39 55.51 58.22 64.56 67.29 69.15 69.63 69.79 70.50 71.79 73.84 73.47 73.93 73.53 72.95 71.40 70.25 69.10 68.23 68.55 69.10 68.20 67.58 67.44 67.14 67.47 67.65 68.05 67.51 66.23 65.65 65.69 66.07 66.55 66.50 66.62 66.71
54.86 54.84 46.73 44.66 47.77 51.34 53.37 55.16 54.51 53.82 54.72 55.17 54.97 56.05 58.77 65.94 66.73 69.07 70.07 69.62 70.54 71.36 72.62 73.09 72.99 73.03 72.76 71.57 70.58 69.41 68.52 68.32 68.18 68.24 67.72 68.36 67.63 68.48 68.84 68.72 67.75 66.86 66.06 66.20 66.44 67.12 67.41 67.12 67.44
53.13 50.88 46.50 47.48 47.62 49.26 51.89 55.54 53.44 53.69 54.14 54.26 56.88 54.25 59.58 63.57 68.11 69.52 69.91 70.25 70.27 71.36 71.62 72.67 72.96 72.36 71.83 71.68 71.15 70.52 69.58 69.33 68.96 68.70 68.04 68.23 67.62 70.06 69.62 68.77 67.94 67.16 66.87 67.08 67.50 67.71 67.57 68.20 67.69
55.24 52.13 47.55 48.02 46.47 47.56 52.90 53.87 55.08 54.17 53.71 57.71 57.68 53.53 56.08 62.06 68.29 69.41 69.52 69.74 69.68 70.72 70.85 71.71 72.29 72.63 71.61 70.99 70.57 70.15 69.89 69.33 69.25 69.32 69.04 67.39 66.59 69.06 69.50 69.07 68.28 67.76 67.43 67.69 67.82 68.01 67.45 65.52 63.31
58.27 49.14 45.37 47.34 47.53 49.11 53.49 51.82 55.27 56.65 54.84 55.93 57.38 57.52 59.82 62.14 67.68 67.74 67.63 68.37 68.84 69.31 70.24 70.74 72.07 71.95 71.09 70.26 69.74 69.59 69.29 68.44 67.97 67.39 67.16 66.46 67.00 67.03 67.36 66.18 67.07 67.04 67.27 66.84 65.43 63.78 62.94 62.07 61.22
52.71 47.32 47.41 50.97 51.66 50.93 52.69 52.84 53.73 53.43 53.65 53.99 56.25 58.62 60.09 62.00 64.38 65.37 65.69 65.98 67.26 67.95 69.17 70.25 70.85 71.22 70.49 69.66 69.37 69.16 68.51 67.50 65.57 65.33 66.49 66.43 66.70 66.42 65.98 64.73 65.38 66.37 65.72 63.11 61.37 59.22 59.70 61.25 62.23
51.99 47.21 50.76 51.52 53.70 53.96 52.62 52.58 54.77 52.95 51.78 54.17 54.32 57.22 59.08 59.94 61.80 63.25 65.21 65.99 66.83 68.40 69.17 70.25 70.69 71.04 70.55 69.56 69.44 69.11 68.99 68.08 66.98 65.92 65.31 65.24 65.02 64.88 64.74 65.45 64.94 65.41 63.56 62.92 60.34 60.76 60.22 59.24 58.51
48.05 51.05 51.77 52.74 53.59 53.26 51.76 54.09 52.62 53.59 53.87 56.54 57.24 58.72 59.05 58.98 59.77 60.59 62.04 64.38 65.91 67.32 68.70 69.86 70.96 71.03 71.03 70.14 69.58 69.33 68.51 68.36 67.83 67.29 66.29 64.82 64.03 64.06 64.90 65.56 66.04 64.74 62.56 59.81 59.77 59.96 57.86 56.80 55.14
48.63 50.25 51.48 52.42 52.79 52.64 53.37 51.38 51.79 52.87 56.08 57.20 57.57 57.83 58.28 58.83 59.50 61.23 61.89 62.89 64.82 65.73 67.99 69.30 70.47 71.01 71.28 70.82 70.07 69.58 68.55 68.35 68.38 67.74 66.51 64.91 64.86 64.84 65.67 65.45 63.51 60.77 58.70 59.17 59.12 57.89 56.18 53.59 52.05
50.60 50.40 50.47 51.46 51.09 51.51 49.51 49.78 50.75 51.85 54.77 54.66 55.24 55.71 56.76 57.52 58.97 60.15 61.37 61.33 62.24 65.23 66.36 68.68 69.49 70.82 71.06 70.81 70.32 69.65 69.23 68.67 68.06 68.17 66.59 66.17 66.04 65.95 65.06 63.15 59.22 55.37 54.44 54.90 55.78 53.87 52.20 51.53 51.00
50.31 46.79 49.17 49.83 50.41 49.45 51.01 46.77 47.71 52.53 53.69 52.69 53.41 54.34 55.20 56.07 57.31 58.15 60.13 61.44 62.23 62.58 64.96 66.23 68.67 69.95 70.35 70.45 70.63 70.00 69.57 68.85 67.64 68.12 66.89 66.56 66.82 64.99 62.07 57.65 53.62 51.44 52.59 53.99 53.72 52.12 51.74 51.11 50.29
45.72 46.81 42.34 48.43 49.31 50.00 48.42 41.90 49.41 52.80 52.58 51.92 53.00 53.83 54.38 55.22 56.05 57.66 59.16 60.73 62.64 62.87 62.56 63.51 66.30 68.63 69.79 70.04 70.37 70.06 69.75 68.82 67.79 67.87 67.17 66.92 66.14 61.97 59.32 55.66 51.98 50.85 52.28 52.74 51.70 50.96 50.61 49.69 49.31
44.75 40.06 42.63 45.07 49.57 48.03 47.16 44.56 50.18 52.85 52.48 51.13 52.48 53.58 54.30 55.10 56.29 57.10 58.26 59.37 60.82 62.38 62.60 62.88 63.23 64.59 67.32 69.10 69.75 69.84 69.56 67.79 67.49 67.22 66.75 67.01 63.11 59.99 57.24 53.15 50.59 51.27 52.39 51.74 50.15 49.42 48.56 47.89 47.96
40.67 40.73 42.35 41.90 46.02 45.98 44.51 44.32 48.14 50.58 50.92 50.88 51.93 52.97 53.69 54.39 55.61 57.73 58.56 59.29 59.31 60.74 62.13 62.51 62.76 62.32 63.99 67.28 68.93 69.39 67.90 67.27 67.41 67.78 67.13 64.00 58.96 54.08 51.82 50.63 52.09 52.38 51.40 50.15 49.38 48.28 47.95 46.74 45.96
43.27 40.77 40.45 43.69 46.39 43.75 42.81 43.39 45.75 48.29 48.72 48.74 49.52 50.71 51.79 52.77 55.41 57.25 58.05 59.18 59.77 60.00 60.82 61.22 61.93 62.95 63.38 65.26 66.62 67.66 65.78 65.83 65.68 66.06 63.02 59.19 56.15 52.65 51.13 50.72 51.42 51.85 50.78 49.36 48.74 47.50 46.63 45.71 45.59
41.55 39.52 39.40 42.27 44.10 42.72 41.82 41.14 44.66 46.30 46.92 47.87 48.17 49.10 50.44 51.73 52.94 54.17 55.81 57.51 58.48 59.26 60.41 60.79 61.61 62.55 63.73 66.14 67.73 68.10 65.63 63.24 64.09 61.61 58.42 54.68 53.37 51.40 50.50 51.24 51.18 50.52 49.01 47.82 47.28 47.11 45.91 45.10 44.82
40.10 38.14 38.10 37.70 41.22 42.11 40.46 39.02 43.24 46.36 47.16 48.20 48.96 49.42 49.86 50.38 50.77 52.16 53.17 54.98 57.88 58.39 59.94 60.81 61.68 63.09 64.92 66.43 67.68 65.33 57.98 55.28 53.87 54.51 53.20 52.83 51.34 50.29 49.13 50.68 50.33 49.61 49.54 47.44 46.74 46.32 45.30 44.19 44.10
36.17 42.25 40.72 39.21 36.20 32.81 39.80 31.70 40.11 43.79 44.90 46.71 47.52 47.83 48.49 49.60 50.57 51.43 52.36 53.60 55.30 57.78 60.98 61.41 62.20 63.44 65.47 66.90 65.20 62.24 55.80 53.29 52.41 50.80 50.72 49.36 48.42 48.36 47.22 48.14 49.47 48.66 47.99 46.34 45.37 45.01 44.44 44.51 42.08
37.25 40.91 38.83 38.34 35.22 33.35 35.62 31.67 38.01 42.84 41.73 44.22 46.68 48.19 49.48 50.65 51.22 51.18 51.93 53.37 54.74 56.76 60.06 61.71 62.26 63.81 65.51 65.33 65.26 62.28 57.10 58.36 53.26 49.50 47.01 45.66 46.32 47.49 46.63 47.63 48.12 47.15 47.00 45.37 44.15 43.83 43.14 42.87 41.62
41.24 38.43 37.25 37.28 33.97 26.87 33.89 34.56 35.81 39.66 42.10 44.68 47.35 48.67 48.84 49.20 50.05 51.01 52.81 53.40 54.15 56.15 59.18 61.55 61.59 63.56 64.61 64.63 62.78 59.91 59.46 56.23 48.92 47.28 46.13 44.19 44.84 45.41 46.69 47.12 46.87 46.11 45.03 44.11 43.74 43.18 42.72 41.80 41.06
39.01 34.55 29.23 27.54 26.64 26.62 37.29 34.59 36.56 42.17 43.98 44.58 45.28 46.79 48.25 49.24 50.82 51.77 51.43 52.30 53.41 55.09 56.20 60.17 60.73 62.15 63.32 63.13 60.79 60.13 60.78 54.32 49.93 47.37 45.70 43.86 42.59 43.14 44.75 46.18 44.75 44.56 44.44 43.55 43.19 42.50 41.93 41.31 40.34
36.02 35.13 29.39 23.73 26.91 30.66 37.60 30.86 36.76 44.11 45.34 45.94 46.82 47.32 48.19 48.70 51.60 52.96 53.88 54.00 53.70 55.44 56.66 58.62 60.16 61.18 61.13 60.89 60.96 61.40 56.20 53.25 50.16 47.60 45.71 45.58 43.97 44.08 46.21 45.09 44.39 43.24 42.53 42.23 42.22 41.86 41.36 40.85 40.28
35.28 31.01 37.73 30.83 32.37 27.80 32.30 36.90 41.55 43.46 43.66 44.74 45.30 46.26 46.86 49.20 51.07 52.09 53.48 54.16 53.41 55.17 56.79 58.21 59.72 60.44 60.23 60.84 60.79 58.94 53.98 49.37 47.86 45.80 44.80 45.19 45.45 45.86 44.69 43.78 42.56 42.10 41.67 41.51 41.20 40.60 39.87 39.48 39.66
37.64 40.00 29.48 31.05 22.65 22.94 30.99 33.15 34.46 39.80 41.35 43.68 43.89 45.21 46.72 49.43 50.47 51.68 52.94 53.15 53.86 55.47 57.19 58.71 59.41 59.43 59.34 59.96 58.92 54.51 50.12 47.00 45.85 46.16 46.34 45.06 44.31 43.98 43.18 42.48 41.71 41.11 40.71 40.40 40.03 39.49 39.26 38.40 39.00
34.36 32.11 33.81 34.47 32.48 25.80 25.03 31.31 41.88 40.21 41.56 41.55 44.05 46.39 47.41 48.89 49.74 50.69 52.18 53.31 54.52 55.32 57.32 58.02 58.68 58.22 58.53 56.69 52.34 49.58 45.98 45.13 43.98 42.82 42.97 43.81 41.57 42.47 41.88 41.30 40.67 40.01 39.51 39.27 38.78 38.35 38.08 37.41 37.80
39.54 34.68 34.46 28.91 27.65 30.34 29.38 29.47 42.47 42.82 43.24 43.35 43.66 46.21 48.00 48.58 49.34 50.30 51.45 53.38 54.92 56.01 57.19 57.40 57.93 57.29 56.87 51.48 47.36 45.23 43.87 41.96 43.84 41.29 41.52 42.57 41.10 41.22 41.04 40.39 39.63 39.05 38.55 38.11 37.44 37.05 37.48 36.96 36.52

GFSSGP_sfc_wetblb_030.txt.gz
Wetbulb
68.18 65.86 63.21 58.63 48.18 47.69 43.86 47.08 48.13 49.22 49.03 52.14 54.07 52.34 51.01 53.43 55.30 52.15 65.65 67.50 71.62 71.52 72.87 73.09 74.26 73.74 72.79 71.28 70.39 69.91 69.57 69.39 69.77 71.39 71.28 70.18 69.17 68.49 67.68 67.18 66.35 65.86 67.07 67.81 67.79 67.45 67.56 67.36 67.02
65.89 63.90 59.75 54.57 45.13 41.12 43.71 50.20 48.53 49.22 51.68 53.99 53.81 52.83 51.59 52.51 62.61 62.35 64.35 67.63 71.54 72.40 72.27 72.33 74.12 73.81 72.46 70.94 70.43 69.75 68.83 69.01 70.22 70.41 68.83 67.89 67.54 67.65 67.70 67.16 65.99 65.77 66.05 66.73 66.83 66.68 66.60 66.68 66.65
64.73 62.97 52.97 49.47 45.12 41.50 43.25 49.73 50.07 51.65 53.00 51.93 51.45 53.88 53.41 56.54 62.39 63.38 66.53 68.13 71.71 71.88 71.83 72.92 74.11 73.63 72.31 71.07 70.53 69.60 69.52 70.18 70.73 70.60 69.05 67.29 67.64 67.97 67.87 67.66 66.07 65.95 65.91 66.03 66.18 66.19 66.27 66.30 66.44
60.43 57.24 53.54 44.87 43.48 47.44 47.90 50.32 51.50 51.17 51.71 52.82 53.45 51.26 57.12 61.68 61.55 65.73 67.02 68.24 69.47 70.84 71.89 73.22 73.79 73.44 72.71 71.47 70.25 69.70 68.98 70.26 70.38 70.38 69.57 68.35 67.29 67.38 67.74 67.94 66.33 66.17 66.36 66.52 67.04 66.99 66.97 67.02 66.89
58.98 54.65 46.10 43.44 44.25 48.02 50.33 51.83 51.42 49.88 50.84 51.56 53.31 51.28 55.63 61.71 65.55 66.54 66.16 67.82 68.75 70.61 71.52 72.40 73.51 73.32 72.61 70.83 70.07 69.07 68.45 70.83 69.23 68.61 68.09 67.67 67.72 67.66 67.52 68.30 67.01 66.28 66.44 66.75 67.37 67.55 67.63 67.37 67.22
52.10 51.59 42.58 41.42 44.87 48.61 50.22 51.73 51.33 50.11 51.50 51.93 50.07 51.68 55.77 62.85 64.70 65.66 66.47 66.58 69.38 70.77 71.28 71.53 72.57 72.93 72.45 71.36 70.43 69.73 68.99 69.93 69.88 69.47 68.66 68.78 68.13 67.95 68.58 68.58 67.50 66.61 66.88 67.20 67.59 68.00 67.83 67.69 67.96
50.08 47.92 43.29 43.73 44.53 46.29 49.18 52.31 49.37 49.69 50.03 50.73 52.34 48.70 56.64 61.31 65.24 66.91 65.90 66.14 68.26 71.21 71.17 70.81 71.07 71.58 71.53 71.15 70.57 70.07 69.75 69.56 69.66 69.68 69.37 68.03 69.36 70.06 69.90 68.68 67.96 67.07 67.58 67.86 68.05 68.15 67.91 68.17 66.55
51.81 49.32 45.09 45.09 43.72 44.65 50.34 51.20 52.95 50.53 50.15 53.95 54.13 48.37 51.45 61.64 65.40 66.63 66.10 66.09 66.50 68.38 70.42 69.98 70.32 70.38 69.83 69.54 70.22 69.73 69.36 69.43 69.50 69.10 68.92 66.59 68.49 69.12 69.64 68.87 68.50 67.91 67.88 68.03 68.28 67.99 67.21 65.37 63.15
55.63 45.74 42.24 44.35 45.37 46.95 50.90 49.18 52.65 53.70 51.29 52.61 52.67 52.02 57.20 63.87 65.47 64.59 63.98 64.80 64.83 67.36 67.44 70.20 70.29 70.31 69.40 68.69 68.77 69.27 69.02 68.19 68.15 67.77 67.01 65.37 64.35 66.84 66.94 66.87 67.55 68.11 67.53 67.45 65.80 65.08 64.46 63.36 62.98
49.90 45.17 45.76 49.78 49.31 48.52 50.71 49.83 50.54 49.77 50.30 50.43 52.27 56.48 58.96 59.84 62.57 62.71 62.54 62.68 63.67 64.87 66.03 68.72 70.28 70.10 69.83 69.25 67.64 66.44 66.81 65.10 64.32 64.26 64.65 64.43 64.07 64.10 65.55 64.47 66.37 67.34 66.71 64.94 63.12 61.55 62.51 62.10 57.65
49.17 44.58 48.72 49.56 50.57 52.38 51.25 50.72 51.81 49.67 47.98 51.02 50.17 53.45 56.34 58.17 59.25 61.67 62.41 63.15 63.65 64.98 65.66 66.55 68.61 69.56 68.55 68.38 67.40 66.75 66.20 64.85 62.63 62.15 63.82 62.92 62.53 61.78 62.44 61.52 62.82 63.02 61.83 58.76 58.35 57.08 56.17 54.21 53.29
45.69 49.64 50.02 50.66 51.93 51.70 49.81 52.01 50.08 50.24 50.23 54.14 53.98 54.61 54.97 55.74 56.64 58.57 59.74 61.86 63.71 64.71 65.57 66.99 67.32 68.40 68.29 68.39 68.01 66.71 66.39 65.60 63.65 62.27 62.83 60.72 60.24 60.28 60.24 62.30 62.39 62.72 60.36 55.83 55.12 54.02 52.99 51.72 48.95
46.69 48.32 50.28 50.97 51.02 50.51 51.98 49.61 49.40 50.03 52.62 54.15 54.74 54.95 53.76 54.86 55.08 56.44 58.28 59.96 60.87 63.24 65.49 66.54 67.23 67.46 68.55 67.96 68.03 66.75 66.24 65.64 64.97 64.15 62.84 61.14 59.85 59.67 60.59 62.10 60.04 55.72 54.86 54.41 53.61 51.63 50.02 47.11 46.65
48.55 48.89 48.82 49.79 49.10 49.66 48.24 48.25 49.07 49.10 51.93 52.10 53.13 52.85 52.88 53.80 55.46 55.83 56.70 57.67 57.37 60.64 64.25 66.64 67.03 68.20 68.86 67.74 67.09 67.42 66.69 65.97 65.95 64.44 63.18 61.59 61.14 61.00 61.05 57.42 54.75 51.67 50.78 50.66 49.55 47.13 46.34 45.43 45.35
48.98 44.70 47.04 47.75 48.25 47.59 48.80 44.82 45.54 50.29 51.25 49.92 50.26 51.35 52.87 53.34 54.05 54.17 56.34 56.57 57.93 58.21 62.49 65.22 66.65 68.32 67.52 68.18 68.11 67.61 67.05 66.30 65.07 66.12 63.42 62.88 62.66 60.91 58.33 53.71 50.69 49.03 49.35 49.80 48.41 47.09 46.23 45.18 45.38
44.96 44.69 39.30 46.02 47.94 48.55 47.10 38.95 47.05 50.17 49.76 49.12 49.91 50.49 50.83 52.14 53.94 54.67 55.42 56.23 57.08 58.30 58.91 62.76 67.45 67.54 67.92 67.93 67.79 67.32 66.82 65.86 64.95 66.28 64.25 62.96 62.84 58.37 54.31 51.27 48.22 47.78 49.72 48.68 46.65 45.08 44.71 43.27 42.84
43.04 36.23 38.78 42.34 47.18 46.30 44.69 39.89 47.29 50.05 48.65 47.96 48.02 49.37 50.77 51.64 52.53 52.81 54.03 55.22 56.11 57.53 58.46 58.84 63.72 66.38 67.06 67.22 67.85 67.37 66.48 66.90 66.38 66.13 64.90 63.61 60.52 57.45 53.41 49.49 47.34 47.13 47.32 46.65 45.63 43.22 42.52 41.21 41.20
36.88 38.26 39.23 38.96 43.75 44.04 41.93 41.51 45.41 47.67 47.71 46.71 48.15 48.55 49.02 50.29 51.40 53.08 54.14 54.10 55.37 56.21 57.46 58.54 59.18 61.85 65.53 67.56 67.54 67.42 66.07 66.09 66.01 65.24 64.57 62.46 58.34 54.98 50.10 47.40 47.27 48.56 46.76 44.76 43.79 42.30 41.95 40.62 39.89
42.90 39.87 37.40 40.32 44.56 40.98 39.94 40.50 42.79 45.47 45.80 45.58 46.56 47.66 48.64 49.95 52.15 53.12 53.96 54.32 54.31 54.63 54.65 56.29 57.93 57.92 59.93 60.86 64.68 65.05 63.00 64.59 65.34 64.19 63.80 58.53 52.87 49.55 47.73 47.73 48.17 48.12 45.83 44.04 43.08 42.02 41.33 39.42 39.64
40.09 36.97 36.20 40.09 42.99 40.02 38.36 37.82 41.24 43.16 44.06 45.37 45.73 46.33 47.19 48.22 49.85 51.66 52.34 52.97 54.05 54.18 54.69 55.70 56.74 58.55 59.14 59.93 62.83 64.32 63.88 63.20 62.84 62.12 59.08 54.47 51.21 48.99 47.94 47.67 47.24 45.76 43.71 42.39 41.79 41.86 40.36 39.35 38.79
37.60 35.66 35.81 35.43 39.44 40.17 37.77 35.32 38.49 42.81 44.30 45.34 46.25 47.08 47.56 47.59 47.93 49.53 50.60 51.59 51.93 54.16 55.23 55.17 56.25 56.69 59.26 59.58 62.53 60.53 58.86 55.12 54.97 55.85 52.58 50.57 50.67 48.08 47.63 47.48 46.99 45.10 43.73 41.61 41.12 40.43 39.92 38.23 37.91
34.06 40.72 39.41 37.92 34.22 27.68 36.92 25.92 34.79 39.28 40.49 42.19 42.00 43.10 45.27 46.64 47.86 48.93 49.40 48.69 49.78 52.66 55.03 55.58 56.11 57.15 58.30 60.99 62.22 59.81 59.45 56.64 52.47 52.13 50.82 48.17 46.51 46.04 46.54 46.71 46.66 44.79 44.35 41.38 40.51 41.26 38.81 38.51 36.73
36.31 40.59 37.98 37.19 32.76 31.79 30.76 26.29 31.42 38.59 37.65 39.37 41.85 43.28 44.13 45.01 45.97 46.50 47.24 48.65 49.53 49.62 51.12 55.38 56.13 56.47 58.17 62.01 62.36 60.30 56.76 53.59 50.59 49.61 47.40 46.06 45.05 44.76 46.19 46.97 45.96 44.93 44.10 39.76 39.28 38.53 37.71 37.29 36.38
41.03 37.52 36.98 35.93 33.73 24.77 29.79 29.82 28.98 33.34 36.58 38.22 41.62 41.66 44.65 44.97 43.41 45.26 47.17 48.79 48.26 49.02 49.97 53.49 55.35 56.13 59.50 61.90 62.54 58.45 55.17 50.56 48.01 46.27 44.97 44.45 46.34 46.21 45.68 45.87 44.74 44.16 42.37 39.79 38.94 38.00 37.30 36.43 35.97
38.76 34.37 23.09 22.43 23.57 20.00 34.01 29.66 31.90 38.73 41.16 41.80 41.33 40.40 42.81 43.26 43.16 46.19 48.28 49.36 48.37 48.22 49.38 51.10 55.31 55.46 59.50 61.29 61.27 57.18 55.46 50.55 47.16 45.41 43.94 43.33 44.19 44.54 44.13 42.88 41.16 40.38 40.23 39.73 39.13 38.15 36.95 36.23 35.09
35.80 34.17 24.45 18.84 20.11 23.70 33.11 26.58 31.22 40.57 42.23 42.55 42.93 42.53 43.96 43.52 44.12 46.74 47.13 49.51 50.02 49.41 49.56 49.73 54.81 55.43 59.13 60.22 58.36 56.56 55.62 49.82 47.15 46.10 44.74 43.96 43.58 43.84 44.37 43.52 42.83 41.29 39.14 38.79 38.34 37.47 36.83 36.04 34.96
34.11 29.72 34.28 27.83 27.90 20.29 26.23 31.27 37.33 41.06 41.19 42.14 41.44 42.31 42.08 43.16 44.99 45.20 48.01 49.20 50.48 49.51 49.51 50.21 54.32 55.82 58.38 59.07 57.00 56.31 52.24 48.27 45.83 44.49 45.31 44.60 44.36 44.81 43.76 41.82 40.70 39.49 37.68 37.62 37.02 36.04 35.14 34.61 34.42
36.97 37.79 28.42 28.11 14.56 17.32 24.71 27.96 30.25 35.09 36.73 39.46 38.82 39.86 41.60 43.19 45.95 46.59 47.53 48.62 50.78 49.62 50.53 51.57 54.58 56.20 57.34 57.26 57.27 52.69 49.70 46.23 45.13 44.31 44.64 44.67 44.11 43.43 41.85 40.75 40.18 36.78 36.61 36.41 35.83 34.86 34.80 34.12 33.69
33.55 31.81 33.00 31.55 29.65 19.91 19.73 25.10 36.56 35.52 37.95 37.94 39.30 41.71 42.93 44.65 45.76 45.60 46.51 48.40 50.52 50.13 49.93 52.01 54.00 55.90 57.33 58.25 52.83 48.34 46.81 44.37 45.32 44.90 44.62 43.68 43.43 41.64 40.40 38.40 38.02 36.01 35.48 35.41 34.65 34.22 34.51 33.55 33.38
37.12 33.25 32.17 23.24 21.22 26.02 24.23 26.19 40.92 38.03 40.60 39.93 39.85 42.86 43.42 46.00 45.69 45.71 46.30 47.51 48.93 50.79 50.98 52.03 53.71 56.57 56.14 49.44 45.89 42.98 41.88 44.36 43.63 42.33 41.37 42.56 41.79 40.42 38.01 38.94 37.88 35.55 35.05 34.34 33.71 33.84 33.68 33.24 32.81

GFSSGP_sfc_wetblb_033.txt.gz
Wetbulb
67.09 64.60 60.00 53.98 44.39 42.41 38.74 43.87 46.14 46.58 46.42 48.37 50.44 50.04 48.06 50.52 52.73 50.10 63.08 69.37 70.80 71.94 72.87 72.83 74.05 73.73 72.70 71.35 70.64 70.25 70.04 70.91 71.58 71.60 71.13 70.36 69.23 68.33 67.30 66.60 66.35 68.28 68.65 68.50 68.54 68.85 68.60 68.08 67.42
64.21 63.40 54.99 49.18 41.16 36.61 38.78 45.55 46.23 46.99 49.84 50.46 51.53 50.21 49.27 54.71 60.13 61.64 63.36 70.55 71.43 72.16 72.25 72.13 73.80 73.64 72.01 70.81 70.45 70.02 69.55 69.93 71.71 71.22 69.96 69.26 68.53 67.93 66.90 66.28 66.30 66.74 67.63 67.48 67.40 67.32 67.44 67.39 67.20
64.07 61.87 49.16 45.16 39.87 37.41 39.10 44.95 46.93 48.94 50.68 50.21 49.02 50.65 49.94 55.79 60.66 62.23 64.85 70.94 71.76 71.32 71.89 72.36 73.67 73.12 71.86 70.98 70.24 69.43 69.78 71.25 71.27 70.45 69.41 68.58 68.17 68.43 67.68 66.47 66.17 66.21 66.39 66.40 66.49 66.58 66.52 66.60 66.97
57.68 52.68 48.96 40.57 39.21 43.15 44.65 46.95 48.51 48.63 49.75 51.92 50.47 49.27 55.60 60.49 61.71 64.30 66.19 71.41 70.67 70.44 71.50 72.85 73.30 73.04 72.34 71.79 70.70 70.58 70.91 71.15 70.52 70.08 69.51 69.37 68.69 68.76 68.40 66.68 66.68 66.77 66.98 67.24 67.24 67.25 67.31 67.32 67.27
54.60 49.33 41.11 38.34 39.95 43.32 45.87 48.21 49.00 47.75 48.34 49.23 50.28 48.38 54.01 61.27 63.85 64.67 66.07 71.16 69.80 70.11 71.59 72.26 73.44 73.09 72.40 71.70 71.24 70.51 71.11 71.41 70.45 69.54 68.44 68.24 68.17 68.32 68.72 67.20 66.62 66.83 67.17 67.69 67.86 68.05 67.89 67.69 67.77
48.28 46.92 37.82 38.49 40.30 44.41 46.38 49.09 48.02 48.11 47.96 48.70 48.30 47.98 54.30 61.74 62.34 63.51 65.09 68.64 70.38 70.22 71.27 71.79 72.56 72.57 72.07 71.32 70.72 70.30 71.13 70.96 70.21 69.95 69.11 68.83 68.83 68.72 69.08 67.90 66.93 67.15 67.58 67.90 68.30 68.35 68.19 68.28 68.25
45.79 41.94 38.44 38.48 39.87 42.56 46.84 50.23 46.49 48.35 47.84 48.31 49.14 46.37 55.20 59.52 62.70 64.42 64.14 69.72 70.06 70.41 70.40 70.80 70.96 71.03 71.08 70.76 70.19 70.10 71.25 70.78 70.02 70.21 69.59 68.97 69.41 70.01 69.44 68.32 67.43 67.73 67.96 68.30 68.47 68.40 68.72 67.94 66.51
47.57 44.80 40.62 40.04 40.97 41.14 47.29 47.81 50.27 48.84 47.89 51.29 51.49 47.64 53.68 60.38 64.17 64.68 63.42 69.13 69.70 69.68 69.78 69.46 69.83 70.07 69.24 68.77 69.71 69.42 69.60 69.87 70.01 69.94 68.43 67.65 68.67 69.34 69.68 68.84 68.34 68.10 68.32 68.48 68.69 68.58 67.56 65.73 63.68
50.60 40.86 38.40 41.78 42.88 44.55 49.08 46.97 50.36 51.81 49.53 50.41 50.68 52.16 58.45 63.49 64.18 62.43 61.40 63.33 67.84 69.19 69.04 69.23 69.18 68.72 68.30 67.78 67.84 68.76 68.93 68.74 68.51 68.19 66.17 66.05 66.49 67.05 67.00 66.53 67.86 68.55 68.23 67.99 67.16 67.03 65.78 63.79 63.13
45.48 41.62 42.50 46.51 46.90 45.59 48.40 48.49 48.78 48.27 48.15 46.81 50.24 55.17 58.45 62.64 61.93 61.66 61.29 61.20 63.59 66.42 67.76 68.90 68.95 68.58 68.08 68.85 66.90 65.99 66.40 65.25 65.20 65.23 64.28 62.65 63.98 65.04 66.03 65.48 66.80 68.15 67.97 66.41 65.10 63.96 64.01 61.98 56.67
45.36 41.78 47.07 49.20 49.70 49.24 49.12 49.01 50.52 47.34 45.01 48.17 48.37 51.97 55.43 58.10 60.56 61.24 61.42 61.98 61.98 64.04 67.69 69.07 69.06 69.01 67.95 67.53 66.42 65.13 64.54 63.16 62.72 62.81 63.41 62.73 62.20 63.54 62.70 62.57 64.12 63.18 62.53 60.21 59.31 56.49 54.65 51.82 50.65
42.50 46.74 48.36 49.37 50.42 49.16 47.70 50.12 48.40 47.77 47.68 51.26 51.18 52.43 53.49 54.31 57.40 59.86 60.70 61.62 62.03 63.67 64.73 68.94 69.25 69.01 67.96 67.21 65.86 65.28 64.63 63.32 60.76 60.93 62.67 60.33 59.44 61.67 60.37 60.29 61.36 60.95 59.16 55.18 53.62 52.93 50.81 47.87 46.34
43.56 45.71 48.64 49.10 48.87 48.24 49.68 47.36 47.13 47.82 50.71 51.91 51.77 52.05 51.00 52.67 53.64 55.52 58.11 59.84 61.77 63.41 64.68 65.62 68.54 68.05 66.80 66.60 66.25 65.59 64.97 64.55 62.38 60.99 62.46 59.77 60.05 59.64 59.59 60.25 60.87 57.16 55.16 53.52 51.80 48.75 46.49 44.96 44.47
45.77 46.33 46.50 47.94 47.61 47.56 46.81 46.18 46.57 47.54 50.27 49.10 49.79 50.04 49.79 51.03 52.88 53.84 54.23 55.31 56.44 62.84 64.44 66.19 66.03 67.92 67.10 66.61 66.14 65.67 65.67 65.16 63.67 62.28 62.03 60.45 60.35 58.66 59.09 56.74 54.81 52.34 51.05 49.05 47.21 45.41 44.85 43.89 43.30
46.81 42.60 44.93 45.64 46.69 45.70 47.70 42.94 43.25 47.96 48.83 47.83 47.58 47.56 50.03 50.38 51.65 52.25 54.40 54.08 55.85 55.95 64.17 65.78 66.27 67.81 66.97 66.47 66.29 66.11 66.07 65.70 64.50 63.80 62.39 60.42 59.90 59.36 56.34 53.65 50.98 49.46 49.20 47.71 45.84 45.51 44.23 43.16 43.26
42.74 42.10 36.78 44.09 46.37 47.03 45.63 37.90 45.38 48.15 46.61 46.52 48.41 49.14 49.00 50.17 50.62 51.52 52.84 53.20 53.78 55.73 59.59 65.53 67.50 67.32 67.26 66.86 66.27 66.77 66.79 65.36 64.25 64.43 63.57 60.97 60.63 57.87 54.20 51.43 48.92 47.75 47.55 46.12 44.98 44.27 42.38 41.22 40.81
39.82 33.56 36.39 40.12 45.90 45.42 43.61 38.64 45.99 47.98 46.59 44.82 45.67 47.06 49.37 49.91 50.78 50.00 52.18 53.63 54.12 53.65 56.01 62.51 66.04 66.86 67.05 67.27 67.20 67.07 65.59 64.83 64.10 63.93 62.86 62.60 58.69 55.49 53.32 49.90 47.16 46.69 46.02 44.93 44.56 41.64 41.10 39.27 39.35
35.19 34.78 35.97 36.60 42.17 42.82 40.76 39.67 43.28 45.67 44.71 43.93 43.76 45.37 45.73 47.90 49.68 52.40 51.90 51.37 53.75 54.84 54.34 55.85 64.27 66.35 67.40 67.57 67.09 65.87 63.73 65.42 65.33 64.53 63.04 61.19 57.57 54.08 50.63 47.86 46.58 46.23 44.98 43.30 42.36 40.66 39.78 38.77 38.32
41.32 39.48 35.03 37.61 42.20 38.30 37.57 37.58 39.77 42.60 41.76 42.97 44.87 44.56 45.83 48.09 50.51 50.39 50.67 50.77 50.47 50.96 52.00 54.29 57.41 64.86 66.44 66.13 65.25 65.16 63.24 64.17 64.72 64.76 62.47 59.69 56.54 52.14 49.54 47.63 45.96 45.91 44.07 42.37 41.65 40.46 39.36 38.04 37.45
39.19 35.24 33.21 37.46 40.67 38.11 36.55 36.76 40.16 41.84 42.39 43.56 44.20 43.13 44.07 46.27 46.80 48.81 49.28 49.26 50.73 52.05 51.82 51.57 54.04 59.24 65.21 66.17 66.21 64.03 62.06 62.17 63.17 63.21 60.23 55.71 52.89 50.58 49.34 47.62 46.16 45.12 42.85 41.45 40.66 40.54 38.93 37.79 36.76
35.17 33.13 33.23 33.49 37.24 36.89 34.39 32.17 35.15 39.64 41.71 43.36 44.35 45.35 45.89 45.83 47.02 45.95 46.63 48.19 48.63 50.05 51.21 53.06 52.63 55.10 58.46 62.06 62.28 60.07 58.24 56.90 56.69 55.66 53.91 51.32 51.03 50.40 48.67 47.10 46.24 43.44 42.31 40.91 40.06 39.78 39.69 37.28 36.68
32.20 38.20 37.62 36.20 31.64 26.00 33.76 23.52 30.15 36.52 37.92 39.74 39.75 41.14 43.96 45.55 45.71 45.49 45.73 45.44 45.97 47.45 50.22 52.61 53.41 53.75 56.04 56.18 60.55 61.67 61.41 59.83 56.45 55.06 51.69 49.69 49.62 48.75 47.39 46.39 44.72 43.39 42.17 40.51 39.50 39.86 38.25 38.38 36.12
35.33 39.23 36.58 35.44 30.55 27.57 27.97 23.77 28.17 34.04 34.56 36.74 38.16 39.63 40.74 44.55 45.48 44.89 45.74 47.63 48.53 46.93 47.49 50.14 53.19 54.11 54.91 57.15 60.45 61.56 61.10 57.01 52.44 50.08 48.74 49.02 47.84 48.39 47.83 46.60 45.42 44.34 43.42 39.86 39.11 39.55 37.36 36.95 36.15
39.97 35.86 34.03 32.89 29.23 16.84 26.87 26.13 25.37 30.32 34.66 36.00 37.36 39.69 40.91 42.52 42.39 43.44 45.00 46.40 45.84 45.78 45.72 48.00 50.81 52.03 53.51 56.88 60.01 61.07 57.57 51.18 49.31 48.37 46.27 46.55 46.73 47.63 47.72 47.55 46.20 44.74 42.60 40.82 39.66 38.82 37.58 35.86 35.25
37.48 29.13 16.59 16.37 21.99 18.53 30.07 26.76 27.56 35.71 38.73 38.42 39.69 40.09 39.58 40.77 42.23 45.03 46.86 47.33 47.46 47.71 48.22 47.30 49.15 51.62 53.25 56.87 60.12 58.77 54.88 52.39 50.18 48.03 45.84 45.40 45.11 45.91 45.38 45.74 44.49 43.53 42.13 40.47 40.03 37.83 35.65 35.15 34.51
33.21 30.47 19.46 15.95 17.49 21.37 30.07 24.82 30.13 38.89 41.84 40.79 41.93 42.07 42.51 42.10 42.07 45.60 46.33 46.98 47.36 48.36 48.41 47.77 47.40 50.74 53.77 59.15 58.79 56.91 52.57 51.36 49.50 47.63 45.73 45.98 45.58 45.54 44.87 44.06 43.61 42.84 41.47 39.21 37.84 36.24 35.34 34.57 33.86
33.11 26.19 32.56 24.85 24.28 15.81 24.15 28.30 34.14 38.31 38.04 38.26 37.41 39.24 39.12 40.60 42.27 44.37 45.67 46.48 47.03 47.42 48.01 47.69 47.63 51.76 55.60 58.51 56.65 54.89 51.11 49.78 47.98 44.87 44.97 45.26 44.91 45.14 43.97 43.86 42.67 42.11 40.47 39.29 37.69 34.76 34.04 33.47 33.20
34.67 35.75 25.78 22.06 10.91 15.16 21.45 23.76 28.03 32.72 35.02 37.54 37.66 38.55 41.18 41.99 42.86 43.71 45.14 46.48 47.09 47.64 48.29 47.85 47.43 52.01 55.85 56.48 55.71 50.82 49.10 47.24 45.33 44.15 43.35 43.53 44.17 44.46 42.70 41.81 41.66 40.84 38.83 36.64 36.20 33.52 33.55 32.99 32.50
32.41 31.94 32.41 29.13 23.65 17.65 18.32 22.92 32.93 33.96 35.05 35.15 37.07 38.28 40.17 43.00 43.87 44.12 45.10 46.55 47.03 47.55 48.68 49.39 49.47 52.96 54.80 54.68 51.61 48.69 46.28 45.31 44.53 43.85 43.98 43.85 44.10 43.01 41.84 41.41 40.90 39.26 37.55 36.58 33.88 33.23 33.20 32.61 32.47
34.27 30.94 29.94 20.48 18.33 23.01 19.90 24.67 39.91 39.44 37.40 39.61 40.82 43.03 44.44 45.46 45.52 44.71 45.18 46.21 46.35 46.90 49.13 50.90 50.11 53.56 52.67 49.45 47.87 45.91 45.89 45.28 44.85 44.16 44.65 43.73 42.00 41.71 41.46 39.58 38.91 37.31 36.00 34.34 32.54 32.67 32.71 32.04 32.00

GFSSGP_sfc_wetblb_036.txt.gz
Wetbulb
65.82 62.98 58.54 52.64 43.38 41.24 37.55 42.19 44.29 46.69 46.03 48.20 49.53 49.77 47.50 50.22 50.82 47.64 62.40 68.06 70.79 71.41 72.40 72.42 73.79 73.64 73.23 72.42 72.26 72.40 72.35 72.49 72.10 71.35 70.63 69.81 68.65 67.60 66.52 66.90 68.77 68.87 69.30 69.75 70.63 70.54 69.77 68.52 67.62
63.56 61.70 53.65 47.69 40.39 35.66 37.53 42.18 44.98 46.98 49.13 49.51 49.42 48.78 48.34 53.46 58.88 62.95 64.99 69.94 71.40 71.62 71.99 71.55 73.55 73.40 72.09 71.11 70.48 70.54 71.24 71.45 71.63 71.19 70.57 69.43 68.46 66.95 66.44 66.52 67.85 68.27 68.18 68.18 68.24 68.21 67.90 67.42 66.80
62.43 60.18 49.27 44.43 39.22 36.93 38.15 43.37 44.63 48.28 49.06 49.03 47.41 49.66 52.21 54.83 59.61 63.31 66.76 70.68 71.43 71.16 71.43 71.68 73.48 72.86 71.44 70.80 70.46 69.98 70.56 71.71 71.66 70.79 69.78 68.78 67.92 66.82 66.40 66.45 66.75 67.32 66.97 66.66 66.67 66.58 66.68 66.89 67.27
55.98 51.82 47.64 40.31 39.26 42.13 42.75 43.66 46.33 47.77 49.46 49.52 48.76 47.92 55.06 59.05 60.92 63.57 69.85 70.83 70.44 70.33 70.81 72.39 73.19 72.56 71.96 71.39 70.37 69.78 71.11 71.20 70.21 70.47 69.72 68.35 68.46 67.49 66.70 66.42 66.33 66.48 66.58 66.78 66.90 66.91 66.89 66.88 66.89
53.29 47.30 39.97 37.59 39.16 41.83 44.08 46.56 47.46 47.13 47.41 48.15 49.24 47.33 53.03 60.64 62.20 68.94 69.73 70.44 69.48 69.94 70.89 71.75 73.05 72.40 71.65 70.74 71.17 71.38 71.85 70.21 69.05 68.43 68.75 68.88 68.95 68.58 66.94 66.71 66.80 67.07 67.40 67.52 67.74 68.03 67.98 67.92 67.90
47.53 45.75 37.29 36.81 38.32 42.74 44.80 45.83 45.31 46.13 47.67 47.94 47.55 50.89 54.05 59.81 62.62 66.90 70.17 69.36 69.98 70.05 70.99 71.28 72.03 72.31 72.03 71.22 71.53 72.14 72.34 71.06 69.75 69.88 69.40 68.79 68.80 69.07 67.87 66.78 66.94 67.26 67.75 68.10 68.39 68.31 68.21 68.27 68.14
45.34 40.83 38.19 37.29 39.17 41.79 45.79 47.34 44.78 46.50 46.60 48.12 49.37 47.95 53.67 58.00 61.86 63.54 68.41 68.94 69.87 70.43 70.34 70.58 70.79 70.79 71.00 70.85 70.51 71.44 71.91 70.92 70.04 69.97 70.02 69.76 69.69 69.62 68.95 67.43 67.15 67.62 68.05 68.45 68.45 68.30 68.63 67.86 66.60
46.14 43.56 38.18 38.19 39.25 39.89 45.79 46.70 47.80 46.64 46.94 50.04 50.25 52.55 52.85 59.06 62.60 64.32 68.07 68.34 69.21 69.63 70.01 70.08 69.87 69.59 68.83 68.28 69.56 70.20 70.33 69.67 69.92 69.93 69.29 68.28 68.11 68.81 69.51 68.37 68.15 68.02 68.36 68.46 68.54 68.65 67.52 65.54 63.76
48.31 39.62 37.35 40.01 40.61 42.07 47.03 45.49 48.94 50.90 47.72 48.62 49.14 55.10 58.72 62.43 62.87 61.89 66.46 66.77 67.61 68.51 69.00 69.21 68.86 68.05 67.47 66.75 67.50 69.11 69.71 69.22 69.08 68.36 66.48 66.67 66.38 67.39 67.09 66.41 67.51 68.67 68.50 68.41 67.96 67.58 65.53 63.72 62.05
44.01 39.18 40.48 45.16 45.73 44.14 46.76 47.08 48.39 47.31 46.59 45.68 50.48 55.79 61.11 61.93 60.98 60.26 64.25 65.28 66.24 66.68 67.35 68.75 68.46 67.87 67.25 67.59 65.83 65.15 66.34 65.66 65.71 65.30 63.25 64.56 64.92 65.47 65.83 65.07 66.92 68.61 68.40 67.53 66.71 65.87 63.86 59.93 55.38
43.85 40.53 45.62 47.45 49.01 48.38 47.67 47.47 49.08 45.94 44.63 46.12 47.66 53.90 57.48 59.07 60.17 60.32 61.65 64.31 66.19 67.16 67.68 68.37 68.23 67.99 67.22 66.89 65.67 64.42 64.03 63.63 63.85 63.78 62.78 61.89 64.08 63.74 63.88 63.45 64.47 63.83 63.70 61.15 58.80 56.09 53.40 50.28 48.08
41.34 45.55 47.24 48.47 49.58 47.70 45.99 48.71 46.38 47.16 47.48 50.16 49.70 50.41 52.18 54.44 55.13 59.71 61.14 60.83 62.37 66.23 67.04 68.11 68.35 67.80 67.16 66.98 65.81 64.91 64.06 62.79 62.21 62.76 63.10 61.28 60.12 61.90 61.22 61.49 61.78 61.18 58.65 55.58 53.66 52.28 48.99 45.45 45.13
41.85 43.72 47.09 48.36 48.40 46.63 47.96 46.59 46.28 47.05 50.17 50.86 49.79 50.89 50.44 50.86 53.78 56.57 59.79 61.48 61.63 63.60 66.75 67.83 68.27 67.87 67.36 66.14 65.53 64.76 64.14 63.22 62.04 61.43 62.21 61.41 59.54 61.92 60.94 59.96 60.48 59.88 57.84 53.11 51.50 48.32 44.83 43.64 43.28
44.74 45.70 45.40 46.76 46.50 46.59 45.83 45.26 45.45 46.27 49.26 49.13 49.17 48.29 48.89 49.95 50.89 51.11 53.20 55.99 58.20 62.65 63.98 68.16 68.27 68.31 67.59 66.33 64.96 64.53 64.41 63.97 61.75 60.60 61.10 60.70 60.45 61.09 59.50 59.31 59.62 56.47 53.82 51.42 47.65 44.37 43.80 42.82 42.22
45.77 42.29 43.58 44.92 45.33 44.91 46.33 43.33 42.23 47.28 48.28 47.02 46.92 47.23 48.53 48.86 50.31 50.32 51.82 53.26 53.78 57.70 63.93 65.10 68.25 68.56 66.42 66.43 65.26 64.90 64.89 64.76 63.14 61.38 60.50 60.66 60.49 58.56 58.52 57.86 54.98 51.78 48.76 46.02 44.28 43.73 42.85 42.19 42.06
42.23 41.12 36.21 42.73 44.75 45.67 45.07 38.34 43.90 46.93 44.69 45.27 45.78 45.93 46.89 49.09 49.68 50.30 51.33 51.69 52.37 53.60 57.21 64.13 66.97 67.82 66.68 66.39 65.89 65.50 65.26 65.05 63.80 62.93 61.53 60.61 60.02 58.81 56.29 55.01 52.87 49.16 47.05 45.18 44.56 43.30 41.50 40.30 39.68
38.41 32.26 35.80 39.32 44.86 44.22 42.34 37.78 45.09 48.46 45.41 43.96 44.40 45.08 46.05 47.53 49.45 48.21 50.66 51.62 52.91 51.67 53.57 61.18 65.19 66.54 66.51 66.57 66.21 65.75 65.41 64.86 63.72 63.86 62.39 60.64 59.22 57.04 55.33 53.42 49.81 47.15 45.74 44.23 43.89 41.19 40.75 38.49 38.41
34.18 33.67 34.51 36.00 40.66 41.03 39.65 38.97 43.22 44.28 43.99 43.70 43.36 44.26 45.11 46.33 48.45 50.92 49.72 50.65 52.57 53.13 51.20 57.61 64.09 65.89 66.27 66.10 65.61 65.04 64.00 63.70 63.68 63.75 62.91 60.15 58.50 55.52 54.15 50.28 47.97 46.14 44.66 42.85 41.72 40.36 38.66 37.94 37.54
39.26 37.78 36.32 37.15 40.96 37.48 36.35 35.66 38.67 41.73 40.50 40.58 42.89 43.29 44.25 45.57 48.85 48.66 48.95 48.90 48.45 49.07 49.87 51.19 60.30 64.50 65.80 65.33 64.62 63.97 63.22 62.83 62.95 63.64 62.44 59.89 57.19 54.75 52.96 49.86 46.52 45.43 44.56 42.42 41.15 39.76 38.21 36.96 36.45
40.75 35.20 34.20 36.86 39.68 37.21 35.64 35.24 39.18 40.90 41.89 42.67 43.42 44.46 44.89 45.26 46.50 46.52 48.10 48.46 49.04 49.50 48.79 48.78 52.89 62.45 65.27 65.89 65.93 64.88 64.11 63.52 63.23 63.79 61.42 59.49 56.80 54.97 52.37 49.03 46.64 45.04 42.68 41.18 40.55 40.22 38.03 36.94 35.56
37.15 32.99 32.33 33.02 36.35 35.43 33.93 33.72 35.02 38.14 40.12 41.36 43.38 44.57 44.68 44.91 45.51 46.35 44.76 46.31 47.03 47.58 49.31 50.35 50.20 55.98 63.38 65.67 63.79 59.28 59.03 57.84 57.33 57.95 60.08 58.34 56.33 54.46 53.52 49.40 47.43 44.53 43.34 41.75 40.06 39.71 39.27 36.71 35.58
31.50 36.94 36.69 34.93 31.36 25.76 33.11 23.69 29.73 34.61 36.11 38.14 37.74 38.11 40.67 42.72 44.55 44.87 46.35 45.23 46.10 46.37 47.33 49.43 50.98 51.68 58.25 62.08 62.27 61.79 61.34 60.07 60.94 60.13 56.58 52.99 53.79 53.89 50.53 48.28 47.88 44.83 43.08 41.19 40.13 40.38 38.80 37.69 35.53
34.54 38.09 35.60 34.07 29.24 26.35 26.78 23.79 27.85 31.94 33.73 35.75 37.27 38.48 39.59 40.15 42.06 43.22 43.33 44.64 45.56 45.50 44.97 46.31 48.69 50.59 52.43 57.53 62.41 62.21 62.34 62.23 54.91 52.38 52.25 51.61 51.73 51.29 50.33 48.69 46.67 44.97 44.55 43.00 42.01 38.83 38.14 37.71 38.12
39.07 34.80 32.50 31.36 27.17 16.84 24.94 24.99 24.58 28.87 32.74 34.04 35.62 38.16 38.98 41.34 41.28 42.02 43.08 44.42 44.07 44.20 44.89 45.05 46.19 48.06 50.25 52.60 57.56 61.41 61.68 54.67 52.00 50.46 50.46 49.07 48.37 48.40 48.25 47.55 46.84 46.35 44.29 42.97 41.76 40.26 39.52 38.48 36.69
35.11 28.57 18.01 15.47 19.13 18.56 27.81 24.97 26.39 33.33 36.87 36.67 38.19 39.48 39.46 41.07 40.52 40.82 44.61 46.22 46.61 47.04 47.12 47.67 47.02 47.76 48.84 50.35 54.14 59.04 58.93 55.55 54.09 51.64 51.31 48.06 46.93 46.01 46.34 47.04 45.54 45.16 42.98 42.56 41.54 40.17 38.62 37.82 36.91
32.23 29.62 19.13 14.95 16.34 19.83 28.17 24.00 28.51 35.78 38.36 38.23 38.44 37.99 39.04 39.57 39.14 41.75 44.12 45.94 46.72 46.74 47.05 47.39 47.47 46.96 48.03 49.31 54.16 57.58 57.58 56.56 54.99 52.87 51.20 50.16 49.03 46.98 46.93 46.11 45.40 43.49 42.76 41.82 41.13 39.82 37.68 37.51 35.49
32.23 25.63 31.56 23.54 21.96 15.54 22.59 26.02 31.74 35.27 34.99 36.71 37.10 39.99 40.55 41.08 40.02 43.61 45.04 45.73 45.98 46.32 47.26 47.73 47.60 47.50 47.27 49.33 56.00 56.58 55.38 52.60 51.05 49.23 48.37 47.27 46.66 46.63 45.75 44.89 43.54 43.32 41.41 40.92 40.00 38.72 36.13 36.69 34.85
34.30 35.44 23.62 18.46 8.52 13.66 19.60 21.14 25.50 30.26 33.43 35.50 36.14 37.33 38.84 41.17 42.53 43.70 44.53 45.37 45.81 46.11 46.81 47.89 48.69 48.20 47.18 52.32 55.70 53.98 52.00 51.02 48.55 46.58 46.60 46.00 45.65 44.82 44.96 44.80 42.99 41.28 40.85 40.15 39.33 37.70 35.79 35.39 34.38
31.86 29.60 29.07 27.02 21.56 15.95 17.25 22.52 31.02 31.48 33.68 34.46 36.46 37.67 39.07 40.91 42.08 42.57 43.64 44.63 45.85 45.88 46.67 48.83 50.15 49.56 50.28 53.54 50.95 48.51 47.97 46.28 45.61 45.71 45.43 45.85 45.84 44.39 43.39 42.08 41.10 40.18 38.88 38.21 38.16 36.97 35.25 34.12 33.77
33.21 30.37 28.88 18.31 16.07 20.96 18.85 24.04 36.25 34.76 34.64 37.01 40.46 41.79 43.32 45.47 46.52 47.17 47.10 44.20 45.88 46.08 46.67 49.06 50.10 49.16 52.00 51.28 48.61 46.17 45.13 45.14 45.09 44.62 44.50 45.00 44.03 42.78 42.35 40.89 39.60 38.70 38.06 37.74 36.36 34.84 34.52 33.39 31.86

GFSSGP_sfc_wetblb_039.txt.gz
Wetbulb
64.30 61.82 56.37 51.57 42.94 40.98 37.30 40.88 43.69 44.52 45.42 46.43 47.69 47.88 48.09 48.82 49.67 46.45 61.44 67.80 70.09 71.11 72.10 72.78 74.30 73.94 73.96 73.64 73.62 73.47 73.13 72.53 71.79 71.41 70.32 69.20 68.19 66.68 67.14 69.06 69.60 70.16 70.95 71.47 71.62 71.34 70.01 68.96 67.75
62.98 59.86 52.44 46.45 38.55 33.80 36.09 41.56 43.53 45.86 47.51 48.87 47.27 46.61 49.42 52.25 58.28 62.13 64.20 68.84 70.99 71.33 71.53 71.32 73.81 73.67 73.46 73.22 72.88 72.69 72.76 72.47 71.66 70.86 70.07 69.20 67.95 66.64 66.66 68.15 67.93 68.87 69.14 69.33 69.03 68.50 67.90 67.08 66.33
60.81 57.63 48.42 43.46 38.10 35.39 36.10 41.93 44.41 46.83 47.76 46.71 45.78 48.64 50.73 52.99 58.69 63.22 64.74 70.24 70.95 70.70 70.87 71.16 73.45 73.11 72.44 71.91 71.70 71.85 71.93 71.87 71.34 70.87 69.85 68.75 67.03 66.52 66.55 67.45 68.09 67.60 67.55 67.42 67.39 67.37 67.33 67.05 67.13
54.77 52.04 47.44 40.34 38.59 41.44 41.88 42.68 44.60 46.74 49.29 48.18 47.40 49.68 55.02 59.24 60.92 63.63 69.28 70.49 70.00 69.91 70.08 72.15 73.12 72.78 72.12 71.54 70.81 70.41 71.20 71.58 71.21 70.45 69.22 68.30 67.03 66.68 66.45 66.57 66.90 66.76 66.46 66.47 66.42 66.25 66.49 66.91 66.95
51.97 46.57 39.82 37.49 39.62 42.07 42.64 45.75 45.07 45.60 45.76 46.92 48.55 47.24 53.16 59.31 62.80 68.29 69.47 70.21 69.44 69.11 69.91 71.36 72.93 72.12 71.40 70.73 70.33 70.98 71.50 71.64 70.24 69.28 68.92 68.37 67.72 66.90 66.65 66.43 66.46 66.64 66.72 66.87 67.16 67.38 67.57 67.78 67.71
47.29 44.94 36.54 35.89 38.94 41.51 43.41 44.46 44.27 43.99 45.22 47.34 45.91 50.58 52.97 58.71 66.01 67.82 69.63 69.04 69.89 69.36 70.31 70.84 71.61 71.87 71.62 70.45 70.71 71.82 71.78 70.73 69.61 69.78 68.74 68.79 68.64 67.33 66.72 66.77 66.93 67.28 67.51 67.73 68.09 68.11 68.01 67.87 67.83
45.31 41.45 38.17 36.87 38.14 39.98 43.11 45.72 43.69 44.96 44.63 46.48 47.90 50.33 53.07 56.94 63.20 68.66 68.54 68.27 69.50 69.92 69.89 69.82 69.84 70.41 70.95 70.57 71.20 71.69 71.66 70.45 69.72 70.10 70.12 69.74 69.61 68.89 67.31 66.89 67.06 67.44 67.80 68.14 68.23 68.22 68.18 67.79 65.90
45.79 42.81 37.47 37.64 37.80 39.35 44.03 45.68 46.36 45.08 46.37 48.87 53.02 49.69 51.64 58.14 62.76 67.21 67.61 67.68 68.53 69.19 69.48 68.97 68.74 69.22 68.57 68.31 70.44 70.93 70.70 69.90 69.40 69.55 69.17 68.56 68.22 68.78 68.72 67.76 67.89 67.83 68.21 68.41 68.21 68.37 67.25 65.10 62.83
47.02 39.31 36.51 38.09 39.28 40.80 45.04 44.35 47.90 49.20 46.70 47.46 48.15 53.57 56.43 60.71 65.66 66.08 65.98 67.03 68.22 68.63 68.66 69.52 68.41 67.80 67.14 66.69 67.35 69.60 69.77 69.06 68.81 68.50 67.42 66.47 65.35 66.67 66.84 66.12 67.22 68.54 68.49 68.47 68.60 67.75 65.30 63.10 62.10
43.29 37.99 39.72 44.14 44.02 42.78 45.80 45.45 46.68 47.02 45.84 45.29 49.61 56.59 59.79 60.64 64.63 64.80 65.32 65.73 65.99 67.17 67.96 68.74 68.54 67.38 66.69 67.17 65.41 65.77 67.20 66.22 66.05 65.31 63.83 64.28 64.52 65.48 66.20 64.65 66.66 68.61 68.68 68.25 67.82 66.39 63.31 58.12 49.84
43.63 39.54 43.96 46.21 47.70 47.79 45.72 45.91 47.83 45.09 44.26 45.07 45.56 50.49 54.41 58.40 58.45 64.03 64.80 65.74 66.07 66.86 67.72 67.89 68.44 67.44 66.72 65.87 64.75 64.07 64.47 64.02 64.11 63.63 62.06 63.30 64.18 64.13 63.68 63.01 64.22 64.36 64.72 62.24 59.80 56.37 52.76 48.82 46.27
41.17 45.03 46.36 47.58 49.12 47.15 44.36 46.81 45.19 46.71 47.16 49.13 49.40 49.98 50.51 54.17 56.94 58.69 63.38 64.95 65.75 66.34 67.00 67.72 68.29 67.30 66.57 65.95 64.96 64.26 64.05 62.86 62.32 62.90 61.98 61.45 61.86 61.97 61.74 61.82 61.89 61.68 60.18 57.52 52.81 50.83 46.83 44.91 43.94
41.71 43.36 46.41 47.62 47.80 46.08 46.68 44.60 44.82 45.66 49.58 49.17 49.83 49.81 49.29 49.31 50.41 54.96 59.73 61.63 64.25 65.88 66.75 67.47 67.89 67.31 66.75 65.75 64.94 64.04 63.62 63.31 63.22 62.66 62.69 61.19 60.86 61.87 61.05 60.70 60.64 59.87 57.23 54.25 51.80 47.42 43.80 42.61 42.48
44.52 45.32 45.37 46.13 45.86 45.88 44.87 44.42 44.54 44.60 48.02 48.30 48.02 48.57 48.21 48.45 49.31 49.24 54.01 58.80 60.51 64.99 66.43 67.41 67.60 67.52 67.05 66.10 65.02 64.16 63.87 63.35 62.49 62.35 62.47 61.91 60.33 61.16 61.34 59.56 59.49 58.63 56.55 52.15 49.58 44.72 42.85 41.94 41.63
44.36 40.68 42.26 44.03 44.57 44.37 45.20 42.13 41.22 46.20 47.45 46.42 47.43 45.68 47.27 47.85 49.02 49.02 50.45 52.46 56.50 60.25 64.07 66.79 67.49 67.78 66.89 66.30 65.43 64.55 63.91 63.84 62.11 61.53 60.81 61.80 60.31 59.87 60.32 59.51 58.15 57.19 53.94 49.86 43.98 42.75 41.90 41.35 41.32
41.53 40.00 35.66 41.75 44.47 45.07 44.15 37.47 43.47 46.12 44.33 44.24 44.70 45.37 45.67 47.04 48.55 49.21 50.10 50.44 51.81 52.92 59.10 64.69 68.35 67.78 67.20 66.48 65.79 64.94 64.11 63.84 62.90 61.40 60.21 60.63 60.49 59.27 58.55 58.17 56.58 52.93 47.71 44.74 43.32 42.20 40.83 40.01 39.48
37.36 31.96 34.78 38.83 43.99 43.04 41.55 36.63 43.55 45.99 44.67 43.78 44.68 45.88 44.97 46.34 47.16 47.85 50.06 49.53 50.30 51.18 52.76 59.69 65.36 67.40 67.43 66.36 66.12 65.07 64.25 64.03 63.30 62.40 60.77 59.40 59.78 58.53 57.51 56.45 54.46 49.35 45.58 43.91 43.72 40.95 40.60 38.92 38.04
34.07 33.10 33.54 34.74 38.83 39.96 38.88 37.66 42.83 44.72 43.45 42.42 42.80 44.15 45.29 45.39 47.07 48.27 48.57 49.08 50.51 49.66 50.16 53.27 62.40 65.52 67.19 66.48 65.70 64.92 63.66 63.95 62.91 63.36 62.21 60.15 59.09 57.74 56.40 53.93 51.01 48.39 44.77 42.96 41.84 40.33 38.40 38.28 37.57
37.68 36.23 34.24 36.61 40.00 36.40 35.96 35.03 38.25 41.28 39.79 39.31 40.78 42.75 43.92 45.31 47.97 46.94 47.76 48.30 48.05 48.24 47.66 49.32 58.05 63.33 65.60 65.14 63.86 63.73 62.63 63.15 62.31 63.17 63.21 60.50 59.01 56.97 55.44 53.35 49.71 47.40 45.82 44.07 41.36 39.28 38.36 36.86 36.22
41.08 35.83 33.53 36.43 38.67 35.89 34.76 34.02 38.48 40.54 41.41 42.61 43.02 43.49 44.29 45.46 44.65 45.58 46.44 47.20 47.67 48.47 47.95 47.10 51.36 61.93 64.30 65.21 65.02 64.79 64.18 63.80 63.41 63.26 62.56 59.94 58.00 57.06 54.69 51.97 49.82 47.56 43.56 41.28 40.32 40.14 37.92 36.60 35.53
40.13 35.62 32.32 32.76 35.60 34.12 32.63 31.24 33.88 37.64 39.06 40.02 42.17 43.79 44.45 44.48 45.16 46.43 45.60 45.05 46.41 46.58 47.94 49.11 47.95 53.84 62.95 65.05 65.01 60.14 60.11 58.10 58.21 59.89 60.59 59.78 58.55 56.45 55.89 53.44 50.91 47.47 45.99 43.09 41.73 40.39 39.77 36.79 34.66
33.39 36.03 36.02 34.05 30.93 26.34 32.95 23.82 30.13 34.70 35.49 36.55 37.48 37.82 39.96 41.11 42.93 44.13 44.85 43.30 43.21 44.82 46.24 47.42 49.02 49.32 55.33 63.62 64.25 62.73 62.05 60.53 61.28 62.14 60.90 56.73 57.34 55.71 55.63 53.41 50.46 48.07 46.09 43.59 43.53 41.14 39.43 37.89 35.35
35.13 37.32 34.79 33.25 28.69 25.22 26.21 23.58 28.77 31.42 32.96 35.14 36.78 37.37 38.17 39.48 39.67 40.69 42.24 43.35 44.22 44.25 44.03 44.54 46.08 48.03 49.88 57.82 63.28 62.79 62.29 62.17 61.04 60.10 57.85 54.55 54.31 54.83 54.67 52.56 50.14 47.90 47.41 47.13 44.89 41.41 40.82 38.73 37.49
38.78 34.32 30.89 29.96 26.68 17.08 23.99 23.85 25.65 28.81 30.90 33.16 35.45 38.90 37.78 38.31 39.13 40.41 40.98 42.56 42.54 43.18 42.99 43.33 44.35 45.75 47.77 49.79 56.17 61.28 61.53 57.53 55.55 53.21 55.97 52.58 51.82 52.02 51.59 50.94 49.51 48.83 47.76 46.65 45.34 43.50 42.32 40.72 39.86
34.09 28.30 17.41 15.23 16.46 17.31 26.46 24.46 27.62 32.36 35.52 35.67 36.47 36.27 37.52 38.69 40.03 38.52 41.49 44.28 45.97 46.10 46.47 47.01 46.70 47.30 46.94 47.73 49.46 56.83 61.21 56.71 56.61 55.87 56.78 53.16 50.62 49.39 49.72 49.18 47.95 47.62 46.76 45.32 43.83 42.59 42.65 40.54 39.00
31.12 28.76 19.03 14.51 14.93 18.86 26.40 23.55 28.55 33.81 35.03 36.21 38.42 37.56 39.67 40.53 40.90 42.56 43.62 44.32 44.49 45.23 45.58 46.14 46.74 47.03 47.36 46.70 47.73 51.14 56.96 58.56 58.11 56.27 56.04 53.82 53.33 53.02 50.47 48.66 47.47 46.01 44.33 43.43 42.84 41.78 40.98 40.57 37.27
31.87 23.89 29.86 22.51 20.28 15.20 22.95 26.09 30.91 34.72 34.95 35.17 36.37 37.63 37.66 39.12 40.26 41.97 43.52 44.52 45.15 45.17 45.17 46.23 47.08 47.37 48.02 47.83 46.63 50.56 55.16 57.33 55.38 53.87 53.88 53.60 52.26 50.10 47.72 47.52 45.64 44.28 43.72 43.44 41.57 40.15 39.53 38.52 37.54
33.40 34.52 23.39 18.26 10.90 14.01 18.61 21.09 24.46 29.27 31.83 34.95 35.34 35.99 37.61 39.30 40.84 41.94 42.14 43.52 44.76 45.26 44.99 45.59 47.47 48.60 49.01 48.54 47.83 51.44 54.82 55.48 54.81 51.48 49.99 48.19 47.00 47.44 46.87 46.35 45.34 43.14 41.96 40.97 39.99 38.50 37.91 37.02 36.75
31.20 28.79 27.67 26.38 22.00 16.40 16.65 22.15 29.67 30.16 31.94 34.15 35.99 37.53 39.08 42.20 44.77 45.11 44.21 43.71 43.74 44.54 44.84 45.06 46.90 48.58 49.13 49.17 50.19 50.49 49.14 48.18 46.43 46.38 45.28 45.32 45.20 44.94 45.88 45.03 43.40 41.27 39.58 39.07 37.94 37.20 37.24 36.39 35.89
32.75 29.91 28.02 17.30 16.28 19.37 21.22 22.96 34.69 32.50 34.17 37.09 38.12 41.82 45.05 47.03 45.37 43.48 44.44 45.10 42.89 44.39 45.15 47.02 47.93 47.42 49.50 49.74 47.78 45.75 44.25 43.95 43.82 43.49 43.77 44.64 44.68 45.47 44.08 42.20 40.63 38.82 38.26 38.13 37.55 37.71 36.62 35.45 34.52

GFSSGP_sfc_wetblb_042.txt.gz
Wetbulb
63.97 59.91 54.64 50.65 42.32 39.77 35.76 38.88 41.43 42.95 43.13 44.69 46.51 45.98 47.00 47.79 49.35 46.27 61.19 67.43 69.20 70.07 72.14 72.95 74.84 74.83 74.35 73.73 74.21 73.88 73.20 72.90 72.09 71.53 70.22 68.97 67.75 67.14 68.12 69.46 70.40 71.08 71.08 71.53 71.67 71.21 70.11 68.85 67.34
61.79 58.33 51.66 45.81 37.84 32.62 34.53 39.89 41.69 43.98 46.21 47.01 46.68 46.45 48.44 50.21 58.16 60.76 63.53 67.64 70.54 71.08 71.74 71.77 74.51 74.23 73.83 73.99 73.83 73.59 72.75 72.28 71.73 71.08 69.90 68.89 67.54 66.72 68.41 69.41 69.76 70.26 70.58 70.29 69.72 69.04 67.99 66.79 66.11
59.61 55.28 47.94 43.03 36.81 33.81 34.58 40.02 42.83 45.19 47.08 45.19 45.80 47.36 48.68 52.12 58.28 62.08 63.10 69.30 70.66 70.43 70.89 71.38 73.99 74.10 74.03 73.59 73.05 72.95 72.89 72.28 71.41 70.49 69.55 68.54 66.99 66.81 68.11 67.82 68.66 68.94 68.68 68.53 68.49 68.18 67.50 67.03 67.38
54.84 51.85 46.61 39.49 37.21 39.82 39.59 42.06 43.18 45.19 47.25 47.67 46.87 47.53 54.24 58.65 59.78 63.63 68.26 70.21 69.51 68.81 69.16 72.00 73.49 73.80 73.46 72.79 72.61 72.35 72.55 72.06 71.32 70.57 69.45 67.75 66.77 66.89 67.38 68.04 67.61 67.37 67.11 67.13 66.83 66.71 67.16 67.50 67.38
50.77 46.45 39.70 37.11 39.07 41.12 41.32 44.36 43.75 43.46 44.49 45.03 45.77 45.96 51.00 58.58 62.89 67.48 69.08 70.20 69.34 68.09 69.06 70.97 73.23 72.85 71.92 71.22 71.37 71.90 71.50 71.56 71.31 70.36 69.14 67.44 67.08 66.83 66.80 66.94 66.80 66.63 66.62 66.74 66.90 67.03 67.50 68.03 68.12
46.19 44.22 36.04 36.30 38.90 42.30 42.24 44.23 42.77 42.59 43.24 45.64 43.77 47.72 51.95 58.56 64.46 67.75 69.41 69.21 69.62 68.73 69.75 70.43 71.86 72.09 71.75 71.28 70.96 71.45 71.87 72.10 70.86 69.97 68.84 68.19 67.29 67.09 66.79 66.76 66.85 66.90 67.15 67.55 67.94 68.22 68.28 68.26 68.18
44.69 41.46 37.55 36.42 39.56 39.24 41.96 44.96 42.52 43.50 42.67 44.25 47.29 47.97 52.65 55.66 64.61 68.19 68.49 68.99 69.17 69.23 69.19 69.03 69.17 70.03 70.97 70.69 70.63 70.97 72.42 71.37 70.53 70.23 69.78 69.56 68.67 67.57 67.04 67.05 67.29 67.58 67.86 68.24 68.30 68.32 68.43 67.29 64.82
45.66 43.10 37.67 37.69 37.43 38.44 43.38 44.79 45.26 44.90 45.31 47.51 49.60 46.98 49.78 55.55 66.83 67.99 68.05 68.37 68.77 68.65 68.92 67.72 67.70 68.40 67.98 67.92 70.25 71.01 70.55 70.07 69.74 69.86 69.29 68.49 68.23 67.84 67.77 67.81 67.95 67.75 68.24 68.53 68.37 68.51 66.93 63.96 63.33
46.15 39.02 35.84 38.19 39.11 41.00 44.14 42.92 47.11 48.26 45.12 46.31 47.34 49.44 55.46 61.10 67.09 66.54 66.73 67.58 67.75 68.58 68.48 67.62 67.21 67.32 66.97 66.56 68.38 70.13 70.06 68.92 68.53 68.30 67.42 66.55 65.30 66.42 65.93 65.54 67.03 68.44 68.58 68.34 68.30 67.67 64.80 62.25 62.04
42.68 37.81 38.97 43.23 43.11 42.40 44.41 44.53 45.51 45.97 45.43 44.20 47.39 55.30 58.91 64.00 65.42 64.64 64.85 65.40 66.16 66.25 67.41 68.74 67.83 66.65 66.25 67.49 65.65 66.69 67.57 66.46 65.55 65.60 64.93 64.02 63.80 64.79 65.76 64.27 66.35 68.34 68.51 68.62 68.44 66.37 62.70 56.19 47.82
42.90 38.29 43.21 45.30 46.57 47.54 45.17 45.13 46.55 43.83 43.21 44.66 44.50 47.57 53.55 57.27 63.12 63.93 64.57 65.33 65.83 66.55 67.44 68.33 67.92 66.86 66.10 65.83 64.22 64.11 65.21 64.46 64.60 64.01 62.95 62.77 63.70 63.49 63.77 62.59 63.61 64.02 64.73 62.59 61.44 55.65 50.92 47.21 44.95
40.55 44.57 44.85 46.77 48.19 46.85 44.02 45.38 43.37 45.57 46.12 48.47 48.72 49.10 49.10 51.83 57.52 60.72 63.82 65.06 65.80 66.45 66.70 67.33 67.85 67.62 66.15 65.37 64.26 63.80 64.94 63.64 63.50 63.16 61.96 61.69 61.81 62.16 62.06 61.79 61.94 62.09 60.87 58.00 53.45 50.10 45.62 44.51 42.84
41.78 42.93 46.10 47.35 47.27 45.78 46.08 43.77 43.81 44.27 47.86 48.68 49.32 49.10 48.42 48.06 49.00 51.07 58.29 63.12 66.08 65.80 66.69 67.07 67.78 66.99 66.77 64.69 64.20 63.29 64.07 64.13 64.41 62.91 62.02 61.33 61.45 61.49 61.31 61.09 60.89 60.38 58.34 56.02 51.56 47.05 43.25 42.37 41.95
44.44 45.05 44.91 45.92 45.57 45.04 43.72 43.19 43.46 44.08 45.94 46.65 47.10 48.10 48.12 47.81 48.79 48.11 50.58 57.62 63.20 66.11 66.52 67.11 67.24 67.35 67.01 65.69 64.09 63.49 63.31 63.10 62.70 62.54 62.66 60.95 61.53 61.67 61.25 60.03 59.69 58.93 57.31 53.58 50.93 44.80 42.08 41.39 40.89
43.92 40.15 41.57 43.15 44.29 44.00 44.57 41.15 40.60 45.77 46.64 45.64 45.66 45.76 47.53 47.79 48.15 48.48 49.45 51.52 58.75 63.89 66.59 66.69 67.25 67.53 66.79 66.14 64.91 63.87 63.55 63.29 62.64 62.61 61.87 62.12 60.40 61.04 61.25 60.25 58.61 58.25 56.42 51.22 45.98 42.40 41.16 40.66 40.74
40.70 39.54 34.93 40.85 43.71 44.54 44.08 35.64 42.49 45.50 43.81 44.02 43.83 43.34 44.17 46.96 48.41 48.64 49.36 49.30 50.35 56.88 62.15 66.46 67.52 67.56 67.03 66.75 65.85 64.92 63.90 63.39 62.58 62.11 61.68 61.90 60.99 60.11 60.18 59.47 58.70 57.14 53.58 47.72 43.46 41.92 40.39 39.64 39.38
36.68 30.90 34.27 38.39 43.12 42.05 41.08 35.76 42.22 44.02 42.26 42.32 42.70 42.64 43.77 44.54 45.91 47.20 48.26 48.70 48.80 49.83 52.37 61.29 66.45 67.06 67.00 67.03 66.26 65.29 64.11 63.48 63.02 61.90 60.94 60.47 61.02 59.96 59.73 59.00 58.41 54.67 49.39 45.14 43.51 40.67 40.48 38.90 38.04
33.33 31.73 33.26 34.75 38.02 39.21 37.81 36.54 41.25 42.62 42.74 42.19 42.58 42.68 43.05 44.02 45.84 47.93 47.78 48.17 49.31 48.62 49.01 51.00 60.43 66.29 66.90 67.07 66.32 65.44 64.16 63.56 63.12 62.32 61.53 59.03 60.32 59.52 58.96 57.81 56.25 53.15 47.19 43.50 41.97 40.36 38.31 38.51 38.13
37.19 35.15 33.29 35.82 39.03 36.00 35.72 34.37 37.62 41.34 39.39 39.31 39.92 41.38 42.84 44.78 47.62 46.89 47.14 47.82 47.84 47.88 47.40 48.12 51.12 60.83 66.08 66.50 65.22 64.65 63.49 63.60 62.80 62.95 62.65 59.75 59.25 58.51 58.17 57.37 55.39 52.70 49.00 45.25 43.06 39.63 38.46 36.84 37.16
38.44 34.97 32.46 36.12 37.76 35.16 34.36 33.64 37.71 40.54 40.78 41.27 42.01 42.48 43.53 44.47 45.46 45.22 45.11 45.55 46.21 47.88 47.18 46.67 48.51 53.91 61.90 65.68 65.41 64.71 64.79 64.36 63.72 63.06 63.03 61.46 59.13 58.12 57.74 56.70 54.09 51.98 48.91 43.01 41.97 40.07 37.98 36.90 36.97
39.23 35.92 32.85 33.09 34.94 33.08 32.01 31.70 32.96 36.76 37.94 38.79 40.29 40.96 41.43 41.95 42.68 43.95 43.13 43.75 43.97 44.27 45.97 47.70 47.17 50.94 57.92 63.43 64.90 60.44 60.48 59.34 60.96 61.32 62.15 61.45 59.26 58.27 58.12 55.52 53.89 50.84 49.62 46.08 43.58 41.83 40.54 37.54 35.33
35.34 37.03 36.15 33.81 30.77 26.76 31.97 24.16 30.56 34.01 34.26 35.33 35.00 36.16 36.94 38.35 39.65 40.40 41.27 41.58 42.11 43.65 44.25 45.91 47.65 47.79 53.06 60.72 63.10 62.38 62.20 61.52 61.73 62.11 62.40 61.18 58.89 58.05 57.55 55.62 54.01 50.71 49.78 47.85 45.72 45.82 46.91 41.96 36.19
37.18 37.81 34.58 32.64 28.51 25.77 26.53 23.65 28.55 30.49 31.96 33.97 34.61 35.82 36.83 37.68 37.83 39.00 40.14 41.22 42.07 42.73 42.56 43.36 44.86 46.79 48.52 53.46 62.47 62.27 61.68 62.28 60.38 61.19 60.12 59.79 57.69 58.08 57.32 55.80 54.03 50.73 49.15 47.98 46.70 45.32 43.98 43.87 40.38
37.92 33.57 30.95 29.68 26.53 17.05 23.37 23.05 25.18 28.14 28.94 32.66 33.88 35.76 37.84 39.13 40.74 43.15 43.43 44.54 44.67 44.88 44.95 43.83 42.47 43.84 46.10 48.46 55.51 61.55 61.67 61.35 57.51 56.46 58.64 54.79 54.88 55.65 56.26 55.13 52.70 51.58 48.59 47.09 47.45 46.48 45.60 43.38 41.71
34.33 29.92 19.57 16.33 14.70 17.56 25.99 23.83 26.47 30.96 33.89 33.61 33.47 36.46 37.37 38.59 39.56 41.24 42.48 43.51 44.38 44.75 45.09 45.80 45.93 45.84 45.68 44.62 47.17 58.02 61.53 61.19 58.07 58.42 58.61 55.21 53.23 52.06 53.64 53.88 51.55 49.50 49.07 48.24 48.04 45.89 44.70 43.84 42.67
30.57 29.12 20.39 15.38 15.40 19.12 26.24 22.78 27.29 32.83 33.74 35.08 36.32 36.11 37.66 38.41 38.22 39.94 41.92 42.68 43.19 44.16 44.45 44.45 45.18 46.26 46.78 46.29 45.84 46.67 51.77 58.76 58.34 58.14 58.15 56.48 54.83 54.68 54.30 53.08 52.08 50.85 49.15 47.59 46.14 45.90 44.84 42.90 41.75
31.12 23.55 28.81 21.39 19.15 14.51 21.27 25.10 29.23 32.20 32.81 33.73 35.31 37.57 37.21 38.50 40.22 41.46 41.79 41.99 43.12 43.79 44.96 44.23 44.67 45.82 47.04 47.32 46.77 45.87 47.04 51.17 56.40 56.00 56.65 56.70 54.66 53.48 52.40 51.42 50.22 49.62 47.84 45.29 45.09 44.46 41.24 40.06 39.58
32.67 33.26 22.84 17.48 10.72 13.33 18.33 19.90 22.85 27.74 30.10 34.03 36.39 36.09 36.95 38.92 41.58 42.56 42.72 42.63 44.13 44.27 44.98 44.44 44.09 45.58 47.32 48.15 47.85 47.86 47.58 50.03 53.84 54.11 53.11 52.08 51.03 49.58 48.77 48.62 47.19 46.06 44.83 44.45 44.02 41.20 39.33 38.21 37.37
30.62 28.07 26.43 25.24 20.98 15.77 15.78 21.77 28.52 29.64 31.34 33.51 35.27 36.70 38.45 42.71 44.50 43.36 43.13 44.60 44.72 43.79 43.17 42.96 44.90 45.95 45.99 46.91 48.45 48.20 48.54 49.21 49.59 49.11 47.03 46.13 45.62 46.30 46.80 45.48 43.86 43.55 43.35 42.64 40.76 38.64 37.51 36.72 35.97
32.02 29.54 27.20 17.32 15.80 20.47 19.17 21.14 32.93 32.72 33.20 34.86 36.45 40.62 45.97 46.00 44.54 43.06 42.82 43.23 42.51 43.51 44.27 43.48 42.56 42.36 42.49 43.22 45.31 44.90 44.51 44.47 43.99 43.38 43.16 43.61 43.15 44.28 44.05 42.98 41.07 41.11 39.89 38.95 38.04 37.47 37.08 36.20 35.12

GFSSGP_sfc_wetblb_045.txt.gz
Wetbulb
65.08 59.86 57.48 55.53 48.29 45.73 41.56 43.38 46.64 47.25 48.51 50.62 51.24 51.07 51.73 52.95 54.49 52.80 66.02 69.44 69.61 70.79 73.26 73.59 75.03 75.30 75.40 75.53 74.66 74.43 73.94 73.37 72.25 71.17 69.85 68.92 68.31 68.40 69.01 70.06 70.98 70.30 70.26 71.33 71.55 70.98 69.97 68.53 66.87
62.75 59.37 55.76 50.77 44.16 39.24 40.86 44.86 45.35 48.38 50.70 50.42 49.58 51.33 53.71 54.51 61.25 63.20 66.06 69.43 70.35 72.04 72.83 73.18 74.89 75.22 74.79 75.08 74.59 73.88 73.15 72.51 72.00 71.42 69.97 68.57 67.37 67.79 69.52 70.24 71.21 71.70 71.54 71.09 70.38 69.16 67.64 66.65 67.38
60.42 56.64 52.90 48.00 41.43 39.06 40.59 44.08 46.88 48.96 50.23 49.83 50.65 52.77 53.30 56.01 61.65 64.74 67.40 70.33 71.36 72.08 72.58 73.34 74.62 74.76 74.13 73.94 74.60 73.51 73.22 72.31 71.59 71.03 69.63 68.34 67.08 67.89 69.45 69.78 70.10 69.89 69.78 69.55 69.14 68.25 67.44 67.72 68.14
57.34 55.05 50.61 43.84 40.80 43.13 43.87 46.74 47.71 48.11 50.34 50.67 50.16 49.97 57.24 61.75 62.14 66.16 69.24 71.34 71.27 71.70 72.33 73.50 73.93 73.78 73.75 74.06 73.82 73.33 72.98 72.19 71.56 70.32 69.39 67.90 66.96 67.95 68.05 69.06 68.72 68.11 68.03 68.00 67.83 67.73 67.67 67.95 68.01
53.56 50.88 44.14 41.47 41.98 44.24 45.86 47.31 48.21 47.96 48.43 49.51 49.69 50.01 53.92 61.80 66.71 68.92 70.08 71.06 70.59 70.93 71.83 72.40 73.47 73.90 73.72 73.31 73.13 73.14 72.84 72.04 71.45 70.64 69.36 67.32 67.20 67.40 68.22 67.79 67.64 67.21 67.23 67.14 67.04 67.58 67.90 68.29 68.38
49.64 48.43 40.97 39.92 41.81 45.03 46.79 48.76 47.98 47.83 48.25 49.75 49.34 51.22 55.30 64.15 66.70 67.86 69.52 69.77 70.61 70.49 71.32 71.70 72.10 72.80 72.64 72.30 72.13 72.48 72.37 72.15 71.52 70.25 69.01 67.64 67.34 67.13 67.29 67.21 67.05 67.00 67.17 67.68 68.19 68.59 68.62 68.55 67.76
48.14 45.16 41.39 40.94 42.71 43.78 45.47 48.56 47.83 47.70 48.39 49.33 51.49 50.51 56.09 60.94 67.08 68.09 68.58 69.17 69.35 70.74 70.95 71.31 71.27 71.35 71.16 71.23 71.22 71.49 72.26 72.44 71.56 70.71 69.77 68.99 68.42 67.72 67.13 67.23 67.37 67.60 67.93 68.39 68.62 68.64 68.46 66.63 64.98
48.94 46.87 40.81 40.88 40.88 42.80 46.67 47.56 49.36 48.73 48.49 51.70 53.00 50.45 52.54 60.22 67.21 67.82 68.27 68.06 68.70 70.43 70.62 70.69 70.84 70.68 70.42 70.08 70.02 70.28 71.11 70.92 70.41 70.02 69.11 68.18 67.31 67.33 68.06 67.92 68.21 68.21 68.57 68.77 68.73 68.48 65.94 64.47 64.57
48.97 43.08 38.70 41.56 40.76 43.76 46.72 46.03 50.27 51.19 49.63 50.28 51.98 54.01 58.18 62.28 66.90 66.40 66.28 66.75 67.28 68.76 69.95 70.30 69.95 70.00 69.74 69.26 68.96 70.18 69.78 69.18 68.64 68.69 67.34 67.13 68.04 67.22 66.57 66.08 67.13 68.34 68.91 68.74 68.64 67.05 63.82 62.78 64.53
46.59 41.77 41.14 44.77 45.85 44.77 46.92 47.88 49.30 49.65 48.28 49.29 51.88 53.94 62.02 64.46 65.34 64.45 64.24 64.18 65.53 66.99 68.13 69.36 69.64 69.24 69.08 68.27 69.40 70.68 69.92 68.87 68.07 68.43 68.44 68.30 68.38 68.39 67.04 65.04 66.33 68.10 68.48 68.74 68.71 65.32 61.07 57.34 56.33
44.68 41.35 44.53 46.30 46.97 48.52 47.52 47.85 49.72 48.26 47.05 49.26 49.21 51.72 57.51 62.46 64.33 64.14 64.31 65.18 65.39 66.69 67.21 67.67 68.80 69.25 68.85 68.19 68.48 69.23 69.44 67.80 67.55 68.05 67.97 67.62 67.18 67.88 68.03 66.82 66.79 68.03 66.13 67.76 66.46 61.94 59.02 54.32 53.79
42.97 45.30 45.84 47.93 49.23 48.38 47.18 48.85 47.39 48.47 49.40 51.48 52.25 52.39 52.42 60.59 61.52 63.38 63.68 65.06 65.69 66.58 67.05 67.77 69.42 68.58 68.59 68.61 67.61 67.63 68.13 67.77 67.07 66.81 67.24 66.78 66.46 66.50 67.45 66.56 66.42 67.22 67.30 65.20 63.35 59.24 54.81 52.27 50.81
43.59 44.85 47.11 48.69 48.23 47.91 48.22 46.63 47.23 46.92 50.00 51.21 51.11 51.59 52.06 52.33 54.36 60.19 64.56 65.83 65.89 65.92 66.99 67.48 68.50 67.87 67.76 68.02 67.63 66.80 66.93 67.87 67.05 66.98 66.21 66.23 65.91 65.68 66.29 66.64 65.88 66.20 65.83 63.88 60.18 55.80 52.63 50.74 49.57
45.84 46.11 46.25 47.29 47.21 47.37 45.46 45.50 46.10 47.53 49.16 49.07 49.13 50.61 51.12 51.56 53.08 52.91 53.70 60.38 65.93 67.02 67.10 67.96 67.66 68.16 67.70 66.70 67.06 66.72 66.32 67.03 67.29 66.89 66.44 65.52 65.57 65.79 65.83 65.91 65.29 65.11 64.79 62.65 59.18 54.52 51.23 50.29 49.43
45.25 42.42 44.41 45.10 45.81 45.67 46.59 42.64 42.42 48.02 48.85 48.43 48.90 48.79 50.25 50.96 52.04 51.98 53.81 53.96 59.70 65.98 67.99 67.96 68.10 68.21 67.61 66.95 67.22 66.89 66.50 65.88 66.50 66.53 66.30 65.67 65.18 65.58 65.81 65.52 64.63 64.48 63.78 60.90 57.04 51.45 49.47 48.68 47.90
42.15 42.20 37.15 43.10 44.60 45.64 45.60 37.46 44.58 47.46 46.70 47.01 47.67 47.82 47.27 49.07 50.50 51.58 52.23 52.59 54.03 57.67 64.88 68.01 68.53 68.06 67.74 67.31 66.80 67.32 66.53 66.28 65.77 66.23 66.10 65.65 64.82 65.08 65.48 64.97 64.19 64.08 62.66 58.77 55.01 50.75 48.73 48.56 48.12
39.48 33.56 35.57 39.45 44.39 43.87 43.25 38.63 44.40 46.62 45.52 45.65 46.28 46.65 46.53 47.49 49.09 50.42 51.39 51.68 53.03 53.49 55.30 63.45 67.86 68.08 67.81 67.55 67.11 66.61 66.68 66.03 65.93 65.06 64.92 65.07 64.99 64.12 64.61 64.50 64.25 63.47 61.72 56.99 53.08 49.31 49.15 47.65 46.91
34.76 33.97 36.13 36.16 40.34 41.62 40.01 39.32 43.37 44.49 43.26 43.86 44.81 45.81 46.88 46.87 48.75 51.15 51.65 51.91 52.39 52.53 52.91 54.22 62.76 67.59 68.63 68.35 67.58 66.67 65.83 65.73 66.35 65.23 64.49 63.97 64.25 63.86 63.53 63.44 63.82 62.60 60.39 56.93 51.32 49.61 47.19 47.90 47.27
38.22 36.33 35.70 38.25 40.42 39.04 37.98 37.29 39.91 42.57 42.30 42.24 43.23 44.47 45.54 46.65 48.42 49.51 50.55 50.90 50.92 51.81 51.37 51.57 52.75 60.84 67.22 66.49 65.85 65.41 64.00 64.50 64.68 65.15 64.53 63.16 63.17 63.14 62.90 62.80 62.59 61.56 59.92 57.11 52.96 48.84 46.63 45.06 45.61
38.59 35.90 35.38 38.40 39.09 38.15 35.92 35.35 39.49 42.17 42.34 42.76 42.90 43.28 44.01 45.15 46.10 46.75 47.39 47.98 48.39 49.58 50.82 51.15 51.11 53.10 59.60 65.89 66.81 66.42 65.48 65.21 65.05 65.21 64.51 63.87 62.37 62.29 62.59 62.62 61.72 60.34 58.97 55.50 51.29 48.39 45.47 45.23 44.94
38.72 36.49 35.12 35.89 36.72 36.10 34.02 34.51 36.09 39.29 39.83 40.36 39.52 39.34 40.61 42.34 41.95 43.18 44.78 45.46 45.45 46.35 47.90 49.29 50.69 51.57 53.97 61.31 65.99 66.16 64.98 63.25 64.41 63.78 63.54 63.87 62.74 61.86 61.73 61.72 61.20 59.59 58.49 54.43 51.46 48.84 48.22 44.62 43.13
36.45 38.69 37.13 35.03 33.82 30.17 34.01 28.28 33.44 35.34 36.10 36.50 38.33 39.31 40.34 41.75 43.04 43.94 45.50 47.19 46.53 46.85 46.93 47.07 48.33 49.91 51.54 56.31 63.25 64.34 62.32 61.71 63.09 63.57 63.87 63.72 63.50 61.51 60.97 60.88 60.00 58.62 57.47 56.04 52.04 49.11 48.57 47.89 43.57
37.37 38.89 35.73 33.64 30.87 30.29 29.84 28.26 32.02 33.75 34.45 35.05 37.59 39.16 40.71 42.02 42.96 44.76 45.95 47.13 48.10 48.84 48.86 48.13 46.88 47.24 49.30 51.49 58.93 63.42 63.20 63.22 64.08 64.14 63.70 63.53 62.46 61.84 60.82 60.46 59.32 57.92 57.23 57.30 54.05 49.44 48.46 48.89 47.67
38.23 34.35 32.18 30.94 29.38 25.13 27.11 26.98 28.91 31.73 34.08 35.07 37.57 39.23 40.04 41.17 42.80 44.79 46.31 47.03 47.70 49.01 49.37 49.64 49.40 49.61 48.65 49.02 51.10 59.18 62.98 62.86 62.59 62.48 62.34 62.62 61.43 60.74 60.50 59.84 58.86 58.15 56.34 55.53 52.87 51.99 50.51 49.31 48.79
35.94 33.83 25.57 21.89 21.19 24.11 27.77 26.07 29.71 33.60 36.14 37.16 37.86 38.98 40.06 40.79 43.22 44.72 45.28 45.85 47.13 47.56 48.35 49.16 49.09 49.24 50.23 49.91 48.90 50.48 56.87 62.62 62.42 62.33 61.99 61.88 58.97 58.06 58.92 59.37 58.59 57.51 56.16 55.57 53.73 51.92 50.69 49.35 48.44
33.23 32.46 26.40 20.32 19.75 22.44 27.44 24.38 30.42 35.00 36.14 38.86 39.46 38.95 39.52 41.63 43.43 44.69 45.39 45.73 46.28 47.16 47.64 48.06 48.25 48.05 49.19 50.46 50.91 50.41 50.26 53.21 60.81 61.74 61.82 61.51 60.13 59.47 59.67 58.80 58.86 57.36 55.67 53.83 53.18 51.89 51.15 49.93 48.47
32.77 29.26 30.79 23.26 22.02 21.27 24.80 27.64 31.51 34.92 35.31 37.20 38.15 40.26 40.75 42.41 43.85 44.87 45.94 46.04 46.47 46.83 47.07 47.12 46.78 47.48 48.48 50.22 50.98 51.38 51.37 50.78 51.78 56.70 60.35 60.99 60.18 58.75 57.99 57.50 57.20 55.58 53.78 52.55 51.84 51.04 50.06 48.12 46.03
34.13 33.83 26.56 23.64 17.66 18.33 21.57 22.46 26.47 30.44 33.72 36.06 38.03 38.84 40.06 42.84 45.77 46.36 45.59 45.82 46.79 46.60 46.77 46.41 46.48 47.57 48.40 48.39 49.73 50.90 51.26 51.51 52.06 52.94 55.70 58.19 58.46 56.73 55.51 54.75 54.51 52.58 51.00 49.89 49.29 47.76 46.48 44.41 41.53
31.70 29.73 27.82 26.71 23.23 19.76 19.18 24.47 30.82 32.73 34.86 35.38 37.16 38.79 41.08 45.12 44.72 45.62 45.38 46.03 46.28 46.15 45.30 45.29 45.01 44.96 45.37 46.24 47.90 48.87 48.97 49.35 50.75 52.41 53.07 53.69 52.49 52.52 51.99 51.35 50.04 48.79 47.85 47.54 45.50 43.35 41.78 39.53 37.77
33.48 30.46 28.07 22.37 19.72 21.70 21.34 24.15 34.67 34.06 35.51 36.22 37.56 39.73 44.93 44.89 44.38 44.06 44.16 44.81 45.30 42.93 42.17 42.66 43.43 43.06 43.31 43.75 45.60 46.95 47.69 48.30 48.47 48.20 48.19 48.39 49.22 49.56 48.78 47.30 46.64 45.73 44.89 43.36 40.93 39.15 38.62 37.05 36.80

GFSSGP_sfc_wetblb_048.txt.gz
Wetbulb
67.22 64.87 64.88 61.36 51.81 50.67 46.55 47.26 51.60 51.22 51.97 54.42 54.98 54.40 54.63 56.23 56.54 55.13 68.82 71.37 71.33 72.64 74.30 73.97 75.40 75.59 76.02 75.92 75.05 74.38 73.46 72.83 72.14 71.05 69.95 69.39 69.38 69.24 69.36 70.92 70.28 70.32 70.39 71.72 71.58 70.67 69.55 67.90 67.94
66.51 62.36 62.66 58.45 48.47 44.67 46.00 50.23 48.84 52.20 53.74 55.09 54.52 54.52 56.19 56.73 63.67 66.18 68.55 71.18 71.95 73.81 74.56 74.28 75.17 75.70 75.90 75.52 74.40 73.90 73.20 72.65 71.96 70.92 69.67 68.31 67.82 68.74 69.98 71.66 71.92 71.50 71.57 71.51 70.34 68.83 67.29 67.50 68.28
63.62 61.65 56.96 52.76 48.70 45.08 45.84 49.74 51.02 52.43 53.96 54.04 53.91 56.35 56.67 58.23 64.47 67.24 70.45 71.73 72.48 73.40 73.86 74.58 75.25 75.61 75.68 75.24 74.54 73.78 73.05 72.57 72.16 71.59 69.42 68.04 67.41 69.94 70.59 71.00 71.16 70.83 70.23 69.68 68.83 67.76 67.48 68.00 68.42
60.54 59.26 57.40 49.16 46.00 49.20 49.63 51.14 51.89 52.27 53.49 54.51 54.24 53.64 59.86 65.46 65.38 68.80 71.79 71.98 72.47 73.05 73.81 73.96 74.66 74.34 74.44 74.40 74.32 73.62 72.93 72.27 71.47 70.74 69.58 67.69 67.33 69.34 69.48 69.86 69.29 69.08 69.11 68.93 68.37 67.59 68.25 68.35 68.33
60.39 57.94 50.35 47.80 47.69 50.19 51.76 52.08 52.94 51.56 52.18 52.84 53.81 52.99 55.64 65.76 69.40 70.46 71.98 72.29 72.15 72.52 73.21 73.56 74.38 74.38 73.78 74.06 74.08 73.83 72.98 72.21 71.15 70.38 69.17 67.47 67.44 68.33 68.08 68.65 68.13 67.95 67.72 67.37 67.75 67.97 68.05 68.35 68.61
54.35 56.01 47.92 45.54 47.67 51.01 52.53 53.47 52.62 51.95 52.45 52.63 52.77 53.69 57.33 67.38 68.96 70.35 71.95 72.40 72.78 72.33 72.41 72.81 71.91 72.90 73.23 73.42 73.51 73.46 72.90 72.14 71.30 70.39 68.64 67.62 67.57 67.89 67.93 67.54 67.34 67.33 67.37 67.43 67.93 68.38 68.55 68.58 67.82
53.17 51.00 47.94 48.36 48.05 49.35 51.05 54.37 52.18 52.39 52.34 52.00 54.75 52.71 58.89 64.73 69.64 69.63 70.33 72.31 72.67 72.70 71.77 71.86 71.94 71.66 71.55 71.87 72.28 72.73 72.70 72.24 71.79 70.83 69.19 68.87 68.49 67.90 67.39 67.18 67.17 67.29 67.84 68.39 68.70 68.74 68.54 66.83 65.26
54.55 52.55 48.11 48.78 47.15 47.60 53.11 52.50 53.46 52.33 51.38 55.36 55.63 52.98 55.27 62.80 69.29 69.31 69.07 69.49 69.86 72.09 71.52 71.35 71.43 71.87 72.01 71.76 70.65 70.90 71.60 71.48 71.01 70.32 69.27 67.97 67.43 67.72 67.96 68.26 68.19 67.99 68.48 68.81 68.89 68.27 65.67 64.86 65.78
54.70 48.04 45.22 46.71 46.93 48.63 51.76 50.75 52.98 54.01 52.75 53.82 55.17 56.42 61.53 64.39 67.94 67.45 67.26 67.43 68.27 70.66 71.31 71.42 70.86 71.14 70.99 69.99 69.73 69.94 69.98 69.95 69.37 68.87 67.43 66.63 67.04 67.11 66.97 66.78 67.71 68.74 69.31 68.98 68.83 66.10 64.30 65.32 64.54
49.83 45.89 46.18 50.27 50.58 48.96 50.07 51.07 52.34 52.13 52.28 52.90 54.49 58.13 64.29 65.84 65.75 65.12 64.99 65.07 66.63 67.46 69.49 71.16 71.13 70.61 70.02 68.78 69.41 68.30 70.54 70.75 70.44 68.80 68.41 68.46 68.21 67.50 66.22 65.31 66.83 68.18 68.86 68.92 68.16 64.70 62.07 61.21 63.06
49.49 45.61 49.04 48.98 50.33 50.17 50.40 51.01 53.41 51.69 50.56 52.70 52.76 55.87 61.56 64.18 64.87 64.74 65.24 66.56 66.63 67.90 68.44 69.23 70.69 70.63 69.61 68.92 69.12 69.00 70.79 70.14 69.94 68.37 68.13 68.51 68.58 68.72 67.94 66.64 66.79 67.98 66.30 67.87 67.40 64.33 62.60 60.76 60.25
45.96 48.68 49.26 50.10 50.82 50.37 49.99 52.43 51.05 52.09 52.07 55.04 56.28 55.96 56.56 62.89 64.60 64.65 64.61 65.96 66.37 67.29 68.27 68.70 69.31 70.56 69.83 69.61 69.06 68.93 69.57 69.94 69.15 68.63 67.84 68.29 67.92 68.21 68.22 67.55 66.46 67.16 67.88 67.76 67.98 65.72 62.79 60.34 58.69
47.02 48.01 49.35 50.55 50.93 50.84 51.41 50.43 50.70 51.35 54.31 55.29 55.31 55.14 55.89 56.31 61.36 66.22 67.09 67.37 67.62 67.42 68.16 68.49 68.97 70.94 70.11 69.76 69.77 69.26 68.95 69.32 69.46 69.20 68.33 67.78 67.58 67.47 68.20 68.12 67.53 66.42 67.24 67.25 66.60 64.92 61.17 58.97 57.37
49.07 48.49 48.96 49.94 49.89 50.00 48.57 49.55 50.02 51.52 54.26 53.67 53.94 54.19 55.30 56.24 57.05 58.47 62.93 66.49 68.26 69.14 68.93 68.64 68.93 70.04 70.70 68.45 69.97 69.81 69.64 69.36 69.64 69.17 68.88 68.02 67.32 67.33 67.37 67.55 67.58 67.14 66.68 66.77 65.92 64.17 60.65 58.40 56.51
48.79 45.47 47.46 48.25 48.69 48.00 49.89 46.10 46.60 51.91 53.21 51.98 52.57 53.48 54.46 55.60 56.88 56.96 58.57 59.19 61.71 65.51 68.51 69.90 70.15 70.25 69.59 68.39 68.43 69.99 70.19 69.64 69.13 69.14 69.13 68.58 67.63 66.95 66.83 66.90 67.24 67.38 67.18 65.94 65.38 63.09 59.89 57.40 55.33
45.41 45.10 40.49 46.20 48.18 48.57 48.04 41.30 46.89 51.37 51.20 50.75 51.90 52.60 53.40 54.31 55.20 56.54 57.73 58.12 58.86 59.16 61.24 65.84 68.89 70.22 70.05 68.98 68.90 68.78 69.87 69.94 69.51 69.35 69.02 68.54 67.87 67.35 66.83 66.60 66.88 67.68 67.10 65.41 64.07 61.49 58.06 56.66 55.05
43.34 37.43 39.06 41.45 47.80 46.78 46.22 42.01 47.35 50.20 49.77 49.76 51.06 51.92 52.48 53.17 54.61 55.89 56.81 57.31 57.98 58.69 58.91 59.48 64.93 68.07 69.57 69.82 68.78 68.67 68.60 69.32 69.94 69.40 68.86 68.67 67.93 67.26 66.77 66.48 66.76 67.33 66.55 64.82 63.30 61.39 59.29 56.42 54.86
37.28 37.65 39.48 39.00 43.65 45.61 44.04 43.40 46.96 49.69 49.09 49.21 50.22 51.08 51.86 52.32 53.51 55.90 56.86 57.62 57.59 58.10 58.58 58.84 59.83 64.01 67.53 69.57 68.49 68.21 67.30 67.59 70.06 69.62 69.04 68.69 68.18 67.60 67.06 66.15 66.27 66.66 65.76 64.73 62.73 60.12 58.26 57.19 55.70
42.03 39.72 38.30 41.42 42.95 42.60 42.84 43.33 45.62 48.21 48.74 48.53 49.51 50.54 51.12 51.96 53.83 53.58 53.67 54.18 54.35 55.17 56.10 57.25 57.61 59.02 62.82 65.62 67.16 66.44 65.37 65.93 66.31 67.95 69.34 68.78 67.92 67.30 66.81 66.06 65.75 65.89 65.01 64.58 62.80 60.16 56.79 53.83 54.63
41.07 39.12 38.81 41.20 42.04 42.26 41.68 41.41 45.31 47.03 47.32 46.98 46.45 47.38 48.57 49.30 49.52 49.36 51.30 52.58 51.73 51.90 53.45 55.02 56.10 57.07 58.27 62.03 66.18 67.40 67.19 66.92 67.72 66.90 66.55 67.13 67.67 66.93 66.60 66.06 65.49 65.27 64.70 64.31 63.42 60.37 55.95 55.61 52.80
40.58 38.77 39.20 39.04 40.44 40.30 39.89 40.37 41.10 41.94 43.32 44.57 45.14 44.95 46.25 47.59 48.73 50.74 52.46 53.20 54.09 53.35 52.53 52.23 53.37 54.97 56.14 57.65 61.31 65.28 67.30 67.79 66.52 66.29 65.36 66.15 66.60 66.86 66.56 66.01 65.98 65.30 64.81 63.81 63.57 60.63 57.13 54.53 51.81
37.49 42.58 41.45 39.35 38.72 35.69 38.84 34.85 38.27 39.50 40.52 42.93 45.03 45.94 47.22 48.97 50.75 51.52 52.06 52.91 53.54 53.99 54.97 54.41 53.23 52.92 53.80 55.33 56.19 59.00 62.79 63.31 64.57 64.93 65.91 66.82 65.39 65.46 66.03 65.62 65.48 65.22 64.67 63.02 62.68 60.81 58.53 58.18 52.10
38.81 42.18 40.09 38.51 38.12 36.62 35.90 34.65 37.10 39.36 38.02 40.71 43.83 45.63 47.39 49.05 50.20 51.07 51.85 52.20 53.41 54.40 54.69 55.51 55.41 55.08 54.26 53.68 54.78 56.32 59.81 63.12 63.85 64.32 65.00 65.59 65.95 64.69 63.92 63.98 64.32 64.33 63.83 62.89 62.25 59.78 58.16 58.50 56.57
40.97 38.70 36.93 36.48 36.53 32.39 34.41 33.31 34.88 36.99 39.11 40.75 43.48 45.84 46.91 48.68 50.21 51.54 52.45 53.00 53.30 54.36 54.41 54.85 54.67 55.04 55.21 55.04 53.75 54.41 56.49 60.61 62.04 63.40 64.01 65.16 65.32 63.85 63.27 62.57 63.05 63.82 63.35 61.90 61.58 59.90 57.58 57.02 57.04
39.57 38.42 32.06 30.74 30.16 30.88 31.88 30.89 36.64 38.97 40.59 42.76 43.21 45.20 47.25 48.95 50.24 50.94 51.15 51.28 51.85 52.29 52.97 53.28 53.43 53.50 54.70 54.90 55.30 54.34 54.32 56.82 60.18 62.05 63.03 63.71 64.18 62.88 61.44 61.98 61.37 61.73 62.28 62.27 61.45 60.05 57.17 56.37 55.19
36.96 37.40 33.60 26.10 26.16 29.08 30.82 29.01 35.60 40.29 41.55 43.96 44.01 45.03 45.72 48.75 50.31 50.55 50.50 50.53 50.80 51.38 52.10 52.61 52.22 52.05 53.16 54.01 55.00 55.77 55.95 55.53 55.45 58.54 61.04 62.77 63.07 63.84 63.55 61.45 61.42 61.33 61.38 60.92 60.46 59.30 57.68 56.12 53.52
36.18 34.68 35.31 30.05 28.24 28.82 32.66 33.93 37.49 38.73 40.28 41.79 43.84 45.64 46.68 48.59 49.60 49.63 49.77 50.43 50.56 50.91 51.31 51.66 51.27 51.89 52.88 53.38 54.27 55.25 56.08 56.25 56.12 56.37 57.45 59.56 61.77 62.60 63.22 62.83 60.44 60.51 60.37 59.00 57.82 56.14 55.59 54.58 54.47
38.69 38.40 32.24 32.96 25.74 25.45 29.85 29.99 33.96 35.93 38.43 40.79 43.17 44.99 46.45 48.80 49.08 49.44 49.85 50.19 50.54 50.44 50.24 50.81 50.59 50.26 50.74 51.24 52.63 53.32 54.59 55.36 56.09 56.91 56.97 57.32 58.62 60.24 60.93 60.06 59.91 58.98 57.33 55.91 54.50 53.74 53.86 52.72 52.35
34.88 34.82 33.15 33.89 30.72 27.20 26.98 30.89 37.63 39.00 40.88 40.23 42.66 45.08 46.94 48.49 48.12 47.86 48.01 49.28 50.10 49.71 48.97 49.21 49.07 48.88 48.84 49.16 50.43 51.97 52.96 53.70 54.59 54.57 54.65 55.38 56.54 57.02 56.92 57.02 57.02 55.99 53.71 52.45 51.52 50.13 49.54 48.37 44.32
37.59 35.73 35.34 31.79 27.64 28.72 28.53 32.64 39.45 40.92 41.59 41.62 43.30 45.58 47.77 48.60 47.23 46.03 45.48 46.45 48.45 47.53 47.30 47.17 47.08 46.76 46.91 47.40 48.16 49.51 51.41 52.20 52.73 53.00 52.79 52.32 52.69 53.00 53.51 52.85 52.17 51.34 50.26 49.41 47.53 44.15 43.19 39.79 37.68

GFSSGP_sfc_wetblb_051.txt.gz
Wetbulb
67.48 67.50 64.63 61.43 52.19 51.19 48.24 49.11 52.45 51.74 51.90 55.46 56.41 55.19 54.52 56.40 56.19 55.82 69.64 71.71 72.03 73.22 74.29 74.53 75.37 76.00 76.20 75.92 75.00 74.14 73.53 72.84 72.07 71.31 70.41 70.03 69.97 69.30 69.68 70.55 70.14 69.68 71.03 71.74 71.23 70.14 68.68 68.55 68.49
66.79 64.67 62.19 58.36 48.90 46.24 47.49 52.14 50.07 52.66 55.06 56.15 56.29 55.95 55.24 55.67 64.14 67.54 69.23 71.53 72.40 73.46 74.13 73.82 75.41 75.97 76.01 75.24 74.44 73.73 73.16 72.52 71.42 70.53 69.24 68.40 68.24 69.67 71.75 71.61 70.94 70.72 71.66 71.27 69.96 68.32 67.75 68.36 68.48
65.67 64.23 57.32 52.79 49.43 45.68 47.81 51.58 51.84 54.06 55.22 55.40 55.35 57.56 57.74 59.08 65.64 68.03 71.76 71.70 72.86 73.67 73.88 74.54 75.49 75.87 75.73 75.28 74.55 73.58 73.04 72.48 71.29 70.24 68.88 67.88 68.80 70.51 71.64 71.91 71.50 71.21 70.40 69.33 68.27 67.61 68.01 68.43 68.55
61.97 59.76 57.91 50.29 47.43 50.49 51.34 52.00 52.59 53.43 54.84 55.74 55.60 54.68 60.32 66.56 66.48 70.13 72.04 71.98 72.83 73.16 74.26 73.97 75.24 75.54 75.33 74.93 74.36 73.57 72.95 72.37 71.22 70.41 69.03 67.38 69.14 70.25 70.73 70.33 70.15 69.93 69.86 68.85 68.15 67.96 68.30 68.48 68.70
62.11 58.15 50.57 48.50 48.84 51.48 53.39 53.65 53.66 52.64 53.45 54.34 54.86 54.48 58.04 67.56 70.38 71.55 71.56 71.72 72.26 72.42 74.42 73.86 74.83 74.74 74.72 74.38 73.83 73.77 72.85 71.86 71.30 70.49 68.80 67.41 68.64 69.07 69.96 68.94 68.83 68.61 68.24 68.04 67.92 68.07 68.27 68.53 68.71
55.21 56.86 47.73 46.68 49.06 52.13 53.67 54.67 53.72 53.27 53.97 53.78 53.84 54.68 60.26 69.05 70.07 71.42 72.06 72.09 72.69 72.14 73.14 73.00 72.82 73.55 73.39 73.78 73.80 73.74 72.92 72.24 71.33 70.90 68.40 67.42 68.09 68.34 68.40 68.20 68.01 67.83 67.50 67.57 67.86 68.13 68.53 68.56 67.75
53.19 52.25 48.58 49.64 49.42 50.88 52.64 55.63 52.97 53.06 53.47 53.20 55.33 53.60 61.00 67.40 70.40 71.33 72.13 72.67 72.72 72.54 71.91 72.13 71.75 71.35 71.81 72.14 72.58 73.36 73.14 72.33 71.46 70.47 68.73 68.51 68.71 68.83 68.00 67.67 67.47 67.50 67.73 68.01 68.53 68.72 68.48 66.81 65.63
55.18 53.66 49.13 50.21 48.67 49.29 54.35 54.37 55.05 53.76 53.06 56.47 56.17 53.23 56.33 64.53 70.23 70.63 70.83 71.93 72.22 72.28 71.38 71.28 71.43 71.45 71.36 71.60 71.17 71.82 72.18 71.63 71.10 69.76 69.03 67.82 67.37 67.63 67.78 68.06 67.92 67.80 68.31 68.81 68.94 68.35 66.10 65.21 65.45
56.48 48.60 46.55 48.44 49.26 50.96 54.98 53.03 55.52 55.92 53.89 54.34 55.20 56.61 62.48 65.26 69.38 68.13 67.49 68.03 69.89 71.18 71.27 71.34 70.97 71.38 71.34 71.09 70.71 70.23 70.58 70.38 69.45 68.69 67.18 66.29 66.31 66.44 66.32 66.87 67.94 69.02 69.32 69.15 68.79 66.15 65.03 65.94 65.65
50.78 47.89 48.12 52.26 52.43 51.32 53.80 52.74 53.56 52.41 52.39 52.73 54.19 58.69 64.56 65.70 66.91 66.50 65.58 65.47 66.84 69.52 70.51 71.10 70.82 70.60 70.56 69.37 69.89 68.54 68.67 70.67 69.43 68.98 67.65 66.53 66.63 66.13 65.69 65.90 67.19 68.07 68.82 69.24 67.75 65.30 64.17 64.80 63.43
49.91 46.06 50.41 51.52 51.15 51.64 52.02 51.88 53.65 52.22 50.64 53.14 53.17 56.02 61.37 64.35 65.32 65.93 66.27 67.51 66.72 68.10 69.71 70.81 71.05 70.76 69.94 68.64 68.89 67.91 68.23 70.30 70.47 69.40 67.83 66.94 67.51 66.93 65.97 66.09 65.88 67.14 65.95 67.21 67.12 64.38 61.83 61.80 61.78
46.82 49.73 50.23 51.41 51.17 50.06 49.78 52.61 51.43 52.67 53.02 55.57 55.85 57.63 57.58 62.28 64.29 65.23 65.90 67.37 68.30 68.16 68.25 69.10 71.04 70.85 70.02 69.11 68.42 68.26 69.47 69.67 69.19 69.05 67.69 67.27 67.61 67.71 66.42 65.72 65.16 66.26 66.97 66.86 67.41 66.41 64.00 62.10 61.03
47.37 49.47 50.79 51.39 51.15 50.85 51.38 50.37 50.91 51.92 55.04 56.31 56.66 56.43 56.40 57.14 60.69 65.86 66.84 67.80 68.32 68.13 69.42 68.75 69.46 70.53 70.69 69.39 68.99 68.73 68.68 69.57 69.30 68.79 67.91 67.47 67.59 67.18 67.73 67.22 66.38 65.88 66.96 66.82 67.23 66.49 64.08 62.09 60.48
49.38 49.79 49.76 50.70 50.24 51.00 49.44 50.26 51.64 52.66 55.35 54.71 54.75 54.87 55.50 56.18 57.73 59.91 64.90 66.98 67.80 68.63 69.28 69.91 68.81 69.37 70.97 70.09 69.74 69.79 69.70 69.74 69.75 69.31 68.66 67.46 67.37 67.27 67.39 67.39 67.25 66.47 66.06 66.50 66.30 65.69 63.91 61.21 59.63
49.40 46.11 48.00 49.08 49.58 48.75 50.55 46.87 48.17 53.09 54.16 53.00 53.17 53.90 54.50 55.00 56.06 57.44 59.95 61.73 65.52 68.19 69.65 70.05 70.07 70.47 70.56 70.97 69.96 70.19 70.65 70.22 69.69 69.85 69.51 68.30 67.48 67.16 66.97 67.01 67.22 67.42 67.07 65.99 65.77 65.18 63.85 61.06 59.00
45.32 45.92 40.46 46.96 48.52 48.90 48.11 41.66 49.01 52.67 52.13 51.45 52.23 52.69 53.03 53.91 54.81 56.19 58.47 60.14 61.38 61.63 62.32 66.51 69.57 70.47 70.42 70.56 69.92 69.35 70.60 70.54 70.05 70.02 69.93 69.21 68.23 67.62 66.87 66.62 66.60 67.34 67.42 66.79 65.38 64.40 62.20 60.04 58.06
43.24 37.76 40.07 42.80 48.24 47.64 46.33 42.94 48.66 51.17 50.56 50.49 51.56 52.21 52.57 53.37 54.54 55.65 56.46 58.08 59.10 60.16 60.68 61.00 62.54 66.09 69.37 70.33 70.09 69.01 68.93 69.94 70.58 70.29 69.86 69.59 68.95 68.16 67.14 66.58 66.65 66.70 67.05 65.12 65.32 63.92 61.57 59.42 58.26
37.26 38.10 40.47 40.09 45.18 46.09 44.70 44.10 47.71 49.42 49.41 49.70 50.82 51.64 51.98 52.42 53.35 55.35 56.39 57.53 58.35 58.98 59.36 59.79 60.24 60.66 63.79 67.44 69.15 69.56 68.27 68.26 69.28 70.54 70.21 69.73 69.43 68.87 67.85 67.14 66.68 66.49 66.37 65.36 65.16 63.41 62.28 60.50 58.60
41.80 40.47 39.39 42.27 45.15 44.16 43.05 44.13 46.05 48.55 49.17 49.14 49.85 50.56 50.93 51.65 53.96 55.48 55.52 55.70 55.77 56.55 57.11 58.08 58.73 59.48 60.11 62.96 64.98 68.16 66.74 66.70 66.61 69.12 70.66 69.88 69.45 69.02 68.40 67.41 66.84 66.57 65.71 65.64 65.24 63.55 61.37 59.09 59.33
41.48 39.78 39.39 42.35 44.21 43.08 42.74 42.45 45.84 47.43 48.00 49.13 49.52 49.96 50.97 51.64 52.31 52.04 52.39 54.02 53.81 53.61 54.26 55.40 56.97 58.41 59.38 60.10 62.15 65.86 67.92 66.52 66.74 66.96 67.81 69.39 69.78 69.21 68.16 67.71 66.79 66.31 65.22 65.05 64.43 63.26 60.58 58.65 57.93
40.54 38.68 39.51 39.62 42.25 43.59 41.94 40.11 42.58 43.70 45.67 45.86 46.66 47.44 48.10 48.93 49.74 51.56 52.97 53.87 54.90 54.74 54.98 54.20 54.25 55.46 57.15 58.70 59.69 61.54 65.94 67.59 67.22 67.20 66.92 66.53 67.33 68.84 68.49 67.62 67.18 66.57 65.72 64.42 64.27 63.85 60.83 56.85 56.01
37.72 43.15 42.15 40.95 39.03 34.85 42.16 34.11 41.29 41.34 42.33 44.48 46.04 47.27 48.49 49.98 51.42 52.08 52.62 53.44 54.33 55.00 56.42 56.32 55.93 54.98 54.99 56.17 56.26 56.89 58.82 61.68 64.92 65.97 66.73 66.80 67.11 66.17 66.78 66.20 66.44 65.98 65.87 64.75 64.47 64.17 62.08 58.70 54.59
40.39 44.82 42.38 41.23 39.46 38.43 38.40 35.86 39.09 40.99 39.45 42.00 45.16 47.12 48.77 50.23 51.07 51.69 52.69 53.36 54.52 55.35 55.71 56.44 56.66 56.54 56.61 55.64 55.13 55.53 55.97 58.19 61.56 64.18 64.60 64.84 66.15 66.96 65.43 64.96 65.12 64.96 64.57 64.33 64.45 63.63 62.44 58.87 57.70
44.50 41.60 40.54 40.01 38.51 32.97 38.30 36.69 35.48 37.36 40.20 42.09 45.03 47.13 48.46 49.80 51.42 52.41 53.42 54.01 54.21 55.36 55.48 55.70 55.19 55.51 56.59 56.54 56.56 54.87 54.96 55.50 57.38 60.80 62.76 63.47 64.75 65.71 66.13 63.88 63.39 63.41 63.29 63.13 63.28 63.72 62.17 59.67 59.02
41.88 39.39 32.32 30.89 31.34 31.43 35.58 34.14 39.46 41.56 43.50 44.08 44.84 46.65 48.68 50.28 51.22 51.92 52.25 52.47 52.85 53.06 53.75 54.17 54.39 54.04 55.23 55.58 55.99 56.42 56.01 55.22 55.64 57.63 60.19 62.08 62.93 64.07 64.60 63.47 62.57 62.14 62.31 62.33 62.53 61.51 60.90 59.57 57.98
39.29 39.41 34.75 27.08 28.77 32.04 33.18 30.62 38.07 42.97 44.80 45.84 46.53 47.74 48.32 50.20 51.47 51.40 51.63 51.93 52.14 52.29 52.81 53.34 53.03 52.83 53.90 54.73 55.26 56.12 56.42 56.36 56.37 56.23 56.65 59.61 61.40 62.70 64.30 64.23 62.62 61.88 61.52 61.51 61.33 60.51 60.17 58.82 57.82
35.82 35.39 38.51 32.76 33.02 31.35 33.27 36.15 39.52 41.27 41.58 44.29 45.91 47.18 48.28 49.91 50.63 50.94 51.64 51.96 51.93 51.52 51.72 52.17 51.89 52.21 52.72 53.01 54.27 55.00 55.83 56.11 56.20 56.92 57.27 57.16 58.29 60.14 61.98 63.38 62.66 61.18 60.78 60.54 60.30 59.36 58.41 57.57 56.54
40.66 41.88 33.45 35.33 27.96 26.87 32.08 33.57 34.89 36.32 39.23 43.02 44.91 45.99 47.90 49.87 50.29 50.39 50.63 50.91 51.45 51.13 51.30 51.76 51.52 51.07 51.47 51.56 52.29 53.01 54.12 54.78 55.24 55.90 56.03 56.78 57.73 58.19 58.79 60.43 60.70 59.96 59.16 59.16 57.86 56.43 55.75 55.15 54.30
36.70 36.16 36.39 36.41 33.12 29.62 29.33 31.97 38.83 39.33 41.29 42.16 43.20 46.05 47.85 49.46 49.37 48.98 48.65 49.15 50.71 50.65 50.38 50.08 49.69 49.42 49.28 49.67 50.34 51.27 52.29 53.04 53.85 54.24 54.50 54.35 54.79 55.32 55.87 56.90 57.55 57.01 57.25 56.18 54.70 53.68 53.08 52.50 49.42
40.20 38.90 38.97 33.66 30.49 31.91 31.03 32.69 40.81 42.79 43.54 43.76 43.43 46.69 48.71 49.67 48.55 47.75 47.03 48.02 49.05 48.82 48.82 48.23 47.97 47.74 47.78 48.20 48.42 48.92 49.50 49.95 50.22 50.32 50.98 52.05 51.77 52.45 52.42 52.36 53.44 53.92 52.57 51.64 50.53 47.59 47.10 44.03 41.13

GFSSGP_sfc_wetblb_054.txt.gz
Wetbulb
66.49 65.30 64.96 58.82 48.47 47.60 44.23 46.44 49.59 49.04 48.58 51.59 53.42 50.89 49.65 51.73 57.37 54.20 65.90 68.36 72.14 70.81 72.80 74.40 75.66 75.88 76.13 75.95 74.79 74.49 73.92 72.94 72.25 71.83 71.23 70.74 70.35 69.31 70.43 70.26 70.50 70.76 72.03 71.85 70.51 69.49 69.25 68.99 69.00
64.79 64.86 60.54 54.57 45.28 41.46 43.40 48.79 48.26 49.31 52.38 53.04 52.48 51.65 50.95 56.25 64.80 64.56 66.20 69.48 71.94 72.06 72.13 72.48 75.49 76.13 76.09 75.47 74.40 73.93 73.17 72.07 71.15 70.38 69.64 69.02 69.03 71.32 71.70 71.03 70.81 71.87 71.99 70.82 69.14 68.63 68.75 68.68 68.79
64.18 64.07 54.64 49.48 46.01 41.91 44.17 49.55 49.36 51.91 51.85 52.19 51.87 52.98 53.13 58.37 64.51 65.69 68.96 69.61 71.99 71.75 72.22 73.80 75.66 76.07 75.63 75.00 74.53 74.16 73.44 71.85 70.82 69.75 68.81 68.47 70.29 72.11 72.10 71.97 72.19 71.80 70.57 69.05 68.34 68.34 68.49 68.66 68.76
60.16 58.46 54.82 46.73 44.39 47.82 48.15 48.86 50.77 51.42 51.75 53.03 52.08 51.16 59.98 65.12 64.64 67.89 69.17 70.05 70.88 71.16 72.18 74.36 75.42 75.74 75.35 74.85 74.39 74.07 73.26 72.05 70.55 69.75 68.38 68.62 70.98 71.57 71.15 71.10 70.66 70.92 70.33 68.82 68.38 68.34 68.63 68.97 68.83
59.87 55.09 46.94 44.96 46.35 49.51 50.63 51.36 50.23 50.26 50.52 51.86 50.60 50.87 58.99 64.93 68.23 68.62 68.48 70.60 69.90 71.61 72.29 73.70 75.21 75.43 75.04 74.20 73.82 73.91 73.53 72.02 71.13 69.82 68.23 68.26 70.21 70.79 70.07 69.71 69.75 69.31 68.93 68.36 68.44 68.50 68.66 68.94 68.41
53.80 53.63 45.02 42.73 46.21 50.18 51.45 51.61 49.58 49.48 51.11 50.42 49.10 52.01 59.12 66.48 67.61 68.11 68.70 69.11 70.20 71.36 71.93 72.32 73.36 74.31 74.39 73.57 73.36 73.48 73.29 72.53 71.62 69.87 68.19 68.14 69.31 70.02 69.26 68.92 68.67 68.23 68.14 68.20 68.14 68.56 68.77 68.67 67.55
50.89 48.52 45.32 46.13 46.70 49.16 51.01 52.49 49.26 48.92 48.49 50.01 50.73 49.22 61.32 65.31 67.89 68.81 68.60 69.21 69.40 70.77 70.71 70.33 70.26 71.43 72.25 72.51 72.85 72.78 73.18 71.99 71.29 70.38 69.19 69.16 69.35 69.29 68.40 68.28 68.33 68.17 67.98 68.38 68.71 68.79 68.42 66.99 66.21
52.88 50.01 45.80 47.58 46.74 47.86 52.97 52.44 52.68 50.27 49.58 53.08 52.29 50.15 55.11 64.74 67.86 68.63 68.89 68.73 68.85 68.70 69.73 68.98 68.68 69.16 69.92 70.72 71.40 71.83 71.81 70.97 70.74 69.46 68.68 67.44 67.10 67.69 68.46 68.09 68.51 68.72 68.77 69.13 69.10 68.48 66.46 65.72 65.74
55.50 45.97 43.39 45.90 47.57 49.57 53.75 51.03 52.84 53.77 50.70 50.34 51.08 57.52 60.75 67.15 67.74 66.17 66.02 66.55 67.65 68.56 67.67 68.72 68.55 68.57 69.21 69.36 69.69 70.66 70.75 70.15 69.11 67.95 66.76 65.47 63.83 64.76 65.46 65.85 67.28 68.68 69.50 69.81 68.95 66.79 65.90 66.34 66.01
48.99 44.45 45.70 51.33 51.72 49.89 52.50 52.33 51.70 49.90 49.53 48.59 49.94 59.01 62.31 65.55 65.33 64.19 63.61 62.88 64.66 66.20 67.12 67.46 68.36 68.81 68.82 69.45 68.39 67.92 68.89 68.82 67.83 65.99 64.25 63.36 62.63 63.10 64.44 65.18 66.91 68.40 68.99 69.35 68.20 66.41 65.99 64.77 61.03
48.38 44.05 49.97 51.54 51.33 50.37 51.38 51.02 51.92 48.73 47.13 49.40 49.46 52.92 61.07 62.08 62.07 63.75 63.99 64.44 64.51 66.00 67.23 67.47 67.26 67.16 66.75 65.55 66.48 65.51 65.95 67.54 67.69 66.81 64.69 63.60 63.19 62.28 63.57 63.75 63.99 64.25 64.67 66.04 65.22 62.78 59.41 57.79 58.32
44.76 48.41 49.54 51.25 50.80 49.56 48.69 51.69 48.83 49.12 49.10 52.94 53.82 55.03 57.13 60.20 61.40 62.06 63.19 64.58 65.31 65.84 66.26 67.63 68.12 67.19 66.16 65.20 64.37 64.22 65.12 67.30 67.86 67.80 65.39 63.44 62.50 62.45 61.45 62.61 61.81 63.07 63.41 63.59 63.97 62.01 59.27 57.71 56.71
46.46 47.60 49.16 50.61 49.92 49.24 50.60 48.76 47.61 48.14 51.05 53.58 54.60 54.35 52.42 52.09 56.47 62.48 63.56 64.75 65.14 65.53 66.79 67.60 67.60 67.63 66.92 65.09 64.51 64.20 64.20 67.58 66.79 65.44 64.58 64.00 63.15 63.39 63.13 62.09 61.87 62.62 63.04 62.83 64.02 63.15 61.69 57.55 56.36
48.14 48.59 48.67 49.23 49.23 49.86 47.61 47.38 48.32 49.20 50.91 51.80 51.96 50.54 51.12 52.02 52.73 53.32 61.77 63.48 64.33 65.42 66.62 67.64 68.17 67.48 67.80 66.11 65.39 64.78 64.93 65.68 66.12 65.27 64.99 63.78 63.63 63.50 63.57 63.26 62.51 61.43 61.74 62.59 63.83 63.40 59.94 57.32 55.93
48.82 44.44 46.47 46.94 48.12 47.55 49.08 45.05 45.40 49.60 50.71 50.19 49.80 50.11 51.61 51.78 52.21 51.57 53.88 56.70 61.85 65.73 66.64 67.63 67.52 67.65 67.09 67.54 66.63 66.32 66.78 66.88 65.90 66.31 65.75 65.28 63.72 63.45 63.15 62.98 62.77 62.75 62.19 61.65 61.51 61.22 60.29 56.81 55.15
44.75 44.03 39.14 45.40 47.38 48.13 47.15 38.76 47.27 50.84 49.00 48.53 48.58 48.45 49.17 51.09 52.03 51.65 52.85 54.80 56.14 56.84 57.52 66.03 69.12 68.25 67.80 67.93 68.13 66.90 66.97 67.80 66.73 66.76 66.74 65.71 64.93 63.75 62.85 62.56 62.40 62.98 63.00 61.72 60.84 60.12 58.65 55.86 53.28
41.81 35.90 38.20 41.68 47.31 46.46 44.67 39.47 46.66 50.07 49.07 47.51 47.53 48.21 48.56 48.96 50.22 50.72 51.49 51.50 54.11 55.55 56.74 57.38 58.65 63.70 67.83 68.03 67.26 66.94 67.07 66.87 67.99 67.88 66.70 66.46 66.07 65.04 63.90 62.27 62.32 62.81 62.33 62.12 61.51 59.81 58.08 54.65 52.56
35.50 35.88 38.79 38.75 43.83 45.12 42.76 41.42 45.00 46.52 45.79 45.58 45.66 46.22 47.02 48.10 49.55 50.80 52.14 51.97 53.10 53.53 54.16 54.84 56.29 57.39 57.92 62.07 66.27 67.20 65.27 66.51 66.99 67.33 67.32 66.66 66.22 65.33 64.23 63.09 62.32 62.47 61.51 61.58 61.11 59.33 58.15 55.23 53.81
40.53 38.51 37.16 41.40 44.91 42.65 41.57 41.85 44.09 45.87 46.06 45.17 45.61 46.13 46.71 47.74 50.14 50.37 50.20 50.16 50.51 50.99 51.52 52.24 53.23 54.87 55.07 55.27 58.41 65.57 65.47 65.86 65.87 67.37 67.08 67.52 66.09 65.86 64.22 64.15 63.48 62.71 62.20 62.27 61.94 59.94 57.80 55.19 54.11
38.92 36.92 37.07 40.34 43.52 42.04 40.54 39.51 42.87 44.77 45.31 46.38 44.96 45.01 45.63 46.95 47.33 48.30 50.44 49.98 50.04 49.51 49.69 49.81 50.53 52.68 54.47 54.83 55.44 58.16 65.47 65.94 65.96 65.40 66.39 66.16 66.93 66.63 65.35 64.09 63.89 63.05 62.07 60.80 61.79 61.14 58.63 55.35 54.50
38.12 36.57 36.90 37.26 40.89 41.29 38.65 36.16 39.67 43.43 43.41 44.12 44.07 42.81 43.94 44.29 45.67 48.01 49.23 50.19 50.48 50.78 51.36 51.98 51.80 51.40 51.50 52.17 53.50 53.91 55.14 63.41 63.30 63.08 63.81 65.60 66.04 65.64 66.38 65.88 64.73 62.25 62.12 61.25 61.06 61.27 59.06 56.63 53.44
35.59 40.92 40.69 40.05 36.78 30.82 39.17 26.12 36.67 39.40 39.37 41.94 41.46 41.74 42.45 44.45 47.22 49.23 49.55 49.55 49.76 51.10 52.60 53.46 53.54 52.49 51.73 51.09 50.62 50.34 50.75 51.71 58.93 63.27 65.04 65.24 65.22 64.95 65.17 64.64 64.73 65.39 64.79 63.16 62.09 61.22 59.86 56.61 53.12
39.50 43.21 40.77 40.17 37.04 34.96 34.80 29.47 32.97 37.75 36.86 39.22 41.61 43.20 44.93 45.92 47.17 48.40 49.31 50.61 50.79 51.86 51.83 52.12 52.46 52.51 52.70 52.41 50.93 49.70 49.72 50.95 52.24 54.14 58.19 61.41 62.46 64.07 63.93 64.05 64.16 63.56 64.36 63.56 63.14 61.77 61.53 59.98 56.50
44.65 40.09 38.91 38.34 35.97 29.32 34.68 32.11 30.09 33.98 37.42 38.58 41.50 43.53 45.36 46.38 47.49 48.84 50.21 50.41 50.16 50.52 50.52 50.75 51.34 51.50 52.15 52.24 52.27 51.37 49.44 49.01 49.32 50.38 52.52 57.21 59.28 60.51 62.60 62.75 63.12 63.28 63.00 63.08 62.49 62.85 61.27 61.11 58.96
40.65 35.49 26.60 26.63 26.33 26.16 34.64 31.79 32.86 38.07 40.48 40.88 41.60 43.29 44.98 46.49 47.27 47.89 47.79 48.23 48.30 48.29 49.16 50.18 50.09 49.92 50.65 50.45 50.86 51.30 51.16 50.89 49.99 49.76 50.78 52.73 56.01 58.54 60.24 61.11 61.35 61.93 62.32 62.43 62.37 61.75 61.63 60.37 58.57
36.14 35.79 28.24 22.34 24.74 26.30 31.92 26.31 32.30 39.24 42.03 43.43 44.84 45.03 46.06 46.31 47.26 47.40 47.27 47.66 47.64 48.05 48.30 49.02 48.76 48.53 49.56 49.65 50.03 50.67 51.14 51.43 51.89 51.82 51.80 51.28 51.90 54.27 58.33 60.18 59.96 60.58 61.22 60.77 61.10 61.08 60.86 60.65 59.35
36.03 33.25 35.33 28.90 28.40 25.44 28.13 31.48 35.09 38.76 39.67 41.38 42.69 44.66 44.80 46.75 47.04 46.48 47.28 47.76 47.68 47.13 47.61 47.60 47.59 47.99 48.08 47.93 48.26 48.80 49.79 50.36 50.53 51.22 52.05 52.63 53.17 55.05 54.55 55.22 57.11 59.27 60.48 60.41 59.89 59.87 59.69 59.39 58.07
38.20 41.22 31.84 28.17 20.01 22.00 26.65 28.21 28.40 33.04 35.40 39.85 41.79 42.90 44.93 47.07 47.07 46.69 46.19 46.41 47.69 47.00 47.07 46.91 46.48 45.96 46.19 46.29 46.42 47.82 48.41 49.44 49.84 50.25 50.29 50.72 51.39 52.49 52.89 53.31 53.96 55.73 57.73 58.50 58.12 57.73 57.06 56.43 55.05
35.21 35.19 35.43 33.00 28.29 22.98 21.31 25.25 33.51 35.42 36.91 38.87 40.58 43.26 44.51 46.19 46.21 45.07 44.54 44.99 45.86 46.31 45.99 45.32 44.97 44.88 44.32 44.64 44.62 45.10 45.53 46.14 46.53 46.34 46.27 47.58 48.55 49.68 50.71 51.40 51.17 52.41 54.49 54.60 54.59 54.10 53.54 53.07 50.61
38.40 37.47 36.33 30.65 29.22 25.09 24.39 26.30 37.87 38.05 39.75 40.44 40.14 44.44 46.04 47.45 45.63 44.41 43.46 43.93 44.83 44.15 44.29 43.31 43.43 43.21 43.34 43.73 43.46 43.40 43.62 43.24 42.65 42.53 42.95 43.28 42.78 44.63 46.43 47.61 47.46 46.97 46.68 45.66 46.31 46.57 45.47 45.05 42.21

GFSSGP_sfc_wetblb_057.txt.gz
Wetbulb
66.11 64.33 60.65 55.12 44.75 42.52 39.02 43.70 44.25 46.08 46.12 47.79 49.95 50.01 48.52 52.44 56.71 52.24 64.56 69.83 70.95 72.26 74.78 75.05 76.06 76.33 76.29 75.82 75.22 74.71 74.34 73.69 73.00 72.54 71.68 70.96 69.58 70.32 70.39 70.68 70.98 72.19 72.11 70.48 69.95 69.64 69.32 69.17 68.37
64.81 64.01 56.72 49.86 41.54 36.51 39.26 44.16 44.86 47.08 49.63 49.65 51.41 49.73 53.02 56.62 62.61 63.13 64.74 70.06 71.05 72.58 73.52 73.86 75.58 76.17 75.99 75.31 74.59 74.08 73.37 71.77 71.13 70.72 70.15 69.27 70.83 71.50 71.00 70.99 71.76 72.41 71.17 69.64 69.27 68.83 68.69 68.71 68.08
63.31 61.54 51.73 45.37 41.06 38.24 39.58 44.83 46.14 48.68 50.34 49.97 48.57 50.52 54.49 57.27 63.56 63.98 66.64 70.20 70.96 70.70 71.85 74.00 75.41 75.98 75.69 74.98 74.64 73.98 72.64 71.13 70.28 69.58 69.08 69.96 72.24 72.20 71.72 72.01 72.39 71.35 69.72 68.93 68.62 68.36 68.53 68.61 68.23
58.16 54.44 50.76 42.85 40.50 44.95 45.15 46.52 47.89 48.57 50.33 51.31 49.51 54.58 60.18 63.69 63.90 66.71 68.35 71.17 70.38 70.39 72.20 74.37 75.47 75.64 75.22 74.86 74.58 73.87 72.18 71.07 70.01 68.98 68.98 71.14 71.93 72.25 72.10 71.53 71.46 70.89 70.06 68.70 68.49 68.63 68.97 68.81 68.45
58.80 53.50 43.10 40.77 42.70 46.25 45.94 49.03 48.29 47.71 48.78 49.01 48.75 52.56 58.50 63.53 66.41 66.96 67.79 70.77 69.87 70.97 72.65 74.12 75.42 75.40 75.06 74.38 73.85 73.67 73.16 71.21 70.26 68.97 68.70 71.05 71.43 71.19 71.13 70.57 70.06 69.57 69.15 68.63 68.60 68.81 69.02 68.66 67.99
52.28 52.58 42.41 39.97 42.91 47.33 47.64 48.83 48.41 47.09 48.50 48.03 50.66 55.78 58.75 63.78 65.09 65.51 68.13 70.45 71.31 71.12 72.56 73.57 74.22 74.71 73.95 73.68 73.27 73.34 73.03 72.45 70.45 69.05 68.25 70.20 70.97 70.22 69.90 69.53 69.05 68.91 68.72 68.45 68.51 68.89 69.02 68.26 67.46
49.59 47.70 43.50 42.95 44.25 46.63 48.33 49.41 47.19 47.42 46.06 47.08 49.64 54.49 58.57 63.83 66.05 66.62 66.90 70.63 70.82 71.03 71.16 71.52 72.57 72.69 72.30 72.28 72.28 72.60 72.68 71.98 71.11 70.02 69.41 70.01 70.09 69.77 69.18 69.00 68.69 68.49 68.43 68.35 68.72 68.87 68.40 67.27 66.72
52.88 49.12 44.09 45.12 44.13 46.20 51.58 50.23 49.93 48.88 46.61 50.63 51.20 53.38 56.38 63.37 66.51 67.11 66.90 67.76 69.62 69.57 69.74 68.33 68.75 69.73 69.91 70.83 71.27 71.44 71.09 70.78 70.42 69.42 68.76 67.81 67.73 68.21 68.92 68.64 68.97 68.90 68.78 68.95 69.02 68.67 67.03 66.17 66.20
55.27 45.97 42.24 45.03 46.19 48.32 53.68 50.86 50.77 51.39 49.30 49.59 52.81 56.91 63.87 66.24 66.29 65.30 64.94 65.76 66.18 68.05 68.02 67.78 67.52 67.91 68.52 69.61 70.12 70.49 69.91 69.51 68.69 67.71 66.54 65.55 64.05 65.28 65.95 65.87 67.49 68.96 69.51 69.44 69.12 67.46 66.54 66.75 66.17
50.14 45.42 43.90 48.96 50.25 48.82 51.87 52.00 52.12 48.10 47.50 47.54 55.08 62.83 65.17 65.40 64.18 62.51 62.56 63.35 62.72 64.47 66.30 67.29 67.12 67.85 68.11 69.76 68.26 68.44 69.16 67.67 65.62 65.16 63.97 62.55 62.31 63.00 64.61 64.20 66.47 68.54 69.13 69.41 68.73 67.18 66.83 64.90 60.82
47.83 44.79 48.72 49.46 51.04 51.55 50.48 52.38 52.67 46.62 45.02 47.14 50.84 57.29 61.96 63.11 62.94 62.85 61.81 62.78 63.19 63.25 66.05 66.03 67.02 67.59 67.41 68.32 67.45 66.74 66.93 67.20 65.39 63.90 63.35 62.16 62.31 61.55 62.53 63.31 64.58 64.27 64.95 66.37 65.86 64.15 61.61 59.96 58.50
44.13 48.56 49.78 51.02 52.01 50.84 48.62 50.52 50.49 47.00 47.26 51.45 50.33 58.53 59.47 60.25 60.79 62.36 62.70 63.28 63.64 64.35 64.68 66.62 66.86 65.25 65.09 67.26 65.72 64.82 65.24 66.58 66.44 64.94 63.68 61.88 60.10 60.36 62.52 62.45 62.21 62.39 63.07 63.34 62.34 60.60 58.70 56.07 55.85
45.76 47.12 49.44 50.16 49.29 48.74 49.53 47.79 46.99 45.77 49.25 52.37 52.83 52.56 53.56 57.13 59.81 61.18 63.29 63.89 64.47 64.46 65.49 66.21 66.64 66.57 64.18 64.07 64.18 62.37 64.49 66.15 67.24 66.55 64.90 63.02 60.87 60.65 61.72 61.41 61.08 61.60 61.85 62.79 62.58 61.63 59.85 56.89 55.19
47.70 48.21 48.03 48.45 48.04 47.88 46.17 45.52 47.45 46.63 49.77 49.78 51.01 49.90 48.86 49.60 50.85 57.13 61.34 62.80 63.41 64.70 65.31 66.17 66.62 66.64 66.52 63.44 62.64 62.40 62.78 65.78 66.42 65.58 64.81 63.73 61.92 62.58 61.37 60.73 60.49 60.74 61.37 62.27 62.89 62.79 61.44 58.11 55.15
46.96 44.17 45.78 46.40 46.32 45.94 47.59 44.33 43.83 47.74 48.41 47.36 46.38 47.24 50.15 49.85 49.68 48.65 54.09 61.19 62.94 64.65 66.02 66.10 66.54 66.94 66.16 66.15 64.41 63.66 63.37 64.81 64.74 64.35 64.21 63.21 62.25 62.34 62.79 61.72 60.33 60.56 60.68 61.85 60.96 62.15 60.26 56.41 55.25
43.32 43.18 38.29 44.46 46.05 46.62 46.00 38.99 45.05 48.08 46.07 47.41 46.31 45.04 46.38 49.39 50.65 50.25 50.82 50.89 55.03 58.73 64.51 66.48 68.15 67.01 66.08 65.95 66.46 65.05 65.91 66.17 64.99 65.05 64.52 64.12 63.63 62.36 61.80 61.68 61.42 61.91 60.98 60.58 59.31 59.10 58.25 55.49 53.31
41.12 34.83 37.26 40.57 45.59 45.76 43.76 39.13 45.72 47.30 45.79 46.16 45.85 46.45 46.77 46.76 47.63 48.88 50.00 49.09 49.90 52.16 54.32 62.08 66.55 66.12 65.64 65.87 66.36 65.90 65.90 65.90 66.67 67.30 66.69 65.55 64.74 63.46 62.04 61.38 61.47 61.74 61.36 60.48 60.17 58.78 57.95 54.88 52.36
34.65 34.54 38.15 37.56 42.34 43.95 41.70 40.60 44.73 44.93 44.70 45.08 44.81 44.61 44.62 46.40 47.99 48.96 49.25 48.68 49.63 49.48 50.20 51.14 54.39 58.99 65.73 67.04 65.87 65.69 65.37 65.55 65.88 66.28 66.60 65.91 64.85 64.14 62.63 62.16 61.51 61.42 60.52 60.36 59.91 58.63 57.33 55.21 53.26
39.74 37.41 36.92 40.45 43.75 42.39 41.00 41.05 43.88 45.13 43.07 42.86 43.41 44.31 44.75 45.86 47.40 47.29 47.55 47.88 48.65 47.70 47.92 48.03 49.60 50.60 52.73 53.66 58.50 63.53 64.57 64.32 63.86 65.61 66.79 66.51 65.83 64.40 63.13 62.94 61.99 61.10 61.08 61.38 60.43 59.08 57.54 54.77 52.87
38.52 36.09 35.07 39.15 43.06 41.67 41.01 39.28 42.91 43.22 43.05 44.24 44.33 43.28 43.25 43.88 45.10 47.84 48.96 49.19 49.33 49.55 50.13 50.16 50.09 49.95 50.10 51.84 52.24 56.84 63.63 64.51 65.66 65.42 64.73 65.37 65.04 64.82 64.23 62.85 61.84 61.12 60.57 59.48 59.88 59.78 57.09 56.94 53.77
36.14 34.24 34.21 35.72 38.75 39.05 37.60 35.41 38.29 41.58 42.95 43.87 43.35 42.57 42.66 42.91 44.31 46.16 47.71 49.01 50.18 50.38 50.49 51.64 51.15 50.93 50.41 49.94 50.44 50.92 51.72 57.55 62.18 62.08 62.63 63.95 64.38 64.66 65.03 64.18 63.25 62.72 60.49 60.52 59.42 60.11 58.92 57.48 54.47
33.07 39.04 38.90 38.16 34.75 29.55 38.41 25.10 33.27 38.41 38.87 40.47 40.15 40.26 39.97 43.98 46.02 47.75 48.61 48.98 49.95 50.25 50.97 51.50 51.77 51.77 51.77 50.67 49.08 47.74 48.30 48.06 52.62 57.49 62.50 63.03 63.52 63.92 64.07 63.99 63.75 62.18 62.04 61.56 61.06 59.86 59.05 56.32 54.55
37.14 41.37 39.09 37.70 34.11 33.13 32.42 27.24 32.34 36.31 35.17 37.48 39.33 40.42 42.75 43.90 45.52 47.33 48.42 50.10 50.77 50.96 50.62 50.59 51.17 50.94 50.96 50.30 50.62 48.22 47.11 47.59 48.71 49.55 50.31 53.87 61.59 63.51 63.72 63.71 62.32 61.52 61.06 61.53 61.04 61.21 60.36 60.13 59.23
43.10 38.72 37.16 35.78 33.32 25.91 32.71 29.60 29.10 32.36 37.35 36.67 38.65 41.97 44.11 45.18 45.94 47.54 48.89 49.53 49.02 48.94 49.09 49.29 49.58 50.02 50.19 49.46 49.56 49.34 48.45 47.81 47.65 47.61 47.95 49.47 53.01 57.21 60.52 62.18 62.52 61.93 61.29 62.09 62.02 61.72 60.78 60.63 59.96
39.88 34.75 23.70 22.25 20.98 23.04 32.02 29.46 31.67 36.92 37.94 39.48 40.02 41.46 43.15 44.87 45.44 46.69 47.32 47.38 47.42 47.42 47.89 49.60 48.29 48.11 48.77 48.85 49.19 49.33 49.38 49.38 49.12 49.08 48.72 48.99 49.71 52.31 54.18 58.76 60.96 59.64 60.18 60.60 60.96 60.79 61.20 60.11 59.70
37.04 34.11 25.02 18.88 20.06 23.90 30.65 27.62 32.12 37.15 39.84 42.04 43.16 43.12 43.75 44.64 45.50 46.27 46.78 46.72 46.40 46.73 46.78 46.99 46.86 46.64 46.97 46.93 47.27 47.95 48.75 49.58 49.85 49.73 50.24 50.61 50.58 51.38 52.60 53.47 54.33 57.24 58.68 59.16 59.78 60.38 60.53 60.58 59.23
35.95 28.88 34.66 26.48 25.63 20.62 26.32 30.19 34.81 37.75 38.50 40.44 41.58 42.90 42.98 44.18 45.32 46.01 46.37 46.24 45.51 45.72 46.02 45.48 45.23 45.14 45.19 45.03 45.44 46.32 46.80 47.27 47.79 48.31 48.88 49.56 50.00 52.13 51.23 51.72 51.94 52.92 56.45 57.25 57.13 57.24 58.73 58.97 58.90
38.64 40.08 30.10 25.39 18.58 19.43 23.59 25.65 28.56 32.75 35.55 38.99 40.55 41.05 42.31 45.08 45.08 44.97 44.40 45.06 45.44 45.52 45.04 44.52 44.42 43.53 43.54 43.68 43.74 44.65 44.20 44.64 44.36 43.99 43.23 44.38 45.95 48.52 48.92 49.19 49.52 50.72 52.76 53.52 54.76 56.03 56.62 56.22 56.10
35.64 34.95 34.34 32.49 25.86 20.91 19.38 24.08 32.68 35.87 36.56 37.58 40.32 41.84 43.44 44.87 44.44 42.96 42.66 43.57 44.59 44.41 43.60 42.85 42.68 42.58 42.41 42.71 42.58 42.22 42.09 41.93 41.44 41.12 41.19 41.11 41.87 42.86 43.95 46.00 45.63 45.83 45.70 46.11 48.09 49.41 50.30 51.93 49.54
38.26 35.92 35.36 27.73 26.91 23.99 22.34 24.29 36.06 36.20 37.23 39.13 40.02 43.03 44.55 45.54 43.78 42.66 42.28 43.09 42.79 42.18 41.43 41.21 41.65 41.68 41.79 41.94 41.18 40.53 40.39 39.98 39.21 38.90 38.99 39.89 39.37 40.24 40.73 41.06 41.33 41.12 42.16 41.75 42.72 43.07 43.05 43.11 41.95

GFSSGP_sfc_wetblb_060.txt.gz
Wetbulb
65.02 63.26 59.74 53.59 44.30 41.96 38.00 42.26 42.46 44.18 44.69 46.98 48.32 54.76 55.11 53.51 55.06 48.40 64.04 68.68 72.02 73.33 74.66 75.14 76.04 76.17 76.08 75.50 74.99 74.89 74.40 74.17 73.88 72.76 71.73 70.26 69.55 70.31 70.35 71.00 72.17 72.09 70.64 70.20 69.57 69.23 69.20 68.52 68.07
63.26 61.82 55.24 48.14 40.81 36.15 38.34 42.68 44.40 45.79 48.88 49.30 49.41 49.46 55.26 56.64 61.39 63.88 65.45 70.66 72.52 73.70 74.34 74.56 75.93 76.09 75.78 75.31 74.66 74.16 73.02 72.03 71.73 71.33 70.14 69.82 71.31 70.75 70.96 71.27 72.51 71.42 70.20 69.51 68.79 68.56 68.52 67.99 67.54
62.05 59.75 50.64 44.44 40.01 37.37 38.79 43.48 44.99 47.73 47.94 48.67 48.24 53.57 55.77 57.46 62.24 63.74 67.82 70.69 72.46 72.64 73.32 74.20 75.72 75.74 75.49 74.75 74.33 73.31 71.66 70.74 70.25 69.83 69.54 71.52 71.98 71.38 71.09 72.31 72.16 70.21 69.44 68.78 68.23 68.21 68.19 67.67 67.31
57.61 53.29 48.91 42.25 40.23 43.36 42.81 45.36 47.82 47.40 48.18 50.19 51.98 54.83 59.75 62.43 63.48 65.98 69.30 70.89 70.36 69.66 71.73 73.78 75.34 75.50 75.02 74.72 73.99 72.84 71.34 70.34 69.47 69.19 70.58 72.66 72.65 72.06 72.80 72.14 70.88 70.32 69.81 68.48 68.34 68.61 68.48 68.17 67.73
57.00 50.34 42.29 39.18 41.73 44.34 46.79 48.81 47.74 46.47 47.02 47.28 49.61 54.03 57.89 63.54 65.39 68.65 68.96 69.63 69.14 70.51 72.39 73.25 75.13 75.24 74.86 74.59 73.75 72.93 71.42 70.48 69.22 68.91 71.34 72.31 71.69 72.05 71.62 70.64 69.97 69.43 68.95 68.44 68.61 68.83 68.68 68.08 67.41
51.29 50.78 39.85 38.61 42.01 45.97 47.70 49.16 46.60 46.57 46.12 49.21 56.40 56.45 57.08 63.98 63.93 68.24 69.53 69.12 70.71 70.88 72.44 73.46 74.07 74.35 74.41 74.14 73.72 72.97 72.26 70.75 69.50 68.77 70.91 71.35 71.12 70.81 70.56 69.96 69.45 69.14 68.80 68.54 68.70 68.88 68.62 67.86 66.96
49.55 46.56 41.80 40.84 42.96 45.53 48.79 51.02 45.71 46.51 45.51 45.84 56.05 54.62 58.76 61.67 65.42 66.81 69.21 70.02 70.83 71.65 72.17 72.77 73.02 72.94 72.08 72.34 72.44 72.51 72.42 71.31 70.40 69.66 70.73 71.06 70.64 70.35 69.91 69.34 69.18 69.04 68.68 68.43 68.81 68.88 68.45 67.54 66.69
51.74 48.69 42.91 43.00 43.07 44.44 51.57 51.15 50.02 47.69 45.78 48.94 57.26 55.98 57.20 62.04 65.82 66.76 69.03 69.13 69.55 70.39 71.00 69.92 70.59 70.95 69.99 70.44 71.02 71.26 71.51 70.78 70.07 69.34 69.24 68.48 68.71 68.75 69.53 69.03 69.18 69.14 68.87 68.77 68.81 68.76 67.72 66.81 66.28
55.41 45.17 41.00 43.52 44.49 46.64 50.51 48.70 52.65 51.55 47.71 52.40 54.75 57.93 62.40 65.43 65.73 65.42 65.32 65.87 66.92 68.47 68.65 68.58 68.45 68.71 68.74 68.97 69.30 70.13 69.88 69.57 68.81 67.92 66.83 66.22 64.88 65.98 66.30 66.33 67.56 68.86 69.37 69.18 68.94 68.18 66.90 66.94 66.22
50.05 44.60 43.49 48.32 49.23 48.41 50.40 49.48 50.26 48.32 48.03 52.60 59.51 63.34 64.85 64.38 63.59 63.17 63.77 63.74 63.79 65.02 66.19 67.25 67.22 67.39 67.60 69.64 68.22 67.88 67.96 66.68 65.38 64.81 63.86 62.94 62.84 63.40 65.13 64.27 66.49 68.55 69.06 69.17 69.19 67.71 67.11 65.39 60.64
49.69 44.57 48.10 49.47 51.17 51.78 50.41 50.22 52.42 48.50 44.88 50.03 57.87 60.43 62.52 61.96 61.96 62.40 62.64 63.95 63.48 63.85 65.13 66.03 66.12 66.85 67.02 67.19 66.88 66.90 66.88 65.54 64.18 63.52 62.86 61.53 61.87 61.32 62.09 61.88 63.60 64.19 65.24 65.91 66.93 64.66 62.63 59.51 58.02
44.89 49.02 50.45 51.12 51.90 51.28 49.62 51.42 48.92 49.03 47.54 51.25 58.19 62.15 61.13 61.21 61.40 61.41 62.01 62.77 63.43 64.30 64.64 64.98 65.55 65.64 66.10 66.94 66.73 66.44 66.52 65.88 63.87 63.27 62.80 60.83 59.58 59.74 60.58 61.32 62.22 62.30 63.13 63.30 62.97 61.07 59.60 57.23 57.74
45.07 47.70 49.95 51.49 51.67 51.59 51.85 49.15 48.95 49.07 50.58 50.40 55.61 58.16 59.28 60.04 60.99 62.19 62.85 63.20 63.14 63.77 65.07 65.43 65.75 64.45 64.43 65.79 65.61 64.28 65.00 66.08 65.93 64.37 63.51 61.82 60.06 59.28 60.88 61.39 61.43 61.36 61.47 62.48 61.88 60.76 59.88 57.25 54.77
48.19 48.05 48.30 48.67 48.32 50.58 48.76 48.95 49.20 48.99 49.07 47.75 50.48 49.90 50.12 55.49 58.96 59.30 62.08 62.71 63.26 63.97 64.68 65.68 65.99 65.85 63.44 62.97 63.44 63.12 63.21 64.33 65.97 65.83 64.83 63.59 61.36 60.22 60.89 61.14 61.04 60.86 61.40 62.24 62.32 62.08 60.94 59.44 55.84
47.31 44.31 45.58 46.57 46.47 46.61 48.99 45.04 44.80 49.48 48.60 47.30 45.48 46.44 49.28 49.80 49.24 56.92 60.37 61.69 63.21 64.46 64.94 64.81 65.46 66.28 65.64 64.01 62.15 61.26 62.32 63.91 64.81 65.79 65.84 65.01 61.83 61.11 60.81 60.71 60.41 60.49 60.63 61.25 61.33 61.58 61.33 59.82 58.10
42.24 43.43 38.43 44.27 45.85 47.10 45.84 38.02 45.57 48.67 46.85 46.33 44.92 43.51 45.26 48.06 49.21 48.64 50.82 59.20 60.80 63.42 64.53 65.44 67.21 66.19 65.43 65.39 65.65 63.71 62.99 62.87 64.23 64.53 64.43 64.70 64.33 61.73 61.32 61.00 60.40 60.43 59.35 60.35 59.95 60.80 60.23 59.01 56.91
40.30 35.00 37.20 40.63 45.63 45.31 43.50 38.32 44.86 47.22 44.75 45.13 44.65 45.76 46.05 46.14 47.10 48.02 48.68 46.75 49.23 54.61 58.20 64.39 65.73 66.04 65.91 65.41 65.52 65.74 64.52 64.83 65.38 64.39 64.11 63.47 63.35 62.44 62.09 62.04 62.07 61.18 60.33 59.39 59.17 58.43 58.43 57.07 54.33
34.92 35.33 38.22 38.11 42.29 43.69 41.57 38.90 44.19 44.11 42.40 44.25 44.43 45.23 45.27 45.24 46.58 46.63 47.65 47.66 47.83 47.65 48.55 50.79 54.93 59.99 64.89 65.17 64.78 64.82 64.54 64.57 64.95 65.69 65.83 64.86 63.77 63.09 61.68 61.05 60.88 60.98 60.35 59.79 58.53 58.19 57.01 56.25 56.22
39.15 37.21 36.96 39.30 42.95 41.92 40.70 39.56 42.81 43.68 40.56 41.68 42.74 43.96 44.74 45.38 44.62 45.87 45.59 45.52 47.80 48.23 47.71 47.19 48.29 48.63 50.88 55.65 60.58 62.53 62.87 63.88 63.00 64.19 65.88 65.67 65.47 64.28 62.57 61.69 60.84 60.34 59.97 60.57 59.83 58.79 57.35 56.80 53.29
39.12 35.60 35.67 38.83 42.76 41.08 39.74 39.25 41.54 43.12 42.06 42.84 43.46 43.12 43.53 43.26 44.48 46.51 47.80 48.26 49.05 48.63 49.20 49.38 49.16 49.15 48.81 49.75 50.47 54.38 61.60 63.16 63.98 64.04 64.21 64.44 64.39 64.58 64.09 62.27 61.59 60.63 59.85 59.26 58.97 58.50 56.86 56.31 54.02
35.58 35.15 33.94 34.86 38.45 38.86 37.09 34.60 37.27 40.64 40.78 42.80 43.76 43.57 43.52 43.47 44.48 45.55 46.31 48.09 49.14 49.07 49.38 50.49 50.48 50.27 49.61 49.00 49.29 49.81 50.57 54.15 60.96 61.73 62.00 63.27 63.82 63.67 63.40 63.52 62.61 61.35 59.98 59.92 58.56 58.18 57.45 58.33 53.51
32.51 38.31 38.41 36.98 34.80 31.04 36.97 26.39 32.13 37.19 38.72 39.75 39.59 40.17 41.43 42.41 44.29 46.40 47.18 47.76 48.83 48.78 49.47 50.00 50.36 49.93 50.72 49.99 48.70 47.12 47.01 47.22 50.12 53.68 57.39 57.23 61.40 62.37 63.06 62.72 62.45 62.53 61.34 59.98 60.18 59.23 58.56 57.49 57.59
35.82 39.49 37.83 36.85 33.78 31.82 31.84 27.03 29.78 33.17 34.67 37.22 38.13 38.62 40.03 43.03 45.17 46.23 47.33 48.90 49.37 49.26 47.96 47.97 49.24 49.64 49.26 49.07 49.12 48.21 46.94 46.65 47.52 48.05 47.86 48.75 51.60 55.62 60.55 62.12 61.88 60.49 61.45 61.21 60.34 59.29 57.85 58.49 58.72
41.19 37.47 35.72 34.96 32.98 25.81 31.07 28.82 26.78 30.76 34.31 37.26 37.57 39.60 42.18 43.28 44.94 46.39 47.36 48.47 47.44 47.29 47.78 48.02 47.88 47.89 48.51 48.74 48.48 48.19 47.69 47.66 47.32 47.79 48.26 48.54 49.23 52.73 53.43 56.19 59.54 60.59 60.12 59.49 59.59 59.52 58.72 58.98 58.99
39.03 32.97 25.73 25.05 25.25 22.51 31.07 28.61 32.43 34.63 36.99 37.97 38.56 40.73 42.36 43.38 44.58 45.77 45.94 45.89 46.02 46.15 46.90 47.83 46.97 46.62 46.82 46.79 47.01 47.56 48.42 48.65 48.39 48.38 48.82 49.19 49.55 49.84 50.74 52.14 52.84 54.94 57.65 58.95 58.98 58.31 57.47 57.29 57.35
36.72 32.50 23.26 19.39 20.73 23.44 30.05 26.51 32.62 36.30 37.48 39.71 41.59 42.97 42.78 43.03 43.91 45.41 46.03 45.50 45.51 46.00 45.76 45.64 45.46 44.66 44.77 44.88 45.93 46.25 46.71 47.53 47.81 47.86 48.31 48.31 48.83 49.77 50.01 50.54 51.03 52.34 55.01 56.24 56.56 56.74 56.79 57.00 56.49
36.18 33.15 33.39 25.09 23.20 19.53 25.71 30.07 34.58 35.80 35.18 38.10 39.65 41.40 42.01 43.38 44.21 44.65 44.94 44.99 44.67 45.01 44.86 44.36 44.09 43.63 43.37 43.37 44.17 43.64 43.79 43.70 43.30 42.92 43.62 44.87 46.09 48.91 48.39 48.77 49.03 49.80 50.82 53.10 55.98 55.99 56.77 54.93 55.07
38.15 38.09 29.21 24.63 17.30 18.11 22.40 23.66 27.84 31.96 34.67 38.04 39.18 41.01 41.88 44.10 44.34 44.16 44.13 44.35 44.21 44.38 43.26 43.11 43.02 42.43 42.43 42.54 42.70 42.25 41.64 41.67 41.24 41.13 40.34 40.82 41.80 43.28 44.99 45.60 45.59 45.50 45.36 46.37 48.42 48.80 49.07 51.64 51.76
36.52 35.80 32.47 30.96 25.63 20.54 18.84 23.00 31.40 34.59 38.01 38.82 40.73 41.05 41.31 43.77 43.89 42.63 42.37 42.88 43.87 42.99 41.88 41.36 41.54 41.63 41.33 41.45 40.91 40.09 39.88 39.79 39.26 38.77 38.75 39.18 39.61 39.98 40.62 41.24 41.16 41.23 41.16 41.59 42.70 43.34 43.78 44.82 44.83
37.13 35.97 35.81 28.57 22.47 21.29 20.87 23.45 34.54 35.09 38.10 40.53 41.19 42.52 43.43 44.83 43.45 41.97 41.73 42.37 42.36 40.75 40.18 40.30 40.72 40.77 40.76 40.50 39.55 39.04 39.02 38.40 37.88 37.75 37.93 38.59 38.34 38.83 38.92 39.27 39.00 39.15 39.31 39.37 39.26 39.56 40.05 40.42 40.77

GFSSGP_sfc_wetblb_063.txt.gz
Wetbulb
64.18 61.65 58.38 52.53 43.97 41.55 37.63 41.35 41.85 43.47 43.59 46.08 48.08 51.72 50.54 55.44 52.62 47.79 63.22 68.25 71.46 72.89 74.35 74.70 75.79 75.94 75.95 75.50 74.97 74.90 74.60 74.24 73.66 72.59 71.56 70.32 70.44 70.28 70.89 71.97 71.75 70.70 70.23 69.42 69.09 69.21 68.95 68.49 68.59
61.75 60.05 53.99 47.31 39.69 35.67 37.55 41.69 43.17 44.87 46.52 48.00 52.48 51.62 55.89 55.23 60.47 63.34 65.31 70.34 72.50 73.27 74.06 74.21 75.79 75.94 75.46 74.86 74.49 73.88 72.81 72.30 71.98 71.35 69.89 70.10 70.19 70.61 70.64 72.22 71.74 70.52 69.76 68.72 68.39 68.59 68.16 67.89 68.82
61.47 58.09 49.74 43.33 38.90 36.39 37.61 42.78 44.20 46.80 46.82 46.28 48.75 55.44 56.26 57.31 62.87 64.10 66.33 71.54 72.74 72.81 73.75 74.33 75.61 75.60 75.29 74.59 73.69 72.46 71.65 71.13 70.83 70.08 69.93 71.27 70.82 70.96 70.99 72.53 71.09 70.02 68.93 68.09 67.88 67.93 67.57 67.66 68.21
56.98 52.86 47.95 41.65 38.85 42.22 41.58 43.85 46.68 46.51 47.62 48.55 53.41 54.59 59.03 62.29 62.42 65.51 70.30 72.14 71.97 71.27 72.38 74.57 75.14 75.39 74.95 74.28 73.29 71.89 70.88 70.19 69.57 69.35 70.90 72.68 71.26 71.19 72.55 71.98 70.48 70.13 68.92 67.91 67.94 67.92 67.71 67.61 67.90
55.93 49.12 41.52 38.14 40.47 43.73 44.86 47.61 47.43 45.57 46.34 46.75 52.15 54.76 56.28 62.16 65.57 68.60 69.95 70.88 70.05 70.29 71.20 73.81 75.13 75.17 74.71 73.91 73.04 72.19 70.75 69.72 69.22 69.86 71.92 72.74 72.16 72.49 72.34 70.54 69.61 69.14 68.49 68.07 68.42 68.30 68.01 67.67 67.50
50.66 49.62 38.74 37.63 40.35 44.46 46.54 48.31 47.38 44.56 45.83 54.65 55.94 55.76 55.65 62.71 65.50 67.50 69.19 68.91 70.70 70.74 71.68 72.97 73.74 74.27 74.32 73.79 73.05 72.32 70.85 69.71 69.08 70.62 71.60 71.53 71.37 71.74 70.85 69.81 69.27 68.92 68.41 68.23 68.50 68.36 67.78 67.21 66.83
48.65 44.64 40.06 40.07 41.49 43.44 46.56 50.22 45.51 45.08 44.75 47.38 57.60 54.47 56.83 60.26 63.33 67.64 67.58 68.73 69.91 71.18 71.26 71.59 72.28 72.67 72.94 73.05 72.58 72.21 71.58 70.77 69.85 70.75 71.67 71.55 70.76 70.53 70.13 69.44 69.06 68.85 68.39 68.05 68.39 68.31 67.71 67.06 66.45
51.22 46.72 41.95 43.11 42.47 43.42 48.33 49.70 50.79 46.89 45.10 50.85 58.55 55.61 55.75 61.65 65.27 68.05 68.48 68.61 69.28 70.37 71.21 70.41 70.73 71.37 71.00 71.36 71.46 71.16 70.99 70.41 69.71 69.48 70.15 69.54 68.91 69.08 69.49 69.01 69.36 69.20 68.50 68.29 68.34 68.19 67.58 66.82 66.27
55.57 45.05 40.82 42.70 43.97 45.63 49.78 48.23 51.37 52.92 47.04 53.74 56.79 57.93 62.05 64.62 67.18 66.71 66.31 67.17 67.85 69.04 68.84 69.34 69.27 68.75 68.54 68.35 69.34 70.44 70.20 69.45 68.66 67.88 67.24 66.71 65.49 66.21 66.64 66.60 67.60 68.80 69.10 68.62 68.37 68.27 67.29 66.96 65.80
49.94 44.52 43.39 47.53 48.77 47.78 50.16 50.51 50.26 48.63 48.68 53.04 58.15 62.90 64.01 64.44 65.81 65.14 65.40 65.27 64.70 65.59 66.86 67.97 68.03 68.00 67.60 69.23 67.57 67.36 67.96 66.72 65.41 64.85 64.06 63.37 63.13 63.62 65.18 64.33 66.28 68.42 68.93 68.94 68.96 68.56 67.43 65.44 60.08
49.81 44.52 47.37 48.73 50.55 51.93 50.42 50.82 50.87 47.46 45.73 47.28 54.99 60.91 61.73 62.25 63.10 64.26 64.13 65.18 65.12 65.53 65.76 66.72 66.26 66.74 66.95 67.29 66.61 66.14 65.73 64.68 63.89 63.23 62.65 61.72 62.25 61.56 62.41 61.62 63.04 63.77 65.09 65.24 66.72 64.92 62.69 59.91 57.75
46.50 49.20 49.40 50.64 51.98 50.87 49.29 51.91 49.04 47.91 47.78 51.15 50.22 61.32 60.67 60.93 61.66 62.64 62.55 63.24 63.31 63.50 64.40 65.16 65.40 65.58 65.73 66.09 66.34 65.93 65.67 64.33 62.99 62.76 62.27 60.59 59.38 59.26 59.82 60.01 61.00 61.58 62.74 62.75 63.16 61.64 60.73 59.08 57.86
44.49 48.07 50.36 51.88 51.51 51.27 51.74 49.53 48.61 48.09 51.15 52.65 51.54 60.39 58.97 59.19 60.05 61.14 62.92 63.27 63.26 63.41 64.21 64.29 64.71 64.92 65.43 65.30 65.27 65.16 65.34 65.39 64.10 62.90 62.46 61.11 59.21 58.63 59.71 59.95 60.50 60.89 61.10 61.59 61.74 60.98 59.96 58.37 56.00
47.18 47.75 49.28 50.23 50.19 51.39 48.64 48.31 48.93 48.70 50.60 48.80 56.10 57.56 58.30 58.62 59.50 59.31 61.37 62.20 62.22 63.54 64.46 64.97 64.97 64.64 64.54 65.08 64.47 64.54 64.45 65.33 65.11 64.07 63.29 62.17 60.60 59.19 59.59 60.29 60.61 60.40 60.56 61.06 61.56 61.40 60.16 59.26 57.75
46.60 43.88 46.07 47.19 48.12 48.03 50.35 45.07 45.17 49.60 50.47 47.39 47.03 47.48 49.89 54.45 57.63 59.34 61.43 61.93 62.73 63.07 64.58 65.03 65.45 65.45 63.78 64.75 64.46 63.37 63.47 63.97 64.94 65.31 64.60 63.51 61.91 60.07 59.79 60.09 60.09 60.75 60.31 60.48 60.70 60.61 60.46 59.73 59.11
41.80 43.44 38.73 44.45 46.39 47.21 48.03 40.89 47.26 50.55 49.72 46.73 45.49 45.77 45.63 47.10 48.03 51.10 59.32 61.54 62.04 63.10 64.11 64.34 66.45 65.72 64.35 63.39 63.11 62.60 62.04 61.91 63.31 64.76 64.94 64.86 63.59 61.45 59.91 59.69 59.88 60.48 59.28 59.69 59.56 59.97 59.43 59.73 58.90
37.64 33.85 36.54 40.10 46.39 45.93 44.87 39.67 46.53 50.75 49.33 47.72 45.77 44.86 46.01 45.69 46.02 45.81 47.26 50.30 53.78 60.81 62.75 63.95 64.81 64.99 65.28 64.81 64.67 63.52 62.08 61.38 62.05 62.82 63.78 64.29 64.62 62.86 61.63 60.52 60.34 59.70 59.31 58.88 59.29 58.49 59.07 57.89 58.30
33.40 33.90 37.20 37.51 42.64 43.75 41.93 40.24 44.78 46.75 46.04 47.20 48.60 44.33 44.49 45.67 45.93 46.24 46.85 45.58 46.74 47.39 49.61 55.37 60.17 61.35 64.54 64.76 64.39 64.10 64.05 63.52 63.99 64.17 63.34 63.26 63.33 62.79 61.30 61.30 60.86 60.43 59.74 58.53 57.34 58.23 56.93 58.16 58.22
37.05 36.07 36.76 38.45 43.26 42.23 41.04 40.51 43.05 44.17 42.37 41.62 41.80 42.11 43.55 44.50 42.78 44.66 44.84 45.39 47.11 46.86 46.66 46.61 48.23 48.18 52.24 60.34 61.79 61.92 62.20 63.03 62.85 63.64 64.98 65.04 64.43 63.09 61.68 61.29 60.70 60.38 59.74 60.10 59.20 57.79 56.53 55.84 53.50
37.14 35.51 35.52 38.86 42.13 42.18 40.08 39.89 43.33 44.88 42.39 42.10 42.14 41.43 42.40 42.50 43.27 45.10 47.24 47.00 47.94 47.87 48.13 48.41 48.64 48.59 47.93 49.16 50.36 56.10 60.53 62.00 62.60 62.88 63.06 64.11 64.28 64.48 63.83 62.24 61.67 60.73 59.46 58.95 59.01 57.95 56.43 55.81 53.74
33.91 33.97 34.11 35.59 38.30 38.44 37.61 35.73 39.11 42.87 41.36 41.95 42.59 42.29 41.97 42.65 43.94 44.81 46.02 47.32 48.39 48.50 48.54 49.18 49.01 48.95 48.31 47.93 47.79 48.22 48.86 51.58 57.12 59.36 60.84 62.01 62.78 63.36 63.08 63.36 62.53 61.57 59.74 59.35 58.73 57.61 57.05 57.97 53.59
31.40 37.22 37.67 36.91 35.09 29.68 37.86 28.26 33.66 37.49 39.08 40.38 41.12 39.93 41.17 41.33 43.21 45.28 46.64 46.98 47.46 48.10 48.72 49.00 49.00 48.94 49.13 49.06 47.90 46.08 45.76 46.04 47.72 50.05 51.78 50.67 51.86 55.90 59.58 61.16 61.40 61.39 60.53 59.09 58.95 58.41 57.84 56.40 56.44
35.20 37.67 37.00 36.03 33.61 30.94 31.05 28.60 32.76 32.71 33.58 39.01 41.17 38.22 39.59 40.37 43.10 45.07 46.39 48.08 48.43 47.81 47.07 47.46 48.04 48.15 48.29 48.05 48.18 47.37 46.61 46.38 47.07 47.55 48.16 48.77 49.56 53.19 53.85 55.47 58.72 59.44 59.91 59.86 59.41 58.16 56.76 57.03 56.80
40.06 36.10 35.03 34.19 32.17 24.75 30.44 29.12 28.56 30.78 33.79 35.24 39.76 37.76 38.96 41.51 43.59 45.10 46.47 47.69 46.67 46.43 46.62 46.43 47.04 46.65 47.09 47.39 47.46 47.56 47.05 47.12 47.59 47.91 48.40 49.02 49.61 51.03 51.27 52.56 52.70 55.14 59.30 59.29 58.28 58.35 57.51 56.85 56.51
36.94 31.07 24.53 25.08 24.90 23.17 30.31 28.54 33.44 35.97 35.60 36.50 37.55 37.46 39.08 41.68 43.29 44.44 45.29 45.24 45.36 45.71 45.96 46.23 45.91 44.72 45.03 46.13 46.63 46.97 47.00 46.86 46.58 47.15 47.56 47.72 48.39 48.82 48.82 49.73 50.17 51.31 53.49 55.79 56.92 56.84 56.25 55.77 56.96
36.10 30.73 23.72 19.49 21.23 23.34 29.23 26.16 31.83 37.96 37.53 38.70 39.42 39.46 41.01 41.89 42.96 44.31 44.68 44.56 44.83 45.23 44.71 44.88 44.28 43.32 43.60 44.83 44.30 44.28 45.15 45.68 44.99 44.88 45.66 45.47 46.35 47.42 47.65 48.04 48.87 49.86 50.92 55.55 56.64 55.34 55.15 55.07 54.65
35.90 29.25 31.58 23.88 21.77 19.70 25.48 28.96 34.11 36.09 36.65 35.59 38.01 40.36 40.34 41.95 42.93 44.05 44.26 44.00 44.15 44.01 43.54 43.41 42.75 42.06 42.40 43.05 42.48 41.68 41.70 41.66 41.24 41.00 41.14 41.68 42.10 45.30 45.54 45.90 45.82 45.88 46.18 48.03 51.54 52.56 51.95 53.76 53.63
37.38 37.58 29.51 23.27 15.54 17.06 21.81 23.72 28.12 31.34 34.04 36.04 37.38 38.74 40.47 42.44 43.19 43.41 43.53 43.39 43.66 43.63 42.37 42.02 41.86 41.37 41.32 41.39 41.10 40.32 39.64 39.54 39.24 39.12 38.84 39.28 39.80 40.66 41.29 41.73 41.80 41.93 42.24 43.31 44.69 44.55 45.33 47.90 46.66
36.78 35.03 33.20 30.24 24.34 19.75 18.97 23.50 30.81 32.34 34.77 35.83 38.36 40.16 41.04 42.44 43.09 42.75 42.97 43.12 43.24 42.10 41.22 40.62 40.73 40.71 40.32 40.12 39.27 38.62 38.40 38.41 38.15 37.87 37.93 38.17 38.62 38.83 39.32 39.50 39.41 39.55 39.46 39.90 40.56 40.83 40.84 41.83 42.81
40.03 36.94 32.75 24.37 21.48 20.28 19.61 23.31 32.99 32.26 34.93 38.60 39.60 41.62 41.60 43.79 43.32 41.88 41.24 42.08 41.63 40.55 39.90 39.86 40.09 40.05 39.80 39.39 38.69 38.16 38.01 37.64 37.25 37.39 37.79 38.14 37.77 38.35 38.20 38.44 38.22 38.03 38.08 38.12 37.83 38.00 38.22 38.10 38.01

GFSSGP_sfc_wetblb_066.txt.gz
Wetbulb
64.79 60.99 56.73 52.11 43.47 40.48 35.57 40.05 41.81 44.48 45.57 46.15 46.94 49.17 48.87 54.17 52.34 47.77 62.17 67.23 70.88 72.29 74.00 74.39 75.65 75.82 75.93 75.54 74.75 74.60 74.22 74.22 73.14 72.27 71.54 70.97 70.52 71.07 71.97 71.64 70.95 70.51 69.60 69.15 69.55 69.45 69.02 69.16 69.00
62.97 59.86 53.11 47.20 38.94 33.83 36.35 41.36 42.18 44.18 47.85 52.00 51.09 53.00 54.77 54.23 60.25 62.63 65.23 69.20 71.83 73.05 73.57 73.59 75.53 75.89 75.52 74.95 74.42 74.25 73.43 72.67 72.05 71.13 69.92 69.72 70.43 70.59 72.10 72.04 70.90 70.29 68.88 68.40 68.88 68.60 68.44 69.24 69.19
62.11 57.15 49.46 43.20 37.15 35.20 36.37 41.60 43.61 46.17 46.68 46.14 51.78 56.39 55.34 55.70 62.24 64.05 65.22 71.28 72.34 72.53 73.30 74.07 75.54 75.55 75.11 74.49 73.83 72.77 72.30 71.82 71.04 69.99 70.59 70.59 70.58 70.59 72.51 71.95 70.66 69.48 68.23 67.97 68.12 67.96 67.95 68.66 68.37
57.46 53.21 48.63 40.65 37.31 41.26 40.44 42.60 45.53 46.70 46.24 46.62 52.14 54.42 58.24 61.56 63.26 64.66 70.56 71.89 71.47 72.18 72.22 74.46 75.03 75.36 74.79 73.88 73.21 71.93 71.22 70.60 69.96 69.57 71.28 70.96 71.03 70.86 72.42 71.34 70.08 69.04 67.97 67.76 67.85 67.70 67.69 67.97 68.18
55.65 49.96 42.19 38.66 39.96 42.55 43.45 46.61 46.99 45.60 45.04 45.19 51.86 53.05 55.02 61.92 65.44 69.48 71.20 71.65 70.37 71.36 72.55 73.82 75.12 74.98 74.35 73.48 72.84 71.76 70.45 69.99 69.66 70.79 72.37 71.63 71.24 71.92 72.15 70.39 69.46 68.70 67.85 68.03 68.07 67.93 67.88 67.79 67.79
50.90 48.06 39.05 36.64 39.73 43.47 45.42 47.21 46.75 44.66 44.15 52.20 54.78 53.84 54.31 61.09 65.18 69.28 70.55 70.25 71.06 70.47 71.54 73.22 73.85 74.20 73.68 72.99 72.51 71.80 70.29 69.43 69.88 71.45 72.31 72.66 72.70 72.57 71.21 69.58 69.08 68.58 68.05 67.95 68.19 68.17 67.76 67.44 67.35
50.10 44.31 39.69 39.30 40.98 43.59 46.04 49.18 45.58 45.54 42.72 43.73 56.48 52.39 55.04 58.60 64.60 67.12 67.53 68.90 69.93 70.49 70.45 71.43 72.79 72.79 72.69 72.42 72.19 71.81 71.01 70.19 70.33 71.41 72.05 71.48 71.36 71.13 70.38 69.33 69.01 68.55 67.94 67.66 67.90 67.94 67.80 67.40 67.01
51.62 46.83 40.96 41.60 42.17 43.09 48.30 49.13 49.39 48.04 45.28 49.43 55.15 53.04 54.91 60.93 65.86 67.26 67.64 67.83 68.68 69.56 69.94 69.24 70.36 71.30 71.47 70.98 71.18 70.89 70.57 69.84 69.59 70.51 70.37 69.36 68.81 69.40 70.05 69.21 69.40 69.20 68.43 67.92 67.97 67.91 67.53 66.94 66.57
54.86 44.92 40.26 41.53 43.76 45.32 49.75 47.91 51.12 51.88 47.75 50.12 59.48 57.63 60.97 64.36 66.97 66.65 67.18 67.93 68.86 69.82 70.09 68.79 68.97 68.81 69.02 69.58 69.74 70.17 69.79 68.91 68.26 68.09 67.81 67.05 65.56 65.99 66.13 66.56 67.63 69.11 69.10 68.19 68.06 68.02 67.34 66.67 64.93
49.76 44.40 42.32 46.37 48.17 47.28 50.28 49.37 48.67 48.14 47.15 49.74 50.30 61.17 63.33 65.95 65.72 64.79 64.66 64.42 65.74 67.12 67.86 68.26 67.91 67.63 67.00 68.63 67.80 67.63 67.73 66.36 65.01 64.58 64.32 64.01 63.66 63.57 65.25 64.46 66.15 68.12 68.68 68.68 68.37 68.65 67.83 64.73 59.35
48.77 44.52 46.47 48.05 50.97 51.84 50.30 49.86 49.66 46.60 44.76 46.21 47.23 50.44 61.12 63.88 64.89 64.67 64.83 65.10 65.63 65.48 66.30 67.32 67.16 67.14 66.82 66.89 66.20 65.85 65.75 64.76 63.80 63.07 62.63 62.17 62.32 61.66 62.10 61.28 62.03 63.01 64.39 64.47 65.71 64.61 62.33 59.73 57.90
44.40 48.31 49.37 51.02 51.90 50.53 48.88 51.13 48.23 47.48 47.05 50.49 50.06 51.36 59.73 61.31 63.19 63.57 64.14 64.59 63.81 64.12 65.07 65.84 66.15 66.01 65.82 66.07 65.67 65.21 64.70 63.73 62.76 62.52 62.01 60.50 59.78 59.59 59.66 59.77 60.00 60.91 61.88 62.21 62.21 62.02 60.90 59.35 58.04
42.80 46.89 49.95 51.59 51.07 50.76 51.53 48.87 48.69 48.27 50.03 50.49 51.35 54.07 59.05 59.70 60.46 60.47 62.33 63.74 63.27 63.28 64.09 64.45 64.81 64.93 65.36 64.91 65.02 64.86 64.57 64.17 63.21 62.42 61.97 60.78 59.22 58.22 58.31 58.74 59.05 59.88 60.41 60.92 60.89 61.08 60.43 59.10 57.86
46.52 47.63 49.17 50.79 50.43 50.88 48.55 47.44 48.53 49.41 49.88 49.28 49.92 51.36 57.63 58.51 59.58 59.71 61.97 62.70 62.54 63.29 63.91 64.44 64.41 64.55 64.81 64.51 64.38 64.59 64.56 64.75 63.96 62.84 62.45 61.58 60.13 58.69 58.39 58.86 59.31 59.47 60.18 60.32 60.64 60.54 60.33 59.52 58.34
46.58 45.45 47.93 48.74 49.50 49.14 49.44 45.55 44.08 49.84 49.81 47.76 47.78 46.52 50.10 55.28 58.68 59.78 60.89 61.79 62.35 62.81 64.34 64.39 64.44 64.66 63.83 64.21 64.39 64.00 64.41 64.86 64.49 64.40 63.33 62.52 61.44 60.02 59.05 59.11 59.35 59.89 60.00 59.88 59.64 59.83 59.83 59.25 59.20
42.55 43.89 40.19 45.47 48.08 48.29 46.67 40.12 46.33 50.64 48.20 47.40 47.94 45.84 45.92 47.47 48.81 56.26 60.17 61.34 61.95 62.39 63.27 64.34 66.16 65.11 63.84 63.49 64.14 64.01 63.39 63.24 63.93 64.11 63.88 63.60 62.84 61.35 59.55 58.79 59.04 59.88 59.42 59.32 58.80 58.80 58.47 58.79 58.68
41.11 33.53 34.91 40.56 47.43 46.75 44.28 39.71 46.44 50.38 48.20 47.14 48.51 46.63 45.57 45.93 47.31 47.19 47.97 55.05 60.61 61.13 62.36 63.13 64.14 64.69 64.63 63.18 62.81 62.61 62.64 61.53 62.12 62.71 63.42 63.84 64.06 62.71 61.23 60.02 59.76 59.13 58.75 58.31 58.47 58.03 58.27 57.27 57.44
32.76 32.01 33.09 35.79 42.58 45.18 42.06 40.01 45.84 48.28 48.27 46.47 48.57 48.85 45.55 45.62 46.31 46.50 46.86 45.71 46.50 47.85 53.27 58.48 62.98 63.63 63.91 64.07 63.58 63.12 62.61 61.56 61.48 61.42 61.93 62.71 63.06 63.31 61.24 60.91 59.85 59.14 58.42 57.73 57.20 57.86 57.29 57.87 57.73
36.12 34.81 34.30 36.34 43.09 42.40 41.86 41.00 42.75 46.00 46.67 46.50 46.91 48.43 46.12 45.10 44.18 43.67 43.79 43.71 45.56 46.34 46.71 47.19 50.46 48.66 56.51 61.73 61.55 61.39 61.49 62.13 62.58 62.97 63.91 63.71 62.68 61.83 60.88 61.09 61.37 60.94 59.45 59.78 58.75 57.39 56.28 55.48 54.56
36.92 33.77 32.81 36.55 41.04 41.83 39.63 39.62 42.86 42.97 44.76 46.78 47.01 48.35 47.60 42.74 42.66 43.52 43.92 44.84 47.04 46.99 47.28 47.91 48.36 47.90 47.57 50.16 52.01 58.05 59.93 60.96 61.78 62.19 62.45 62.68 63.42 63.72 63.09 61.37 60.38 59.79 59.39 58.94 58.38 57.53 55.85 55.65 53.64
33.58 33.24 33.08 34.02 37.26 37.46 38.34 36.58 38.51 42.31 45.11 44.59 45.37 44.66 41.82 42.19 42.46 43.41 44.16 45.44 46.94 47.53 48.14 48.71 48.24 48.47 48.42 47.64 47.41 47.61 48.07 50.08 54.10 57.20 58.96 58.40 58.33 61.05 62.04 62.44 62.47 61.63 60.02 59.53 58.33 57.43 56.55 56.73 53.61
31.56 36.86 36.66 35.84 33.53 29.60 36.83 28.06 34.20 40.10 42.04 42.05 44.38 45.68 42.41 41.25 41.68 43.91 44.90 45.63 46.14 47.07 48.15 48.55 48.76 48.62 48.79 48.60 47.52 45.87 45.18 45.33 46.41 47.81 48.91 48.81 49.95 52.25 54.90 56.32 58.68 60.02 60.06 59.29 59.05 58.19 57.03 55.82 56.94
34.69 37.56 35.94 34.65 31.45 29.76 30.04 28.98 31.86 34.29 38.66 42.23 44.37 44.49 42.19 41.30 41.55 43.78 45.03 46.60 46.75 46.57 46.23 46.81 47.36 47.69 47.88 48.12 48.17 47.27 46.53 45.96 46.30 47.17 48.52 49.12 50.09 51.59 51.93 52.58 53.09 57.07 58.97 59.93 59.70 58.10 56.81 55.73 56.02
38.91 35.36 34.07 32.43 30.31 21.29 29.97 29.27 29.03 30.54 35.54 36.60 39.57 42.97 43.31 41.46 40.71 43.59 45.25 46.64 45.42 45.65 45.64 45.76 45.89 45.55 46.52 47.30 47.77 47.56 46.91 46.84 47.45 47.62 48.31 48.80 49.39 49.81 49.39 50.22 50.36 51.37 53.13 56.92 59.30 59.86 58.31 56.36 56.34
35.90 31.15 22.33 21.77 21.02 20.50 28.53 27.72 33.16 36.20 35.33 37.34 38.89 39.13 38.98 39.18 40.56 43.38 44.86 44.37 44.49 44.88 44.80 45.48 44.80 43.80 45.47 45.83 45.87 46.49 46.36 46.29 46.13 46.43 46.41 46.38 47.31 47.47 47.22 47.97 48.41 49.28 51.12 55.61 55.91 56.74 57.48 57.62 57.40
33.12 30.48 23.05 18.69 20.61 21.73 27.56 25.42 31.42 37.22 38.86 38.02 39.24 39.22 38.67 39.81 41.50 43.41 44.35 43.85 44.23 44.55 44.06 43.79 43.05 42.45 44.05 43.66 43.16 43.08 43.89 43.69 42.97 42.55 43.22 43.03 43.91 45.51 45.72 46.00 46.29 46.20 47.13 49.81 54.95 57.07 56.88 57.01 56.28
34.46 30.95 29.97 22.78 19.51 17.90 24.41 28.16 33.46 35.84 36.48 36.52 36.22 37.89 38.38 40.39 41.92 43.09 43.51 43.43 43.71 43.44 43.30 42.86 41.83 41.52 42.54 42.08 41.34 40.48 40.48 40.53 40.22 39.99 40.33 40.51 40.35 43.16 42.27 42.73 42.84 42.87 43.68 45.50 48.50 49.45 50.73 51.39 50.48
36.18 35.91 28.80 23.03 15.90 16.62 20.31 22.39 27.04 31.54 33.74 35.66 35.86 37.29 39.09 41.52 42.32 43.02 43.08 43.02 43.23 43.15 42.10 41.63 41.44 40.98 41.00 40.64 40.06 39.28 38.58 38.64 38.50 38.60 38.28 38.60 38.75 39.58 39.74 39.81 40.05 40.28 40.72 42.11 43.11 43.01 43.85 45.94 46.18
36.21 31.91 30.99 29.16 24.00 19.26 17.70 23.34 30.51 32.10 33.23 33.26 35.77 37.95 39.69 41.02 42.12 42.61 42.57 42.65 42.90 41.50 40.58 40.01 40.12 40.09 39.62 39.33 38.65 38.02 37.78 37.96 37.77 37.49 37.46 37.66 37.84 38.03 38.29 38.42 38.32 38.21 38.40 38.70 39.38 39.62 40.34 43.39 42.74
36.49 34.50 31.59 24.68 21.17 20.12 19.03 23.06 33.19 32.49 33.38 34.08 36.54 39.13 40.58 42.31 42.67 42.27 42.21 41.70 41.22 40.11 39.30 39.25 39.35 39.34 38.88 38.41 37.75 37.23 37.12 36.99 36.57 36.55 37.04 37.44 37.07 37.87 37.83 37.73 37.20 37.26 37.24 37.13 36.98 36.82 37.10 36.93 36.72

GFSSGP_sfc_wetblb_069.txt.gz
Wetbulb
66.33 62.42 59.03 55.53 47.80 45.59 40.34 43.13 47.39 47.23 47.50 50.96 51.98 52.33 55.11 57.92 55.39 51.62 66.01 69.72 70.70 72.81 74.54 74.91 75.80 75.94 75.85 75.60 74.73 74.52 74.58 74.01 72.89 72.23 71.53 71.08 71.44 72.33 71.79 71.41 71.01 69.81 69.66 70.14 70.30 70.02 70.10 69.98 69.69
64.96 60.64 56.66 51.08 43.74 39.27 40.49 45.38 45.43 48.10 50.20 54.79 54.09 58.18 58.30 57.82 63.18 63.63 66.85 70.34 71.99 73.46 74.04 74.35 75.56 75.95 75.88 75.25 74.49 74.26 74.35 72.72 71.96 71.10 70.47 70.63 70.92 71.98 72.15 71.43 70.77 69.21 69.05 69.39 69.34 69.37 69.85 69.78 69.47
62.96 57.83 52.68 47.39 41.92 39.66 40.11 45.74 47.71 50.13 50.99 50.35 56.18 59.95 59.88 59.57 64.14 65.64 68.57 71.63 72.79 73.35 73.88 74.18 75.49 75.75 75.51 75.01 74.47 73.45 72.64 71.94 70.96 70.14 70.45 70.61 70.58 72.11 72.62 71.33 70.04 68.63 68.51 68.80 68.62 68.70 69.37 69.00 69.04
58.85 55.32 51.52 44.29 40.69 44.10 44.74 47.28 49.02 50.35 50.28 50.41 56.80 57.96 61.91 63.97 65.57 67.52 71.20 72.48 72.48 72.97 73.87 74.43 75.11 75.34 75.01 74.21 73.65 72.68 72.06 71.39 70.44 71.30 71.18 70.78 70.86 72.17 72.35 70.82 69.46 68.40 68.27 68.29 68.14 68.28 68.57 68.69 68.86
56.85 52.43 44.38 42.51 42.71 45.58 47.25 49.45 49.89 48.69 48.91 50.19 56.35 56.88 59.69 64.42 67.31 70.61 71.41 72.32 71.21 72.31 73.90 74.32 74.92 74.84 74.12 73.60 73.03 72.16 70.84 70.28 70.69 71.56 71.89 71.21 71.03 72.21 71.61 70.19 69.22 68.39 68.51 68.44 68.22 68.29 68.42 68.29 68.55
52.51 50.03 42.31 39.98 42.12 45.89 48.37 50.60 49.86 49.03 48.75 54.25 57.75 58.59 60.12 65.49 67.43 69.30 71.56 71.42 71.14 71.98 73.71 73.89 73.64 74.04 73.54 73.18 72.54 71.76 70.37 70.04 71.50 72.96 72.64 72.08 71.99 72.31 70.86 69.53 69.17 68.71 68.38 68.67 68.53 68.14 68.01 67.84 67.90
51.18 46.86 42.63 41.40 42.75 44.72 47.93 51.62 49.94 49.18 48.15 48.34 59.20 57.32 60.86 64.13 67.50 69.69 69.97 70.51 71.43 73.02 73.13 73.63 73.62 72.80 72.10 72.14 71.89 71.50 70.72 70.49 71.48 71.88 72.41 72.60 72.20 71.48 70.32 69.36 69.16 68.75 68.23 68.58 68.61 68.42 67.95 67.61 67.10
52.57 49.38 43.01 43.18 43.13 44.10 50.03 50.92 51.84 50.64 49.72 53.44 58.38 55.58 58.35 63.76 67.50 68.68 69.61 70.19 71.53 72.18 72.26 72.78 73.15 72.68 71.91 71.35 70.74 70.46 69.98 69.52 70.64 70.75 69.84 68.90 68.81 69.47 70.33 69.22 69.51 68.93 68.16 67.94 68.31 68.33 67.75 67.17 66.57
54.06 45.16 41.67 43.04 44.44 46.32 51.12 49.81 52.10 52.98 51.03 55.86 57.26 60.36 62.80 66.16 67.95 67.84 68.19 69.03 69.65 70.49 71.53 71.79 71.99 72.30 71.85 71.20 70.15 69.84 69.17 68.35 68.55 69.18 67.71 67.85 69.78 69.61 68.91 67.13 67.78 69.03 68.68 67.91 67.98 68.00 67.40 65.83 64.52
50.15 44.75 44.17 47.89 49.11 48.23 50.69 50.40 50.16 50.35 49.02 49.82 51.09 54.12 62.26 65.77 66.04 65.00 65.14 65.20 66.48 67.56 69.14 70.94 71.14 71.05 71.41 70.72 70.73 70.31 69.29 68.27 67.17 68.43 69.70 69.32 68.78 68.87 68.29 66.23 66.32 68.12 68.63 68.53 67.97 68.16 67.39 65.37 64.83
49.81 45.10 47.50 48.76 51.57 52.29 50.71 50.41 50.92 49.33 47.29 49.28 48.72 51.32 55.69 63.93 64.52 64.25 64.83 65.58 65.87 67.38 68.21 70.17 70.61 70.32 70.06 70.11 70.23 69.83 69.33 68.36 67.41 66.72 67.41 67.68 67.47 67.47 67.56 67.30 67.05 67.85 65.78 68.22 68.18 68.46 68.28 65.62 64.58
46.28 49.49 49.57 51.18 52.20 50.91 49.59 51.71 49.47 49.92 50.36 52.25 51.42 53.49 53.39 61.88 63.49 63.52 64.66 65.55 66.08 66.39 68.13 69.78 70.10 69.96 69.47 69.38 69.47 69.42 68.66 68.04 67.12 66.58 65.94 65.89 65.70 65.48 65.73 65.68 65.55 65.60 66.96 67.15 67.31 67.16 67.12 65.86 64.30
46.45 48.64 50.14 51.51 51.29 51.07 51.72 48.93 49.29 49.29 51.90 52.39 52.40 52.42 58.21 60.37 61.97 63.73 65.71 66.02 66.30 66.76 67.88 68.64 69.20 69.39 69.08 68.81 68.77 68.66 68.38 67.85 67.45 66.51 65.85 65.24 64.47 63.98 64.22 64.27 64.26 64.33 65.61 65.99 66.05 65.91 65.81 65.60 64.80
47.73 48.03 49.30 50.97 50.67 51.00 49.06 48.51 49.73 48.54 51.06 51.26 51.67 51.38 51.20 59.02 61.62 62.31 63.65 64.99 65.63 66.86 67.12 67.67 68.02 68.79 68.77 68.53 68.42 68.39 68.36 68.20 67.40 66.76 66.34 65.46 64.88 64.03 62.97 62.37 62.73 63.05 64.44 64.99 64.84 64.64 64.72 64.79 64.74
47.71 44.92 47.14 48.88 49.85 49.07 49.86 46.15 46.32 50.31 50.86 50.10 50.56 51.00 50.43 50.03 57.06 61.46 63.21 64.05 65.29 66.12 67.14 66.82 67.28 67.72 67.67 67.95 68.17 68.14 68.38 67.97 67.97 67.58 66.88 66.20 65.38 64.61 63.96 63.12 62.65 63.59 64.08 63.88 64.18 64.07 64.13 63.97 64.04
43.20 44.40 39.75 47.10 49.03 48.49 48.06 41.25 47.68 51.00 49.90 49.58 50.23 50.73 50.19 50.49 49.87 53.14 61.27 63.62 64.96 65.52 65.92 66.94 67.15 66.96 66.93 67.01 67.48 67.68 67.70 67.92 67.94 68.02 67.97 67.33 66.49 65.54 64.64 63.91 63.54 63.74 63.78 63.80 63.55 63.51 63.18 63.06 63.15
41.79 35.61 38.32 42.17 48.63 47.15 45.54 42.40 47.44 50.79 50.05 49.02 49.88 50.53 50.07 50.06 50.69 50.95 50.85 56.36 63.45 64.67 65.16 65.68 66.88 67.08 67.01 66.79 66.69 66.97 67.10 66.81 67.18 67.14 67.30 67.41 66.90 66.24 65.21 64.68 64.72 64.29 63.63 63.05 62.82 62.66 62.48 62.44 62.69
35.08 34.76 37.41 38.72 45.28 45.81 43.51 42.27 46.64 48.96 49.31 49.56 49.52 49.85 49.93 50.27 51.25 51.01 49.52 50.06 52.04 56.27 61.24 64.80 65.72 66.46 67.02 66.92 66.04 65.75 65.68 65.79 65.99 65.93 66.20 66.42 66.29 66.38 65.90 65.38 64.96 64.45 63.75 63.35 62.58 62.13 62.36 62.03 62.24
37.53 37.04 36.19 39.80 44.66 43.92 42.40 41.64 44.64 47.53 48.05 48.65 50.02 49.23 49.40 50.16 50.92 49.90 49.38 48.68 49.52 49.76 52.52 57.97 62.40 61.39 64.63 65.13 65.04 65.21 65.15 65.63 65.81 65.61 65.45 65.17 65.05 64.95 65.13 65.02 64.83 64.06 62.52 63.80 63.38 62.64 61.25 61.30 61.18
37.79 36.03 35.67 38.86 43.43 42.98 42.18 41.32 43.87 45.97 46.79 48.24 49.64 49.31 49.16 49.84 47.27 48.00 48.46 48.70 49.85 49.95 50.34 51.04 52.80 52.11 55.17 60.53 61.90 64.04 64.49 64.73 65.19 65.46 65.66 65.65 65.80 66.16 65.73 64.51 64.01 63.65 62.89 62.55 62.59 62.01 61.53 60.79 59.90
35.63 34.95 34.81 35.78 39.45 40.62 39.54 38.14 40.80 43.10 45.71 47.43 48.81 49.49 49.08 48.52 46.33 46.83 47.44 48.43 49.88 50.47 50.96 51.18 51.44 51.26 51.55 51.34 51.76 52.10 52.87 54.31 57.24 59.55 61.18 53.93 55.21 58.37 61.98 63.66 64.45 64.49 63.05 62.75 63.30 62.17 60.83 60.50 59.95
33.67 38.14 37.85 36.47 35.70 32.48 39.18 30.26 37.13 41.16 41.50 44.25 46.60 48.26 48.62 47.81 45.13 46.10 47.11 48.07 49.19 50.32 51.06 51.03 51.04 51.16 51.52 51.94 51.34 50.70 50.69 50.61 50.61 51.54 52.08 52.73 54.82 55.36 55.83 56.56 57.89 60.22 61.97 62.46 62.36 61.79 60.66 59.96 59.45
35.72 38.54 37.00 36.41 33.66 33.13 32.99 31.81 34.64 38.74 39.57 42.12 44.62 46.64 47.97 48.93 46.05 46.23 47.44 48.86 49.31 49.64 49.82 49.84 50.30 50.43 50.77 51.29 51.51 51.19 50.27 49.96 50.22 51.48 52.35 52.66 53.58 53.33 53.16 53.83 54.74 55.63 58.07 59.25 59.57 61.00 59.97 59.31 59.78
38.37 36.14 34.82 33.85 33.24 28.79 32.09 32.63 31.82 34.25 38.13 41.16 45.63 46.85 47.53 48.48 47.17 46.19 47.25 48.69 48.32 48.54 48.69 49.06 49.01 48.58 49.94 50.74 50.92 50.78 50.67 50.49 51.11 51.20 51.69 51.76 52.39 52.04 50.94 51.39 52.45 53.79 54.76 56.16 57.49 58.99 60.22 59.69 58.72
37.67 32.14 27.30 27.49 27.00 25.09 30.64 29.41 34.70 39.00 38.94 39.95 41.34 43.79 46.07 46.67 44.54 44.98 46.50 47.25 47.07 47.40 47.76 47.69 47.69 47.38 48.52 48.76 49.06 49.55 49.62 49.88 49.84 49.68 49.29 49.15 49.71 49.71 48.77 49.43 49.84 50.41 51.18 54.13 56.69 58.07 58.80 58.97 58.43
35.51 32.30 25.83 20.08 22.20 24.89 29.89 27.14 33.62 39.48 40.39 40.36 40.42 40.84 41.65 41.43 42.65 44.52 47.12 47.16 47.08 47.15 47.30 46.89 46.07 46.18 46.56 46.48 45.96 46.26 46.70 46.59 45.77 45.40 46.23 45.47 45.80 46.73 46.48 47.02 47.38 47.29 48.29 50.59 53.86 56.02 55.73 56.52 55.95
35.08 29.62 32.12 24.39 23.41 22.80 26.99 30.15 34.75 36.87 38.07 39.21 39.44 39.45 40.48 40.96 42.35 44.75 46.54 46.78 46.75 46.58 46.61 46.29 45.33 45.44 45.44 44.92 44.36 43.58 43.87 43.78 43.34 43.12 43.61 43.78 43.43 44.70 44.13 44.47 44.82 45.01 45.87 47.31 49.16 50.96 52.07 50.97 50.57
36.63 35.98 29.31 26.37 18.61 19.78 23.44 24.90 29.52 33.89 36.19 36.40 36.93 38.56 40.22 41.92 43.47 44.85 45.38 45.65 46.20 46.08 45.56 44.99 44.79 44.72 44.26 43.55 43.04 42.08 41.74 41.74 41.69 41.92 41.55 41.51 41.72 42.12 42.37 42.60 42.66 42.85 43.45 44.65 45.86 46.61 47.40 47.62 47.43
35.97 33.21 31.49 30.53 26.39 22.85 20.73 26.39 32.55 34.58 35.60 34.68 35.50 37.90 40.07 42.02 43.95 44.85 44.82 45.14 45.45 44.61 44.03 43.43 43.38 43.21 42.55 42.05 41.37 40.98 40.68 40.63 40.61 40.45 40.28 40.36 40.70 40.87 40.86 40.89 40.81 40.88 41.16 42.07 43.15 43.36 45.10 44.94 44.45
36.96 33.88 32.51 27.13 23.87 22.03 23.28 26.52 36.05 35.28 35.73 35.38 37.26 39.98 41.19 43.14 44.17 44.56 44.60 44.17 43.63 43.17 42.55 42.61 42.42 42.45 41.93 41.20 40.48 39.85 39.90 39.90 39.75 39.57 39.79 40.24 39.96 40.31 39.90 39.58 39.40 39.40 39.59 40.08 40.59 40.54 40.84 40.93 40.46

GFSSGP_sfc_wetblb_072.txt.gz
Wetbulb
68.47 66.41 65.11 59.73 50.76 50.27 46.45 46.89 51.63 50.07 50.68 55.03 54.94 55.06 59.93 61.24 56.62 55.98 69.70 71.81 72.37 72.82 74.35 75.51 75.72 76.00 75.98 75.42 74.46 74.20 74.19 73.54 72.52 71.99 71.67 71.77 72.70 71.99 71.73 71.08 69.85 69.93 70.68 70.79 70.74 70.80 70.58 70.13 69.77
67.65 63.54 61.46 56.57 47.86 43.82 45.64 49.49 48.99 51.30 53.98 57.27 58.35 59.50 59.54 60.08 65.54 66.44 68.11 71.56 72.65 73.65 74.64 74.98 75.68 75.99 75.70 74.76 74.27 74.12 73.42 72.51 71.90 71.48 70.94 71.36 72.40 72.28 71.84 70.83 69.23 69.49 69.67 69.91 70.19 70.32 70.12 69.86 69.59
65.66 61.82 56.09 50.89 47.35 44.37 45.28 49.37 51.72 53.66 54.70 56.13 58.06 62.73 62.32 62.28 66.42 67.63 71.01 72.05 73.04 73.98 74.35 75.16 75.70 75.81 75.48 74.61 74.45 74.55 72.75 71.80 70.84 70.16 70.61 70.80 72.06 72.79 71.87 70.27 68.87 68.86 69.29 69.02 69.63 69.84 69.43 69.42 69.42
62.76 59.62 57.04 47.63 44.98 48.21 48.20 51.46 52.84 53.43 53.38 55.11 57.90 59.78 64.75 67.32 67.57 69.76 72.25 72.53 72.91 73.60 73.99 74.51 75.22 75.56 75.11 74.71 73.93 72.85 72.30 71.49 70.66 71.28 70.73 70.87 71.90 72.91 71.48 69.68 68.56 68.53 68.59 68.55 68.92 69.05 69.04 69.13 69.89
62.14 57.71 48.76 46.20 46.61 49.00 51.38 52.75 53.55 53.05 52.78 53.45 58.41 59.27 62.14 67.51 69.67 71.55 71.86 72.27 72.42 72.76 74.07 74.60 75.19 75.22 74.44 73.96 73.26 72.28 71.45 70.90 71.54 71.74 71.11 71.25 71.82 72.53 70.87 69.51 68.64 68.67 68.55 68.44 68.61 68.83 68.69 68.80 69.15
55.41 56.32 46.21 43.82 45.88 49.45 51.65 53.56 53.49 53.53 52.56 56.90 58.43 60.67 62.72 68.23 69.04 70.24 72.05 72.29 72.76 72.66 73.21 74.03 73.65 73.92 73.62 73.23 72.52 71.53 70.49 70.67 71.91 72.63 71.76 71.67 72.80 71.76 70.45 69.53 68.91 68.72 68.85 68.63 68.47 68.43 68.20 68.22 68.03
53.55 50.80 46.65 46.73 46.19 46.76 49.65 54.22 52.90 53.24 51.51 55.11 62.12 58.82 63.77 65.55 69.10 70.48 71.41 72.54 72.19 73.33 72.78 73.73 73.82 73.12 72.19 72.08 71.76 71.46 71.05 71.50 71.62 73.23 72.72 72.60 72.12 71.32 70.37 69.41 69.12 68.47 68.66 68.70 68.48 68.15 67.84 67.57 67.19
55.20 52.59 47.68 47.48 45.03 44.97 51.64 52.85 54.18 53.44 52.96 59.06 62.97 58.86 61.14 66.67 68.89 70.07 70.36 70.04 72.16 72.23 72.01 73.61 73.50 73.06 72.38 71.37 70.57 70.18 69.96 70.57 71.23 70.73 70.05 69.39 69.38 69.59 70.34 69.61 69.49 68.75 68.20 68.47 68.41 68.14 67.53 66.94 66.28
56.85 48.68 45.56 47.00 46.40 47.90 52.85 52.05 54.04 55.51 55.73 55.87 57.15 60.44 63.33 66.86 68.48 68.19 68.68 69.53 70.27 71.52 72.11 72.71 72.05 72.62 72.51 71.86 70.37 69.34 68.65 69.07 69.65 69.21 67.73 68.45 70.72 70.47 69.60 67.45 68.26 68.80 67.95 67.92 68.10 68.04 66.93 65.30 65.02
52.08 47.65 47.72 51.81 51.76 49.86 52.73 53.07 52.67 53.25 54.63 53.93 55.63 59.13 61.98 66.92 66.92 66.75 67.63 67.47 68.50 69.66 71.24 72.47 72.31 72.24 72.13 71.41 71.22 71.33 69.50 68.09 68.03 69.49 70.13 70.07 70.28 70.62 70.19 67.60 67.05 67.58 67.77 67.93 67.71 67.98 66.91 65.52 67.10
50.69 45.89 51.33 52.21 52.57 53.74 52.31 52.69 53.61 53.08 51.83 53.37 52.88 55.99 56.84 64.96 65.74 65.40 67.02 66.71 67.80 69.25 69.86 71.90 72.16 72.47 72.08 71.42 71.66 71.50 71.05 70.38 69.80 69.20 69.23 68.51 68.09 68.72 68.74 69.10 68.91 69.40 66.40 69.29 68.26 68.39 67.83 66.73 67.01
47.81 50.66 51.89 52.18 53.63 52.85 51.52 53.57 51.89 53.07 54.11 55.74 55.57 58.14 56.27 62.84 64.26 64.39 65.86 68.13 68.38 67.84 68.40 71.72 72.19 71.99 71.98 71.88 71.60 71.38 70.93 70.65 70.19 69.80 69.27 69.03 68.12 67.36 66.60 66.52 66.92 66.84 67.16 68.05 68.49 67.64 66.88 66.63 66.51
48.41 50.26 52.19 52.95 53.48 53.44 53.12 50.86 51.38 52.19 55.09 56.00 56.29 56.97 60.82 60.62 63.10 64.51 65.77 67.77 69.16 68.90 70.00 71.57 72.02 72.01 71.67 71.77 71.68 71.52 71.06 70.54 70.49 70.15 69.53 69.35 68.46 67.31 67.16 66.05 65.64 65.52 66.20 67.11 67.27 66.79 65.99 65.62 65.57
50.07 50.40 51.36 52.43 52.45 52.80 50.41 50.54 51.02 52.71 54.68 54.79 55.25 55.85 56.53 58.63 63.68 64.24 64.03 65.29 66.48 69.17 70.28 71.34 71.43 71.60 71.83 71.58 71.52 71.34 71.33 70.94 70.70 70.44 70.01 69.20 68.95 68.16 67.13 66.91 64.82 65.12 65.90 67.22 67.33 67.19 66.93 66.73 66.61
50.12 46.86 49.55 50.59 51.99 50.58 52.25 47.46 48.34 54.29 54.18 53.71 54.67 55.51 55.89 55.74 56.38 63.05 65.66 66.58 67.93 69.38 70.45 70.62 70.66 71.08 70.95 71.37 71.65 71.40 71.19 70.74 70.53 70.55 70.42 69.76 69.19 68.77 67.53 67.40 66.90 65.79 67.00 66.55 66.84 66.92 66.95 66.72 66.85
46.11 46.96 41.63 49.19 50.68 50.17 49.97 44.10 50.17 54.21 52.97 52.88 54.46 55.19 55.50 55.40 55.32 55.65 61.24 65.94 68.04 68.96 69.54 69.97 69.57 69.92 70.61 70.95 71.10 70.94 70.87 70.79 70.81 70.94 70.98 70.45 69.88 69.31 68.58 67.75 67.83 68.30 67.40 67.12 66.84 66.72 66.28 66.34 66.42
43.75 38.78 41.14 43.43 50.68 48.88 48.67 45.43 49.74 52.90 52.46 51.67 53.53 54.87 54.91 54.89 55.86 56.41 55.16 58.01 66.40 68.48 68.82 68.24 69.23 69.38 69.67 70.11 70.36 70.52 70.55 70.39 70.74 70.90 70.81 70.75 70.37 69.61 68.74 68.15 68.19 68.61 68.07 67.73 67.29 66.87 66.69 66.19 66.36
37.57 39.62 41.36 41.85 46.90 48.08 46.56 46.09 47.42 50.77 51.73 51.94 53.35 54.62 55.06 54.26 55.47 56.40 56.11 55.21 56.43 65.28 67.70 68.12 68.62 69.11 70.02 70.22 70.02 69.88 69.76 70.13 70.56 70.50 70.41 70.35 70.26 69.63 68.92 68.49 68.37 68.41 67.73 67.50 67.70 66.92 67.41 66.35 65.84
42.35 41.22 39.40 42.93 47.25 45.64 44.70 44.80 46.74 49.48 50.19 50.65 52.51 53.55 54.33 54.55 56.60 55.58 56.09 54.80 54.67 56.63 60.88 65.53 67.39 68.57 69.14 68.99 68.57 68.62 68.32 69.01 69.13 69.42 69.50 69.15 68.96 68.52 68.02 68.03 68.27 68.39 67.42 67.44 67.58 66.83 65.61 65.35 65.84
42.19 40.24 40.34 44.05 47.51 46.53 44.83 44.69 47.22 48.90 49.90 51.20 51.10 53.07 54.12 55.06 55.37 55.48 54.98 54.37 54.35 55.39 56.81 58.79 62.57 66.75 67.13 68.43 68.76 68.92 69.06 69.16 69.41 69.75 69.00 68.78 68.75 68.75 68.51 68.27 68.03 68.11 67.28 67.07 66.74 66.10 64.72 64.71 65.62
40.94 39.89 40.23 40.36 44.94 45.81 44.26 42.05 44.29 48.25 49.57 51.00 52.20 52.89 53.94 55.22 55.11 54.35 54.43 53.62 54.74 55.00 55.74 56.30 57.32 58.11 59.13 61.87 62.40 61.95 62.11 62.20 63.57 65.85 66.59 60.63 59.94 61.17 63.25 64.63 65.31 65.70 65.73 64.50 65.04 64.84 63.33 61.56 63.81
37.23 43.49 42.69 41.72 40.85 35.96 44.16 35.03 41.96 45.30 46.09 48.20 50.30 51.61 52.61 53.92 55.08 54.06 52.30 51.89 53.20 54.89 55.88 55.97 55.88 55.74 55.70 55.89 56.38 57.37 58.99 58.19 57.39 57.45 57.36 57.32 57.80 57.96 58.17 58.64 59.69 61.31 63.12 63.24 63.69 64.43 63.84 62.39 61.19
38.99 43.65 42.47 41.95 39.58 38.37 38.49 35.88 39.99 44.05 43.39 46.28 49.06 50.62 52.15 53.64 54.30 52.35 52.06 51.73 52.80 54.42 55.02 55.18 55.11 55.15 55.54 56.18 56.21 56.35 55.25 55.77 55.76 56.20 55.76 56.59 56.82 56.25 56.15 56.78 57.67 58.47 59.57 60.57 60.71 60.35 60.40 61.66 60.85
42.70 41.47 41.28 40.91 39.30 31.49 37.33 36.40 37.79 40.39 43.11 45.32 48.97 50.58 51.41 52.87 53.42 53.02 53.64 53.06 53.26 54.12 53.99 54.29 54.03 53.73 54.92 55.53 55.40 55.43 55.20 54.94 55.20 55.56 55.93 56.21 56.87 56.14 54.42 54.24 55.47 56.28 56.79 57.83 58.39 58.38 59.09 59.27 60.12
42.46 38.99 30.82 28.80 29.93 29.77 35.98 35.64 39.00 43.77 45.56 45.27 46.29 49.00 51.70 53.15 53.75 53.44 51.28 51.77 52.43 52.18 52.63 53.37 53.62 53.01 53.65 54.04 54.19 54.43 54.38 54.86 54.52 54.45 54.75 54.02 54.64 54.49 53.26 52.85 53.27 53.51 53.89 55.11 57.27 57.60 58.15 59.29 59.57
40.08 39.46 32.85 24.38 26.25 30.61 34.67 32.07 39.25 45.27 45.75 45.52 46.21 47.40 47.70 48.48 50.70 51.47 51.97 52.31 52.02 52.08 52.42 52.14 52.31 51.59 52.24 52.40 52.06 52.59 52.83 53.83 52.90 51.93 52.57 51.99 51.72 51.69 50.57 50.86 51.06 50.87 51.39 52.93 55.30 57.36 58.20 57.58 56.62
38.32 35.33 37.44 32.18 30.90 31.20 34.95 37.06 42.20 43.11 44.60 44.81 44.88 45.31 46.68 48.13 49.12 48.53 49.12 51.45 52.14 52.09 52.09 52.15 51.50 50.96 50.83 50.76 50.64 50.23 50.51 50.33 49.90 49.15 49.99 49.86 49.15 48.56 48.58 48.78 48.88 49.18 49.73 50.72 52.47 54.76 55.54 54.66 52.65
40.68 41.25 33.62 35.60 26.32 24.90 30.72 32.61 35.89 40.22 42.11 43.17 43.59 43.96 44.89 47.08 47.61 47.97 48.53 50.15 51.43 51.88 51.94 51.64 51.18 50.36 49.96 49.61 49.46 48.74 47.84 47.64 47.58 47.89 47.42 46.99 47.19 46.83 46.97 47.19 47.24 47.58 47.94 48.90 50.13 51.65 51.78 52.33 51.20
38.26 36.94 37.02 36.97 34.26 29.62 28.57 33.54 41.29 41.45 42.18 42.11 43.85 45.10 45.48 46.14 47.13 48.06 48.93 50.50 50.93 50.80 50.55 50.48 50.19 49.24 48.51 48.35 47.43 46.85 46.29 46.03 46.28 46.17 45.71 45.59 45.50 45.49 45.36 45.38 45.48 45.54 46.00 46.93 48.43 48.31 48.68 48.49 47.96
39.99 39.08 39.33 33.44 30.58 32.31 31.53 34.11 42.15 42.57 42.65 42.65 44.89 45.77 46.47 47.01 48.21 49.09 50.09 49.91 49.20 48.90 49.73 49.12 49.25 48.90 48.37 47.51 46.94 46.04 45.35 45.11 45.10 44.87 44.37 44.69 44.62 44.60 44.30 44.02 44.00 44.12 44.20 45.20 45.69 45.00 45.60 45.60 44.90

GFSSGP_sfc_wetblb_075.txt.gz
Wetbulb
68.99 67.83 65.22 61.20 50.61 50.05 47.02 50.23 53.88 51.09 52.83 56.46 56.56 56.81 59.04 61.75 57.68 58.27 69.76 71.57 72.63 73.38 74.31 74.74 75.75 75.99 75.67 74.80 74.15 73.60 73.06 72.82 72.30 71.96 72.08 72.62 72.09 71.81 70.73 69.80 70.32 70.95 71.06 71.04 71.12 70.99 70.54 69.97 69.52
68.84 65.07 62.50 56.75 47.52 44.19 46.32 52.16 50.36 53.23 55.24 57.03 58.35 58.04 59.48 61.03 66.54 66.88 68.41 71.68 72.43 73.67 73.81 74.29 75.66 75.75 75.54 74.47 73.93 73.54 72.73 72.31 71.97 71.40 71.75 72.82 72.29 71.86 70.37 69.28 69.72 70.10 70.32 70.23 70.46 70.29 70.08 69.79 69.54
66.65 64.41 56.36 50.71 47.02 44.54 46.48 50.83 52.17 54.81 55.66 56.11 56.50 61.65 62.16 63.51 67.03 67.37 70.86 71.59 73.09 73.71 73.99 74.35 75.46 75.66 75.17 74.33 74.32 73.52 72.40 71.51 70.89 71.04 71.24 72.08 72.69 71.75 70.06 68.92 69.29 69.53 69.55 70.16 69.88 69.78 69.60 69.92 69.96
63.45 60.15 57.68 48.28 45.61 48.90 50.04 51.79 54.00 54.11 53.96 57.30 57.85 57.56 65.32 68.59 67.95 69.90 71.30 71.61 72.87 73.45 74.59 74.69 75.30 75.43 74.98 74.79 74.64 73.02 71.99 71.16 70.55 70.79 71.03 71.45 72.95 71.58 69.66 68.77 68.87 68.98 69.00 69.36 69.38 69.25 69.45 70.13 70.13
62.93 57.72 48.60 47.05 47.41 50.09 52.38 54.11 54.24 53.07 55.30 55.02 57.95 59.40 62.91 68.44 70.32 71.53 71.03 71.66 72.28 72.52 74.72 74.55 75.15 75.08 74.80 74.05 73.61 72.71 71.91 71.17 71.48 71.02 71.09 71.51 72.98 71.11 69.72 68.80 68.86 68.73 68.70 68.84 69.06 68.97 69.05 69.41 69.70
55.77 55.63 46.05 44.92 47.29 50.57 53.04 54.78 54.09 53.71 54.01 57.02 56.86 60.40 63.21 68.69 69.43 70.62 71.41 71.70 72.52 72.59 72.63 74.01 73.69 74.03 73.79 73.25 72.56 71.70 70.88 71.08 72.07 71.62 71.54 71.69 72.42 70.90 69.95 69.09 68.87 68.88 68.61 68.55 68.60 68.52 68.51 68.31 68.83
54.40 51.08 46.97 48.37 47.34 48.36 51.27 55.05 53.76 53.69 53.57 57.26 61.58 57.81 64.30 66.65 69.20 71.15 71.26 72.11 72.08 73.05 72.39 72.95 73.24 72.77 72.23 72.10 71.74 71.45 71.49 72.03 72.16 72.78 72.58 72.99 71.78 71.14 70.08 69.48 68.79 68.75 68.91 68.60 68.20 68.08 67.99 67.56 67.24
55.92 52.03 47.55 48.39 46.73 46.85 52.59 53.80 55.27 54.67 54.15 61.49 62.83 58.16 60.75 66.39 69.34 71.24 71.01 70.93 71.61 72.21 72.32 72.60 72.56 72.35 71.50 70.38 70.40 70.29 70.92 71.40 72.19 72.10 71.38 70.01 69.49 69.63 70.27 69.85 69.41 68.44 68.48 68.56 68.30 67.76 67.41 66.78 66.19
56.41 47.49 46.06 46.78 47.48 48.86 53.23 52.26 55.22 56.77 56.41 57.47 59.52 62.06 63.56 67.54 68.96 68.53 68.59 69.11 70.12 70.20 71.46 72.55 71.46 71.66 70.63 71.13 69.30 68.64 69.24 70.08 69.31 68.82 68.40 68.46 70.13 69.78 68.54 67.63 68.69 68.76 67.97 67.93 68.03 67.87 66.73 65.55 65.36
50.23 46.77 48.29 53.01 52.80 51.23 51.95 52.81 53.73 53.74 54.68 55.29 57.08 60.90 66.01 67.11 67.39 66.29 66.37 66.87 68.04 68.75 70.06 70.85 70.91 70.62 70.83 70.65 69.76 69.75 66.23 69.65 69.48 69.33 69.07 69.96 70.01 70.03 69.35 67.68 67.55 68.11 67.98 67.94 67.82 68.06 67.36 65.78 66.21
50.33 45.52 51.78 52.00 52.73 53.95 53.15 52.55 54.55 52.84 52.28 54.62 54.06 58.21 63.14 66.08 66.06 66.42 67.73 68.37 68.37 69.00 70.32 70.38 70.61 70.88 70.34 70.44 70.39 70.68 69.66 68.11 67.86 68.55 68.69 68.06 67.92 68.55 67.98 68.78 68.23 68.61 66.06 68.42 67.52 67.38 67.25 66.92 66.28
46.50 50.04 49.78 50.93 54.03 54.13 52.54 53.68 52.00 53.57 54.62 56.43 56.85 59.82 61.07 63.76 65.16 65.64 67.04 67.83 68.31 69.15 70.36 70.49 70.46 70.72 70.44 70.33 70.71 70.50 70.01 69.94 69.40 69.49 69.26 68.37 67.27 66.73 66.12 65.86 66.33 66.52 66.76 66.94 67.89 66.97 66.43 65.99 65.83
48.11 49.82 51.37 52.80 53.16 53.90 54.32 52.12 51.54 52.40 56.42 56.89 57.58 58.76 61.44 63.57 65.19 64.90 65.55 67.61 68.03 68.05 68.54 71.03 70.63 70.75 70.29 70.17 70.21 70.41 70.08 69.86 69.88 69.68 69.41 68.87 67.95 66.89 66.72 65.79 65.07 65.05 65.03 65.86 66.45 66.64 65.77 65.25 65.01
49.94 49.90 50.36 52.35 50.59 53.12 52.03 52.07 51.85 52.78 56.71 55.74 55.93 56.79 59.20 63.02 64.47 64.19 64.70 65.74 67.63 68.34 69.05 70.32 70.43 71.15 70.22 70.22 69.93 70.10 70.50 70.14 70.13 70.10 69.82 69.16 68.68 68.03 66.87 66.82 65.16 64.60 65.37 66.52 67.08 66.98 66.80 66.64 66.71
49.77 46.59 49.30 50.07 50.13 50.85 53.58 48.89 48.69 53.09 55.27 54.40 55.36 56.40 57.44 57.62 60.20 65.20 66.35 66.35 67.97 69.14 69.68 69.87 70.11 70.36 69.34 70.18 70.12 70.50 70.41 70.11 70.05 70.20 70.13 69.58 69.29 68.97 67.68 67.32 67.37 65.79 66.81 66.74 66.86 66.88 67.00 66.66 66.85
46.03 47.12 41.03 48.41 50.11 51.39 51.50 44.26 51.02 53.33 54.02 53.50 54.65 55.78 56.55 56.72 57.40 58.83 64.82 67.05 68.61 69.25 69.04 69.99 70.24 69.91 69.51 69.48 70.06 70.10 70.57 70.37 70.43 70.61 70.64 70.09 69.53 69.25 68.87 68.29 68.17 68.88 68.03 67.58 67.32 67.12 66.65 66.58 66.58
43.25 37.85 40.75 44.00 50.14 49.46 49.36 45.19 50.48 53.49 52.04 51.77 53.61 54.75 55.80 56.77 57.41 57.94 57.94 63.16 67.66 69.04 69.32 69.56 69.98 69.69 69.74 69.78 70.05 70.19 70.33 70.42 70.65 70.89 70.76 70.76 70.49 69.99 69.07 68.43 68.38 68.73 68.54 68.19 67.68 67.28 67.15 66.48 66.11
36.92 38.53 41.12 41.80 46.95 48.50 46.99 46.25 49.44 52.53 51.75 51.61 52.96 54.03 55.21 55.83 56.83 57.79 57.80 57.70 61.36 68.09 69.27 69.83 69.81 69.75 69.97 70.18 70.00 69.88 69.92 70.36 70.72 70.58 70.67 70.78 70.64 70.39 69.68 68.96 68.54 68.52 68.06 67.58 67.77 67.12 67.45 66.64 66.33
41.65 40.24 40.57 43.56 48.00 46.42 45.76 46.08 47.92 50.46 51.61 51.36 51.98 53.05 54.01 55.85 57.91 58.26 57.55 57.33 56.56 61.80 66.66 68.58 68.68 69.12 69.44 69.13 68.62 68.76 68.27 69.27 69.85 70.35 70.50 70.23 70.14 69.89 69.44 68.69 68.47 68.72 67.85 67.78 67.84 67.10 66.07 65.84 66.51
42.04 40.11 40.31 43.67 46.92 46.42 45.41 45.32 48.66 50.36 50.62 51.73 51.82 52.94 53.74 55.33 56.71 57.36 57.36 57.13 55.99 56.75 61.69 64.81 67.23 68.42 68.93 69.16 69.31 69.51 69.51 69.61 69.82 70.31 69.83 69.83 69.38 69.07 68.37 67.90 67.67 67.70 67.22 66.74 66.43 65.99 64.82 64.51 65.40
41.04 40.52 40.80 40.97 44.80 46.14 45.12 42.92 45.79 49.22 50.95 51.38 52.50 53.85 54.58 55.00 55.31 56.66 56.27 56.33 56.06 56.12 57.06 59.41 62.00 65.21 66.52 68.17 68.11 65.80 65.03 65.00 66.04 67.71 67.33 64.59 62.93 63.70 63.90 64.02 64.32 65.19 65.42 64.75 64.71 64.35 63.57 62.17 63.63
37.23 43.88 43.54 42.22 40.96 35.87 44.71 34.78 43.09 46.10 47.08 49.07 51.12 52.42 53.22 54.80 56.29 56.96 56.94 55.92 54.88 56.23 58.10 57.54 58.27 58.76 59.41 60.13 62.22 62.99 63.53 63.11 61.72 61.53 60.49 58.94 58.78 58.91 58.95 59.36 59.96 60.67 62.56 63.37 63.43 63.72 63.51 63.10 61.11
39.92 44.87 43.23 42.68 40.65 39.98 40.35 37.04 40.86 45.64 44.49 46.89 49.90 51.40 52.90 53.79 54.76 55.90 56.29 55.99 54.91 56.72 56.83 57.30 57.17 57.14 57.10 57.56 58.00 57.72 57.07 57.43 56.66 56.21 56.34 56.79 57.41 57.13 56.72 57.10 57.59 58.07 59.08 59.60 60.09 60.40 60.32 60.50 59.16
45.36 43.26 42.06 41.63 39.59 32.16 37.63 37.45 37.99 41.55 43.26 45.84 49.05 51.11 52.34 53.13 54.05 55.15 56.51 55.49 54.32 56.17 56.29 56.67 55.86 55.88 56.70 57.23 57.26 57.11 56.88 56.11 55.64 55.94 55.99 56.46 56.96 56.59 55.54 55.23 55.82 56.45 56.76 57.09 58.28 58.88 58.22 58.13 58.04
43.15 39.22 31.19 29.21 30.09 30.10 38.66 36.71 39.60 44.64 46.17 46.76 46.83 49.40 51.69 53.16 53.63 54.26 54.48 54.37 54.11 54.47 54.96 55.09 55.01 54.35 55.72 56.08 56.03 56.24 56.26 56.07 55.72 55.54 55.38 55.04 55.14 55.22 54.66 53.58 53.77 53.84 54.07 54.43 55.72 57.15 58.13 57.72 58.51
40.06 39.46 32.81 24.69 26.95 30.93 37.49 32.33 38.84 46.09 47.83 48.08 48.64 49.23 50.21 50.24 53.02 53.97 55.24 54.62 54.38 53.92 53.72 53.87 53.88 53.69 54.38 54.88 54.54 54.95 55.00 54.63 54.37 53.72 53.63 53.21 52.50 52.45 52.00 51.64 51.81 51.78 51.84 52.42 53.62 55.47 56.90 57.38 56.23
39.60 36.01 39.47 34.26 35.61 32.84 35.27 38.56 43.63 44.75 45.67 46.59 46.87 47.14 48.59 49.91 50.71 51.23 52.45 54.17 54.22 53.85 53.76 53.62 53.60 53.27 53.27 53.24 53.02 52.66 52.49 52.29 51.63 51.20 51.30 50.87 50.33 49.51 49.09 49.91 49.67 50.13 50.21 50.65 51.45 53.15 54.49 54.89 54.07
41.88 43.56 33.96 35.81 26.75 25.70 32.00 34.29 36.65 40.93 42.73 44.69 45.26 46.10 47.24 47.90 49.17 50.36 50.90 51.50 53.96 53.70 53.84 53.78 53.50 52.32 52.18 52.08 51.91 50.94 50.20 49.97 49.51 49.36 48.78 48.16 48.32 48.02 48.00 48.25 48.29 48.43 48.71 49.24 50.11 51.29 52.22 52.31 51.75
38.81 37.06 38.50 38.15 35.45 29.79 28.96 33.45 43.26 42.44 43.82 44.38 46.05 47.43 48.08 48.70 49.02 50.03 50.62 51.83 53.04 53.69 53.28 52.55 52.38 51.59 50.65 50.43 49.55 48.94 48.30 48.04 47.82 47.65 47.20 46.90 46.76 46.73 46.60 46.57 46.59 46.62 46.68 47.56 48.43 48.80 49.21 49.50 49.13
41.78 39.36 39.38 32.99 31.34 34.10 32.67 34.37 43.79 45.26 44.79 45.79 46.52 47.62 48.93 49.60 49.81 50.19 50.77 51.46 51.54 51.92 51.72 51.28 51.18 50.48 50.33 49.79 49.02 48.38 47.62 47.20 46.90 46.55 46.08 45.98 45.88 45.93 45.40 45.18 45.14 45.22 45.17 45.87 46.42 46.20 46.81 46.61 45.94

GFSSGP_sfc_wetblb_078.txt.gz
Wetbulb
67.32 67.46 65.72 59.68 49.35 46.33 42.93 45.79 52.04 52.21 54.29 57.78 56.48 53.42 55.04 60.65 58.32 54.14 66.84 69.92 72.52 71.75 72.81 74.25 75.50 75.59 75.18 74.69 73.71 73.82 73.55 73.27 73.05 72.80 72.20 71.99 71.42 70.17 70.20 70.83 71.12 71.58 71.89 71.41 70.90 70.87 70.25 69.93 70.05
64.17 65.52 60.60 54.94 43.68 39.45 41.76 49.42 50.27 52.09 53.65 54.57 56.98 56.49 58.13 59.58 64.13 63.76 65.20 70.72 72.43 72.38 71.98 72.87 75.52 75.55 75.29 74.32 73.67 73.63 72.69 72.28 72.23 72.57 72.98 72.45 71.38 69.80 69.80 70.00 70.47 71.00 70.70 70.21 70.48 70.30 69.99 69.78 69.54
62.67 64.57 53.79 48.69 44.09 40.42 42.78 49.32 50.83 53.29 53.71 54.71 54.51 58.90 61.60 61.81 64.44 64.59 68.46 70.71 72.07 71.83 72.30 73.85 75.31 75.43 75.02 74.33 74.06 72.82 72.15 71.94 71.66 72.23 72.82 72.56 71.27 69.65 69.34 69.76 69.87 70.08 69.96 69.66 70.03 70.00 70.40 70.31 70.05
60.30 59.26 55.22 45.10 42.53 46.04 47.19 49.74 52.45 53.04 52.45 55.05 54.69 57.72 64.07 67.42 64.46 67.25 69.14 71.09 71.05 70.85 72.82 74.31 75.00 75.12 74.76 74.59 74.08 72.58 71.55 70.69 71.31 71.83 72.23 72.99 71.37 69.57 69.04 69.39 69.34 69.77 70.15 69.67 69.61 69.74 70.31 70.14 69.79
59.53 56.53 45.53 44.16 44.56 47.58 49.30 52.48 51.47 51.65 51.77 52.99 57.34 57.14 61.09 66.45 69.36 68.23 68.26 71.24 70.29 72.08 73.04 74.07 74.95 74.95 74.75 74.52 73.64 72.96 71.64 71.16 71.17 71.41 71.75 73.20 71.28 69.69 68.90 68.99 68.99 69.03 69.31 69.36 69.32 69.37 69.67 69.84 69.75
53.75 54.60 42.73 40.92 44.63 48.70 50.98 52.39 51.50 51.68 52.12 54.68 55.11 58.45 62.08 67.65 68.12 67.21 68.66 69.99 72.06 72.02 72.29 73.29 73.68 74.09 73.70 73.54 73.16 72.69 71.98 71.97 71.67 72.32 72.48 72.77 71.20 70.07 69.20 69.14 69.00 68.89 68.95 69.05 68.94 68.87 68.61 68.85 69.15
51.96 48.29 44.10 44.28 44.92 47.06 49.95 52.35 49.53 51.32 50.85 55.03 56.56 54.90 62.75 65.41 68.46 69.44 68.62 69.90 71.21 71.45 71.58 72.06 72.20 72.19 72.07 71.92 71.55 71.55 72.04 72.56 72.36 72.42 72.49 72.60 71.22 70.64 69.76 69.00 69.20 69.17 68.80 68.57 68.43 68.26 67.91 67.56 67.11
54.01 50.61 45.01 46.12 45.19 46.09 50.85 52.36 54.06 52.78 52.48 59.93 59.72 54.36 59.94 64.74 68.92 69.94 69.52 69.84 70.22 70.81 71.07 70.82 70.48 70.28 68.93 68.52 70.22 70.85 71.33 71.57 72.38 71.82 71.40 69.87 69.30 69.42 70.09 69.40 69.25 69.00 68.82 68.69 68.36 67.84 67.36 66.67 66.05
55.92 46.73 43.46 45.18 46.78 47.48 51.58 50.88 53.94 55.61 55.39 55.82 59.03 59.64 64.89 67.70 68.21 67.93 67.66 67.19 69.02 69.74 70.76 70.28 70.08 69.55 68.93 67.50 67.88 69.38 69.96 69.92 70.06 69.68 68.58 67.66 67.18 67.67 67.32 67.57 68.21 68.76 68.82 68.43 68.21 67.65 66.61 66.72 65.67
49.50 45.71 46.07 50.68 50.03 49.39 50.92 51.21 51.87 52.59 52.96 53.94 56.53 63.71 65.44 66.94 66.22 65.48 65.75 65.38 67.08 68.39 69.78 70.61 69.82 68.64 68.77 68.64 64.97 64.58 68.59 67.51 67.31 67.79 66.91 66.97 66.45 66.73 67.52 66.06 67.28 68.42 68.22 68.18 68.27 68.34 67.88 66.14 62.43
49.32 44.89 49.50 50.76 52.35 53.09 50.84 51.27 53.18 51.41 50.13 51.94 52.10 60.19 64.67 65.87 65.54 64.77 65.81 65.81 66.90 68.09 69.42 69.69 69.37 69.37 69.08 68.07 66.77 64.33 63.44 65.47 65.86 65.99 65.66 65.43 66.34 65.77 65.92 64.93 64.94 64.96 65.32 65.24 66.74 66.14 65.87 63.31 62.40
45.80 49.35 49.32 51.35 52.70 52.20 50.99 52.04 50.66 52.28 51.33 54.51 55.44 61.49 63.20 64.60 65.30 65.61 66.02 66.72 66.87 67.76 68.70 69.20 69.72 69.15 68.86 68.59 66.92 67.69 65.83 64.34 63.70 64.69 64.88 63.29 62.08 62.37 62.40 63.39 64.46 64.21 64.26 63.89 64.27 63.99 64.09 62.27 62.18
45.94 48.63 50.31 51.76 52.00 51.57 53.29 50.42 49.65 51.74 54.26 55.17 56.55 60.83 62.38 63.41 64.89 64.85 65.51 67.09 67.01 67.40 68.18 68.88 69.51 69.38 68.92 68.42 67.30 67.48 65.85 65.95 66.05 65.75 65.72 64.73 63.35 62.32 61.66 60.50 60.54 60.57 60.20 60.40 61.53 62.11 61.61 60.63 60.55
48.47 48.74 49.60 50.28 50.42 50.01 48.71 50.50 50.79 50.87 54.68 53.98 55.05 56.21 60.46 62.89 64.19 62.85 63.29 64.45 66.54 67.20 67.16 67.97 68.92 69.51 69.13 68.45 67.50 67.70 67.33 66.42 66.16 66.18 66.05 65.85 64.39 63.29 62.48 62.24 60.86 59.43 60.07 60.83 62.24 62.37 62.36 62.34 62.25
48.22 45.25 48.01 48.45 49.88 48.10 50.82 47.72 46.95 51.37 53.26 52.61 52.95 54.16 55.85 56.65 59.61 62.78 64.15 64.11 66.90 67.34 68.03 67.40 67.99 69.24 68.92 68.69 68.44 68.11 66.98 67.54 66.23 66.48 66.56 65.92 65.67 64.87 63.21 62.69 61.61 60.21 61.30 61.84 61.98 62.34 62.62 62.30 63.18
44.43 44.84 39.30 45.81 49.00 49.94 48.83 40.62 48.70 51.17 50.55 50.88 51.39 52.31 53.42 54.74 56.65 60.13 64.94 64.80 65.66 66.64 66.74 68.09 69.33 68.45 68.24 68.42 68.47 68.33 67.92 66.33 66.99 66.81 66.67 66.68 66.42 66.18 65.17 64.21 64.13 64.80 62.89 63.17 62.89 62.74 62.47 62.33 62.30
41.62 35.63 38.50 41.81 47.13 46.08 45.68 42.34 49.70 51.77 50.39 49.90 50.79 51.09 52.12 53.64 54.41 54.91 58.67 61.90 65.74 66.40 65.88 66.35 67.95 67.12 67.81 68.18 68.47 68.21 67.71 67.35 67.83 67.21 67.15 67.25 67.12 66.65 65.52 64.94 64.86 65.18 64.79 64.11 63.87 63.35 63.08 62.39 63.63
35.02 35.77 38.44 38.93 44.09 44.37 43.19 43.69 47.50 50.67 49.48 48.47 49.35 50.38 51.53 51.98 54.18 55.27 55.03 54.73 59.34 64.89 66.16 66.80 66.91 66.73 66.75 67.81 67.70 67.39 67.16 67.64 67.92 68.02 67.99 68.62 68.18 68.23 66.87 65.73 65.23 64.90 64.11 63.84 63.75 63.51 64.93 64.16 64.20
39.94 38.05 37.40 40.80 46.60 44.88 43.62 44.27 46.61 48.08 47.97 48.38 48.20 50.04 50.96 51.65 54.51 54.83 54.65 54.26 53.83 58.91 64.35 66.41 66.30 66.54 66.63 66.29 65.50 65.82 65.76 66.68 66.55 67.14 68.32 68.39 68.24 68.00 67.33 66.88 66.49 66.37 65.41 64.96 64.61 63.73 62.76 62.25 62.82
38.63 37.18 37.46 41.91 45.80 45.07 43.62 43.01 45.88 47.38 48.07 49.21 49.34 49.88 50.58 52.06 53.27 53.10 54.19 53.24 53.11 53.74 60.65 63.54 65.81 65.68 65.59 66.28 65.55 65.91 65.84 66.36 67.08 67.63 67.22 65.98 66.30 66.64 66.65 65.69 65.78 65.82 65.39 65.30 65.01 64.55 63.42 63.44 63.33
38.37 36.78 38.07 38.09 43.49 44.54 42.22 39.16 42.15 46.98 47.78 49.63 50.56 50.89 52.07 52.03 52.42 53.15 53.21 53.02 52.44 52.13 54.66 60.12 61.60 64.39 65.76 65.73 64.28 63.09 62.27 62.90 63.16 65.34 64.91 60.21 60.33 61.19 61.04 62.13 62.85 63.39 64.07 63.68 63.76 63.27 62.46 61.50 62.19
35.34 42.03 42.12 41.15 38.71 33.99 41.38 27.77 39.38 42.93 44.51 47.55 47.64 49.28 48.62 50.83 53.45 53.89 53.51 52.64 52.03 52.75 54.10 54.37 56.85 57.99 58.30 59.03 61.49 60.83 60.30 60.37 57.61 58.49 56.92 55.59 55.99 55.97 56.29 56.37 56.24 56.22 57.83 59.28 61.08 62.45 61.21 59.76 58.31
38.66 43.55 41.93 41.55 38.96 36.73 37.15 30.59 34.46 42.13 40.74 44.27 46.09 47.41 48.38 49.91 50.90 53.30 53.19 53.26 52.40 53.73 53.94 54.08 54.52 54.95 54.73 54.72 56.01 56.53 54.09 52.63 52.45 52.55 53.07 53.58 54.16 54.27 54.33 54.47 54.43 54.54 55.44 55.74 56.28 56.43 56.58 57.05 55.75
43.62 40.85 40.33 40.63 37.37 25.20 34.57 32.78 31.84 35.90 40.31 43.23 45.93 48.65 48.95 49.55 49.82 51.16 52.24 51.89 51.45 53.56 53.41 53.50 53.16 53.12 53.69 53.71 53.54 53.24 52.29 51.30 51.18 51.72 51.98 52.89 53.85 53.50 53.08 53.46 52.98 53.09 53.24 53.22 53.78 54.83 55.31 54.88 55.46
41.47 37.24 27.23 23.82 22.43 23.52 34.87 31.81 33.91 40.19 42.39 41.61 43.45 42.60 45.94 49.27 49.53 49.94 51.32 49.49 50.91 52.02 52.55 52.71 52.75 52.25 53.24 53.11 52.89 53.22 52.79 51.92 51.71 51.80 51.67 51.35 51.59 51.70 49.89 50.50 50.03 50.11 50.40 51.09 51.67 52.52 53.64 54.55 54.68
37.75 35.56 27.17 20.28 20.73 25.04 33.86 25.96 33.34 40.88 43.62 44.50 45.40 43.84 46.59 45.51 46.29 48.57 50.35 49.98 50.58 51.73 51.87 51.85 51.72 51.67 52.70 52.65 52.21 52.53 52.19 51.30 50.60 49.98 49.44 48.52 48.02 47.85 47.92 48.01 48.35 48.63 49.04 49.40 50.03 50.79 52.27 54.61 54.34
37.03 33.27 36.32 30.80 30.44 25.43 30.05 33.04 37.03 41.74 41.25 41.45 42.07 43.47 41.99 44.38 45.53 45.53 46.23 49.13 50.00 51.21 51.82 51.33 51.12 50.87 51.61 51.42 50.40 49.88 49.95 49.92 48.62 47.57 47.67 46.66 46.46 46.93 45.74 46.28 46.28 46.73 47.10 47.69 48.27 48.91 50.30 51.19 53.19
39.72 41.14 30.60 29.22 20.15 20.61 27.35 29.53 30.77 35.49 38.12 40.78 40.93 41.24 42.71 43.67 44.37 45.93 46.03 47.77 49.59 50.26 50.70 50.72 50.42 50.15 50.03 49.90 48.80 48.43 47.31 46.64 46.43 46.10 44.78 44.98 44.68 45.04 44.97 44.81 44.77 44.84 45.30 45.88 46.43 47.40 48.76 49.04 49.89
36.89 36.04 35.85 34.04 29.36 23.44 21.39 27.21 37.48 37.96 39.99 40.35 41.32 42.89 43.10 43.82 44.38 45.04 45.54 46.37 48.12 49.70 49.69 49.33 49.64 48.94 48.80 47.76 47.57 46.33 45.82 45.64 45.13 44.22 43.82 43.52 43.82 43.61 43.44 43.54 43.42 43.35 43.25 43.70 44.21 44.84 45.57 46.22 47.97
40.46 36.24 36.10 27.29 27.15 28.34 26.51 28.27 39.53 40.49 41.69 42.62 42.36 43.56 43.03 45.71 45.89 45.69 45.85 46.65 47.26 47.70 47.99 47.35 47.77 47.32 48.13 47.25 46.73 44.95 44.43 44.32 43.72 43.35 43.25 43.34 42.55 42.88 42.12 42.28 42.19 42.15 42.37 42.41 42.50 43.20 43.56 43.78 43.14

GFSSGP_sfc_wetblb_081.txt.gz
Wetbulb
66.35 63.61 63.95 57.08 46.77 44.76 38.82 43.78 47.62 50.70 51.94 55.50 55.67 54.04 56.77 59.13 57.38 51.57 66.63 70.99 71.25 72.33 73.68 74.29 75.35 75.15 74.88 73.97 73.40 73.62 73.54 73.39 73.19 72.96 71.44 70.56 70.27 71.06 71.46 71.95 72.31 72.34 71.08 70.64 70.76 70.32 70.53 70.42 70.41
62.91 62.08 57.57 52.07 42.71 34.79 36.56 46.07 48.16 52.01 51.50 55.18 57.09 56.88 58.70 58.91 62.47 62.42 67.37 70.96 71.33 71.97 72.94 74.01 75.14 75.10 74.77 73.64 73.00 72.96 72.87 72.71 73.61 73.37 71.93 70.23 69.78 70.11 70.46 71.32 71.22 70.94 70.32 70.23 70.12 69.91 69.89 69.70 69.70
61.44 61.45 50.45 46.00 40.62 37.03 38.51 46.28 50.89 53.69 53.42 54.11 55.24 60.50 62.26 60.91 64.08 63.22 70.15 71.15 71.34 70.82 72.80 74.07 74.92 74.88 74.49 73.66 72.99 72.46 72.02 72.01 72.91 73.46 72.50 70.30 69.43 69.91 70.07 70.67 70.56 69.79 69.90 69.81 70.09 70.27 70.18 69.90 69.69
58.00 55.59 51.91 41.76 38.65 43.58 44.50 48.60 51.73 53.80 52.55 53.58 56.64 57.87 63.73 67.26 65.56 66.53 70.79 71.30 70.01 70.18 72.71 74.17 74.69 74.81 74.39 73.84 73.12 72.03 71.72 71.58 72.23 73.19 72.33 70.50 69.19 69.83 69.88 69.90 70.11 69.62 69.88 69.64 70.09 70.26 70.07 69.75 69.71
57.12 52.57 43.22 40.16 42.02 44.22 46.90 51.76 51.46 50.54 51.26 52.29 58.43 57.98 61.24 66.72 68.61 67.82 70.14 70.63 70.05 71.59 72.95 73.64 74.68 74.67 74.43 73.86 73.07 72.25 71.15 71.35 71.74 72.74 72.31 70.79 69.28 69.29 69.49 69.34 69.51 69.62 69.45 69.42 69.59 69.95 69.87 69.72 69.54
50.99 51.17 38.40 37.30 40.33 46.72 48.75 50.75 51.03 49.92 51.03 52.70 56.36 59.20 61.29 67.51 67.62 67.94 69.94 70.53 71.84 71.76 72.73 73.23 73.37 74.01 73.99 73.45 73.01 72.47 71.97 71.52 71.95 72.86 73.03 71.01 69.67 69.08 69.12 69.04 69.10 69.22 69.31 69.20 69.20 69.01 69.27 69.28 68.80
48.22 45.29 40.31 39.03 40.52 44.32 48.72 49.68 47.24 47.81 50.53 53.95 57.45 55.21 62.03 64.38 67.86 69.30 68.85 71.43 71.51 72.12 72.03 72.17 72.15 72.03 72.03 72.18 72.09 72.15 72.32 71.98 72.37 73.01 72.64 71.49 70.51 69.72 69.18 69.24 69.08 68.98 69.01 68.78 68.63 68.37 68.01 67.55 66.91
52.01 47.77 41.54 41.06 41.05 43.70 49.33 51.14 51.52 51.11 51.33 58.42 58.91 55.52 54.50 63.96 68.82 68.99 69.82 69.83 70.54 71.00 70.82 70.31 70.05 69.82 68.61 68.50 70.43 71.17 71.32 71.53 71.70 71.56 70.94 69.55 68.96 69.13 69.68 69.15 69.51 69.08 68.73 68.43 68.15 67.86 67.46 66.71 65.96
55.04 44.88 40.68 42.00 43.79 46.48 49.22 49.50 52.49 54.23 53.87 56.65 58.95 60.54 63.68 66.70 67.96 66.95 66.72 67.63 68.91 69.73 69.64 69.33 68.18 67.11 66.44 67.34 69.03 69.73 70.24 70.44 70.10 69.67 68.13 67.49 67.18 67.39 67.22 67.01 67.97 69.03 68.88 68.52 68.23 67.63 66.81 66.24 65.62
49.29 44.36 42.88 47.97 48.49 46.32 49.04 49.41 50.52 51.81 52.83 55.74 60.21 63.11 66.19 66.06 65.11 64.65 65.05 65.17 67.08 67.79 68.33 68.87 68.04 66.82 65.88 66.80 66.32 67.09 68.40 68.40 68.50 68.87 67.00 66.61 65.13 65.57 67.11 65.83 66.92 68.35 68.34 68.32 68.31 68.20 67.72 65.77 61.67
48.81 44.57 48.22 50.42 52.72 52.44 50.01 49.78 51.77 50.29 48.46 50.19 58.60 61.75 64.21 63.67 63.70 63.65 65.04 65.57 66.51 68.33 68.86 68.50 67.75 67.13 66.39 63.67 63.28 64.67 66.11 65.91 66.36 67.12 66.67 65.63 65.63 65.35 64.91 64.29 65.14 64.72 64.88 64.80 66.50 65.85 65.34 62.84 61.93
45.38 49.02 49.68 50.95 52.01 51.76 50.63 52.09 49.84 50.31 50.08 53.75 60.11 63.78 63.99 64.11 64.07 63.48 64.65 65.34 66.18 67.58 68.04 68.99 68.48 68.18 67.45 65.57 64.64 61.62 65.04 64.24 63.66 64.69 64.46 62.15 63.06 63.78 63.39 63.14 63.11 63.10 63.84 62.87 63.26 62.91 63.02 62.97 61.97
44.89 47.89 49.64 50.98 51.65 51.34 52.31 49.55 50.39 49.34 52.79 54.57 61.77 62.58 62.34 62.67 64.52 64.63 64.53 66.37 66.30 65.65 67.74 68.30 68.82 68.49 68.19 67.17 66.10 64.02 62.32 62.71 62.74 63.98 63.51 62.13 61.07 60.28 60.05 61.10 62.41 62.28 61.98 61.48 62.17 62.00 61.34 59.98 59.37
47.48 47.90 48.70 50.31 50.68 50.32 48.95 49.65 48.85 49.63 52.09 52.51 60.10 60.54 61.93 63.20 63.18 63.31 63.80 64.31 66.23 66.77 67.18 67.92 68.50 68.90 68.64 67.94 65.80 67.15 66.36 65.11 64.38 64.19 64.23 63.80 62.54 61.18 60.60 59.57 58.70 57.94 58.02 58.35 59.76 60.78 60.82 60.56 60.55
47.94 43.76 45.71 47.54 49.21 47.85 50.05 47.39 46.10 49.34 50.98 50.93 52.72 58.11 60.34 61.73 63.43 62.28 62.59 63.62 66.00 67.06 67.29 67.35 67.43 68.98 67.85 67.97 67.70 67.19 66.86 66.72 65.05 64.89 65.10 64.66 64.29 62.85 61.52 61.15 60.33 58.30 59.02 59.58 60.12 60.85 61.04 60.84 61.66
43.96 44.22 38.83 45.15 48.37 49.35 47.90 41.88 47.73 50.19 49.24 48.52 49.45 50.79 52.58 55.00 59.87 60.28 63.83 64.58 66.33 66.57 66.89 67.63 69.24 68.25 68.15 67.99 68.11 67.15 67.93 66.51 66.60 65.22 65.04 65.09 65.04 64.78 62.68 62.07 62.45 61.79 59.86 60.94 61.25 61.27 60.99 60.89 60.81
40.73 34.55 38.21 40.81 47.49 46.93 45.81 41.85 47.12 49.85 48.21 47.56 48.35 48.86 50.48 51.31 53.56 57.80 60.75 63.90 65.42 66.25 65.87 66.28 67.17 66.82 67.60 67.65 68.22 67.73 67.67 66.24 65.76 65.88 66.93 66.18 65.56 65.58 64.64 63.98 63.86 64.08 63.44 62.34 62.18 62.10 61.77 61.29 62.04
34.65 34.95 37.91 38.70 43.20 45.06 42.63 41.70 45.86 48.48 47.97 46.87 47.42 48.73 47.95 50.62 51.97 53.60 56.25 57.10 63.78 65.39 65.86 66.21 66.76 67.36 67.84 67.42 66.65 67.38 66.71 66.80 66.87 67.05 67.13 67.07 66.93 66.46 65.83 64.70 64.10 63.79 63.08 62.84 62.67 62.41 63.22 63.48 63.39
38.80 37.58 36.47 41.05 45.34 42.74 40.34 40.31 43.84 46.92 47.24 44.87 44.72 46.64 48.68 49.12 51.75 52.26 53.43 54.18 56.58 61.51 64.57 65.81 65.78 65.50 65.62 65.38 64.98 64.46 65.19 65.90 66.34 66.69 67.94 67.61 67.34 67.52 66.72 66.39 65.85 65.96 65.04 64.66 64.80 64.30 63.50 62.37 62.24
38.50 36.03 36.10 41.29 44.89 43.62 40.78 40.22 44.80 45.97 47.20 46.59 47.01 46.41 47.53 49.44 48.74 50.79 51.39 51.94 52.25 56.41 61.62 64.04 65.62 64.77 65.51 65.47 65.50 64.78 65.49 65.65 65.60 65.85 63.64 64.61 64.92 65.12 65.09 64.89 65.53 65.43 64.94 64.70 64.53 64.15 63.13 63.03 63.29
37.49 34.68 35.32 37.77 42.50 43.58 42.38 39.57 42.01 45.04 46.81 47.74 48.71 48.11 47.97 49.68 50.76 49.96 50.02 50.60 51.00 51.18 58.20 61.72 63.60 65.33 65.54 65.50 64.39 62.54 62.84 62.70 63.47 64.05 61.61 58.55 60.02 59.61 59.56 60.63 62.29 62.64 63.22 62.91 63.15 62.97 62.19 60.98 61.51
34.68 40.01 40.04 39.93 38.04 33.39 41.08 30.57 38.75 43.05 44.36 45.78 45.57 45.59 47.23 48.16 50.87 50.58 50.54 49.97 49.70 50.70 54.10 58.84 60.42 61.37 62.86 63.90 62.64 61.81 61.18 60.54 59.51 60.99 56.17 55.87 55.82 55.25 55.62 55.59 55.56 55.24 55.63 55.70 56.89 57.80 58.22 57.09 56.87
37.95 41.30 39.49 40.35 38.31 34.82 36.27 32.48 34.53 38.28 40.25 43.39 44.09 44.60 46.08 46.73 47.79 50.03 51.89 51.90 50.92 50.62 51.50 54.18 55.66 56.01 57.73 57.84 60.72 60.18 55.84 54.40 52.00 53.04 53.10 53.47 53.60 53.73 53.81 53.64 53.49 53.61 54.12 54.15 54.75 55.22 55.39 55.48 54.48
43.46 40.00 39.79 39.43 36.91 27.90 34.72 33.00 30.07 33.83 40.21 40.18 43.00 44.94 46.62 47.27 47.75 48.69 50.28 52.15 49.44 50.47 51.45 51.94 53.44 53.33 53.89 54.53 54.44 56.35 51.60 50.77 50.70 50.73 51.02 51.92 52.36 51.94 51.87 52.22 51.32 51.30 51.49 51.17 51.35 52.02 52.82 53.65 53.63
40.59 34.77 28.94 27.18 27.02 25.43 33.60 30.56 32.30 36.87 40.47 42.04 43.37 43.13 43.48 46.08 46.94 47.83 48.07 47.73 50.26 50.86 51.08 51.57 51.84 51.43 52.17 51.84 51.59 51.70 50.79 50.85 50.84 51.12 51.25 51.40 51.62 50.53 48.90 49.25 48.66 48.61 49.04 49.67 50.08 50.04 51.04 52.15 52.55
38.48 35.37 25.08 21.21 22.06 23.94 32.22 26.34 33.01 38.46 40.34 42.03 43.12 43.32 43.25 42.89 43.78 45.66 47.80 47.60 49.47 50.77 51.15 51.13 50.63 50.74 51.85 51.28 51.44 51.46 51.65 51.31 50.84 50.56 50.08 48.77 48.23 47.47 47.26 47.38 47.31 47.34 47.63 47.81 48.19 48.45 49.76 51.86 52.15
36.99 32.98 34.27 28.86 27.57 24.03 27.43 31.45 36.42 38.46 39.28 39.21 40.33 42.01 41.85 42.22 43.08 43.04 46.05 47.33 48.23 49.55 50.78 50.71 50.41 51.29 51.70 51.22 50.85 50.05 49.62 49.12 48.20 47.73 47.45 46.33 45.61 45.97 45.54 45.50 45.41 45.59 45.83 46.04 46.47 46.76 48.29 48.95 50.19
38.68 38.80 28.17 25.28 20.97 20.84 24.63 25.79 28.33 32.90 34.92 38.20 38.57 39.08 40.73 41.68 41.91 43.43 44.31 46.40 48.14 49.25 49.47 49.38 49.72 49.59 49.75 49.72 49.51 48.91 48.17 48.09 47.11 46.64 45.82 44.68 44.22 44.53 43.90 43.73 43.61 43.62 43.91 44.20 44.28 45.52 46.72 47.20 47.53
35.22 34.26 33.73 31.93 26.81 22.52 19.39 24.31 33.81 35.12 37.46 37.97 39.26 41.01 41.62 41.61 42.94 43.14 43.54 44.39 47.67 48.14 48.47 47.93 47.95 47.90 47.64 47.27 46.83 46.46 46.17 45.89 45.52 44.70 44.27 43.76 43.93 42.93 42.50 42.40 42.19 42.10 41.94 42.22 42.62 43.18 44.16 44.67 46.03
37.89 35.84 35.18 24.98 26.44 24.45 23.44 25.91 37.72 38.20 39.65 40.70 40.49 41.68 41.76 42.69 43.78 44.05 44.18 44.61 46.27 46.91 47.12 46.35 46.31 46.48 46.09 45.89 46.36 45.43 45.05 44.75 44.14 43.78 43.50 43.21 42.42 42.33 41.55 41.44 41.18 41.08 41.25 41.24 40.98 41.87 42.29 42.38 41.89

GFSSGP_sfc_wetblb_084.txt.gz
Wetbulb
65.16 63.25 61.13 56.51 46.36 44.38 37.55 42.19 48.33 49.08 52.52 55.06 55.75 54.10 58.80 57.61 55.12 49.49 66.93 69.79 71.50 72.01 73.20 73.80 74.97 74.64 74.24 73.66 73.08 73.16 72.94 72.85 72.52 70.76 70.82 71.86 72.40 72.52 72.83 72.47 71.80 70.89 70.99 70.61 70.80 70.93 70.95 70.86 70.79
62.95 61.92 58.17 51.01 42.77 36.39 39.14 44.84 45.89 49.50 53.13 56.25 56.97 58.82 60.18 57.36 61.11 65.71 67.36 70.97 72.04 72.15 72.85 73.26 74.58 74.39 74.08 73.24 72.84 73.18 73.43 72.90 72.61 70.24 69.92 70.62 71.08 71.62 71.52 71.00 70.39 70.15 70.26 70.06 70.23 70.26 70.31 70.60 70.85
61.23 60.82 51.01 45.69 41.55 37.53 39.48 45.44 47.08 51.90 53.50 56.53 55.18 62.22 61.41 60.97 63.60 64.28 69.34 71.36 71.83 71.87 72.92 73.47 74.18 74.26 73.81 73.05 72.81 72.82 73.03 73.02 72.73 70.53 69.54 69.90 70.26 70.84 70.63 70.41 69.81 69.90 69.83 69.79 69.89 70.09 70.17 70.18 70.58
57.41 54.96 52.84 40.86 39.51 42.61 43.33 47.33 49.28 52.82 54.43 54.20 57.55 57.09 62.95 66.89 65.50 67.22 70.04 70.44 70.33 71.22 72.52 73.55 73.82 74.17 73.56 73.12 72.88 72.36 72.68 72.80 72.27 70.77 69.29 69.71 70.01 70.44 70.32 69.95 69.86 69.66 69.83 70.02 70.01 69.83 69.72 69.95 70.54
56.39 51.90 44.41 39.45 40.88 43.13 46.62 48.62 50.22 50.46 54.34 54.21 57.03 57.09 59.77 65.60 68.90 69.82 69.48 69.35 69.53 71.46 72.64 72.91 73.77 73.81 73.20 72.68 72.58 72.36 72.24 72.93 72.54 71.10 69.47 69.59 69.90 69.87 70.27 69.79 69.58 69.50 69.52 69.80 69.95 69.80 69.86 69.79 69.38
50.29 50.63 40.97 37.48 39.72 45.45 46.65 48.92 47.42 50.00 50.46 55.81 56.94 57.06 60.07 66.72 66.77 68.78 69.66 69.47 71.32 71.56 72.20 72.70 72.72 73.35 73.13 72.40 72.02 71.88 72.19 72.36 73.24 72.00 70.01 69.10 69.42 69.52 69.58 69.60 69.53 69.39 69.43 69.54 69.77 69.67 69.29 68.81 68.30
48.69 45.52 39.58 39.00 39.26 43.26 46.76 49.09 48.01 48.66 49.29 52.80 60.35 55.82 61.43 63.00 66.12 68.69 68.69 70.63 71.41 71.75 71.50 71.58 72.14 72.12 72.08 72.18 71.95 71.68 71.93 72.12 72.80 72.35 71.23 69.99 69.51 69.26 69.03 69.06 69.15 69.22 69.10 68.95 68.74 68.54 68.30 67.71 66.63
51.24 48.26 40.72 39.15 39.31 41.64 48.44 50.58 50.76 50.24 52.33 57.25 58.58 53.50 58.47 63.27 67.10 68.68 69.21 69.78 71.06 71.46 70.93 69.96 69.51 69.95 69.09 69.51 70.88 71.12 71.17 71.45 71.96 71.45 70.29 69.06 68.26 68.62 69.62 69.20 69.23 69.01 68.67 68.51 68.26 67.83 67.34 66.60 65.65
53.57 44.50 40.50 41.12 41.04 44.10 48.18 48.52 51.63 53.76 53.86 57.06 58.84 59.55 62.89 65.29 65.32 66.85 67.25 68.10 69.48 69.83 69.67 69.11 67.53 66.59 66.44 67.76 69.19 70.13 70.25 70.09 70.01 69.41 67.94 67.24 66.78 66.82 66.80 66.76 68.20 69.06 68.81 68.26 67.91 67.41 66.74 66.48 65.59
48.67 43.00 43.24 46.78 46.74 44.98 47.59 48.01 49.93 51.97 53.86 57.54 60.03 63.98 64.43 61.64 63.33 64.25 65.14 65.41 67.45 67.70 68.47 68.50 66.94 65.65 65.60 68.72 67.03 67.17 69.10 68.32 68.29 68.37 66.72 66.03 65.32 65.43 66.29 65.24 66.79 68.53 68.60 68.40 68.14 67.84 67.40 65.15 60.69
48.47 43.53 47.61 50.15 52.38 52.12 48.65 48.45 50.88 49.91 47.55 52.98 58.65 60.97 63.68 62.90 62.39 62.48 63.37 65.36 66.73 67.40 67.70 67.84 66.37 65.37 63.98 65.98 65.38 65.94 66.43 66.90 67.08 67.41 66.00 65.26 65.06 64.34 64.82 63.84 64.48 64.12 64.57 64.09 65.76 64.69 64.08 61.84 61.13
45.27 48.30 49.16 50.90 51.53 51.44 49.15 50.31 48.13 49.60 49.31 56.07 61.57 63.29 63.50 62.26 61.33 62.08 63.25 65.32 65.75 65.88 67.28 67.41 66.98 65.60 63.00 64.02 64.41 64.69 65.70 65.14 65.18 66.24 65.98 64.35 63.39 63.67 62.92 62.49 62.71 62.47 63.16 61.87 62.06 62.12 62.03 62.15 61.70
45.10 47.74 49.79 51.13 51.30 50.70 51.16 48.02 47.01 48.79 51.69 57.14 62.38 63.33 62.92 62.53 63.42 62.56 63.67 64.09 62.70 60.52 62.77 67.75 67.11 66.25 64.27 62.98 62.87 62.42 63.55 64.30 64.50 64.15 64.34 62.68 62.95 63.09 62.48 62.14 62.06 61.69 61.92 61.77 61.44 61.84 61.86 61.35 61.53
46.38 47.79 48.48 50.36 50.15 49.84 47.89 48.96 48.09 48.72 51.79 58.46 59.99 60.78 62.07 62.77 63.60 63.00 61.64 62.75 60.21 59.74 63.83 67.82 67.01 67.05 65.85 65.01 64.08 61.85 62.07 62.90 62.47 62.84 63.31 61.33 61.78 60.48 59.65 59.05 60.71 60.93 59.60 60.96 58.87 61.22 60.45 59.06 59.03
46.48 43.99 46.70 46.58 47.86 48.53 49.03 46.42 46.42 48.42 50.10 55.54 56.16 56.98 60.94 61.41 63.00 63.16 63.85 63.70 64.72 64.71 66.58 67.82 67.61 67.41 66.82 66.31 65.68 66.57 64.63 64.19 63.12 63.32 63.34 62.94 62.26 60.85 60.28 59.21 58.04 57.19 57.29 57.32 58.51 59.61 59.98 59.98 60.59
42.21 43.65 38.93 45.10 48.13 49.18 46.36 41.12 47.08 49.27 47.02 48.16 50.79 52.38 56.21 58.97 61.20 61.67 62.87 64.07 65.24 66.23 66.95 67.68 69.09 67.96 67.06 67.10 66.41 66.86 66.62 65.82 65.54 65.04 64.24 64.00 64.03 62.96 61.03 60.72 61.25 60.07 57.82 58.60 59.02 60.05 59.94 60.07 60.20
39.55 34.75 37.29 40.88 46.65 47.14 43.61 39.24 47.50 49.31 47.42 46.13 47.17 48.36 50.25 52.00 54.94 59.53 63.02 64.08 65.11 65.56 65.82 66.76 67.72 67.70 67.71 67.47 67.76 66.73 67.29 66.06 66.40 66.14 64.57 64.40 64.49 64.58 63.27 62.17 62.37 62.88 61.90 60.10 60.80 61.03 61.06 60.74 61.30
33.48 34.14 37.11 38.30 43.84 44.91 43.30 42.92 46.20 47.82 47.69 45.81 46.04 46.57 47.82 50.30 51.70 56.94 61.04 62.69 64.45 64.74 65.79 66.67 67.21 67.23 67.70 67.92 67.02 66.99 66.68 65.58 66.18 66.05 65.62 66.28 65.46 65.41 64.53 63.94 63.64 63.30 62.49 62.35 62.27 62.04 62.00 62.93 62.64
37.47 36.68 35.94 39.58 44.21 41.93 41.18 42.21 44.48 47.15 46.48 45.14 44.89 46.01 46.54 48.72 51.39 52.41 54.91 56.91 61.47 62.87 63.90 64.83 66.25 66.76 66.75 65.69 64.53 64.61 64.44 65.25 66.19 67.18 67.30 66.50 66.39 66.08 64.43 65.25 64.88 64.97 64.19 64.15 64.19 64.12 63.52 62.31 62.88
38.40 36.24 36.75 40.97 44.33 41.94 40.72 40.58 43.73 46.06 46.14 45.27 45.51 44.67 46.49 47.17 47.91 50.77 51.11 51.51 57.21 61.11 62.55 63.51 64.95 65.30 65.67 65.78 65.01 64.85 63.83 64.33 65.00 65.68 64.98 65.65 66.46 65.94 64.83 64.26 64.08 64.75 64.63 64.54 64.37 64.00 62.88 62.73 62.83
37.36 36.41 36.24 37.44 41.80 43.18 41.10 38.21 40.77 44.28 45.59 46.12 46.73 46.98 46.82 47.91 48.02 49.35 49.04 49.84 49.84 54.98 60.64 63.28 63.97 64.98 64.97 65.24 64.56 63.12 63.62 63.48 62.89 62.10 60.96 61.40 62.20 62.02 61.63 61.57 61.89 61.60 62.14 61.25 60.36 61.21 61.20 59.39 58.96
34.68 40.01 39.71 39.39 37.47 34.02 42.03 30.36 37.29 41.24 43.03 43.64 44.16 44.90 46.74 47.36 48.50 49.36 49.01 48.81 49.21 49.99 56.70 61.89 63.76 64.21 64.55 64.72 63.46 62.20 62.21 61.75 62.43 62.96 58.34 57.90 58.42 57.29 56.20 55.92 55.52 56.29 55.97 55.15 55.69 56.43 56.92 56.96 55.84
37.44 41.60 39.43 40.09 36.95 36.00 36.59 30.29 34.26 38.25 38.67 41.10 43.82 44.57 45.34 46.86 47.83 48.88 50.05 50.19 49.87 49.87 50.59 57.97 60.93 61.91 61.86 62.61 62.98 61.91 60.57 59.67 56.91 56.27 55.20 54.68 54.48 53.79 53.91 53.78 53.62 53.36 53.83 53.62 53.89 54.03 54.00 54.54 54.10
42.99 39.11 38.15 38.94 36.78 29.91 33.83 29.79 30.33 33.35 39.31 39.71 43.16 44.42 45.05 45.75 46.18 47.01 48.62 51.07 49.46 47.75 49.26 53.15 56.00 57.03 59.10 59.01 61.22 60.74 58.72 54.42 54.65 54.95 54.48 54.08 54.42 52.20 51.67 51.76 51.11 51.00 50.74 50.11 50.24 50.69 51.06 52.25 52.51
40.36 33.68 26.27 27.46 26.97 24.88 32.72 31.46 32.53 36.98 39.52 42.11 42.34 43.28 43.97 44.88 45.38 46.04 46.91 47.57 47.89 48.17 48.75 50.51 52.12 51.80 53.28 55.61 55.82 57.99 55.03 54.19 53.91 52.54 52.73 52.77 51.43 50.20 49.19 49.19 48.54 48.06 48.35 48.69 48.79 48.69 48.93 49.91 51.12
37.10 33.44 26.30 21.86 23.55 24.25 32.31 28.75 32.79 37.25 39.36 40.71 41.66 42.43 41.96 40.60 42.48 44.68 47.01 46.48 47.80 49.15 49.48 49.68 49.86 50.01 50.94 50.85 51.18 52.34 52.62 51.97 52.65 52.04 51.11 50.89 50.48 49.19 48.39 47.81 47.51 46.90 46.81 46.71 46.83 46.96 47.66 49.06 49.81
36.32 30.64 34.26 28.09 26.45 22.57 27.77 31.39 35.64 38.30 38.22 39.29 39.62 39.81 38.99 39.60 41.43 42.50 44.60 46.18 47.14 48.35 50.01 50.41 49.57 49.66 50.42 50.29 50.52 50.49 50.64 50.69 50.20 49.66 49.09 48.07 47.19 46.98 46.36 46.24 45.84 45.24 45.22 45.10 45.27 45.36 46.39 47.45 48.31
36.52 38.45 27.24 25.17 20.21 20.40 23.61 24.87 27.91 31.78 33.35 36.89 37.95 38.49 39.30 40.23 41.14 42.20 43.60 45.64 46.02 47.53 48.23 48.64 48.90 49.34 49.57 49.60 49.17 48.75 48.78 49.08 48.49 47.70 46.29 46.00 44.86 45.09 44.98 44.68 44.62 44.43 43.88 43.20 43.12 43.77 45.27 45.59 46.33
34.34 32.29 32.56 30.12 26.24 20.94 20.36 24.87 32.61 34.60 35.72 37.01 37.90 38.89 40.02 41.06 41.29 41.95 42.28 43.17 46.15 47.12 47.60 47.52 47.56 47.86 47.58 47.52 47.08 47.25 47.09 46.58 45.97 45.63 45.07 44.65 44.06 44.02 44.02 43.62 42.78 42.29 41.89 41.42 41.30 42.13 42.81 43.49 44.59
36.12 33.71 32.05 23.84 23.30 22.54 21.86 25.40 35.36 36.15 37.68 38.78 38.75 39.94 41.15 41.80 43.16 42.45 42.74 43.93 44.94 45.62 46.31 46.50 46.32 46.46 45.92 45.39 45.22 44.89 44.96 44.22 42.95 43.30 43.70 44.12 43.45 42.88 42.27 41.54 41.14 40.63 40.68 40.29 40.00 40.56 41.31 41.70 41.36

GFSSGP_sfc_wetblb_087.txt.gz
Wetbulb
64.94 62.97 59.81 55.92 44.42 41.92 35.91 41.80 47.56 49.16 52.37 54.58 54.87 56.75 56.43 56.86 53.27 47.92 67.07 69.37 70.90 71.44 72.59 73.08 74.48 74.31 73.89 73.01 72.67 72.53 72.79 72.27 71.79 72.71 73.38 73.61 73.72 73.68 72.90 71.92 71.47 71.06 70.58 70.89 71.21 71.19 71.14 70.97 70.99
62.16 61.32 58.21 50.57 39.07 36.23 39.29 42.48 44.85 49.60 54.65 56.58 56.58 59.29 58.23 56.12 63.04 65.78 67.53 70.60 71.49 71.81 72.35 72.39 74.06 73.66 73.38 72.64 72.26 71.97 71.83 70.97 70.69 71.71 72.75 72.70 73.05 72.71 71.82 70.89 70.59 70.46 70.41 70.80 70.99 71.03 71.17 71.17 71.18
61.90 60.47 52.72 46.61 40.15 36.82 40.33 45.32 46.35 50.62 55.53 55.24 55.29 61.42 60.99 60.69 64.78 65.67 68.92 71.46 71.32 71.48 72.42 72.52 73.70 73.53 73.38 72.47 72.39 71.74 72.22 70.51 69.84 70.72 71.74 71.90 71.77 71.51 70.60 70.55 69.85 69.80 69.90 70.25 70.45 70.56 70.66 70.86 70.33
58.10 56.18 53.61 42.09 38.28 41.38 41.59 47.15 48.46 52.18 53.57 56.61 56.70 55.23 62.53 66.22 65.10 67.14 71.22 71.29 70.56 70.82 71.56 72.90 73.27 73.43 73.41 73.06 72.88 72.60 72.38 71.09 69.52 69.68 70.16 70.97 70.78 70.17 70.22 69.74 69.64 69.57 70.04 70.04 70.34 70.35 70.32 70.67 69.93
57.14 52.65 44.76 42.05 39.96 41.22 45.29 47.83 49.37 50.51 52.06 54.12 56.40 54.38 59.56 65.16 68.00 69.78 70.21 70.53 70.21 71.33 71.83 72.02 73.37 73.10 72.39 72.30 72.40 73.04 72.70 71.48 69.77 69.49 69.89 70.12 70.47 70.11 69.88 69.78 69.38 69.55 69.80 69.78 69.82 70.02 70.28 69.93 69.36
49.99 50.39 41.87 38.36 39.99 43.24 45.84 47.96 49.01 49.58 52.92 54.60 55.02 56.59 59.72 65.68 67.48 68.61 69.39 69.91 70.90 70.85 71.45 71.66 72.04 72.38 72.37 71.97 71.85 72.37 73.16 72.19 70.31 69.28 69.77 69.89 70.36 69.57 69.38 69.47 69.24 69.38 69.58 69.71 69.59 69.69 69.46 68.76 68.22
48.08 45.53 41.60 40.21 39.62 41.33 46.03 48.26 47.12 48.49 50.78 53.51 58.63 54.49 60.45 63.51 65.90 68.74 69.32 70.16 70.66 70.93 70.91 70.94 70.94 71.26 71.41 71.42 71.47 71.80 72.35 72.68 71.61 70.27 69.78 69.95 69.82 69.85 69.46 69.38 69.22 69.29 69.29 69.21 69.17 68.91 68.33 67.45 66.57
48.46 48.03 40.79 40.57 39.21 40.54 46.62 49.89 50.56 49.31 49.54 58.31 59.69 54.84 56.53 61.61 66.79 67.50 69.36 69.95 70.05 69.66 70.15 70.41 69.58 70.32 69.57 69.58 70.57 70.70 71.14 71.53 71.43 70.33 69.28 68.41 68.05 68.42 69.35 69.06 69.42 69.11 68.88 68.55 68.12 67.76 66.92 66.09 65.57
51.44 42.94 39.66 40.44 40.55 42.14 47.60 48.52 50.88 54.58 53.79 56.56 59.16 58.88 61.82 64.04 65.66 66.15 66.89 67.88 68.87 69.34 69.53 68.80 67.85 67.91 67.58 68.00 69.19 69.89 70.21 70.18 70.18 69.01 67.37 66.49 65.36 66.28 66.64 66.59 67.93 68.85 68.60 68.07 67.76 67.09 66.34 66.31 64.54
45.83 40.66 40.45 45.34 44.67 43.88 47.33 47.93 49.80 52.85 55.50 56.22 60.58 62.13 62.83 64.66 64.06 64.99 64.90 65.93 66.65 66.97 68.68 68.36 66.69 65.84 66.23 68.84 67.35 67.25 68.43 68.24 69.51 67.09 65.80 65.34 64.69 64.49 65.60 65.18 66.92 68.49 68.44 68.29 67.61 67.20 67.07 64.79 60.00
44.09 40.90 44.50 47.93 50.91 51.15 48.60 47.06 49.86 50.68 49.34 55.29 57.63 60.39 61.48 62.79 62.71 64.52 64.49 65.62 65.70 67.04 68.12 67.24 65.55 64.78 64.98 66.62 65.66 66.36 66.72 66.71 67.32 66.15 65.41 64.62 64.59 63.51 63.69 62.97 63.86 63.53 64.47 63.42 64.81 63.56 62.97 60.83 60.20
40.67 45.22 45.86 49.99 51.05 50.17 48.24 49.67 46.90 48.67 49.04 54.61 61.04 61.56 60.77 60.27 61.35 62.39 62.71 64.33 65.06 62.79 62.03 64.28 65.09 64.37 63.02 65.69 65.20 65.64 65.86 65.46 66.04 66.46 65.48 63.70 62.95 62.56 62.74 62.10 62.06 61.74 62.11 61.03 60.99 61.20 61.00 61.02 61.05
41.92 43.45 47.30 51.01 50.66 49.44 50.51 47.64 46.82 47.94 51.31 61.29 62.69 61.80 59.88 60.42 60.67 62.01 62.60 62.23 63.16 61.95 62.43 63.10 62.61 65.31 63.10 64.43 64.35 64.74 64.95 65.07 65.33 66.01 65.63 64.25 62.90 62.49 62.39 61.69 61.29 61.01 60.92 61.03 60.41 60.89 61.20 60.80 60.76
43.48 46.12 45.46 50.30 49.51 49.18 47.55 47.63 47.40 47.90 51.67 58.68 60.85 61.16 61.61 61.19 61.66 62.27 63.25 62.64 61.87 59.34 60.32 63.00 62.13 65.83 63.92 63.31 63.15 64.10 63.52 64.56 64.37 64.48 65.54 63.94 63.07 62.77 62.39 61.57 61.21 60.73 60.75 61.06 60.62 59.46 60.84 60.37 58.26
44.07 42.38 43.96 47.99 47.54 48.12 48.66 46.13 44.13 47.56 49.77 55.78 57.32 58.83 60.40 60.68 62.56 61.86 63.00 60.69 60.95 61.34 61.66 62.08 62.07 66.15 65.30 63.45 63.02 62.97 64.21 64.17 63.36 63.81 63.78 63.00 61.96 62.04 61.80 59.56 58.32 60.15 59.47 57.88 57.10 57.93 59.00 58.96 59.65
40.63 41.15 34.91 45.40 46.95 47.49 46.35 41.81 46.55 48.41 46.49 50.19 52.77 54.96 58.05 60.68 62.48 62.61 62.07 60.76 60.07 61.03 59.94 60.86 63.81 67.79 67.34 66.48 64.86 64.18 62.98 63.01 63.46 62.76 63.16 63.04 62.02 61.16 59.98 59.30 58.57 58.38 56.79 56.83 57.03 58.31 58.69 58.96 59.47
37.20 33.90 35.16 39.97 45.90 45.54 43.69 41.78 46.22 48.34 46.61 45.92 45.47 49.55 51.72 54.59 58.70 61.39 62.58 62.43 61.75 60.35 61.67 61.75 64.46 67.06 67.22 67.46 67.09 66.66 65.93 64.51 63.82 64.30 64.23 63.31 63.41 62.66 61.30 60.73 60.80 61.59 58.88 58.18 59.20 59.68 60.08 60.08 60.49
31.82 34.26 36.05 35.72 43.26 43.34 40.12 40.84 45.37 47.98 46.22 45.21 45.68 45.49 47.17 49.84 51.75 56.78 61.47 63.74 64.67 64.67 65.16 65.77 67.08 67.39 67.09 67.38 67.46 67.02 66.34 65.54 65.82 65.24 65.25 64.54 64.23 64.24 63.24 62.38 62.25 62.60 62.19 61.82 61.21 60.82 61.63 61.75 62.29
37.18 35.80 35.90 39.64 44.28 41.64 39.65 40.40 42.30 46.24 45.88 43.47 45.10 45.50 46.22 48.89 50.41 52.23 59.31 60.75 62.42 63.54 64.65 65.73 65.51 66.25 66.16 65.81 65.40 65.29 65.18 65.40 64.40 64.75 65.74 65.36 65.36 64.54 64.24 63.66 63.32 63.12 62.59 62.44 63.38 63.25 62.92 62.81 62.45
37.24 35.68 35.56 40.04 43.14 41.46 40.47 39.13 42.54 45.26 46.31 44.37 44.47 45.74 46.05 46.73 47.86 50.58 50.69 52.79 58.80 60.92 63.17 63.94 64.88 65.19 65.90 66.20 65.75 65.79 65.72 65.45 65.18 65.61 65.57 66.02 65.61 65.32 64.70 64.00 63.39 63.37 63.50 64.46 63.99 63.01 62.57 61.67 61.00
36.15 35.09 35.85 37.11 41.21 42.27 40.66 37.54 39.93 44.13 46.43 45.61 45.89 46.01 46.72 46.82 48.07 48.38 49.39 49.87 49.68 55.57 60.76 62.68 64.20 64.94 65.89 66.11 64.45 63.24 63.44 63.40 62.84 63.20 63.16 63.25 63.94 64.27 63.88 63.61 63.05 62.45 62.24 62.30 60.80 59.41 59.20 57.74 57.53
33.75 39.08 39.38 38.97 36.67 33.95 41.00 30.90 37.03 40.98 42.53 44.45 44.11 43.96 45.59 46.56 46.85 48.48 49.47 49.30 49.02 49.80 55.91 61.95 63.71 64.46 64.94 64.64 63.65 62.77 62.05 61.13 62.02 61.43 59.84 60.17 59.78 60.14 60.41 59.57 59.32 57.79 56.97 56.12 55.64 55.91 56.44 56.86 55.64
37.35 41.05 39.21 39.52 37.09 36.25 36.58 32.02 33.67 39.42 39.83 42.60 41.79 42.89 44.64 46.89 47.79 48.19 48.81 50.16 50.76 49.99 48.81 56.79 61.30 62.67 62.92 64.26 64.09 63.28 61.02 60.77 60.08 58.51 56.81 56.28 57.69 57.54 57.88 57.14 55.80 55.55 54.84 53.72 53.30 52.58 52.31 53.07 53.22
41.87 39.21 39.43 38.77 36.81 28.61 34.42 32.35 30.33 33.38 38.39 41.16 41.33 42.66 44.59 45.43 46.57 47.55 47.97 49.40 49.53 49.12 48.52 51.33 56.81 59.37 60.59 61.72 62.22 62.05 60.81 58.00 56.83 55.61 55.51 54.97 54.84 55.19 55.31 54.77 53.59 51.86 51.45 50.91 50.67 50.50 50.10 50.69 51.11
39.77 33.44 27.54 26.37 26.88 26.08 33.34 31.61 32.55 36.68 38.15 40.50 40.95 41.85 43.66 43.67 44.43 45.92 46.09 46.05 47.45 47.82 48.57 50.19 54.02 55.00 57.61 57.28 59.62 60.24 59.68 57.66 58.12 57.31 56.09 53.57 52.63 51.62 50.90 49.82 49.28 48.57 48.75 48.37 48.33 48.18 47.87 48.34 49.00
37.48 32.04 27.16 22.81 23.85 22.98 32.84 28.73 32.26 35.31 38.09 39.06 40.68 41.30 41.38 40.83 41.32 43.50 45.86 46.56 47.23 47.50 46.95 48.95 51.33 51.97 51.80 53.39 54.33 56.15 55.14 56.01 55.51 55.68 55.10 53.48 52.66 51.08 49.10 47.91 47.46 46.99 47.07 46.77 46.60 46.42 46.29 47.44 48.05
35.85 27.33 32.87 26.85 25.29 22.98 27.71 31.21 35.02 36.05 36.35 37.54 38.32 39.20 38.27 38.98 40.50 41.36 43.80 45.17 45.97 47.12 47.25 48.09 49.19 50.15 50.34 50.31 49.49 50.01 51.67 50.81 54.18 52.79 51.84 50.75 49.27 48.02 45.80 45.86 45.82 45.68 45.64 45.57 45.42 44.99 45.02 46.40 46.52
37.62 37.06 28.83 26.96 20.36 19.59 22.33 24.58 27.06 31.47 33.53 36.51 37.17 37.89 38.95 39.43 40.58 41.38 41.90 44.60 44.89 45.68 47.31 48.13 48.45 48.85 48.88 49.17 49.15 48.86 49.21 48.88 48.62 48.36 46.99 46.72 45.73 45.76 45.03 44.61 44.76 44.76 44.39 43.94 42.74 42.65 43.79 44.20 44.89
33.85 33.24 31.87 30.03 25.49 20.15 19.35 24.08 31.38 33.30 34.80 35.97 36.62 37.37 39.07 40.30 40.64 41.11 41.59 42.61 45.14 45.89 46.66 47.14 47.52 48.04 47.96 47.72 47.07 46.55 46.10 46.17 45.95 46.04 45.50 45.18 45.00 44.89 44.67 44.40 43.57 42.84 41.56 41.26 41.00 41.44 42.09 42.19 42.76
34.57 32.11 31.13 23.67 23.14 21.61 20.82 24.67 33.71 33.35 36.64 37.55 37.87 38.59 40.21 41.17 41.93 41.59 41.79 42.47 43.57 44.31 45.03 45.65 45.98 46.66 46.81 46.21 45.77 45.05 44.12 43.60 43.21 43.57 43.59 43.62 43.11 43.95 43.27 42.49 41.76 40.97 40.70 40.16 39.90 39.94 40.30 40.31 40.76

GFSSGP_sfc_wetblb_090.txt.gz
Wetbulb
63.37 61.72 59.63 56.35 44.32 40.19 35.63 41.60 45.63 48.11 50.32 55.31 54.73 55.08 55.05 54.84 51.43 46.26 66.33 69.42 70.39 70.98 72.17 72.76 74.30 74.09 73.29 72.06 72.23 72.09 72.11 72.34 73.42 74.11 74.36 74.35 73.93 73.55 73.01 72.28 71.37 70.80 71.13 71.33 71.33 71.43 70.99 70.94 70.82
61.02 60.40 57.61 51.56 41.09 34.12 36.93 41.42 45.31 49.93 54.32 56.36 55.98 57.22 57.10 55.36 61.62 65.53 67.22 70.44 70.99 71.30 71.85 72.23 74.03 73.54 72.86 72.27 72.14 72.07 71.63 71.68 72.88 73.48 73.62 73.69 73.66 72.78 72.00 71.16 70.81 70.75 71.32 71.23 71.25 70.98 71.23 71.24 70.73
61.03 60.35 51.12 47.18 42.29 36.04 36.27 41.92 46.61 51.48 54.67 55.33 54.43 60.39 59.42 59.22 64.67 66.02 69.78 71.06 71.11 70.90 71.55 72.31 73.66 73.36 72.95 72.56 72.09 71.68 70.87 70.93 72.01 72.70 73.12 73.30 73.46 71.95 71.08 70.88 70.29 70.67 70.84 70.64 70.86 71.16 71.11 70.41 70.61
56.75 55.30 52.58 43.78 39.91 41.48 39.24 44.27 49.09 51.58 54.06 55.95 55.77 53.46 62.65 64.17 65.29 68.16 70.78 70.69 70.46 70.48 70.86 72.69 73.03 73.21 73.02 72.47 71.95 71.04 70.08 70.01 70.83 71.33 72.24 72.12 71.60 70.67 70.22 70.12 69.76 70.07 70.41 70.42 70.92 70.87 70.76 70.13 70.77
55.08 50.71 42.57 41.81 41.05 41.84 42.75 45.83 48.78 49.98 52.28 54.14 55.51 53.42 59.11 65.34 67.57 70.06 70.21 70.29 69.53 70.83 71.09 71.48 73.23 72.92 72.90 72.59 72.56 72.44 70.47 69.39 69.65 70.18 70.75 70.77 70.43 70.34 70.13 69.51 69.48 69.82 70.20 70.50 70.54 70.63 70.35 69.67 69.51
47.22 48.95 40.05 38.01 41.31 43.89 43.64 46.50 47.07 49.41 52.21 54.61 53.93 54.30 58.90 65.39 68.09 69.40 70.23 69.30 69.94 70.57 70.63 70.88 71.67 72.45 72.68 72.12 72.59 72.84 71.06 69.49 69.37 69.77 70.41 69.82 70.10 69.87 69.09 69.14 69.43 69.72 69.91 70.06 70.27 70.33 69.66 68.91 68.70
45.09 43.20 39.62 40.07 41.12 41.82 43.92 46.40 44.84 47.33 50.64 52.84 56.47 52.91 59.25 63.86 66.59 68.58 69.57 69.44 69.33 70.12 69.85 70.01 70.04 70.65 71.05 71.48 71.66 72.00 72.21 70.69 70.05 70.26 70.40 70.40 69.11 68.84 69.01 68.90 69.28 69.42 69.64 69.53 69.51 69.24 68.55 67.53 66.95
46.79 45.70 39.52 41.30 40.30 40.60 45.14 47.91 48.02 48.01 49.57 56.57 58.65 53.82 54.27 63.21 65.47 68.12 68.75 69.31 69.51 68.91 69.56 69.60 68.81 68.65 68.45 68.43 70.39 70.59 71.00 70.60 69.84 69.60 68.99 68.24 68.06 67.65 68.33 68.89 69.32 69.22 68.88 68.66 68.29 67.82 67.05 66.31 65.70
48.90 40.40 36.67 39.48 41.33 42.12 45.69 46.81 50.41 52.89 54.55 56.36 57.69 58.43 60.62 63.89 63.07 61.50 66.40 67.70 66.91 67.41 68.89 69.17 68.44 67.53 67.54 67.61 68.28 69.64 70.26 70.09 69.17 68.11 67.00 66.13 64.90 65.61 65.91 66.46 67.95 68.89 68.51 67.99 67.54 66.93 66.08 65.18 63.67
43.34 38.10 38.14 44.22 44.33 41.84 46.04 47.97 49.14 52.74 54.43 56.05 59.04 61.18 62.80 62.12 60.16 59.40 62.83 65.04 66.38 66.87 67.60 68.16 67.39 66.56 66.56 68.96 67.23 66.61 68.24 69.50 68.93 66.08 64.63 64.01 63.82 64.21 65.23 64.88 66.76 68.28 68.12 67.95 67.07 66.65 66.55 63.61 59.46
41.52 38.26 42.44 45.83 47.16 48.42 47.77 47.67 50.60 50.81 51.50 55.58 56.87 58.84 60.13 60.53 58.64 58.75 59.09 62.09 65.41 67.37 65.64 64.24 64.80 65.34 66.03 66.69 66.20 65.76 66.19 67.03 68.21 65.41 64.41 63.83 63.71 63.00 62.64 62.34 63.44 62.92 64.08 62.79 63.85 62.42 61.89 59.84 59.42
37.88 42.48 44.15 46.54 48.14 49.31 48.13 50.10 46.79 49.48 49.90 54.21 60.46 60.34 59.76 57.99 58.46 58.19 56.95 61.34 65.02 63.26 62.60 63.18 62.58 64.46 63.49 65.57 65.31 65.49 65.65 65.58 67.53 65.25 64.48 63.09 62.29 61.81 61.98 61.46 61.39 60.97 61.36 60.10 60.04 60.40 60.00 59.93 60.09
39.32 41.09 44.87 46.81 47.32 48.17 49.97 47.74 46.56 46.14 49.53 60.03 61.14 60.02 60.12 58.79 58.78 59.66 59.75 64.15 64.64 62.70 62.48 63.13 63.46 62.66 64.52 63.12 64.26 65.52 65.07 65.18 66.00 66.21 65.37 63.82 62.73 61.99 62.30 61.82 61.07 60.65 60.32 60.26 59.51 59.82 60.23 60.03 60.12
40.96 42.41 43.24 46.24 45.94 48.26 47.52 47.36 47.71 47.36 49.73 60.55 59.76 59.01 60.30 60.71 61.31 61.87 61.91 63.30 63.38 62.09 61.02 62.58 63.48 63.07 63.59 62.55 63.61 64.47 65.03 65.04 65.04 66.11 65.54 64.40 63.41 62.95 62.50 61.87 61.18 60.57 60.16 60.32 60.17 59.38 59.37 60.20 58.75
41.63 39.44 42.92 41.89 44.44 47.55 47.97 44.61 44.18 48.12 49.77 55.85 58.79 58.42 59.33 60.13 61.95 61.45 61.38 61.03 59.85 60.47 60.09 61.14 62.97 63.98 63.60 63.82 62.81 63.51 64.90 64.73 64.12 64.52 65.36 64.88 63.73 63.15 63.08 62.40 61.35 61.10 60.85 60.30 58.72 57.92 58.41 58.66 59.26
37.86 39.57 35.31 41.60 41.01 43.99 45.94 41.16 45.37 48.01 48.03 49.09 53.69 56.96 59.10 60.32 60.64 61.85 61.96 60.72 58.89 59.82 59.81 60.83 63.39 63.63 65.21 64.67 64.76 64.67 63.37 63.89 64.10 63.88 63.65 64.39 63.29 62.65 61.92 61.22 59.56 58.52 58.50 57.51 55.70 56.68 57.79 58.27 58.67
36.11 31.99 34.97 37.09 42.83 44.93 43.70 42.40 45.69 47.85 47.02 46.17 46.90 49.95 55.33 58.60 60.05 60.90 61.75 60.74 60.70 60.79 60.25 60.67 62.05 63.57 65.61 66.61 66.34 65.28 65.69 64.23 63.53 63.44 62.83 63.22 62.73 61.68 61.46 60.16 59.45 59.10 57.10 56.81 57.26 57.69 59.09 59.34 60.07
30.44 32.52 35.36 35.73 41.93 41.78 40.47 40.20 44.42 46.11 45.68 44.85 45.34 46.32 48.24 53.73 57.76 60.80 61.53 61.03 60.68 60.62 60.59 60.45 61.60 63.46 65.43 66.31 65.89 66.54 66.50 65.80 65.23 64.10 63.76 63.99 63.16 62.31 61.19 60.25 60.31 61.27 60.19 59.21 58.77 58.94 60.45 61.15 61.59
35.72 34.87 33.83 37.23 41.79 40.49 38.80 39.72 42.37 44.98 44.39 44.24 44.43 45.72 46.46 49.62 51.69 57.12 61.00 61.88 60.81 59.98 60.33 60.49 60.61 63.81 64.15 64.60 64.40 65.31 64.74 65.75 65.31 65.33 65.27 64.38 63.79 63.64 62.24 62.07 61.61 62.06 62.01 61.57 61.34 61.68 60.75 62.29 61.11
36.72 35.03 35.67 39.60 41.31 39.92 39.40 38.73 42.18 44.34 44.81 45.83 45.53 45.32 45.99 46.93 48.87 51.14 58.15 59.00 62.78 61.53 61.27 61.38 61.72 64.32 65.74 65.04 64.00 64.62 64.98 65.51 65.45 65.80 64.99 65.52 64.97 64.45 64.03 63.55 62.62 62.40 61.77 62.15 63.72 63.42 60.48 59.24 59.29
35.47 33.91 34.38 35.24 39.78 41.80 39.18 36.20 39.48 43.54 45.69 46.49 45.50 46.23 46.39 47.12 47.05 48.94 49.60 53.46 56.28 60.72 63.05 63.51 63.46 64.66 64.95 65.19 65.20 63.02 62.92 62.93 63.24 64.31 64.68 65.28 65.32 65.29 64.04 63.56 62.96 62.53 62.39 61.99 60.67 59.79 59.22 57.14 56.33
33.49 39.20 38.98 38.27 35.32 31.65 39.61 29.82 34.63 40.35 42.10 44.60 43.39 43.52 44.90 46.26 46.99 48.14 49.04 48.77 48.67 51.95 59.13 62.21 63.03 63.81 64.53 64.85 63.97 62.51 62.03 61.86 63.34 63.78 62.62 61.39 61.49 61.03 62.10 62.82 62.32 60.43 59.35 59.35 58.61 57.43 56.42 56.12 54.65
36.77 40.01 38.99 38.62 36.56 35.67 35.13 32.05 33.95 38.24 38.34 41.85 41.66 42.67 44.17 45.99 47.08 48.06 49.00 50.11 50.40 49.39 48.96 54.97 60.18 61.35 62.28 63.03 63.63 63.26 62.72 61.41 60.79 60.39 59.72 58.49 59.01 59.54 59.38 59.08 58.61 57.55 57.19 56.34 56.32 54.16 53.00 52.98 52.33
41.42 38.94 38.85 38.13 36.70 25.61 34.10 31.15 30.61 34.29 38.43 40.50 43.28 43.03 43.83 45.27 46.66 47.86 48.91 49.34 49.77 48.89 48.48 47.81 52.75 58.48 60.77 61.18 61.89 61.75 61.11 59.86 59.54 58.21 57.99 57.58 57.11 56.05 56.41 55.99 55.29 54.32 52.60 51.69 50.97 50.89 50.88 51.26 50.72
40.43 35.07 28.42 26.91 26.78 25.02 32.80 30.11 31.60 37.05 38.46 40.91 41.12 40.86 42.35 43.39 44.74 45.90 46.44 47.02 48.00 48.79 48.94 47.97 50.03 52.81 57.42 58.71 59.89 60.51 59.67 59.04 58.94 57.68 57.50 56.39 54.70 53.03 50.91 50.68 50.45 49.45 48.74 48.55 48.64 47.88 47.26 47.90 47.74
37.00 32.99 28.21 21.59 21.15 24.87 32.93 29.00 31.67 35.81 37.98 39.24 40.85 38.95 40.75 41.57 42.09 43.99 44.70 45.69 46.31 47.25 47.60 47.59 49.04 51.13 53.43 55.37 55.68 56.87 56.67 57.18 57.49 57.54 56.75 55.60 54.34 52.93 50.36 49.02 48.33 47.92 47.38 46.92 46.75 46.50 46.01 46.41 47.02
35.58 29.47 33.67 27.07 26.81 23.52 28.10 30.66 33.78 36.20 36.69 37.77 38.21 37.77 38.17 38.77 39.48 40.80 43.42 43.67 45.14 46.17 46.85 47.20 48.17 50.63 51.09 50.61 50.58 51.09 52.45 52.92 53.68 54.33 54.32 54.13 52.37 50.75 48.69 47.35 46.11 45.76 45.69 45.74 45.40 44.94 44.87 45.93 46.38
35.84 36.26 28.38 27.80 22.44 19.57 22.20 22.89 26.48 31.71 33.80 36.05 37.31 38.16 38.17 39.05 39.66 40.06 40.72 43.18 44.68 45.78 46.73 47.31 47.80 48.64 49.07 49.12 48.80 48.24 48.40 49.63 51.04 50.49 50.30 49.81 48.29 47.30 46.82 45.42 44.86 44.61 44.42 44.21 43.68 42.93 43.46 43.56 43.78
32.71 31.58 30.47 29.44 25.75 20.70 19.69 23.82 30.85 32.24 33.38 34.56 35.97 38.13 39.57 40.23 39.54 39.89 40.56 41.69 43.70 45.48 46.08 46.47 47.09 47.46 47.62 48.13 47.53 47.00 46.52 46.41 46.48 45.82 44.96 44.40 44.54 44.81 44.76 44.57 43.93 43.61 42.65 41.65 41.40 41.06 41.38 41.50 42.21
33.37 30.35 29.14 23.45 23.31 20.93 20.58 24.64 33.01 31.97 35.33 36.70 37.42 38.98 39.73 40.65 40.86 40.80 40.95 41.28 41.87 43.08 44.39 45.07 45.50 46.08 46.34 46.06 45.80 45.45 44.73 44.51 44.05 43.67 43.53 44.11 43.52 43.52 43.49 42.98 42.22 41.62 41.18 40.91 40.90 40.65 40.75 40.67 40.72

GFSSGP_sfc_wetblb_093.txt.gz
Wetbulb
63.19 62.48 62.01 58.83 48.62 45.74 42.28 44.63 49.08 51.12 52.53 55.86 56.64 58.47 56.66 58.26 53.56 50.44 67.77 69.60 71.25 72.00 72.96 72.92 73.84 74.24 73.35 73.01 72.81 72.46 72.79 73.71 74.25 74.37 74.79 74.30 74.13 73.68 72.88 71.70 71.18 70.78 71.20 71.51 71.82 71.40 70.94 71.01 70.72
62.35 61.17 59.43 52.99 44.13 38.31 40.37 46.36 46.56 51.63 55.09 56.16 56.61 57.38 58.58 57.80 63.56 65.47 66.93 70.27 71.84 72.36 72.62 72.46 73.57 73.96 72.98 72.38 72.33 72.12 72.29 73.09 73.89 74.20 74.42 74.59 73.81 73.25 72.26 71.13 71.16 71.82 71.65 71.86 70.95 70.90 71.12 70.93 70.92
60.47 60.47 53.47 48.54 43.82 38.43 40.01 44.85 47.80 52.33 56.38 55.41 54.40 57.59 59.33 59.79 64.95 66.43 70.06 71.00 71.81 72.06 72.72 72.60 73.43 73.43 73.14 72.21 72.22 71.81 71.76 72.54 73.18 73.51 73.66 73.52 73.79 72.25 71.09 70.78 71.75 70.78 70.74 71.20 71.30 71.37 70.76 70.73 70.27
58.13 56.37 53.06 43.99 40.55 44.51 44.52 46.54 48.34 52.11 55.05 56.22 55.76 53.13 60.53 65.26 65.96 68.68 70.78 71.51 71.24 71.78 72.49 72.83 73.08 73.30 73.27 72.98 72.27 71.17 71.24 71.88 72.58 72.61 72.84 73.29 72.46 71.33 70.47 70.50 71.11 71.17 71.28 71.04 71.23 70.79 70.65 71.74 70.42
56.97 51.94 43.95 40.99 41.25 44.95 47.51 48.90 49.02 51.35 53.74 54.56 55.44 52.78 55.06 65.54 68.79 70.21 70.67 71.09 70.37 71.20 72.14 72.54 72.82 73.15 72.59 72.44 71.84 70.70 70.45 71.04 71.40 72.17 72.25 71.84 70.71 70.29 69.94 69.63 70.27 70.38 70.66 70.93 71.02 70.51 70.13 70.04 70.05
49.11 50.04 40.55 37.70 40.92 45.36 48.19 49.09 49.68 49.80 54.32 55.32 54.16 53.55 54.66 65.65 67.54 69.41 70.61 70.38 70.57 70.70 71.60 71.66 71.52 72.49 72.24 72.10 72.24 71.03 69.65 69.95 70.65 71.41 71.14 70.25 70.37 69.91 68.79 69.21 69.46 69.75 70.35 70.76 70.55 70.20 69.54 69.28 68.93
45.67 43.59 38.57 39.58 40.47 43.17 46.58 50.53 47.53 48.67 52.71 54.24 57.52 52.96 57.98 63.84 66.84 69.14 70.09 70.27 69.85 70.88 71.06 71.09 71.42 71.45 71.41 71.68 71.55 71.18 70.28 70.16 70.29 70.37 69.78 69.96 70.06 68.35 68.60 68.76 69.09 69.62 70.12 70.46 70.31 69.60 68.53 67.76 67.40
47.88 44.11 38.39 40.11 39.17 40.71 48.20 48.99 50.07 48.53 50.12 58.17 58.97 53.20 54.81 63.09 65.45 66.80 69.54 69.31 70.00 70.31 70.31 69.98 70.57 70.65 70.46 70.84 70.69 70.71 69.89 69.76 69.68 68.57 69.16 67.86 67.33 67.07 67.77 68.68 69.15 69.27 69.62 69.46 69.10 68.29 67.40 66.55 66.01
49.79 38.55 34.86 37.77 40.06 43.06 48.38 47.29 51.48 53.24 52.10 57.27 58.15 57.90 61.31 62.13 62.93 64.56 65.94 67.66 67.59 68.12 69.57 69.35 69.01 69.20 69.51 69.66 69.79 70.15 69.48 68.80 68.44 68.01 66.79 66.96 67.35 67.40 67.58 67.22 68.03 69.10 68.82 68.28 67.84 67.24 66.07 64.69 64.16
42.46 36.88 36.68 42.67 44.43 44.48 47.37 47.80 49.14 50.04 51.97 55.11 57.71 61.98 62.13 61.32 60.73 59.68 58.97 63.98 65.49 66.21 67.67 68.48 68.85 68.61 68.79 68.66 69.74 70.42 70.21 69.06 68.18 67.91 67.84 67.74 68.02 68.16 67.54 66.42 66.96 68.35 68.02 67.78 67.25 66.69 65.75 64.13 64.76
41.04 35.78 40.97 42.65 45.32 48.31 48.07 47.41 50.00 48.92 48.15 54.55 55.87 59.82 61.09 60.10 59.25 59.17 58.62 59.38 63.53 66.54 65.27 66.99 67.09 68.28 68.68 68.48 68.56 69.13 70.46 70.04 68.30 67.13 66.89 67.05 67.00 67.26 67.07 67.58 67.51 67.72 65.63 66.99 66.97 66.62 66.19 64.23 64.83
36.56 40.68 41.79 44.13 46.49 47.42 46.58 49.52 48.60 49.17 50.21 53.68 59.88 60.62 59.91 58.75 59.06 59.84 59.32 59.48 61.00 63.28 63.68 65.08 66.36 65.83 66.75 68.01 67.98 67.97 68.63 69.60 67.83 67.10 66.63 66.23 65.68 65.84 65.34 65.61 66.01 65.85 66.25 65.12 65.33 65.57 65.24 64.83 64.83
37.35 38.91 42.41 44.58 45.00 47.01 48.68 46.19 46.86 48.97 52.77 52.45 59.31 60.36 59.28 58.74 59.34 60.35 61.08 60.07 62.17 62.68 63.36 63.95 64.32 64.94 65.32 66.30 67.30 67.60 67.75 68.84 68.81 67.35 67.36 66.70 65.73 64.97 65.39 65.08 65.13 65.18 65.22 65.04 64.38 64.53 65.21 65.30 65.13
40.32 40.48 41.25 43.90 44.82 46.51 45.40 45.87 46.79 49.45 51.38 51.95 58.64 58.90 59.49 58.36 58.80 59.40 59.07 59.51 62.44 63.34 63.07 64.09 64.23 64.49 65.10 64.93 66.18 66.98 67.39 67.86 68.80 68.27 67.81 66.74 66.10 65.40 65.04 65.55 64.92 64.71 64.72 64.58 64.63 64.48 64.94 65.03 65.01
39.63 35.06 40.61 41.86 44.34 44.38 46.35 40.68 40.90 48.96 49.74 51.78 57.37 58.11 57.78 58.52 59.28 58.53 58.87 60.18 63.54 62.77 62.61 63.01 63.68 64.58 65.00 65.56 64.48 65.76 67.13 67.34 66.97 68.20 68.46 67.19 66.25 65.77 65.81 65.70 65.43 64.97 64.99 64.39 64.30 63.81 62.72 63.45 63.42
36.90 37.94 33.63 41.05 43.29 41.97 42.59 36.24 44.65 48.56 48.79 51.60 54.20 57.90 58.65 59.73 59.18 59.58 60.27 62.68 64.18 62.95 61.52 61.80 62.65 64.36 65.24 65.79 64.92 65.24 65.45 66.77 66.53 66.36 66.90 68.05 66.77 66.16 65.88 65.69 65.81 65.74 64.49 64.16 63.02 61.14 61.50 62.32 63.08
36.41 30.90 33.48 37.21 42.33 41.91 38.70 36.32 44.22 47.49 47.51 46.97 48.31 51.52 57.78 60.05 61.63 61.64 62.49 61.22 61.51 61.63 60.63 61.25 62.91 64.03 65.38 66.06 66.10 66.10 65.86 65.50 65.87 66.29 65.40 66.20 67.21 66.55 65.83 65.30 65.29 64.17 62.02 62.09 61.47 60.89 62.18 63.01 64.15
30.09 31.77 34.41 35.16 40.11 40.34 36.95 34.61 38.12 46.45 46.30 46.68 46.83 48.93 53.90 58.21 59.09 61.24 61.19 60.96 60.50 61.05 61.04 61.32 62.12 63.16 64.98 67.02 66.58 67.06 66.77 66.57 66.13 65.36 64.94 65.24 65.99 65.93 65.12 64.69 64.41 63.17 61.44 60.72 60.85 61.41 62.40 63.31 64.31
35.72 34.69 33.78 38.50 41.74 39.10 37.87 35.55 39.94 45.49 45.66 46.33 47.32 48.38 50.40 54.22 56.73 60.10 61.11 61.44 60.67 60.83 60.56 60.52 61.53 62.74 64.69 64.84 64.14 64.41 63.95 65.73 66.30 67.02 66.02 65.23 65.26 65.37 64.90 64.11 63.24 63.13 62.98 62.62 62.33 63.46 63.46 64.10 65.24
36.63 35.14 35.13 38.36 40.66 38.30 36.92 35.34 40.44 44.51 45.03 46.30 47.00 47.23 48.48 49.99 52.10 56.14 60.43 60.73 60.05 60.00 60.82 60.50 60.95 62.01 64.58 64.43 64.58 63.86 65.00 65.84 67.06 67.28 66.45 66.23 65.06 65.28 64.80 64.21 63.66 63.67 63.78 64.34 64.54 64.11 64.26 63.98 63.80
35.91 34.61 34.94 34.90 39.40 39.34 37.35 33.95 39.10 43.84 45.87 47.21 47.94 47.87 47.83 48.75 49.75 52.13 56.86 59.73 61.50 59.86 60.34 60.72 61.02 61.71 64.19 64.93 64.63 64.38 64.88 63.86 64.19 65.61 65.36 65.61 65.25 64.84 65.17 64.39 64.33 64.46 64.23 63.54 63.25 62.80 62.95 62.62 61.62
33.32 39.02 38.28 36.75 35.70 31.58 38.96 28.52 36.05 41.06 42.35 45.32 47.10 46.81 46.85 47.91 49.08 50.04 51.33 54.29 57.65 61.66 62.25 61.62 61.82 62.02 63.38 65.17 64.08 63.11 61.28 61.49 62.68 63.20 63.30 62.57 63.45 63.56 64.04 63.90 63.61 62.26 61.22 60.94 59.30 59.11 59.72 60.97 60.45
36.33 40.38 38.94 38.19 36.86 35.61 34.70 31.81 34.95 39.48 39.10 42.27 46.19 47.02 47.34 47.38 48.94 49.69 50.49 51.83 52.58 54.87 59.21 62.26 63.19 63.09 63.69 63.93 63.98 62.93 62.48 62.72 62.03 61.93 60.62 59.90 60.57 60.92 61.98 62.55 61.37 59.77 58.38 57.28 57.37 56.02 55.78 56.84 57.15
41.88 38.73 37.79 37.71 35.70 28.64 33.72 32.18 32.32 35.98 39.06 41.64 45.67 46.58 48.05 47.94 48.83 49.81 50.95 51.59 51.85 52.65 52.60 52.54 59.15 61.47 62.73 63.51 63.48 63.13 62.74 62.18 61.55 61.71 60.37 58.70 57.54 58.08 57.64 58.40 59.25 58.15 56.18 55.17 54.02 53.66 54.20 54.41 54.54
38.99 35.25 28.32 26.31 24.77 25.32 33.23 31.60 33.71 37.46 37.89 40.18 44.90 44.75 45.99 46.94 47.18 48.52 49.57 50.16 50.90 51.67 51.65 51.01 51.35 52.72 58.25 61.97 62.09 62.30 62.37 62.41 61.42 61.04 60.74 57.52 55.78 55.10 54.42 54.13 54.13 53.02 52.91 52.43 52.00 51.68 51.50 51.49 51.97
36.21 34.02 27.71 21.12 22.46 27.32 34.16 29.68 33.28 37.19 38.70 40.61 40.97 40.90 43.42 44.51 45.26 45.59 46.47 47.74 48.22 49.03 49.68 49.87 50.30 51.55 55.89 58.83 59.96 60.86 60.37 60.38 60.15 60.11 59.48 59.14 57.35 55.65 54.21 52.70 51.20 51.07 50.46 50.19 50.11 49.70 49.75 50.43 51.15
36.01 30.33 33.82 27.25 27.77 27.74 28.57 32.26 36.17 38.15 38.50 39.53 39.45 40.38 39.97 41.00 42.04 43.08 45.28 46.26 47.07 48.76 49.36 50.01 49.98 51.92 53.69 55.66 56.19 56.54 56.64 57.33 57.31 57.75 57.80 57.01 56.30 54.51 51.83 50.12 49.26 49.09 49.25 48.91 48.46 47.86 47.83 48.75 49.22
37.28 36.98 28.88 28.26 21.04 20.18 25.44 26.72 27.99 32.67 35.63 37.98 39.03 38.96 40.02 41.03 42.09 42.96 43.71 45.22 47.03 48.01 48.91 49.59 49.99 50.68 51.25 51.28 51.71 51.63 53.26 54.19 55.07 55.19 54.31 53.01 51.26 50.48 49.11 48.13 47.39 46.92 46.69 46.58 46.85 46.76 47.02 47.33 47.67
33.56 31.96 31.17 30.31 26.78 23.72 22.63 26.27 33.61 33.72 36.22 37.26 38.46 39.86 40.64 41.39 41.92 42.53 43.35 44.07 45.39 47.06 48.15 48.70 49.01 49.56 49.82 50.37 50.27 50.02 49.86 50.79 51.54 51.91 51.08 49.51 49.06 48.14 47.10 46.29 46.02 45.23 44.09 44.24 44.56 44.56 45.19 45.39 45.67
35.47 32.22 29.79 26.37 25.56 22.80 23.92 26.86 34.27 33.61 36.68 38.64 39.13 40.36 41.55 42.20 42.42 42.43 42.46 43.05 43.92 44.89 46.27 47.01 47.79 48.49 48.79 48.82 49.17 48.58 48.12 48.04 48.06 47.88 47.77 48.01 47.40 47.31 46.66 46.03 44.90 44.17 43.70 43.78 43.73 43.42 43.64 44.00 43.74

GFSSGP_sfc_wetblb_096.txt.gz
Wetbulb
64.51 65.37 66.27 61.64 49.81 49.23 45.49 47.44 53.32 52.45 54.49 59.66 58.78 57.08 58.31 60.84 56.92 56.08 69.88 70.66 71.46 72.42 73.14 73.47 73.51 73.71 73.59 73.46 73.31 73.34 73.42 74.28 74.22 74.59 74.99 74.37 73.67 73.29 72.27 71.41 71.24 71.83 71.77 72.16 72.55 72.14 70.72 70.70 70.28
64.41 63.21 62.58 57.52 46.37 42.17 43.92 50.49 49.76 53.07 56.50 59.90 59.07 58.11 56.72 58.26 65.27 66.13 68.05 70.11 71.49 72.43 72.90 72.99 73.83 73.76 73.54 72.99 72.95 73.11 73.32 74.55 73.93 74.37 74.41 73.95 73.58 72.85 71.92 71.29 71.35 72.38 72.79 71.93 71.02 70.69 71.08 70.99 70.39
61.17 62.48 55.55 49.81 46.38 42.91 43.71 49.77 51.36 54.25 56.87 58.44 57.79 58.10 56.69 59.21 65.64 67.52 70.82 71.48 71.91 72.44 73.23 72.82 73.68 73.55 73.37 72.65 72.56 72.66 73.22 74.15 74.04 73.77 73.32 73.39 73.28 72.44 71.50 72.13 72.41 71.43 72.21 71.65 71.61 71.11 70.77 70.47 69.12
59.53 58.67 55.72 46.40 42.17 46.63 48.15 50.52 52.38 52.86 55.79 58.57 58.61 54.16 58.62 64.32 65.78 69.58 71.46 71.89 72.34 72.49 72.86 72.75 73.34 73.40 73.00 73.10 72.70 72.41 73.03 73.75 73.46 73.31 73.21 73.25 72.88 71.43 71.18 71.98 71.42 71.33 72.01 71.87 71.02 70.98 70.92 70.16 69.08
58.86 54.65 44.80 42.46 42.88 46.77 50.48 52.47 52.89 51.37 53.72 56.69 57.95 54.62 55.91 64.59 67.42 70.45 70.93 71.87 71.04 71.85 72.36 72.97 73.09 73.45 73.36 72.91 72.35 72.24 72.59 72.70 72.84 72.76 72.59 72.60 71.93 71.01 70.78 71.03 71.09 71.43 71.50 71.29 70.63 70.75 70.86 70.21 69.33
50.12 50.56 40.85 38.80 41.83 46.42 50.06 53.15 52.92 52.24 53.25 55.17 56.51 56.00 57.77 63.38 63.64 68.73 71.03 71.24 71.89 71.39 71.95 72.55 71.73 72.63 72.81 71.99 71.63 71.86 72.04 72.25 72.22 72.55 72.35 71.57 71.12 70.33 70.12 70.42 70.60 71.04 71.41 71.07 70.37 70.15 69.78 69.61 69.40
46.93 44.88 40.10 40.82 41.19 43.53 47.75 53.19 51.96 51.88 52.50 53.44 58.71 54.65 58.08 60.38 62.26 67.93 69.16 71.05 71.45 71.76 71.45 71.65 71.96 71.54 71.25 71.17 70.62 70.88 71.30 71.42 71.74 71.58 71.20 71.01 70.30 68.74 70.07 70.20 70.49 70.71 70.96 70.97 70.35 69.48 68.92 68.53 68.25
48.70 45.44 40.25 41.08 40.06 41.12 47.90 50.78 53.31 52.93 52.03 56.94 60.26 54.66 55.83 60.75 63.12 66.87 64.70 69.64 70.65 70.84 71.00 70.82 70.90 70.05 69.80 71.44 69.99 69.61 69.99 70.16 70.41 70.11 69.23 68.00 67.39 67.93 69.38 69.21 70.06 70.69 70.62 70.36 69.82 68.68 67.54 66.80 66.36
50.40 40.14 36.92 39.17 40.40 42.69 48.19 47.77 52.96 55.56 53.70 54.65 57.87 59.78 61.61 63.88 65.08 63.27 61.51 61.95 68.63 69.52 70.28 71.09 70.17 69.87 69.52 70.57 70.15 69.12 69.00 68.67 68.19 67.97 66.63 66.92 68.15 68.18 68.12 67.60 68.16 69.69 69.81 69.24 68.53 67.69 66.36 65.33 65.12
43.23 37.73 37.83 43.19 44.57 44.07 47.12 48.36 49.93 50.86 52.00 52.59 54.98 61.68 63.74 64.56 63.12 60.73 58.79 59.14 59.31 67.11 68.29 69.45 69.79 69.19 70.29 69.83 70.71 69.57 68.07 68.56 68.57 69.19 67.55 68.16 68.11 68.14 68.06 67.09 67.56 68.99 68.75 68.46 67.58 66.63 65.44 63.88 65.40
41.74 37.23 41.51 43.06 45.25 46.66 46.57 47.87 51.31 50.16 48.65 52.82 53.24 57.29 61.52 62.61 60.94 58.88 58.94 59.14 59.80 65.95 66.48 67.73 68.08 68.50 68.85 69.60 70.72 70.48 69.21 67.62 67.20 68.52 68.83 68.44 68.04 67.95 67.96 68.27 67.90 67.80 65.64 66.81 66.81 66.49 65.72 65.18 66.40
37.68 40.81 41.86 42.92 45.04 45.50 43.71 48.62 48.06 50.12 50.95 55.07 56.52 57.23 61.61 60.94 60.55 59.28 57.58 58.55 59.74 60.68 65.96 67.67 67.76 67.22 67.44 69.78 70.16 70.44 69.94 69.07 68.13 66.76 66.63 66.86 66.39 66.31 66.45 66.50 66.81 66.69 66.34 65.90 65.73 65.38 65.16 65.01 66.04
38.73 40.01 41.49 43.17 43.39 44.43 47.08 45.98 47.71 49.38 53.79 55.15 56.24 56.97 58.12 60.66 58.34 58.94 59.20 59.41 60.58 60.51 64.77 67.23 68.19 67.98 68.12 67.32 68.25 69.87 70.26 69.34 68.87 68.91 67.27 66.33 65.44 65.18 65.63 65.69 65.98 65.99 66.52 66.10 65.63 66.34 66.33 66.08 66.37
41.18 40.80 40.99 42.31 42.53 44.45 43.42 45.47 47.31 49.92 53.38 53.52 54.53 55.07 56.60 59.94 59.47 57.99 58.76 58.65 59.95 61.33 63.61 65.27 67.79 67.92 68.06 67.50 67.46 67.30 69.56 70.29 69.53 68.69 68.58 68.29 67.58 66.55 66.44 66.68 66.71 66.67 66.79 66.51 66.49 66.68 66.83 66.89 67.04
41.70 37.50 39.86 41.33 42.14 42.54 45.71 42.12 44.03 49.81 51.84 50.69 52.86 54.39 56.45 58.97 59.28 58.71 58.56 59.00 60.33 61.92 63.67 63.87 65.50 67.23 67.38 67.26 67.23 67.54 67.13 68.33 69.49 69.44 69.94 69.08 68.19 67.72 66.55 67.15 67.10 67.17 66.90 66.64 66.75 66.48 66.47 65.95 66.50
34.20 37.26 32.36 39.87 41.93 43.59 44.04 37.66 45.12 49.71 48.91 49.28 52.37 54.16 56.39 57.91 59.61 60.31 60.07 60.91 61.67 63.55 63.00 63.66 64.78 65.42 67.87 67.76 67.21 67.49 67.92 67.14 67.57 69.49 70.15 69.96 68.72 68.10 67.44 67.43 68.00 67.87 67.19 66.85 66.05 65.31 64.23 65.07 65.98
34.86 31.96 32.82 37.05 43.30 43.00 42.63 39.37 45.39 45.87 45.57 45.65 51.62 54.02 56.22 56.76 59.27 60.71 61.67 61.63 63.96 63.34 62.97 62.18 62.98 63.47 65.85 67.90 67.26 67.25 67.96 68.63 68.43 68.01 68.11 68.94 69.38 68.37 67.34 67.42 68.24 67.92 67.00 66.28 65.74 64.54 64.05 64.74 65.99
31.24 33.15 35.47 35.51 40.66 42.11 40.31 40.30 43.19 44.43 44.74 44.84 51.23 53.28 55.56 56.22 58.53 60.51 60.92 63.29 63.16 62.93 62.83 62.64 62.81 63.55 65.28 67.31 67.85 67.35 67.00 67.38 68.41 68.50 67.95 67.56 68.52 68.97 67.77 67.44 67.75 67.77 66.53 64.74 64.73 63.86 64.83 66.06 66.60
32.66 35.04 34.39 38.17 42.53 40.64 40.04 39.68 40.66 43.47 44.68 42.34 50.92 53.03 55.71 56.17 59.49 61.19 62.53 62.74 62.45 62.21 61.69 62.03 62.45 63.89 65.75 66.92 65.84 66.31 66.18 67.03 67.18 66.95 67.23 67.86 67.41 67.89 67.42 67.00 67.27 67.09 65.68 65.09 65.14 64.80 65.01 65.08 66.48
35.13 35.15 35.34 38.72 41.04 40.22 38.66 38.26 42.15 43.68 43.28 42.41 49.86 51.20 54.56 55.21 55.11 56.13 60.20 59.94 60.67 60.49 60.50 61.27 61.91 62.67 64.76 65.41 65.64 65.97 66.25 67.23 67.81 68.23 68.23 68.07 67.29 66.99 66.43 66.25 66.26 65.91 65.71 65.67 65.52 65.81 65.24 65.46 66.40
37.31 35.61 35.79 35.30 39.20 40.38 38.93 36.27 37.04 40.79 42.81 44.26 49.49 49.85 52.81 54.60 53.68 54.47 56.53 59.60 59.54 59.40 60.57 61.60 61.68 62.68 62.92 65.17 65.61 66.05 66.51 66.84 66.03 66.54 67.68 68.18 67.42 66.94 66.33 65.77 65.20 65.75 66.41 65.53 65.03 64.14 63.76 63.58 64.88
34.26 40.19 39.50 36.75 36.32 33.17 40.11 29.40 35.50 38.07 43.59 48.15 48.85 49.23 50.06 52.63 54.38 54.51 55.41 59.75 60.17 60.17 61.48 62.01 61.87 62.12 63.15 65.45 64.86 63.91 63.75 62.78 64.16 64.99 64.74 63.50 65.51 65.41 64.66 65.08 64.08 63.59 63.51 63.19 62.50 62.27 62.53 63.90 61.99
36.88 42.03 39.60 38.29 36.84 37.37 36.03 33.21 35.21 40.56 42.53 45.77 48.58 49.29 49.76 50.83 52.36 52.65 54.02 58.04 60.46 61.00 61.38 62.00 62.63 62.60 63.21 64.07 63.92 64.18 62.00 62.09 63.38 63.28 61.85 61.22 61.26 62.57 63.44 63.82 62.58 61.10 60.25 59.86 59.21 58.83 58.63 59.00 58.07
43.17 40.47 39.96 40.27 38.04 31.66 34.42 33.84 33.07 35.52 38.16 42.99 46.94 48.74 50.19 49.52 50.46 51.47 52.82 53.77 54.80 56.42 58.43 62.80 63.02 63.00 63.40 63.34 63.52 62.64 61.97 62.60 62.31 62.47 61.87 61.15 60.51 60.09 60.58 61.12 61.31 60.52 59.49 58.58 58.47 58.67 56.27 55.05 56.42
40.07 37.88 30.60 29.14 30.30 27.90 35.27 33.91 33.50 38.19 40.76 41.85 45.06 47.96 50.19 50.76 49.78 50.47 51.88 52.47 53.04 53.40 54.02 53.93 56.23 61.28 63.24 63.69 64.27 64.03 63.63 62.93 62.56 62.75 62.60 61.34 58.80 58.55 59.43 60.03 60.38 59.86 58.30 57.48 56.93 55.70 55.13 55.06 54.49
36.23 36.32 31.67 24.50 26.90 29.42 36.34 30.99 33.02 41.62 43.08 44.20 46.03 45.03 48.21 49.65 50.06 48.28 49.35 50.67 51.74 51.97 52.56 53.26 54.11 54.26 56.53 61.20 63.35 63.25 63.68 64.07 63.77 63.82 63.33 61.69 60.00 60.54 59.47 59.17 58.86 56.76 56.33 55.97 55.74 54.70 54.05 53.48 53.63
36.91 34.07 37.25 33.06 35.26 32.06 33.33 35.94 41.54 41.41 41.49 41.35 41.32 43.91 44.64 45.62 46.56 47.35 49.26 50.53 52.03 53.06 53.24 53.61 53.54 54.70 56.32 59.02 61.04 61.83 63.19 62.77 62.48 62.44 62.69 61.21 60.61 59.96 58.63 57.86 55.69 52.94 52.34 52.67 53.30 52.62 52.20 52.61 53.00
39.21 39.95 33.76 35.39 27.43 25.05 30.01 32.81 33.56 38.25 40.50 42.36 42.57 43.01 43.80 45.20 46.20 47.41 48.75 49.70 51.16 52.24 53.39 53.89 54.24 54.40 55.50 56.18 57.60 57.93 59.47 60.29 60.71 61.07 60.31 59.49 58.93 57.46 56.00 54.05 53.27 51.75 51.66 51.30 50.83 50.73 50.89 50.69 51.13
37.34 36.48 35.52 35.71 32.99 30.13 27.83 30.80 38.53 38.70 40.88 41.74 42.95 44.67 45.34 45.88 46.25 47.67 48.62 49.68 50.74 51.73 52.67 53.29 53.32 53.35 53.80 54.80 55.21 55.09 55.34 56.44 57.46 58.71 58.80 56.97 55.25 53.41 52.22 51.12 50.48 49.71 48.61 48.75 48.69 48.55 48.40 48.41 48.72
39.19 36.71 36.08 34.31 29.54 30.11 33.79 31.63 40.11 40.32 42.29 43.84 43.13 44.59 45.79 46.21 46.09 46.64 47.41 48.34 48.89 49.94 51.02 52.02 52.34 52.29 52.78 53.19 54.23 53.87 53.36 53.75 55.04 55.60 55.78 54.92 54.18 52.16 50.38 49.43 48.56 47.76 47.04 47.08 47.10 46.62 46.90 46.84 46.54

GFSSGP_sfc_wetblb_099.txt.gz
Wetbulb
65.01 66.03 65.08 62.05 50.66 49.50 45.33 47.66 52.03 51.80 53.10 58.71 60.88 59.26 58.66 60.17 58.30 56.02 69.84 70.75 71.94 72.55 73.28 73.42 74.01 73.80 73.54 73.42 73.88 74.01 74.09 74.92 74.87 74.81 74.83 74.06 73.83 73.25 72.36 72.67 73.37 72.60 72.47 72.92 71.42 70.79 70.45 69.99 69.68
63.78 62.69 62.05 56.43 46.48 42.06 43.74 49.57 49.63 52.17 55.72 58.63 60.05 59.77 59.17 58.66 65.19 66.83 68.35 70.82 71.36 72.49 73.25 72.34 73.47 73.59 73.65 73.38 73.51 73.61 74.13 74.11 74.36 74.61 74.70 74.30 73.40 72.67 71.79 72.12 72.61 72.91 73.10 72.58 71.23 70.89 70.70 70.18 68.55
62.30 61.91 54.85 49.68 46.26 42.77 43.61 49.74 50.87 53.58 56.05 56.85 57.50 61.24 59.92 59.87 65.57 66.80 70.81 71.53 71.52 72.05 72.78 72.43 73.62 73.64 73.67 73.27 73.24 73.34 73.79 74.25 73.89 74.10 74.06 73.59 73.17 72.16 71.44 72.25 72.76 72.68 71.65 70.96 71.20 70.93 70.67 69.18 67.83
58.34 56.99 54.70 45.90 42.48 46.48 47.64 50.30 52.18 52.58 55.55 56.72 58.31 56.51 61.01 65.37 65.52 69.26 71.51 71.75 71.12 71.64 72.76 72.62 73.44 73.72 73.49 73.30 72.93 73.16 73.86 73.67 73.81 73.60 73.61 73.09 73.16 72.36 72.31 71.88 71.91 71.22 72.03 71.56 70.92 70.72 69.91 68.62 68.09
57.46 53.65 45.06 42.16 42.84 47.23 49.82 51.44 52.32 51.75 53.19 54.11 56.40 55.19 57.63 63.59 66.94 68.86 71.19 71.31 71.02 71.16 71.54 72.71 73.19 73.41 73.22 72.84 72.71 73.38 73.91 73.82 73.57 73.08 72.85 73.18 72.84 71.85 72.07 71.36 71.26 71.61 71.85 70.85 71.04 70.94 70.31 69.32 68.58
50.17 49.94 41.25 39.22 42.13 46.25 48.67 50.63 51.41 51.62 53.14 53.45 54.02 55.82 57.94 64.06 65.58 68.79 71.60 71.20 71.39 71.08 71.85 72.18 71.85 72.57 72.86 72.55 72.54 72.79 73.55 73.28 72.94 72.78 72.87 72.86 72.08 71.36 70.28 70.37 71.20 71.60 71.38 70.63 70.78 70.73 70.36 69.54 68.65
46.62 45.17 40.08 40.71 41.33 43.70 46.71 50.75 49.43 51.06 51.71 52.19 55.22 53.20 58.20 61.89 66.20 69.24 69.68 70.22 70.34 71.04 71.48 71.42 71.87 71.50 71.44 71.46 71.80 72.10 72.61 72.34 72.21 72.27 72.21 71.29 70.52 70.69 70.98 70.99 71.23 71.96 71.50 70.61 70.21 69.79 69.42 69.13 68.85
48.30 45.12 40.23 41.89 40.58 41.24 47.32 48.48 50.54 50.99 50.73 56.07 56.34 51.05 54.72 61.26 66.06 67.12 65.63 65.87 65.39 64.54 71.04 70.85 71.34 70.94 70.80 70.09 70.26 70.48 70.92 71.00 71.05 70.86 69.60 68.53 67.86 69.09 70.14 69.80 70.57 71.15 71.53 70.89 69.72 68.92 68.27 67.69 67.23
49.66 40.09 37.92 39.30 40.41 42.58 47.57 46.31 49.77 52.60 51.66 53.41 55.09 55.60 58.67 63.59 65.31 63.70 61.63 61.31 62.75 62.71 63.29 70.09 70.37 69.97 68.83 67.74 68.68 69.32 69.36 69.22 69.00 68.16 66.70 66.50 67.54 68.37 68.18 67.93 68.74 70.23 70.72 70.20 69.13 67.98 66.92 66.44 65.85
43.04 38.33 38.65 43.43 44.18 43.59 46.12 46.55 47.74 48.09 49.29 50.96 53.03 56.90 58.87 64.11 63.51 60.67 59.52 58.42 59.17 59.93 61.08 61.52 69.36 68.01 67.93 67.18 67.67 67.16 68.29 68.57 68.93 68.59 67.31 67.07 67.14 68.07 68.29 66.94 67.90 69.35 69.26 69.04 68.25 67.00 65.70 64.34 64.62
42.69 38.01 41.81 42.81 44.37 45.43 44.79 45.83 48.46 47.22 46.19 50.54 50.77 54.04 59.03 63.05 62.18 61.03 60.58 60.29 59.67 60.81 61.69 60.70 67.70 67.96 68.01 68.51 67.88 66.56 66.35 66.69 67.40 67.53 67.71 67.43 66.82 67.37 68.16 67.68 67.65 67.88 66.05 66.84 66.59 65.70 64.50 64.47 64.97
37.82 41.77 42.33 42.98 44.03 43.70 43.40 46.29 45.75 47.42 48.53 52.88 53.35 55.34 57.52 58.91 60.15 60.77 59.55 60.16 61.03 61.03 60.94 62.45 67.52 68.26 68.17 69.45 68.77 66.71 65.75 66.48 67.17 67.79 67.20 67.01 67.11 66.71 66.76 66.40 66.48 66.38 65.56 65.55 65.55 65.31 65.07 64.72 65.12
39.22 40.76 42.29 43.55 43.19 43.29 44.40 42.92 44.57 45.91 50.42 53.43 54.40 55.12 56.02 58.03 60.30 60.84 61.47 61.79 61.29 60.42 61.14 61.06 65.85 66.60 68.68 69.08 69.62 68.30 66.62 66.01 65.88 67.19 67.22 66.86 66.14 65.47 66.06 65.74 65.87 65.99 65.59 65.24 64.54 64.51 64.24 63.82 65.07
42.29 42.12 42.27 43.23 42.80 42.87 40.99 41.76 43.71 46.08 50.51 51.41 53.88 54.77 55.08 56.67 58.45 60.45 60.82 60.35 61.28 61.23 60.92 61.60 66.32 65.94 66.66 67.24 68.08 69.26 67.98 67.22 67.13 66.06 65.65 65.43 65.37 65.26 65.21 65.02 65.17 65.40 65.90 65.80 65.41 65.09 65.52 65.65 65.91
42.47 38.20 40.79 41.26 42.30 40.96 42.72 38.40 39.52 46.39 49.14 49.75 52.10 53.97 55.48 56.77 59.32 58.50 60.33 60.07 60.22 60.84 61.24 61.40 63.58 67.19 66.41 66.27 67.22 68.63 69.10 68.51 67.21 68.01 67.25 66.73 66.61 66.00 66.01 66.07 66.46 66.36 66.17 65.38 65.53 65.51 66.03 65.57 65.99
37.66 38.07 32.27 39.89 40.86 42.53 41.21 33.43 42.08 46.75 47.32 48.81 50.94 53.00 54.24 55.85 58.09 59.43 59.93 60.21 60.99 61.04 61.08 63.32 64.85 64.98 66.94 66.74 66.49 66.29 67.60 69.31 69.15 68.44 68.56 67.98 67.39 67.31 66.58 67.49 67.04 66.88 66.55 65.88 65.04 65.01 64.30 64.06 64.86
37.07 31.11 32.24 34.60 42.59 41.35 39.71 35.71 43.57 47.75 48.24 48.05 49.86 52.03 53.69 54.87 57.03 59.32 60.35 60.36 60.80 62.05 61.96 63.10 64.51 64.36 64.73 66.97 66.91 66.89 66.50 66.93 68.23 69.24 69.40 68.91 68.20 67.85 67.90 67.81 67.92 67.41 66.68 65.92 65.58 64.66 63.56 63.07 64.65
31.82 32.81 35.26 35.77 40.24 40.39 38.51 38.22 44.30 47.15 47.26 47.24 49.00 52.31 52.21 53.76 56.57 59.03 59.84 61.26 61.98 62.63 62.94 63.46 63.36 63.19 63.20 66.28 67.16 66.87 67.31 67.48 67.40 67.29 67.78 68.89 68.80 68.41 68.06 67.76 67.52 67.54 66.67 65.29 65.23 64.28 63.82 64.42 64.37
36.76 34.31 32.90 37.56 39.26 38.97 38.69 38.98 42.19 45.88 46.35 46.33 47.68 50.52 51.53 53.44 57.39 59.27 59.85 61.52 62.14 63.60 62.44 61.85 60.73 62.21 63.50 65.35 65.50 65.26 64.73 66.24 67.15 67.68 67.47 67.07 68.02 68.47 67.99 67.89 67.41 67.35 66.50 65.61 64.91 64.48 63.90 64.73 65.84
36.64 34.49 34.40 39.14 41.31 39.49 39.48 39.57 43.33 44.90 44.85 45.81 45.04 46.61 52.65 54.40 54.64 55.56 58.89 60.96 61.36 61.66 61.27 61.23 60.94 62.21 63.21 64.50 65.44 65.41 66.35 67.25 66.84 67.66 67.74 68.10 67.65 68.05 67.86 67.39 67.04 66.79 66.20 65.72 65.14 64.89 64.84 65.85 65.14
35.91 34.78 36.06 35.85 39.27 41.38 38.78 37.70 40.18 43.83 44.92 46.04 46.54 47.58 53.48 54.68 53.80 54.03 56.53 59.59 60.21 59.90 61.11 60.69 61.32 62.35 63.51 63.97 64.48 65.54 66.25 66.15 65.61 66.65 67.06 67.65 67.94 67.99 67.68 67.04 66.75 66.45 66.15 64.32 65.80 65.91 64.76 63.41 64.75
33.98 40.63 38.58 35.50 35.80 32.38 40.49 30.31 35.42 38.85 42.51 44.91 45.12 47.17 53.63 53.68 53.28 53.78 55.46 58.32 58.72 59.15 60.95 61.36 61.52 61.82 62.33 63.41 62.77 63.14 63.11 62.18 64.30 65.88 66.19 65.89 66.29 66.15 66.61 66.62 65.87 65.66 65.10 63.28 63.20 63.07 63.58 63.37 61.73
37.08 41.65 38.39 36.64 35.69 36.09 36.08 33.49 34.99 37.97 40.05 42.91 46.38 48.94 52.28 53.21 53.20 53.65 54.41 57.15 57.54 58.35 58.95 60.29 61.48 61.91 61.91 62.25 63.09 63.20 62.32 62.40 63.51 64.54 64.22 64.05 64.43 65.10 65.32 65.43 65.04 63.81 61.88 60.69 60.08 59.39 59.19 58.72 56.86
41.20 39.72 39.16 38.94 37.32 31.44 34.92 33.26 33.52 35.28 35.83 44.16 46.77 47.37 49.83 52.39 53.31 54.36 55.30 56.55 58.24 59.62 60.15 60.69 60.87 61.34 62.44 63.02 62.62 62.48 60.71 60.94 60.73 62.13 62.54 62.42 61.88 62.99 63.25 63.87 63.14 62.04 60.84 59.83 59.57 59.57 59.27 58.30 57.64
40.38 35.83 30.46 29.18 29.45 28.60 35.51 33.77 32.60 37.27 38.75 45.05 46.42 47.14 48.90 50.73 50.93 50.93 51.80 52.86 54.91 56.31 56.34 57.84 59.29 61.69 62.41 63.35 62.79 62.42 61.65 60.79 60.55 60.99 61.17 61.76 60.70 59.74 60.86 61.51 61.06 60.69 60.50 60.54 60.39 59.53 58.49 56.69 56.05
37.93 36.68 31.96 24.44 27.15 29.88 36.66 30.09 33.38 41.48 44.14 45.77 44.89 47.33 48.66 48.26 48.57 48.97 50.14 52.87 52.67 52.98 53.93 54.29 53.61 54.89 57.91 60.64 62.86 64.10 64.20 61.86 61.29 61.51 62.09 62.67 61.55 60.16 61.57 61.48 61.64 61.27 60.81 59.86 59.35 58.09 57.06 56.44 56.06
37.86 35.12 39.12 34.65 36.58 31.59 32.98 34.65 39.26 42.26 40.93 42.06 42.02 43.41 44.62 46.20 47.16 47.92 49.78 51.10 51.74 52.82 53.64 54.49 54.72 55.20 56.25 58.18 60.58 62.42 63.08 63.15 63.49 63.35 63.89 64.03 62.45 61.18 60.66 60.91 60.58 59.78 58.68 58.18 57.08 55.62 54.25 53.55 53.85
39.82 41.60 33.86 36.16 28.32 25.53 30.86 31.98 32.50 37.72 38.40 40.99 41.66 42.02 44.32 46.34 47.82 48.59 49.57 50.62 52.13 53.21 54.01 54.27 54.64 55.23 56.29 57.62 59.35 60.15 61.40 62.12 62.79 62.83 61.81 60.69 60.61 59.93 59.28 58.63 56.78 54.80 53.78 53.86 53.32 52.27 52.31 51.95 52.29
38.30 36.79 37.61 37.18 33.98 30.56 28.00 30.15 39.40 40.65 41.94 41.55 43.09 44.75 45.34 46.16 47.39 48.17 48.86 50.29 51.62 52.55 53.34 53.41 53.77 54.00 54.47 55.33 55.92 56.35 56.65 57.81 58.80 60.10 61.03 59.63 59.45 57.37 55.98 54.61 53.92 53.01 51.97 51.40 50.17 49.90 50.02 49.76 50.05
40.49 37.75 38.27 34.91 31.92 35.57 34.19 30.97 42.51 43.65 44.22 44.51 44.11 45.48 46.12 46.79 46.87 47.14 47.83 48.47 48.75 49.60 51.01 51.74 52.64 52.60 53.20 54.10 54.54 54.35 54.23 54.78 56.28 57.19 58.46 58.48 56.66 55.20 53.44 51.89 51.29 51.16 50.66 49.57 48.39 47.42 47.61 47.80 47.88

GFSSGP_sfc_wetblb_102.txt.gz
Wetbulb
63.30 64.02 63.73 59.08 47.76 46.69 41.98 44.79 49.57 48.44 49.55 53.07 55.51 55.93 55.80 56.98 57.23 54.21 67.41 68.79 71.55 71.61 72.49 73.44 74.47 74.07 73.82 73.57 74.51 74.11 73.94 75.29 75.12 74.76 74.67 74.09 73.85 73.52 73.43 73.59 73.44 73.07 72.81 71.46 70.95 70.56 70.53 70.60 70.31
62.05 61.67 58.87 53.27 43.19 38.50 40.17 46.64 46.82 49.54 52.08 53.46 55.51 57.66 56.93 55.54 64.06 65.42 66.40 69.11 71.58 71.98 72.06 72.26 74.06 73.96 73.51 74.00 73.95 74.51 73.74 75.17 74.91 74.44 74.83 74.68 73.79 73.02 73.67 73.61 73.76 73.65 73.35 71.48 70.73 70.34 69.90 68.96 69.37
59.57 60.32 51.96 46.77 42.77 39.08 39.96 46.73 47.80 50.44 52.30 52.74 53.97 57.98 58.19 57.38 64.52 66.15 68.83 69.99 71.71 71.54 71.86 72.13 73.75 73.74 73.69 73.71 73.63 73.93 74.38 74.49 74.38 74.25 74.22 74.32 73.88 72.56 73.03 73.29 73.31 73.42 72.64 71.84 71.04 70.65 69.48 68.04 67.62
56.24 53.54 51.83 42.38 39.55 43.35 44.91 47.74 50.36 49.99 51.32 52.90 54.04 54.79 59.77 62.48 63.85 67.70 69.71 70.11 70.57 71.22 71.26 72.23 73.38 73.68 73.60 73.69 73.71 73.84 74.20 73.89 73.99 73.57 73.79 73.43 73.57 72.71 73.21 72.85 72.57 71.58 71.71 71.68 70.80 69.83 68.49 68.13 67.88
54.88 50.93 42.16 39.49 39.65 44.27 47.31 49.42 50.33 48.57 49.59 50.92 52.84 52.62 56.47 61.70 66.62 69.08 68.97 69.84 69.93 70.70 71.20 71.76 73.42 73.68 73.58 73.29 73.40 73.80 73.92 74.17 73.37 73.46 73.18 73.07 73.33 72.95 72.56 71.89 70.78 71.86 71.91 71.22 70.64 69.85 69.12 68.59 67.98
47.36 47.44 38.20 35.98 39.45 43.80 46.00 48.63 48.27 47.63 49.01 50.33 50.22 50.62 54.10 62.32 62.72 66.68 69.58 69.04 69.94 70.31 70.98 71.31 71.94 72.94 72.94 73.08 72.97 72.94 73.68 73.65 73.34 73.47 73.07 72.89 72.86 72.43 70.59 69.85 69.56 71.97 71.31 71.05 70.93 70.35 69.66 69.00 68.37
43.78 42.34 37.54 37.39 38.19 40.86 44.61 48.19 46.41 46.48 46.95 48.12 52.41 48.46 51.99 60.14 63.11 67.60 69.45 69.79 66.88 67.62 70.57 70.65 70.51 71.43 71.51 71.79 72.08 72.10 73.43 72.97 72.76 72.37 72.23 71.86 70.86 69.67 69.83 69.57 71.25 71.60 71.14 71.01 70.87 70.36 69.94 69.40 68.41
44.90 42.39 37.00 38.14 37.75 38.81 45.10 46.21 47.46 46.10 46.24 51.59 52.59 47.82 47.53 58.24 65.49 67.06 65.81 65.86 65.38 65.27 64.62 63.45 64.87 69.68 69.25 69.52 70.66 70.33 71.72 71.61 71.59 71.05 70.37 69.09 68.32 68.74 69.75 69.10 70.50 70.95 71.10 70.87 70.57 69.47 69.00 68.53 68.12
47.28 36.83 33.62 36.18 37.52 39.73 45.33 43.87 47.64 49.14 46.80 48.38 50.76 51.05 55.81 62.57 65.42 62.74 61.02 61.04 62.24 62.96 62.21 62.14 62.21 61.79 67.91 67.65 68.89 69.71 69.81 69.82 69.45 68.67 67.20 66.71 66.79 67.79 67.83 67.81 68.71 69.89 70.73 70.50 69.56 68.43 67.74 67.17 66.14
40.64 35.04 35.69 41.06 41.53 40.31 43.26 43.54 44.88 44.79 45.01 45.78 48.36 52.12 54.43 61.58 61.37 60.78 59.62 57.17 58.60 60.44 60.51 61.48 61.91 61.52 61.33 67.57 67.34 68.03 69.18 68.87 68.16 66.93 65.82 65.84 66.25 66.88 67.37 66.84 67.99 69.61 69.66 69.29 69.05 67.92 66.95 64.87 60.86
40.64 34.91 39.74 41.06 42.46 43.40 42.15 41.98 44.70 42.91 42.03 45.31 45.76 48.82 52.00 57.73 60.19 59.39 58.26 58.49 58.40 60.31 60.47 60.79 61.19 61.77 61.45 61.23 65.79 66.93 67.65 67.36 67.54 66.17 65.79 64.93 65.65 65.19 66.22 66.67 67.28 66.96 65.58 65.74 65.92 64.67 62.54 59.91 59.83
35.33 39.87 41.08 41.76 43.25 42.25 40.16 42.60 40.98 42.77 43.53 48.08 49.24 51.55 52.50 54.83 57.78 59.33 59.01 59.44 59.17 59.76 60.17 61.01 61.39 61.26 61.29 61.91 64.30 63.81 65.49 66.75 66.37 65.74 64.80 64.03 64.38 64.97 65.08 64.76 64.52 64.18 64.02 63.03 62.85 62.37 61.44 60.86 60.93
37.34 39.16 41.40 42.21 42.06 41.90 42.76 39.84 40.04 41.32 45.90 48.18 49.55 50.80 53.22 54.18 55.68 58.20 60.41 60.53 60.23 59.15 60.04 61.54 63.21 63.52 64.69 66.30 64.63 63.57 63.24 64.06 65.10 64.60 64.49 63.92 63.93 62.71 64.36 64.15 64.01 63.13 62.13 61.50 61.04 60.53 60.01 59.96 60.06
40.09 40.30 40.90 42.50 42.50 42.15 39.70 39.64 40.56 41.61 44.81 46.12 48.23 48.67 51.50 53.84 53.79 56.31 59.18 59.39 60.37 60.70 60.41 61.26 64.96 65.68 65.78 66.65 66.16 62.98 63.10 62.37 63.61 64.33 64.69 63.60 63.16 61.68 61.58 61.56 61.57 61.25 61.15 60.80 60.51 60.06 60.48 60.52 61.55
41.14 36.55 38.99 40.29 41.54 40.34 42.42 36.98 37.00 41.93 43.49 43.39 46.47 48.44 51.05 53.18 54.88 55.09 59.53 59.92 61.00 61.28 60.92 61.39 64.59 65.50 65.07 65.48 65.22 66.40 64.97 63.87 62.10 62.00 62.02 61.96 62.20 61.28 61.00 60.80 61.04 61.81 62.32 61.98 61.85 61.07 61.63 62.11 62.39
36.81 37.34 31.05 38.42 39.97 41.36 40.10 30.70 39.08 42.29 41.60 41.17 44.73 48.22 50.32 51.99 54.49 56.18 58.64 59.30 61.01 60.47 60.39 61.85 63.36 62.61 63.26 64.51 65.31 66.32 65.96 65.18 64.91 63.78 63.02 63.10 62.89 62.59 62.69 63.56 63.35 63.36 62.51 61.99 61.42 61.24 61.07 60.90 60.96
34.92 27.48 30.74 33.79 41.01 40.16 38.74 32.82 39.69 42.29 41.93 41.19 43.22 47.42 48.53 50.53 54.57 57.71 59.46 60.04 60.24 60.35 60.66 61.62 61.82 60.47 61.84 63.62 65.10 65.00 65.68 65.97 65.33 65.45 65.27 64.67 64.78 64.34 64.11 64.63 64.48 63.91 63.17 62.28 62.36 60.90 60.23 59.40 59.80
29.73 30.72 33.20 32.72 38.90 39.36 36.86 35.19 39.79 42.42 41.67 41.49 45.70 46.74 48.22 50.11 52.72 58.08 59.15 60.49 60.89 60.93 61.10 61.92 61.50 60.62 62.10 63.58 64.45 64.32 63.96 64.56 65.26 66.46 66.77 66.48 65.61 65.58 65.33 65.38 65.06 64.55 63.80 62.78 62.37 61.15 60.74 60.01 60.34
33.90 32.87 31.77 35.05 40.86 37.62 35.88 35.87 38.28 42.41 42.09 43.27 44.39 46.03 48.59 49.88 53.69 58.11 59.13 59.41 60.26 60.85 61.05 61.43 62.07 62.02 62.43 62.69 62.69 63.13 62.82 63.36 63.19 64.27 65.77 67.36 67.10 67.02 65.70 65.10 64.87 64.99 63.96 63.16 62.14 61.25 60.25 59.26 62.70
35.23 32.82 31.72 36.58 41.24 37.33 36.71 35.29 39.69 42.20 41.74 43.32 43.77 43.52 46.37 49.45 54.18 56.02 58.10 58.65 59.93 60.05 60.68 61.06 60.78 61.75 62.40 62.65 63.16 63.03 64.13 64.63 65.41 65.78 65.36 65.33 65.58 66.66 66.65 65.79 65.01 65.29 64.11 63.47 62.73 61.17 60.63 61.69 62.75
34.09 32.55 32.58 34.25 36.59 39.74 37.81 34.80 37.93 42.21 43.79 44.28 44.10 44.74 46.10 50.27 53.44 53.86 55.79 57.37 58.48 59.70 59.90 59.83 60.38 61.25 61.95 62.57 62.49 63.09 63.29 63.37 63.97 64.27 64.37 64.84 65.39 65.73 65.54 65.29 65.00 64.23 64.14 63.11 62.83 62.86 62.20 60.56 61.29
31.53 38.85 38.48 36.56 33.86 31.10 38.44 27.16 35.70 38.06 39.16 41.88 43.47 44.61 46.85 52.04 53.25 53.95 54.69 57.13 57.88 59.56 60.30 60.49 60.37 61.03 61.85 62.22 61.41 60.96 59.94 59.57 61.56 63.37 64.28 63.89 64.76 64.80 64.72 64.17 64.19 63.54 63.20 62.47 61.94 62.48 60.53 60.74 59.60
34.81 40.33 38.33 37.43 34.40 32.02 34.81 30.72 34.15 37.05 38.52 41.80 42.80 45.97 51.46 52.47 52.73 52.63 55.09 55.78 58.10 58.49 59.12 59.84 60.63 61.11 61.33 61.31 61.28 60.56 59.38 60.52 61.25 61.69 61.52 62.22 62.95 63.61 63.96 63.82 63.35 62.88 62.42 61.37 60.72 59.97 59.24 58.85 56.87
41.06 38.11 38.11 37.22 35.04 29.20 34.51 32.67 31.50 33.30 36.35 40.59 47.48 50.33 51.42 52.34 53.56 53.91 55.13 56.95 57.07 58.59 58.79 59.34 59.47 59.79 60.99 61.47 61.18 60.59 59.96 59.73 59.51 60.15 60.63 60.93 60.91 61.40 61.70 62.45 62.22 61.83 61.12 60.44 59.78 58.77 58.04 58.37 57.44
38.97 35.34 27.61 27.36 28.35 27.45 34.12 31.96 31.54 36.90 39.72 43.47 46.06 48.56 50.93 51.53 51.31 52.51 52.99 54.22 55.62 56.61 57.52 58.35 59.02 59.17 60.15 60.76 61.40 61.17 61.07 60.11 59.61 60.08 60.18 60.36 60.53 60.35 60.87 61.71 61.07 60.60 60.19 59.89 60.11 59.32 58.64 58.14 57.12
37.09 35.48 29.19 24.06 25.57 29.75 34.71 28.43 31.70 40.84 42.56 46.40 47.23 47.49 47.11 47.32 48.11 48.24 50.99 53.11 53.34 54.64 54.62 54.51 53.93 54.64 56.91 60.54 61.29 61.16 61.46 60.71 60.41 60.25 59.94 59.72 60.10 60.40 60.35 61.04 60.78 60.46 60.45 59.90 59.52 59.47 58.21 55.96 54.96
37.24 33.54 37.32 31.24 33.65 29.65 32.17 33.01 37.42 40.17 41.21 41.92 42.86 45.59 45.91 46.61 46.87 47.78 48.68 49.52 50.02 50.76 51.29 51.64 51.98 52.34 52.94 54.86 58.06 61.27 62.04 61.63 60.49 60.36 60.42 59.89 60.19 61.68 61.55 61.22 60.97 60.67 60.51 59.99 58.76 57.83 56.79 54.40 53.53
38.53 40.39 30.47 32.64 26.92 25.58 29.20 29.14 31.69 35.24 39.36 41.28 41.56 42.43 44.23 45.52 46.64 48.03 49.20 49.91 50.78 50.87 50.85 51.47 52.17 52.69 53.56 54.42 55.31 56.56 58.12 59.39 61.31 61.85 61.37 60.69 60.80 60.54 59.62 59.97 60.19 59.82 59.99 59.18 57.48 55.75 53.68 52.65 52.38
36.19 34.28 34.89 34.21 30.61 25.16 24.12 28.12 39.49 38.61 40.44 40.55 41.62 43.05 43.72 44.52 45.43 46.06 47.25 48.63 49.04 49.50 49.67 50.27 50.59 50.73 50.98 51.66 52.03 51.95 52.00 53.45 55.25 56.71 58.85 58.90 58.90 58.23 57.97 57.47 55.78 54.71 54.29 54.36 53.72 51.74 50.82 49.83 48.83
37.71 35.46 35.22 26.82 28.02 29.55 27.68 28.53 41.91 41.64 41.91 42.31 41.73 42.78 43.62 44.06 44.18 43.55 44.17 44.48 44.85 45.65 46.56 47.15 48.92 49.08 49.61 50.58 50.90 50.69 50.95 50.92 51.66 53.34 54.92 56.68 56.50 55.58 54.50 53.72 53.48 53.19 51.81 50.50 49.38 48.54 48.98 47.54 47.54

GFSSGP_sfc_wetblb_105.txt.gz
Wetbulb
61.56 60.58 59.85 54.31 45.25 42.99 38.83 43.37 47.50 46.30 46.76 48.81 51.14 48.89 54.49 55.29 55.74 50.15 65.50 70.14 71.22 71.17 72.83 73.33 74.45 74.38 73.91 73.50 73.55 73.85 75.06 75.32 74.84 74.90 74.33 74.15 73.77 73.35 73.60 72.89 73.52 73.24 72.51 71.66 71.28 71.25 71.22 70.65 70.16
58.91 59.60 54.25 49.41 40.04 34.93 37.28 43.19 43.94 46.50 50.07 51.24 50.10 54.50 54.96 57.31 63.84 64.15 64.80 69.67 71.08 71.63 72.43 72.78 74.26 74.31 73.54 73.58 73.69 73.47 74.20 75.42 75.04 74.67 74.89 74.57 73.67 73.79 73.87 73.53 73.31 72.62 71.45 70.80 70.41 70.26 70.24 70.35 70.03
57.68 57.73 48.49 44.08 38.81 36.11 36.29 42.67 45.40 48.81 49.11 48.95 49.75 55.94 56.37 58.24 64.53 64.80 67.08 70.71 71.29 71.41 72.00 72.64 74.08 74.14 73.57 73.87 74.07 73.81 73.83 75.25 74.84 74.42 74.73 74.25 73.99 74.20 73.54 74.06 73.49 72.76 71.91 71.26 70.16 69.29 68.64 68.50 67.67
53.21 49.73 48.20 39.18 36.80 41.31 42.79 44.81 48.09 47.33 49.66 49.75 51.27 52.48 58.21 61.59 63.75 67.04 68.66 70.95 70.64 70.70 70.85 72.89 73.75 74.01 73.80 74.10 73.81 74.06 73.73 74.58 74.78 74.20 74.10 73.78 74.01 73.75 73.41 73.69 72.70 72.36 71.91 71.42 70.30 68.44 68.04 67.72 67.30
50.34 46.77 39.13 36.51 37.40 40.40 42.60 46.14 47.54 45.79 46.13 47.23 47.84 52.27 54.91 62.35 67.74 68.34 67.80 70.11 69.75 69.32 70.69 72.04 73.63 73.89 73.87 73.79 73.75 74.14 74.28 73.77 74.25 74.06 73.81 73.37 73.43 73.25 73.41 72.87 71.86 72.08 71.74 70.52 69.19 68.59 68.42 68.11 67.56
43.33 43.82 34.84 34.67 37.26 41.06 42.24 45.05 44.60 44.59 45.08 45.94 45.58 47.09 53.91 60.92 66.10 66.99 68.23 68.38 70.27 69.92 70.39 71.36 72.32 73.15 73.33 73.60 73.40 73.77 73.62 73.93 73.52 73.50 73.75 73.38 73.20 73.03 72.81 71.93 71.56 71.86 71.12 70.45 69.81 69.33 68.90 68.35 67.59
40.54 38.00 34.12 34.05 34.73 37.23 41.49 45.10 42.58 43.33 42.54 44.33 45.56 43.52 48.68 57.80 63.61 66.95 66.96 67.14 66.84 67.73 67.75 65.26 68.27 71.40 71.73 72.39 72.40 72.82 72.94 73.35 72.89 72.62 72.74 72.19 71.78 71.79 71.41 70.36 71.64 71.83 71.38 71.42 70.43 69.72 69.24 68.72 67.88
41.16 38.75 33.88 34.55 35.81 36.57 42.49 43.43 44.25 42.97 42.71 46.50 46.85 41.51 44.58 55.93 65.84 65.33 65.04 64.59 64.47 63.76 63.21 63.60 62.92 62.15 64.12 69.39 70.61 71.00 71.35 71.85 71.70 71.15 70.59 69.90 68.94 68.88 69.22 68.77 70.23 71.29 71.46 71.22 70.81 70.02 69.64 69.12 68.21
43.99 33.66 31.26 33.40 35.11 37.30 42.21 41.00 45.17 46.17 43.33 44.95 44.30 45.46 55.00 63.03 63.23 61.44 60.47 61.08 61.78 62.17 62.42 62.81 62.38 62.37 62.10 63.37 68.69 69.59 69.74 70.24 69.56 69.42 67.92 67.17 67.44 67.42 67.22 67.25 68.59 69.92 70.60 70.56 69.87 69.15 68.66 67.91 66.64
37.79 31.75 33.42 38.64 38.44 36.79 40.30 40.47 41.28 41.15 41.49 41.73 44.48 47.31 58.68 61.81 60.31 58.85 58.01 57.54 58.69 59.49 60.61 61.85 62.26 61.92 62.08 62.81 62.67 67.13 69.07 68.86 69.34 68.54 67.52 67.05 67.02 67.03 66.71 66.62 67.64 69.31 69.57 69.38 69.26 68.40 67.56 65.16 60.79
38.16 33.31 38.09 39.74 41.18 42.07 40.90 40.28 41.98 39.41 38.04 40.63 41.90 44.85 48.46 53.47 58.84 58.33 57.57 57.64 58.82 58.97 59.76 60.74 61.39 62.06 61.77 61.52 61.36 62.97 67.48 67.83 67.49 66.72 65.99 66.25 66.13 66.23 66.87 67.16 67.53 67.80 66.40 66.32 66.67 65.30 62.60 60.04 59.14
33.42 38.59 39.41 40.23 41.99 40.82 38.60 40.88 39.02 39.61 39.58 43.51 44.79 46.97 48.00 51.64 54.22 56.91 57.16 57.86 58.20 58.96 58.82 60.13 61.15 61.87 61.31 61.77 60.65 61.20 66.23 67.15 66.61 65.84 65.65 65.36 64.17 65.47 65.73 66.20 66.54 66.18 64.81 63.64 63.20 61.93 60.47 59.30 58.79
35.88 37.50 40.44 41.45 41.59 41.02 41.18 38.56 38.48 39.44 42.64 43.80 44.95 46.39 46.76 50.58 52.59 54.00 58.54 58.79 58.23 58.13 58.98 59.46 60.44 60.63 61.22 61.25 61.54 63.70 66.02 67.14 66.61 65.97 65.40 65.37 64.53 64.91 64.09 63.43 64.71 63.40 63.30 62.38 61.59 60.80 59.92 59.12 58.77
38.11 38.84 39.14 40.34 40.31 41.42 39.91 39.96 39.20 39.84 42.41 42.96 44.21 43.96 45.24 49.96 50.49 53.09 57.25 58.50 58.89 58.87 58.98 60.38 61.15 60.89 61.99 61.79 62.63 63.65 65.29 66.40 66.32 65.70 65.26 63.37 64.94 64.34 63.66 63.62 63.55 62.98 62.01 62.22 60.98 59.27 58.17 58.25 58.30
40.23 35.31 38.14 38.45 39.74 39.24 41.70 36.59 36.98 41.16 41.42 41.33 42.48 43.55 44.89 50.02 51.18 52.22 55.35 57.95 59.41 59.73 59.71 59.87 61.45 63.27 63.74 63.99 65.19 64.59 63.74 65.10 65.01 65.11 64.96 64.19 63.96 63.19 62.68 62.91 62.54 62.11 60.67 59.65 59.06 58.67 59.28 59.68 60.08
34.55 34.19 27.86 36.95 39.39 40.48 38.76 29.59 38.38 40.58 39.84 39.57 41.29 42.55 43.55 48.71 50.02 52.40 55.37 58.72 60.01 60.05 59.99 60.87 63.44 64.24 63.63 64.44 64.85 64.46 63.06 63.24 64.37 63.50 63.54 63.70 63.14 61.42 61.13 61.04 60.40 60.70 60.63 60.34 59.75 59.68 59.30 59.56 59.76
31.34 22.13 26.86 32.30 39.98 39.33 37.97 32.81 38.79 41.48 39.55 39.06 39.86 40.85 42.58 48.21 49.95 51.46 55.81 56.86 59.46 59.77 60.59 61.00 62.65 62.20 62.89 62.91 64.25 64.21 63.99 62.95 62.82 62.33 62.04 61.87 61.82 61.27 62.35 61.86 62.36 61.91 61.14 60.74 60.56 59.75 59.58 58.80 58.57
24.87 26.20 30.74 30.53 36.72 38.70 36.63 36.05 40.34 40.88 40.09 38.65 39.51 40.47 44.41 47.01 48.25 51.47 57.07 58.89 60.07 59.82 60.82 61.25 61.44 60.86 62.35 62.32 62.64 64.48 63.97 64.08 64.61 63.15 63.19 63.11 63.23 62.80 63.95 63.80 63.49 62.75 61.95 61.06 60.99 59.61 59.41 58.44 58.37
32.22 30.67 29.47 33.23 38.02 37.54 36.45 36.73 38.24 40.16 40.92 38.78 39.18 41.68 42.88 46.14 51.28 52.30 57.24 58.78 59.65 59.77 59.74 59.99 61.11 59.70 60.67 60.08 61.25 62.06 62.28 63.02 63.27 64.54 64.77 64.80 64.57 64.57 64.31 64.44 63.98 63.53 62.63 61.79 61.44 60.50 59.38 58.23 60.73
33.48 32.23 30.80 34.52 38.63 37.87 35.97 35.25 38.16 39.58 39.56 40.25 40.63 43.10 42.31 46.47 50.07 53.44 55.83 57.49 58.93 59.41 59.80 59.91 60.42 60.69 61.14 61.46 62.42 62.33 62.44 62.83 63.82 63.84 64.47 65.94 65.34 65.51 65.00 64.56 63.77 63.76 62.98 62.23 61.61 60.24 59.70 59.65 60.91
34.63 32.42 30.93 31.75 35.50 37.61 35.70 33.83 35.23 39.16 41.83 40.52 41.99 42.97 44.32 45.08 49.48 51.74 54.76 56.41 58.34 58.57 59.73 60.60 60.91 61.56 61.57 61.43 62.35 62.26 62.30 63.01 62.84 63.61 62.81 63.75 64.99 65.66 65.81 65.11 64.55 63.92 63.59 62.69 62.24 61.15 60.37 59.77 59.66
31.87 37.08 37.09 36.11 33.70 28.84 36.34 24.77 34.25 36.43 37.85 40.54 40.32 40.78 43.30 46.05 51.37 51.90 53.78 54.87 56.72 58.49 59.75 60.33 60.86 60.95 61.31 61.79 61.13 60.41 59.44 59.18 60.53 61.50 62.54 63.05 64.07 64.65 64.80 64.67 64.14 63.40 62.51 61.86 61.84 62.36 61.17 60.56 58.62
34.39 39.16 36.91 36.18 35.44 32.01 32.70 29.81 34.42 37.47 35.61 38.30 39.44 40.53 47.39 51.13 51.86 53.02 53.85 55.25 57.73 58.91 59.56 60.06 60.55 60.82 60.91 61.08 61.10 60.10 58.82 59.94 60.53 61.19 60.78 61.13 61.82 62.49 62.70 62.80 62.54 62.68 61.89 61.07 60.72 59.87 59.39 59.58 59.21
40.74 37.30 36.86 36.67 34.47 27.86 33.74 32.45 31.04 32.89 35.56 38.71 41.05 44.65 50.15 51.55 51.96 53.60 54.74 55.99 56.34 59.00 59.02 59.40 59.28 59.64 60.32 60.89 60.81 60.04 59.18 59.28 59.33 59.92 60.42 60.67 60.38 60.73 61.52 61.86 61.87 61.58 61.30 60.52 59.58 59.28 58.46 58.29 57.28
38.12 34.75 25.51 26.16 27.01 26.77 34.40 31.29 31.34 35.26 39.98 41.10 45.64 47.85 50.62 51.95 51.96 52.47 53.60 54.37 55.87 56.64 57.25 58.10 58.14 58.03 59.13 59.90 60.29 60.45 60.13 59.78 59.07 59.11 59.77 59.89 59.76 59.46 60.26 60.94 60.85 60.53 60.72 60.44 59.77 58.40 57.87 57.61 56.56
35.44 35.60 28.29 21.61 25.54 28.79 34.21 26.92 29.38 37.90 46.48 46.52 47.32 47.52 47.52 47.61 48.87 51.04 52.95 52.68 53.88 54.92 55.04 55.38 55.10 54.43 56.10 58.08 59.66 60.43 60.47 60.19 59.92 60.07 60.20 60.09 60.12 59.45 60.21 60.25 60.85 60.51 60.32 60.25 60.05 59.33 58.72 57.78 56.80
36.65 33.80 37.64 30.88 33.32 28.59 30.39 31.81 36.15 39.09 41.96 44.30 44.88 45.54 45.39 46.59 47.49 48.02 49.15 50.11 50.98 51.57 51.95 52.44 52.93 53.26 53.19 54.65 58.45 59.70 61.07 61.09 60.48 60.37 60.12 59.69 59.22 60.54 60.03 60.21 60.46 60.64 60.47 60.42 60.06 59.45 58.35 56.61 55.65
37.05 39.58 30.96 31.51 23.64 24.19 28.39 29.46 28.99 33.90 38.87 41.42 42.27 43.20 44.62 46.10 47.65 48.35 49.03 49.59 50.11 50.13 50.34 50.84 51.62 51.49 52.32 53.32 54.48 55.18 58.99 60.29 61.20 60.81 59.96 59.78 59.29 58.93 59.74 60.44 60.54 60.49 60.48 60.35 59.64 58.51 58.01 55.88 54.44
34.87 33.81 35.10 32.72 30.20 26.45 23.18 28.43 35.98 38.29 39.59 39.63 40.49 42.13 44.00 44.99 44.99 45.90 46.26 47.47 47.55 48.00 48.56 48.82 49.25 49.51 49.84 50.56 50.78 50.63 51.02 52.52 54.15 55.37 59.04 59.62 59.30 59.27 59.14 59.46 59.74 59.54 59.62 59.89 58.96 58.21 55.18 54.54 53.67
36.37 35.28 34.04 25.87 27.54 27.59 25.36 29.60 41.27 41.04 41.10 41.17 40.78 41.74 42.33 42.95 42.25 42.68 43.59 43.77 43.66 43.91 44.40 44.78 46.23 47.07 48.18 49.18 49.29 49.30 49.53 49.71 50.63 52.39 54.01 55.65 55.39 55.95 56.59 56.37 56.14 55.97 55.56 55.24 56.09 53.77 53.29 53.22 51.97

GFSSGP_sfc_wetblb_108.txt.gz
Wetbulb
59.78 58.83 57.83 53.47 44.56 41.75 37.27 41.62 45.87 45.09 45.25 47.27 49.07 46.91 47.39 51.23 53.28 48.71 64.44 68.88 70.24 70.72 72.65 73.24 74.32 74.24 74.16 73.93 74.14 75.19 75.26 75.16 75.02 74.96 74.46 74.37 73.57 73.05 73.10 73.66 73.40 73.21 72.16 72.17 71.66 71.26 70.13 71.24 71.33
56.59 58.59 52.94 48.02 38.39 35.07 34.32 41.38 43.33 45.42 47.62 48.54 48.82 49.19 52.55 54.01 62.85 63.07 65.08 70.06 70.65 71.75 72.49 72.47 74.35 74.30 73.67 73.37 73.06 74.33 75.36 75.10 74.77 74.54 74.86 74.47 73.59 73.69 73.14 73.50 73.02 72.28 71.47 71.25 70.95 70.44 69.60 70.66 70.58
54.18 56.15 47.99 43.59 37.08 34.77 35.05 40.75 43.73 46.83 47.69 47.92 47.73 50.50 54.65 58.73 63.69 63.81 66.07 70.44 71.09 71.30 71.97 72.52 74.26 74.20 73.62 73.61 72.97 73.04 74.61 75.09 74.91 74.27 74.71 74.59 73.90 74.08 73.33 73.43 73.03 72.25 71.43 70.51 70.15 70.04 69.98 69.36 68.57
51.30 49.08 46.87 39.01 36.40 39.84 39.63 42.49 44.68 45.06 46.36 47.33 47.99 46.17 56.70 61.24 64.83 66.52 68.83 70.49 70.45 70.84 71.53 73.15 73.98 74.06 73.85 74.22 74.04 72.82 73.99 75.01 74.65 74.32 73.99 74.13 73.84 73.83 73.88 73.34 72.14 71.49 71.14 70.15 68.94 68.63 68.02 67.17 68.14
49.24 45.41 37.05 35.26 37.09 39.80 40.83 44.20 44.31 43.46 43.65 44.00 45.27 44.91 48.48 62.18 66.15 67.91 69.49 70.36 69.74 69.96 71.19 72.48 73.96 73.96 74.26 73.92 73.92 73.75 73.56 74.71 74.37 74.15 73.52 73.85 73.62 73.64 72.89 72.76 72.19 71.79 71.48 69.70 68.42 68.19 67.82 67.55 68.02
42.76 42.90 33.96 32.30 35.05 39.45 40.74 42.85 41.53 41.62 42.57 43.05 43.08 44.60 47.86 60.09 64.65 65.89 69.29 69.48 69.89 69.59 71.20 71.95 72.66 73.26 73.50 73.64 73.50 73.98 74.24 74.17 74.03 73.91 73.59 73.71 73.13 72.88 72.86 72.45 72.22 71.53 70.38 68.99 68.61 68.43 68.04 67.62 67.60
40.17 37.45 32.75 33.12 33.87 36.27 39.78 41.72 38.34 39.15 39.13 40.80 43.14 40.70 45.74 58.83 62.87 65.68 66.15 68.07 68.91 68.87 66.91 67.86 70.36 70.91 71.92 72.57 72.89 73.30 73.60 73.00 73.18 73.45 72.86 72.55 71.98 72.19 72.59 71.98 72.10 71.21 70.18 69.62 69.17 68.91 68.54 68.12 67.50
40.81 37.95 32.59 34.59 33.99 35.27 41.30 41.33 42.66 41.09 39.85 44.92 44.25 38.39 41.04 48.93 64.05 64.25 65.02 65.00 64.26 64.15 64.11 63.53 63.87 64.47 64.45 67.98 70.51 70.96 71.80 71.76 72.28 71.84 70.87 70.17 69.66 70.11 71.41 70.35 70.97 71.38 71.34 70.90 70.32 69.32 68.88 68.34 67.62
42.54 32.50 30.25 32.52 34.25 36.02 39.83 37.77 41.51 43.82 40.93 41.61 42.92 42.85 48.71 59.61 62.31 61.07 61.95 62.10 62.62 62.74 62.81 62.17 62.13 62.41 62.88 62.53 66.24 68.93 69.57 69.86 70.34 69.67 68.40 68.06 69.11 68.08 66.59 66.72 69.23 70.59 71.19 71.08 70.39 69.79 69.61 68.65 67.03
36.86 30.72 32.17 37.47 37.04 34.96 38.92 38.75 39.96 39.24 38.97 39.31 41.44 45.63 48.17 51.05 55.33 58.11 57.84 58.80 59.93 60.78 61.19 61.26 61.39 61.75 61.66 63.18 61.14 63.75 67.83 67.81 68.60 68.82 68.57 68.20 67.16 66.88 66.47 65.86 67.32 69.40 69.62 69.62 69.76 69.22 68.39 65.67 61.17
36.97 32.35 36.59 38.77 39.97 41.07 39.88 39.66 40.77 37.74 37.00 39.00 38.59 41.38 45.80 49.87 52.67 57.03 57.03 57.60 59.51 60.21 61.11 60.81 61.17 61.72 61.83 61.75 60.86 61.65 65.75 67.62 67.11 67.07 67.85 67.06 66.78 65.96 65.75 66.62 66.93 67.13 66.01 66.45 66.94 65.98 63.19 60.18 58.36
32.70 37.74 39.02 39.29 40.75 39.97 37.61 39.39 37.82 38.33 38.78 41.81 42.28 43.54 45.33 47.14 50.68 52.47 55.50 57.54 57.08 58.17 59.47 60.20 60.86 61.69 62.04 63.06 61.96 61.07 62.61 65.83 67.00 66.68 66.32 66.18 65.72 65.52 65.40 66.40 66.76 66.19 64.57 64.18 63.34 62.18 60.76 59.07 58.20
34.66 36.60 39.74 40.64 40.65 40.37 41.01 38.52 37.63 38.11 41.32 42.35 43.24 43.90 43.49 45.99 49.40 50.61 53.22 57.87 58.94 57.52 58.22 59.50 60.27 60.73 61.13 61.30 61.38 61.13 62.16 64.72 67.10 66.14 66.20 65.99 65.55 65.38 65.27 65.83 66.00 65.54 63.14 63.02 62.10 61.06 59.66 57.97 57.82
36.63 37.72 38.41 39.98 39.60 39.97 37.98 38.14 39.05 40.07 41.11 41.34 42.67 42.26 42.32 43.91 46.31 49.91 52.53 56.24 57.73 58.01 58.05 58.77 59.61 60.04 60.43 60.10 59.74 60.56 63.14 65.15 67.00 66.06 65.71 65.87 65.39 65.02 64.92 64.33 64.18 63.96 62.70 62.15 61.43 60.15 59.40 58.15 57.53
39.04 34.39 36.48 37.90 39.34 37.99 40.13 35.48 36.08 41.30 41.25 40.41 41.55 42.46 43.09 43.65 47.50 49.57 51.75 53.96 57.91 58.57 58.64 59.08 59.68 60.17 60.09 60.19 60.33 60.94 62.31 65.60 65.90 66.14 65.57 65.10 65.09 64.90 64.27 64.00 63.55 62.62 61.52 61.87 60.33 59.60 58.05 57.14 57.34
33.75 32.71 27.19 35.45 38.41 39.50 37.95 28.97 37.03 39.87 39.24 39.06 40.32 41.88 42.62 42.19 45.38 48.73 51.14 53.92 58.04 58.61 58.55 59.29 61.69 62.64 61.16 60.69 61.04 61.45 62.87 65.17 65.94 66.12 65.73 64.35 64.98 65.01 64.06 63.72 63.40 62.75 60.79 60.28 58.92 58.23 57.32 58.04 58.50
29.18 20.25 25.83 31.13 38.87 38.23 36.04 31.75 38.14 40.58 38.70 38.15 38.59 39.92 40.77 41.36 44.76 48.40 50.39 52.91 58.54 59.27 59.21 59.31 60.15 62.08 63.30 62.76 63.86 63.59 63.17 63.65 64.89 65.47 64.93 64.67 64.39 64.38 62.93 62.77 62.13 60.93 60.73 59.94 59.34 58.56 58.64 58.08 58.12
22.75 23.65 28.70 28.61 34.35 36.28 34.63 34.10 39.00 41.85 40.98 38.60 37.64 37.39 40.19 42.46 44.24 48.15 49.84 54.47 58.15 58.82 58.99 59.34 60.93 62.58 61.96 62.63 63.88 63.88 62.43 62.61 63.18 63.58 63.67 63.78 63.89 63.04 62.22 61.21 61.21 61.34 60.53 60.16 59.68 58.76 58.65 58.45 58.30
30.08 29.64 29.01 32.20 36.14 34.53 34.24 35.20 38.00 40.76 39.88 37.40 36.87 38.20 39.66 42.51 46.34 49.39 51.12 56.35 57.67 57.82 58.40 59.26 59.94 60.08 60.96 60.87 61.04 61.70 61.21 61.91 62.22 62.31 62.96 62.73 62.76 62.35 62.21 62.10 62.27 62.07 61.08 60.47 60.12 59.65 58.49 57.49 57.79
32.06 30.95 30.56 33.81 36.72 35.38 34.80 34.41 38.15 39.98 38.59 39.08 38.81 38.01 39.77 41.66 44.96 48.41 51.98 56.06 57.37 57.50 57.89 59.32 60.32 59.43 60.54 60.97 61.78 62.07 62.48 62.09 62.80 63.09 63.46 62.89 63.03 63.12 64.04 63.38 63.28 62.69 61.80 60.96 60.65 59.54 58.61 58.33 58.89
34.26 31.41 31.14 29.68 34.49 37.23 34.25 32.62 34.21 37.88 38.89 38.99 39.44 41.30 42.11 42.35 43.67 48.18 52.39 54.44 56.63 57.07 57.59 58.63 59.50 59.14 60.17 60.79 61.67 61.68 61.92 61.56 61.32 61.83 62.32 63.17 63.85 63.70 64.19 64.24 63.89 63.19 62.59 61.77 60.99 59.56 59.09 58.49 59.63
31.38 37.24 35.62 35.62 34.15 28.29 35.63 25.62 32.81 35.72 36.66 38.87 39.17 39.11 41.31 42.81 45.92 50.48 52.45 52.75 55.06 56.90 58.94 59.91 60.16 60.33 60.64 61.25 60.61 59.01 57.16 57.91 59.61 61.06 61.70 62.29 63.39 64.08 64.30 64.35 63.64 63.19 62.47 61.57 61.31 61.28 60.09 59.94 58.62
34.09 37.92 35.71 34.77 32.69 31.78 32.69 29.13 30.02 36.42 35.23 36.15 38.52 39.54 40.98 43.83 49.52 51.84 51.46 54.18 55.86 57.41 58.61 59.96 60.64 60.84 59.95 61.11 61.33 59.44 58.26 59.86 60.88 60.88 60.76 60.88 61.43 62.29 63.00 63.25 62.69 61.93 61.13 60.63 60.52 60.15 59.83 60.16 59.16
39.91 37.02 35.67 35.09 34.07 26.30 32.74 31.16 30.66 33.02 35.46 37.03 38.90 41.20 42.86 48.62 50.82 52.25 54.22 55.17 55.88 58.24 58.48 59.39 59.75 59.46 60.55 60.87 60.66 59.88 59.81 59.56 59.61 59.76 59.73 59.92 60.13 60.63 61.08 61.50 61.46 61.42 60.92 60.50 60.18 59.96 60.02 59.49 59.47
38.18 34.22 23.38 22.37 24.89 23.98 34.73 31.58 31.35 36.20 38.08 39.06 42.01 45.87 48.92 51.52 51.86 52.85 53.01 53.39 56.79 57.58 58.35 58.70 58.76 58.54 59.83 60.27 60.47 60.22 59.77 59.50 59.21 59.42 59.72 59.71 59.38 59.31 59.72 60.37 60.46 60.41 60.51 60.58 60.07 58.83 58.45 58.51 57.84
34.64 34.29 27.04 21.51 24.07 26.05 33.50 26.71 31.08 37.07 45.79 47.03 46.72 46.88 48.43 48.30 49.41 49.65 50.91 52.14 52.43 53.04 54.30 54.79 55.44 55.92 57.41 57.88 59.18 60.09 60.17 59.79 59.56 59.49 59.78 59.89 59.92 60.04 60.29 60.33 60.48 60.09 59.90 59.68 59.66 59.37 59.06 58.60 58.01
35.96 33.45 37.00 30.66 32.23 28.11 30.73 31.83 34.22 37.32 42.05 44.21 44.59 45.37 46.01 47.06 47.98 48.61 49.79 50.53 51.07 51.28 51.74 52.35 52.95 53.40 53.56 53.92 56.33 58.49 59.92 59.77 59.57 59.62 59.69 59.57 59.63 60.23 60.55 60.43 59.98 59.99 59.96 59.63 59.51 59.51 59.09 58.66 57.88
36.63 39.25 32.19 32.00 24.46 22.55 26.98 29.32 27.62 32.31 38.10 40.87 42.57 43.30 44.93 46.22 46.91 47.27 48.34 49.22 50.03 50.27 50.66 50.68 50.86 51.06 51.87 53.27 53.37 55.16 58.34 59.55 60.02 59.98 59.28 59.35 59.35 59.58 59.28 59.15 58.82 58.20 59.67 60.04 59.80 59.59 59.40 57.65 56.43
35.66 34.54 35.22 33.63 29.64 25.06 22.62 27.99 34.75 35.92 38.59 37.99 41.48 42.83 43.05 44.17 43.69 44.01 44.47 45.42 46.15 46.97 47.44 47.86 48.54 49.00 49.34 49.95 50.18 50.06 50.25 52.24 54.14 55.65 58.22 59.67 59.33 59.18 58.78 59.16 59.67 59.68 59.70 60.04 59.78 59.54 58.55 57.41 57.35
37.31 35.56 34.55 26.87 27.04 27.63 26.55 28.43 39.18 39.85 40.06 40.15 39.59 41.34 41.88 42.43 43.13 42.66 42.84 43.02 43.08 43.33 43.85 43.99 44.92 45.98 47.52 48.68 48.84 48.53 48.64 48.80 49.55 50.47 52.07 54.07 53.98 54.49 55.72 56.50 56.66 56.95 57.02 57.04 57.60 57.70 56.41 55.86 56.23

GFSSGP_sfc_wetblb_111.txt.gz
Wetbulb
58.78 57.38 57.41 51.94 42.80 40.83 34.91 39.52 43.84 43.59 43.70 45.12 46.97 45.70 46.23 46.66 46.87 46.51 64.09 68.72 69.89 70.79 72.52 72.92 74.30 74.50 75.10 75.53 75.64 75.22 75.06 75.14 74.80 73.96 73.40 73.50 72.15 72.74 73.58 73.65 73.19 72.77 72.88 72.49 71.99 70.59 70.85 70.64 70.75
53.31 56.81 52.33 46.81 36.90 31.42 30.59 39.62 42.41 45.38 46.64 46.89 47.43 46.65 46.99 49.57 61.98 62.47 64.99 68.64 70.18 71.48 72.31 72.29 74.07 74.22 74.08 74.32 74.77 75.16 74.83 74.54 74.71 74.64 74.15 73.92 72.88 73.38 73.80 73.61 73.35 73.07 72.09 71.29 70.80 70.73 70.93 71.04 69.81
54.10 54.66 46.91 42.86 36.03 33.12 32.16 39.69 42.29 45.12 46.02 46.06 46.08 46.78 50.26 55.22 63.18 62.92 65.53 69.76 69.95 70.96 71.92 72.24 74.12 74.27 73.91 73.33 73.92 74.71 74.93 74.76 74.51 74.11 74.49 74.36 73.84 73.55 73.63 73.37 73.13 72.11 71.96 70.02 70.62 70.37 70.66 70.02 68.23
50.45 49.12 45.82 37.85 37.06 38.45 37.81 40.69 43.30 43.44 45.37 46.04 45.65 43.63 49.54 61.56 62.97 65.07 69.02 70.22 70.03 70.32 70.91 73.12 73.99 74.14 73.96 73.71 73.29 73.94 74.55 74.51 74.56 74.00 73.77 73.97 73.45 73.81 73.29 73.24 72.02 71.41 71.20 70.47 70.00 70.13 69.32 68.01 69.05
48.38 44.16 35.68 33.91 35.67 39.22 39.54 43.74 42.16 40.83 41.58 42.31 43.27 42.89 44.87 57.61 65.64 67.66 68.29 69.35 69.62 69.98 71.08 72.61 74.00 74.05 74.19 74.18 73.55 73.10 74.16 74.53 74.32 74.13 73.61 73.65 73.68 73.48 73.20 72.41 71.56 71.10 70.33 69.33 69.05 68.39 67.36 67.96 68.60
42.46 41.99 32.03 29.22 33.21 38.37 40.10 41.81 40.57 39.81 39.55 41.67 40.67 41.08 43.53 54.98 61.33 65.23 68.72 68.53 69.18 69.97 71.23 72.09 72.81 73.47 73.93 73.82 74.18 73.32 73.88 74.43 74.11 73.57 73.88 73.81 73.45 72.87 73.01 71.84 71.62 70.82 69.81 68.51 68.20 67.68 67.50 68.22 68.24
39.74 36.47 31.31 31.09 32.98 35.72 39.08 41.49 37.26 37.40 37.01 39.25 41.59 39.09 43.46 47.67 59.87 65.01 65.97 67.14 68.20 69.03 69.76 69.96 71.20 71.92 72.42 72.76 73.10 73.37 73.33 73.84 73.52 73.13 73.28 72.60 72.54 72.04 72.41 71.78 71.44 70.53 69.33 68.76 68.53 68.07 67.86 67.95 67.83
40.36 37.66 30.96 32.15 32.07 33.59 39.35 39.86 41.00 38.50 37.34 42.98 41.82 36.83 39.31 46.24 61.97 63.90 64.87 65.85 65.77 65.93 66.33 65.71 65.49 66.86 68.20 69.35 70.70 71.40 72.29 72.07 72.34 71.76 71.64 69.93 69.76 70.20 71.54 70.90 70.85 70.79 70.03 69.92 69.60 68.63 68.33 68.20 67.76
41.18 32.18 28.78 31.48 34.38 35.59 38.07 37.01 40.68 42.20 38.85 39.47 41.49 40.82 45.72 47.68 57.39 60.33 61.42 62.12 63.70 64.58 64.13 63.45 63.21 62.94 63.28 65.16 66.23 68.27 69.58 70.15 70.22 69.83 68.78 67.62 69.08 69.39 69.16 68.66 69.34 70.22 70.48 70.46 69.57 69.14 69.11 68.37 66.94
35.53 29.67 30.77 36.32 35.51 33.86 37.90 37.51 38.93 38.33 37.95 37.01 40.07 43.35 45.35 47.17 48.82 53.74 57.06 59.62 60.72 61.73 62.16 61.40 61.74 61.61 61.87 62.60 61.23 63.51 67.98 67.51 67.93 68.59 67.90 68.74 68.30 68.12 67.27 66.94 68.06 70.21 70.15 70.05 70.13 69.82 69.24 66.46 61.32
35.91 31.25 35.49 37.55 39.03 39.80 38.37 37.65 40.11 36.64 35.94 37.67 37.86 39.27 42.84 45.64 46.57 49.34 52.89 56.80 59.84 60.98 61.96 60.84 61.49 61.13 61.16 60.79 60.74 62.54 64.89 66.77 67.49 66.66 67.53 67.33 67.31 65.79 64.47 66.44 67.26 67.95 66.62 67.17 67.49 66.66 63.69 60.69 58.34
31.43 36.89 37.89 38.80 39.69 39.03 36.55 38.28 36.58 37.08 37.82 40.95 41.76 42.75 42.57 43.94 44.47 47.09 48.99 51.87 56.91 59.73 60.70 61.25 60.49 60.54 60.64 61.19 60.27 60.60 63.79 64.75 66.53 67.10 66.52 65.39 65.74 65.63 64.23 65.24 65.71 66.06 66.19 65.37 63.63 62.43 60.95 59.16 57.96
33.37 35.53 38.93 39.78 39.80 39.34 39.87 37.44 37.21 37.84 41.13 43.03 43.29 42.87 41.58 43.20 44.49 47.40 48.10 51.05 56.91 57.76 60.13 60.27 60.34 60.71 60.88 60.71 60.29 60.30 60.08 64.20 64.73 66.76 66.46 65.92 65.71 65.08 65.03 65.13 65.91 65.46 65.52 64.69 63.49 61.01 59.93 58.37 57.19
35.38 36.79 37.33 38.83 38.86 39.30 37.28 37.20 37.03 38.72 40.97 40.85 41.82 41.73 40.77 42.15 43.21 45.12 47.19 50.26 55.71 57.49 57.94 59.76 60.29 60.59 60.58 60.18 60.13 60.20 61.33 63.56 65.57 66.09 66.33 65.91 66.21 65.36 65.02 65.16 64.78 65.05 64.71 63.02 63.34 60.49 59.42 58.13 56.86
37.88 33.18 35.40 36.32 37.90 37.64 39.27 34.34 34.49 39.54 40.46 40.27 41.46 42.51 43.06 41.92 43.68 43.89 48.20 49.68 52.86 57.17 57.95 58.06 59.30 60.05 59.66 59.56 59.37 58.82 60.61 63.89 65.55 65.65 65.89 65.99 66.25 65.68 65.04 64.23 64.28 64.25 63.72 62.80 62.21 60.10 58.90 57.67 57.51
32.61 31.17 26.66 34.09 37.63 38.70 37.16 28.72 36.35 39.19 38.20 37.96 40.14 41.74 42.30 41.73 42.64 44.92 47.44 48.92 51.30 55.69 57.62 58.45 60.06 59.65 59.20 59.36 59.49 59.79 59.87 61.30 65.18 65.36 65.42 65.53 65.82 65.42 64.81 64.13 63.87 63.23 62.52 61.81 61.15 59.27 58.08 56.76 56.15
27.75 19.60 24.79 29.82 37.62 37.05 35.28 30.55 36.74 39.53 38.10 37.45 38.95 39.77 40.63 41.46 41.72 43.72 46.30 47.08 49.68 55.91 57.82 58.08 59.14 60.11 59.92 60.06 60.12 60.06 60.24 60.26 62.52 65.56 65.30 64.64 65.20 65.66 64.65 64.11 63.60 62.73 61.75 60.45 60.25 58.58 57.58 56.86 56.91
21.71 22.55 26.95 27.63 33.02 35.12 33.02 32.36 36.93 39.75 39.55 38.67 38.82 37.95 38.63 39.45 41.54 44.27 46.30 48.47 50.32 55.26 58.10 58.34 58.87 59.64 61.59 62.13 62.37 62.50 62.14 61.89 62.53 64.96 64.32 64.99 64.74 64.65 64.11 63.73 63.13 62.31 61.73 60.05 58.41 57.85 58.05 57.71 57.82
29.97 30.12 28.47 31.43 35.29 34.13 32.54 32.84 35.60 39.40 39.20 38.36 38.50 36.49 37.02 39.51 43.26 45.47 46.84 48.44 51.70 54.52 57.33 58.08 58.80 60.26 61.31 61.49 60.85 60.94 61.96 61.63 60.98 64.55 64.40 64.66 64.57 64.18 63.24 62.52 62.01 61.49 61.28 60.74 60.09 58.70 57.88 57.77 56.93
32.35 30.48 29.99 33.03 35.61 34.18 33.62 33.17 37.00 38.86 38.42 38.87 38.33 36.80 37.71 39.55 41.85 44.61 46.69 49.19 53.05 55.20 57.26 58.01 59.36 60.00 61.25 60.31 59.64 60.18 61.28 62.27 61.37 62.08 63.22 63.84 64.12 62.56 61.72 62.13 61.42 61.09 60.74 60.00 59.82 59.36 57.97 57.85 57.91
32.40 31.44 31.62 31.21 34.20 36.66 34.94 30.55 33.27 37.46 38.82 38.85 38.01 38.58 39.69 41.23 41.98 43.10 45.52 49.38 52.80 54.97 56.47 57.79 59.58 59.00 59.87 59.93 60.18 60.39 61.42 60.98 61.31 61.12 61.55 61.89 63.21 62.80 62.56 62.79 62.52 61.61 61.34 60.59 60.07 59.67 58.59 56.82 57.90
30.22 35.22 35.82 34.35 33.32 26.79 33.97 23.92 29.12 33.93 36.04 37.52 37.76 37.92 39.00 40.25 43.12 44.90 47.50 50.33 53.57 55.47 56.78 57.76 59.17 58.52 58.89 59.48 59.60 59.48 58.28 58.60 59.74 60.82 61.67 61.80 62.45 62.50 63.23 63.29 62.86 62.23 62.06 60.74 60.77 60.30 59.08 59.25 57.82
32.62 37.67 35.95 34.86 33.30 30.87 31.58 28.62 28.75 34.09 33.43 36.02 37.80 37.96 40.88 41.45 43.10 45.44 49.14 51.62 53.22 55.51 56.74 57.66 58.26 58.69 58.96 59.73 59.81 59.57 57.50 59.04 59.83 60.51 60.22 60.54 61.19 61.87 62.24 62.60 62.75 62.65 62.56 61.55 60.79 59.92 59.41 59.23 58.53
39.13 36.64 35.85 34.80 33.43 25.93 28.96 30.05 22.17 32.47 36.00 37.63 38.25 39.63 42.74 42.55 47.39 50.03 51.85 52.93 52.73 54.00 55.32 56.84 57.90 58.59 60.05 60.07 60.30 59.90 58.22 58.85 58.92 59.54 59.31 59.29 59.77 60.09 61.02 61.11 60.57 60.41 60.53 59.77 59.60 59.53 59.35 59.32 59.21
37.67 34.61 21.91 20.34 21.49 22.62 34.50 31.45 29.28 36.28 37.13 40.89 39.44 43.18 47.20 48.33 49.02 51.77 52.09 51.97 53.94 53.96 55.81 56.97 58.15 58.47 59.80 60.33 60.10 60.36 58.99 59.43 59.25 59.18 59.20 58.90 58.86 59.00 59.47 60.36 60.46 60.07 59.89 60.00 59.89 59.21 58.82 59.05 59.11
34.85 33.97 27.12 19.75 17.98 24.06 33.96 27.37 31.51 37.26 43.94 45.74 46.27 46.77 47.54 48.27 48.69 49.78 50.37 51.73 52.59 53.53 56.72 57.92 57.55 57.84 57.85 58.59 59.61 60.20 60.17 59.65 59.60 59.65 59.63 59.40 59.06 59.41 59.94 60.02 60.34 60.09 59.92 59.67 59.42 58.81 58.58 57.83 58.16
35.42 33.24 37.43 30.48 31.03 27.94 29.83 32.14 35.36 36.95 40.94 43.67 44.31 45.48 45.89 46.52 46.91 48.07 49.29 50.29 50.75 51.67 52.52 53.64 54.23 54.08 54.78 56.22 58.41 59.21 59.74 59.16 59.20 59.61 59.44 59.50 59.64 59.92 59.75 59.91 59.48 59.52 59.53 59.51 58.74 58.85 58.98 58.50 58.47
36.83 39.06 31.39 31.48 24.05 23.45 27.96 28.98 26.86 31.65 34.75 41.12 42.04 43.02 43.37 44.39 44.31 45.18 46.02 46.74 48.15 49.04 49.80 50.48 51.22 51.20 51.90 52.62 53.43 53.99 56.00 58.64 59.42 59.42 59.00 59.04 59.24 59.80 59.81 59.52 59.30 58.83 58.78 58.87 59.27 59.47 59.23 58.65 58.67
35.85 34.54 35.63 34.74 29.34 24.50 23.71 27.39 33.83 33.55 36.04 39.14 40.18 42.15 42.15 41.76 42.11 42.74 43.46 44.06 44.81 45.61 46.20 46.99 48.32 49.09 49.25 49.59 49.74 49.63 50.31 52.55 54.09 55.20 56.33 57.80 58.58 58.63 58.56 58.85 58.78 58.58 58.40 58.98 59.23 59.18 59.09 58.46 58.48
38.01 35.58 34.25 27.32 26.67 26.18 26.63 28.20 37.26 38.23 38.76 39.80 39.47 40.93 40.84 41.38 41.64 41.97 42.42 43.08 43.37 43.73 44.33 44.38 45.19 46.18 47.59 48.18 47.89 47.38 47.63 47.87 47.95 48.29 49.48 50.98 52.29 53.11 52.99 53.54 55.23 55.97 56.41 56.79 57.08 57.37 57.57 57.56 57.04

GFSSGP_sfc_wetblb_114.txt.gz
Wetbulb
56.77 56.42 56.43 50.64 42.17 38.57 32.92 37.14 41.43 41.81 43.14 43.48 44.78 44.45 44.35 44.65 45.49 43.40 62.89 68.48 69.24 70.60 72.45 73.15 74.80 75.45 75.39 75.23 75.16 75.15 74.99 74.77 74.11 73.58 73.05 72.91 72.73 73.16 73.20 72.25 72.20 72.59 73.07 71.74 70.87 70.83 69.94 71.00 70.37
52.49 55.56 51.75 45.33 35.54 28.64 28.80 37.24 41.34 44.21 45.75 45.73 44.84 44.14 44.69 46.62 55.63 62.06 63.75 68.09 69.85 71.32 72.08 72.02 74.51 75.18 75.42 75.47 75.03 74.56 74.96 74.84 74.29 72.91 73.52 72.78 72.40 73.42 73.65 72.99 73.01 72.93 72.80 72.13 70.82 70.75 70.49 70.47 69.62
53.46 53.94 46.26 40.53 34.38 29.89 29.73 37.84 41.23 43.63 44.46 44.68 43.90 44.64 46.42 52.79 62.18 62.30 65.19 68.78 70.26 70.52 71.34 71.79 74.19 74.59 74.90 75.17 74.72 74.53 74.57 74.50 74.21 74.17 74.28 73.79 73.00 73.82 73.56 73.38 73.24 72.76 71.99 71.03 71.21 70.92 70.64 68.78 69.07
50.06 48.55 44.90 36.98 34.12 36.47 35.10 39.13 41.80 41.46 43.58 44.12 43.55 41.39 46.62 57.41 59.03 64.42 67.62 68.97 69.46 69.25 70.39 72.65 73.93 74.18 74.16 74.54 74.98 74.79 74.33 73.96 73.91 73.87 73.25 73.83 74.02 73.93 73.25 72.93 72.47 71.65 71.07 70.71 70.75 70.69 69.52 68.67 69.17
47.54 42.14 34.76 31.84 33.90 37.60 38.58 41.82 40.94 39.73 40.53 40.95 41.46 41.47 42.48 51.85 57.79 64.24 66.37 69.22 68.82 70.17 69.73 72.15 73.96 74.16 73.91 73.71 74.18 74.81 74.81 74.63 74.20 73.86 73.50 73.39 73.49 73.34 72.90 72.47 71.87 71.49 70.92 70.18 70.45 69.99 68.15 68.98 68.98
41.95 39.96 28.66 27.34 31.31 37.13 38.93 42.00 39.32 38.66 38.19 40.52 39.13 40.17 42.21 48.93 54.98 62.23 65.58 67.65 69.30 70.18 71.25 71.75 72.68 73.59 73.82 73.62 73.22 73.79 74.62 74.75 74.41 74.20 73.84 73.56 73.49 72.79 72.69 71.75 71.42 70.47 69.99 69.82 69.59 68.53 68.06 68.77 68.74
39.03 34.34 29.77 29.88 31.40 34.41 37.66 40.15 37.78 37.43 36.02 38.30 39.33 37.07 42.16 45.52 48.44 62.49 65.13 66.12 67.45 69.26 69.73 69.65 70.93 71.81 72.06 73.01 73.25 72.64 73.77 74.15 73.95 73.65 73.56 72.59 71.82 72.08 72.45 71.59 70.93 69.98 69.39 68.76 68.53 67.85 68.60 68.60 68.28
40.63 35.88 30.82 31.25 31.62 32.32 36.97 38.66 38.88 37.19 36.05 41.40 40.00 36.25 38.39 44.00 48.42 57.83 63.13 64.52 64.73 66.24 66.87 67.20 68.46 69.52 69.27 69.60 71.58 71.82 71.91 72.66 72.88 72.31 71.70 70.38 69.76 70.23 71.52 70.51 70.44 70.61 69.70 69.47 69.23 68.81 68.49 68.66 68.17
40.25 31.57 28.11 30.54 33.16 33.68 36.77 36.42 39.77 41.06 37.74 38.32 40.26 39.10 44.75 45.67 48.88 52.06 57.95 61.22 63.38 64.24 64.83 64.78 65.64 66.90 67.44 67.03 68.20 69.73 70.87 70.69 70.48 70.21 68.63 67.99 69.15 69.51 68.80 68.69 69.14 69.69 69.54 69.70 69.29 69.15 69.05 68.29 67.01
34.45 28.07 29.76 34.68 34.84 32.95 36.72 36.80 37.54 37.41 36.67 35.92 39.18 42.86 43.59 44.71 45.17 46.11 49.32 55.03 59.10 61.89 63.18 63.17 63.29 63.36 64.11 63.95 64.58 66.74 68.25 68.08 68.32 68.51 68.14 68.19 68.27 68.69 69.28 67.29 67.90 69.43 69.39 69.51 69.67 69.42 69.08 66.15 61.34
34.88 29.99 34.30 36.48 38.10 38.57 36.68 35.95 38.05 35.39 34.02 36.56 37.07 38.86 41.46 43.03 43.89 44.53 45.86 50.80 56.49 59.59 62.65 62.44 62.13 61.40 61.66 61.26 61.04 63.73 65.92 67.24 67.20 66.99 66.95 67.26 67.90 67.58 68.00 67.70 67.97 68.03 66.58 67.37 67.89 67.35 64.26 60.95 59.15
29.96 36.21 36.91 37.74 39.08 38.38 35.95 37.72 36.16 36.30 36.10 39.96 41.05 41.91 41.15 41.22 42.21 43.58 44.44 46.63 49.43 56.78 60.09 62.36 62.15 60.90 60.41 61.86 60.09 60.89 63.82 66.89 67.58 67.18 67.09 65.43 64.88 65.72 64.98 66.00 65.73 66.43 66.89 65.71 64.52 64.68 61.56 59.49 57.59
32.31 34.56 38.05 38.95 38.67 38.14 39.06 36.40 36.04 36.56 40.79 41.87 42.34 42.59 41.12 41.18 42.10 43.48 45.01 46.68 48.34 55.41 59.41 61.12 61.61 60.16 61.09 60.42 60.90 59.83 59.61 62.86 65.94 67.55 67.48 65.93 65.20 65.49 64.50 64.09 64.24 64.29 65.11 64.82 64.18 62.21 60.80 58.20 57.00
34.53 36.18 36.53 37.85 37.77 38.48 36.46 35.94 36.08 37.34 39.07 40.02 41.06 40.69 40.44 40.60 41.53 42.85 44.37 45.15 47.09 54.43 57.53 60.01 60.84 60.40 60.87 60.04 59.47 59.17 59.05 60.71 63.48 65.42 66.66 66.82 65.96 65.43 64.58 64.78 65.00 63.84 64.28 63.80 63.65 61.58 59.42 58.22 56.90
36.75 32.28 34.31 35.06 36.77 36.19 38.50 33.12 33.73 38.78 38.32 38.47 39.78 40.99 41.98 41.99 42.23 42.21 44.64 45.01 46.56 50.44 56.57 58.18 60.44 60.87 60.28 60.43 60.31 59.44 59.36 61.73 62.91 64.24 66.08 66.05 65.45 64.94 64.88 64.84 64.98 64.91 64.91 63.77 62.36 61.48 59.21 57.73 57.03
31.23 29.55 25.05 32.70 36.67 37.80 36.01 28.42 35.47 37.73 36.89 36.84 38.74 40.75 41.23 41.63 41.96 43.27 44.18 45.35 47.46 49.75 54.53 57.45 59.82 60.60 60.32 60.32 59.70 59.35 59.06 59.10 62.48 65.51 64.49 65.63 66.05 65.84 65.16 64.40 64.77 65.14 64.57 63.53 62.52 61.09 58.85 57.51 56.36
27.33 19.69 24.47 29.16 36.13 36.05 33.98 29.92 35.94 38.41 37.89 37.78 39.03 39.61 40.55 41.73 41.62 42.48 43.95 44.92 46.40 47.39 50.50 55.64 57.98 58.71 59.13 58.98 58.63 58.51 58.79 58.54 59.08 63.90 65.18 65.40 65.60 65.91 65.21 64.72 64.50 64.08 63.81 62.91 62.30 60.29 59.66 57.25 56.41
21.30 22.65 27.41 27.13 32.05 34.06 32.28 31.84 36.16 38.72 38.12 37.04 38.47 39.28 39.87 39.94 41.25 42.78 43.74 45.07 45.51 46.06 50.61 54.67 57.55 58.31 58.68 58.96 58.96 59.26 60.01 59.55 59.34 60.81 64.36 65.04 65.23 65.70 65.47 65.01 64.18 63.45 62.80 61.51 61.00 60.18 58.53 57.81 57.25
30.78 29.62 28.68 31.99 34.77 33.58 31.44 31.94 34.88 38.36 38.04 36.91 38.20 39.00 39.15 40.00 42.55 42.85 44.02 45.11 45.83 47.59 50.51 55.17 56.47 57.76 59.79 59.94 59.55 59.52 59.95 60.70 61.16 61.07 63.42 64.35 64.50 64.51 64.35 64.09 63.50 63.00 62.09 61.01 60.53 59.37 58.53 57.08 56.73
30.92 29.31 27.21 31.69 34.67 32.78 32.37 32.29 36.37 38.19 38.30 38.29 38.15 38.33 38.35 39.12 40.31 42.74 44.32 45.35 46.42 47.60 50.80 54.54 57.05 58.14 59.55 60.01 60.27 61.06 61.28 61.51 61.60 61.45 63.03 64.30 64.14 63.99 63.79 63.06 61.68 62.04 61.66 60.85 59.97 59.26 57.90 57.87 57.02
29.01 27.56 28.17 29.93 33.90 34.73 33.35 28.69 31.07 35.58 38.28 38.67 38.72 38.01 38.20 38.25 39.38 42.20 43.96 44.36 45.99 48.19 50.88 55.01 57.38 58.96 59.93 60.39 60.80 61.29 61.33 60.71 60.47 61.14 61.84 63.16 63.93 63.42 62.67 61.70 61.50 61.22 61.56 60.77 60.71 59.58 58.74 56.80 56.65
27.34 33.44 33.63 33.75 32.38 27.54 34.26 23.27 28.21 32.88 35.06 36.73 37.36 37.22 38.19 39.65 41.45 42.41 44.42 45.09 46.50 49.35 52.13 55.43 57.69 59.22 59.26 59.47 60.02 59.70 57.85 57.55 58.75 61.26 61.58 61.63 63.28 63.03 61.02 60.53 59.85 60.41 61.18 60.72 60.60 60.23 59.42 58.55 56.59
31.70 35.93 34.47 33.94 33.00 31.59 30.43 27.86 27.80 34.10 33.00 36.58 38.88 38.79 39.13 40.52 42.43 42.91 44.79 47.11 50.05 52.00 53.24 55.77 57.55 58.56 58.09 59.35 60.22 59.07 56.75 57.21 57.93 59.21 60.40 60.25 61.36 62.20 61.96 61.00 60.34 60.54 61.66 61.25 60.83 59.59 58.81 59.08 58.03
37.04 34.99 34.61 33.35 33.95 25.03 27.64 29.55 25.52 33.16 34.59 36.81 40.01 40.80 43.16 44.47 44.22 45.14 48.74 50.66 51.51 51.75 54.73 55.61 56.94 58.08 57.53 58.11 58.64 57.96 57.04 57.06 58.00 58.26 59.43 59.65 60.32 61.18 62.05 62.31 62.54 62.47 62.03 61.53 60.69 59.48 59.16 59.01 58.73
35.62 34.10 20.77 17.42 22.92 20.66 33.84 31.51 31.46 36.26 37.40 42.02 43.07 45.37 47.27 48.23 47.82 48.72 49.63 50.27 50.74 51.07 54.22 55.71 56.50 57.32 58.27 57.82 57.65 58.67 57.97 56.78 57.42 58.45 59.44 58.94 59.10 59.28 59.96 60.48 60.36 60.16 60.21 59.77 59.33 58.94 58.77 58.68 58.51
35.19 34.00 26.57 16.48 17.86 23.58 33.30 25.48 31.06 38.16 39.95 44.97 45.90 45.97 46.22 46.41 45.86 48.24 49.05 51.22 52.02 53.18 53.20 55.29 56.25 57.25 58.25 59.17 59.24 59.81 59.98 58.84 59.37 59.54 59.75 59.46 59.19 59.45 59.83 59.91 60.06 59.91 59.73 59.52 59.37 58.94 58.39 58.28 58.34
35.18 33.05 37.07 30.76 30.01 27.09 29.47 32.32 36.60 36.96 37.26 42.07 42.53 43.60 43.50 43.63 44.22 44.28 45.37 48.57 50.52 51.24 53.28 55.56 55.06 55.28 56.96 58.22 58.92 58.93 59.36 59.11 59.19 59.63 59.81 59.17 59.10 59.48 59.70 59.80 59.43 59.55 59.51 59.43 59.07 58.59 58.26 58.17 58.34
36.79 39.03 31.60 31.67 23.47 22.71 27.97 28.15 26.82 30.97 33.34 37.37 40.19 40.52 41.41 42.41 42.70 43.57 44.28 45.42 47.31 48.35 50.18 51.18 51.56 51.93 52.70 52.87 53.26 54.11 56.20 58.60 59.23 59.17 58.77 58.87 59.06 59.21 59.34 59.06 59.23 58.92 59.09 59.17 58.42 58.49 58.89 58.64 58.79
36.15 34.70 35.54 35.07 30.39 24.82 23.19 26.53 33.40 32.16 35.10 36.08 39.29 39.81 40.35 41.05 41.75 42.47 43.50 44.77 45.54 46.17 46.70 48.16 49.22 48.92 48.86 49.08 49.06 49.18 49.51 50.57 51.54 52.26 53.18 54.93 55.66 56.12 56.43 57.17 58.36 58.36 57.88 57.91 57.89 57.81 57.93 58.35 58.53
37.19 35.20 34.83 27.02 27.28 27.23 26.87 28.23 38.74 37.84 38.92 39.37 38.90 39.74 40.63 40.98 41.06 41.43 42.10 43.08 43.62 44.15 44.75 44.97 45.61 45.68 46.09 46.63 46.38 46.21 46.70 47.06 47.10 47.24 47.82 48.87 49.55 50.30 49.93 50.27 50.99 51.75 52.84 54.02 54.48 54.45 55.00 55.26 55.68

GFSSGP_sfc_wetblb_117.txt.gz
Wetbulb
56.86 58.72 58.67 54.11 45.92 43.16 38.48 39.89 47.20 45.95 47.19 49.06 48.63 48.49 48.95 50.08 49.14 49.37 66.93 69.18 70.74 71.80 73.96 74.16 75.58 75.20 75.38 75.12 75.37 75.12 74.99 74.68 74.58 74.48 73.59 73.11 72.41 72.53 72.58 71.91 71.92 72.95 71.69 71.15 71.60 71.61 70.64 70.89 70.35
55.51 57.31 55.41 48.13 40.82 35.16 35.79 42.20 44.22 47.60 48.83 48.88 48.16 48.55 48.80 50.03 60.37 64.39 66.80 69.47 70.84 72.53 73.88 73.47 75.30 75.38 75.31 75.01 74.87 74.83 74.86 74.62 74.17 74.10 73.49 72.79 72.92 73.34 72.63 72.66 72.85 73.20 72.83 72.09 71.89 70.46 70.25 70.05 70.00
55.96 55.14 50.66 43.87 38.54 34.77 35.53 40.42 45.29 46.94 46.98 47.18 46.96 48.65 50.33 52.41 57.91 63.11 66.53 69.37 71.46 72.51 73.32 73.27 74.89 75.26 75.21 74.97 74.69 74.66 74.73 74.52 74.08 73.33 73.91 73.59 73.79 73.67 73.33 73.64 73.18 73.12 72.46 71.75 71.11 70.06 70.38 69.27 69.08
53.71 51.67 48.01 41.72 36.57 39.48 38.98 43.34 45.37 45.22 46.99 46.85 45.60 45.63 51.76 52.09 54.96 60.94 65.89 70.28 71.55 72.18 72.80 73.22 74.20 74.40 74.63 74.57 74.84 74.72 74.60 74.64 74.45 74.18 74.14 73.71 73.77 73.76 73.51 73.02 72.88 72.29 71.54 71.60 71.26 70.64 69.09 69.83 69.86
49.81 45.48 38.76 36.41 36.87 40.44 43.31 45.02 45.11 44.12 44.74 45.44 44.77 44.58 45.82 50.76 51.97 60.69 65.31 69.35 70.93 71.58 72.48 73.02 74.13 74.20 73.87 74.70 74.75 74.82 74.68 74.61 74.37 74.37 73.76 74.00 73.99 73.06 73.32 72.89 72.10 71.59 71.22 71.51 70.96 69.98 68.90 69.37 69.81
44.48 41.56 33.42 32.06 34.81 39.10 42.35 45.40 44.77 43.69 43.86 44.86 43.90 44.13 46.30 50.80 50.92 56.76 66.02 66.03 70.33 70.98 71.98 72.73 72.43 73.12 73.63 73.40 73.67 74.15 74.54 74.40 74.32 74.14 74.17 73.97 73.84 73.03 72.55 72.50 71.84 71.28 70.90 70.74 70.58 69.38 69.03 69.13 69.17
41.49 36.99 32.76 32.31 34.13 37.24 40.54 42.45 43.13 43.01 42.06 43.57 44.35 42.84 46.92 48.87 50.65 55.90 64.28 66.29 66.94 69.94 71.04 72.03 72.41 72.21 72.40 72.75 72.64 73.07 73.46 73.51 73.46 73.39 73.32 72.81 72.53 72.51 72.16 72.10 71.76 71.14 70.54 70.47 70.36 68.94 69.22 69.07 68.98
43.00 39.02 34.38 34.94 34.13 35.58 39.79 41.24 41.64 41.82 42.03 44.58 44.97 42.34 44.10 48.09 50.32 54.06 58.58 64.54 66.12 66.22 67.41 69.50 71.53 72.08 72.49 72.68 71.45 71.37 71.73 72.13 72.46 72.35 71.37 70.65 69.80 70.22 71.46 70.61 70.68 70.82 70.53 70.30 69.78 69.34 69.55 69.16 68.93
43.38 34.73 31.81 33.52 34.70 36.53 39.79 39.45 42.31 43.74 42.07 42.98 44.13 43.99 47.53 47.82 49.87 51.54 52.60 55.75 62.51 65.31 65.31 65.59 67.35 70.41 71.12 71.39 71.06 69.82 70.21 70.52 70.80 70.91 69.26 69.44 71.80 71.54 70.86 68.95 68.97 69.85 69.63 69.58 69.34 69.33 69.64 68.72 67.50
38.13 32.15 33.00 37.18 38.45 37.11 38.93 39.38 39.94 40.37 40.12 40.84 42.57 45.85 47.23 47.06 47.29 48.08 49.56 51.12 53.64 58.17 64.01 64.68 64.59 66.21 68.46 69.00 70.16 71.00 71.29 71.81 72.59 72.39 72.31 72.03 71.77 71.45 70.75 67.98 67.81 69.42 69.11 69.07 69.52 69.37 69.13 67.18 66.52
37.11 32.72 35.95 37.83 39.50 39.72 38.20 37.91 40.20 38.74 36.91 39.95 40.80 43.19 44.48 45.53 46.59 47.05 48.02 49.43 51.22 55.07 60.74 64.63 64.08 63.82 64.48 65.91 67.44 69.14 70.04 70.04 71.28 71.31 70.91 71.44 71.19 70.86 70.74 70.30 69.70 69.32 66.64 68.24 68.52 68.48 67.71 66.66 65.29
33.85 37.15 37.98 38.57 39.72 38.94 37.39 39.66 38.18 38.55 39.85 42.97 42.99 43.62 44.01 44.23 44.52 46.12 47.39 48.82 50.71 52.91 55.58 62.25 64.75 63.70 63.84 64.19 64.57 66.96 67.51 69.56 70.21 70.21 70.29 70.17 70.08 70.14 69.76 69.57 69.04 69.11 68.77 67.75 68.17 67.96 67.66 65.96 63.57
34.65 35.88 38.29 39.59 39.22 38.82 39.43 37.50 37.69 38.11 42.17 43.48 43.34 43.45 43.25 44.20 45.08 46.20 47.14 48.02 49.58 50.92 54.83 60.35 63.87 64.35 63.86 63.63 63.80 63.01 64.11 67.75 69.52 69.94 69.82 69.19 68.89 69.11 68.55 68.96 68.00 68.79 68.68 67.69 67.43 67.55 66.78 64.66 62.35
36.59 36.94 37.25 38.34 38.32 39.07 37.19 37.34 37.64 39.57 41.66 41.56 41.96 42.58 43.31 43.78 44.88 45.97 46.06 47.26 47.96 49.98 53.72 59.38 62.62 63.86 63.63 63.56 63.49 62.47 62.00 63.43 65.69 68.86 69.49 69.07 68.70 68.40 67.93 67.47 66.39 67.95 68.51 67.56 67.23 66.49 65.67 63.81 62.75
37.40 33.48 35.07 36.23 37.80 36.79 39.22 34.93 35.33 40.88 40.55 40.16 41.28 42.31 43.39 44.23 45.28 44.75 46.94 47.26 48.52 49.67 52.39 56.82 61.18 63.25 62.70 63.06 63.49 62.75 62.18 62.86 63.92 65.21 66.97 67.65 66.54 66.85 67.16 67.21 67.31 66.83 67.89 66.35 65.74 66.37 65.37 63.05 62.23
32.56 31.52 28.45 34.66 37.36 38.79 37.57 31.70 37.47 40.12 39.19 39.47 40.82 42.05 43.06 44.71 45.03 46.36 46.92 47.55 48.98 49.51 51.10 56.12 59.81 62.40 62.82 62.94 63.13 63.09 62.60 63.04 64.03 65.48 65.75 66.01 66.96 66.34 65.75 66.21 67.03 67.59 65.76 66.60 63.97 63.43 64.03 61.75 61.17
29.43 25.79 27.44 30.76 36.60 36.56 35.84 32.24 37.46 41.08 40.56 39.63 40.74 41.68 42.52 43.56 44.51 45.51 46.90 47.54 48.15 49.00 50.17 52.87 57.35 60.17 62.16 62.76 62.94 62.45 62.30 62.21 62.19 63.40 65.43 65.71 66.08 67.26 66.47 66.12 66.63 66.81 65.40 65.80 64.51 62.03 63.18 61.45 61.02
25.56 25.86 28.13 28.48 33.46 34.96 33.31 32.73 37.14 39.46 39.42 39.23 40.42 41.12 41.73 42.57 44.02 46.39 46.46 47.42 47.91 48.78 49.53 51.35 54.96 57.90 60.44 61.79 61.90 61.90 61.65 61.81 61.88 61.68 63.48 65.16 66.11 66.43 66.52 67.01 65.79 66.21 65.81 64.66 64.13 62.11 61.49 61.59 60.91
30.58 28.93 27.79 31.06 35.12 33.17 32.46 33.22 36.33 39.43 39.83 39.37 40.23 40.58 41.27 42.44 45.28 46.29 46.22 47.33 47.62 48.37 48.64 49.67 52.41 56.71 59.42 59.72 59.63 59.70 59.90 61.44 61.97 62.02 62.35 63.84 65.31 65.69 66.44 66.61 65.37 65.22 64.15 63.59 63.09 61.76 60.66 60.24 61.53
30.28 28.44 28.08 31.82 34.91 33.64 33.52 33.54 37.47 38.91 39.08 39.91 40.15 40.52 41.11 41.87 43.12 44.59 45.65 46.27 47.26 47.94 48.79 50.20 53.07 56.04 59.01 61.00 61.35 61.80 61.64 62.25 62.75 63.14 62.48 63.51 64.43 65.22 65.21 65.26 64.65 64.00 63.41 62.46 61.63 61.08 59.33 59.92 59.85
29.74 28.30 28.31 29.36 33.59 36.19 34.29 31.58 32.53 37.27 39.92 40.34 41.28 41.42 41.70 41.67 42.10 43.68 44.79 46.83 48.07 48.03 49.08 50.18 52.80 56.55 58.98 60.47 60.36 61.40 62.54 62.83 62.15 62.37 62.17 63.22 64.30 64.48 64.29 64.22 63.96 63.84 63.15 62.78 62.28 61.49 60.28 58.68 59.24
27.87 32.86 32.54 32.04 32.90 27.55 35.55 25.85 31.18 35.14 36.66 38.83 41.04 41.96 42.64 42.58 43.44 44.23 45.76 46.41 47.86 48.54 50.11 51.58 54.10 56.63 59.30 60.37 59.39 59.07 59.40 58.68 60.42 62.01 62.28 63.21 64.34 63.90 63.82 63.68 63.66 63.26 63.38 62.17 62.29 61.44 60.85 59.82 58.29
31.60 36.54 34.54 34.16 32.90 32.23 31.36 29.08 30.40 36.18 35.08 36.68 39.63 41.91 43.76 43.99 44.86 45.21 46.70 47.33 49.63 50.91 51.18 52.86 55.16 57.25 59.15 59.34 59.16 59.21 58.18 59.19 60.92 61.90 62.16 62.49 63.14 63.54 62.79 62.33 61.47 61.48 61.89 61.33 61.17 60.11 59.86 60.05 58.80
36.71 34.85 34.24 33.96 32.11 26.87 29.35 29.16 28.22 33.53 34.92 36.87 40.38 45.15 46.54 46.19 46.32 48.42 49.81 49.02 51.65 53.49 53.86 54.85 56.09 57.30 58.69 58.37 58.64 58.74 58.27 58.78 59.05 60.42 60.36 60.95 61.78 62.49 62.32 61.95 61.72 61.05 60.78 60.41 61.45 60.31 60.23 60.50 59.94
36.04 33.25 21.54 19.68 24.91 21.73 31.70 31.56 31.94 36.17 37.69 39.28 43.50 43.56 45.37 45.35 44.82 45.22 48.80 51.30 52.43 52.83 53.68 54.66 56.08 56.66 57.34 58.16 58.65 58.68 59.16 59.48 59.64 59.77 59.59 59.51 60.20 60.48 61.37 61.91 60.95 60.43 60.32 60.72 60.82 59.91 59.76 60.25 59.46
34.71 33.71 24.55 17.72 19.85 23.21 32.90 26.13 31.26 37.12 39.22 40.75 42.32 42.53 43.49 44.75 44.05 44.34 45.29 51.39 51.83 52.07 53.23 54.05 55.42 56.63 57.45 58.16 58.82 59.95 60.17 60.06 59.86 60.20 60.36 60.80 60.60 60.65 61.53 61.15 60.66 60.73 60.73 60.47 60.28 59.96 59.53 59.12 59.38
35.28 32.51 36.76 30.77 30.64 26.84 28.98 32.27 36.88 36.89 36.66 39.24 39.92 41.02 41.11 42.65 42.93 43.75 45.59 47.87 48.65 50.97 52.33 54.93 55.85 57.11 58.10 58.60 59.61 58.97 59.59 60.08 58.81 59.67 60.66 59.72 59.66 60.02 60.11 60.24 59.98 60.01 59.90 59.63 59.30 58.84 58.80 58.99 59.21
37.46 39.07 31.97 31.84 22.95 20.87 27.27 27.83 27.99 31.43 33.52 36.39 38.68 39.26 40.43 41.66 41.87 42.76 44.00 45.29 46.20 47.92 49.77 50.39 50.96 51.36 51.92 51.14 53.23 52.63 51.55 55.27 57.06 57.26 58.24 58.46 58.94 59.18 59.13 59.37 59.57 59.54 59.54 59.40 59.00 58.65 58.55 58.40 58.56
36.00 34.30 35.02 34.88 31.80 25.11 23.06 25.03 34.38 33.49 36.14 36.82 38.51 40.00 40.41 40.62 40.95 41.99 43.45 44.33 45.24 46.01 46.66 46.77 47.00 47.56 47.84 48.24 48.05 48.10 48.37 49.03 49.61 50.06 51.13 52.11 52.40 52.89 53.29 53.63 54.37 55.65 56.51 57.24 58.15 58.22 58.13 57.86 58.00
38.08 35.67 35.20 28.74 28.64 28.88 27.41 28.59 39.49 39.22 39.34 39.21 39.19 39.81 40.64 41.13 41.00 41.47 42.22 42.96 43.63 43.92 44.26 45.06 45.45 45.19 45.81 46.15 46.03 46.13 46.59 46.87 46.59 46.63 47.17 47.89 47.51 48.23 48.70 48.98 49.02 49.13 49.78 50.64 51.22 51.88 52.41 52.76 52.76